<?xml version="1.0" encoding="UTF-8" standalone="no" ?>
<gpx xmlns="http://www.topografix.com/GPX/1/1" xmlns:xsi="http://www.w3.org/2001/XMLSchema-instance" xsi:schemaLocation="http://www.topografix.com/GPX/1/1 http://www.topografix.com/GPX/1/1/gpx.xsd" version="1.1" creator="VisuGPX - https://www.visugpx.com">
  <metadata>
    <name>Entre-Deux-Monts-Beaune</name>
    <desc><![CDATA[Chemin de Compostelle 2014-1 : Entre-Deux-Monts-Beaune]]></desc>
  </metadata>
  <trk>
    <name><![CDATA[18 Entre-Deux-Monts Beaune]]></name>
    <trkseg>
      <trkpt lat="47.18051" lon="4.92574">
        <ele>403</ele>
        <time>2014-04-25T06:36:47Z</time>
      </trkpt>
      <trkpt lat="47.18046" lon="4.92575">
        <ele>403</ele>
        <time>2014-04-25T06:36:54Z</time>
      </trkpt>
      <trkpt lat="47.1804" lon="4.92573">
        <ele>403</ele>
        <time>2014-04-25T06:36:58Z</time>
      </trkpt>
      <trkpt lat="47.18035" lon="4.92573">
        <ele>403</ele>
        <time>2014-04-25T06:37:01Z</time>
      </trkpt>
      <trkpt lat="47.1803" lon="4.92571">
        <ele>403</ele>
        <time>2014-04-25T06:37:06Z</time>
      </trkpt>
      <trkpt lat="47.18025" lon="4.92571">
        <ele>403</ele>
        <time>2014-04-25T06:37:10Z</time>
      </trkpt>
      <trkpt lat="47.18019" lon="4.92572">
        <ele>402</ele>
        <time>2014-04-25T06:37:15Z</time>
      </trkpt>
      <trkpt lat="47.18014" lon="4.9257">
        <ele>402</ele>
        <time>2014-04-25T06:37:19Z</time>
      </trkpt>
      <trkpt lat="47.18009" lon="4.9257">
        <ele>402</ele>
        <time>2014-04-25T06:37:22Z</time>
      </trkpt>
      <trkpt lat="47.18004" lon="4.92569">
        <ele>402</ele>
        <time>2014-04-25T06:37:26Z</time>
      </trkpt>
      <trkpt lat="47.17999" lon="4.92571">
        <ele>401</ele>
        <time>2014-04-25T06:37:30Z</time>
      </trkpt>
      <trkpt lat="47.17994" lon="4.92573">
        <ele>401</ele>
        <time>2014-04-25T06:37:34Z</time>
      </trkpt>
      <trkpt lat="47.1799" lon="4.92576">
        <ele>401</ele>
        <time>2014-04-25T06:37:39Z</time>
      </trkpt>
      <trkpt lat="47.17985" lon="4.9258">
        <ele>401</ele>
        <time>2014-04-25T06:37:45Z</time>
      </trkpt>
      <trkpt lat="47.17981" lon="4.92583">
        <ele>401</ele>
        <time>2014-04-25T06:37:49Z</time>
      </trkpt>
      <trkpt lat="47.17976" lon="4.92585">
        <ele>402</ele>
        <time>2014-04-25T06:37:53Z</time>
      </trkpt>
      <trkpt lat="47.17972" lon="4.92588">
        <ele>402</ele>
        <time>2014-04-25T06:37:58Z</time>
      </trkpt>
      <trkpt lat="47.17968" lon="4.92592">
        <ele>402</ele>
        <time>2014-04-25T06:38:02Z</time>
      </trkpt>
      <trkpt lat="47.17962" lon="4.92595">
        <ele>402</ele>
        <time>2014-04-25T06:38:06Z</time>
      </trkpt>
      <trkpt lat="47.17958" lon="4.92598">
        <ele>402</ele>
        <time>2014-04-25T06:38:10Z</time>
      </trkpt>
      <trkpt lat="47.17954" lon="4.92601">
        <ele>401</ele>
        <time>2014-04-25T06:38:15Z</time>
      </trkpt>
      <trkpt lat="47.17949" lon="4.92603">
        <ele>401</ele>
        <time>2014-04-25T06:38:19Z</time>
      </trkpt>
      <trkpt lat="47.17945" lon="4.92605">
        <ele>401</ele>
        <time>2014-04-25T06:38:22Z</time>
      </trkpt>
      <trkpt lat="47.1794" lon="4.92609">
        <ele>401</ele>
        <time>2014-04-25T06:38:25Z</time>
      </trkpt>
      <trkpt lat="47.17936" lon="4.92613">
        <ele>401</ele>
        <time>2014-04-25T06:38:29Z</time>
      </trkpt>
      <trkpt lat="47.17932" lon="4.92616">
        <ele>401</ele>
        <time>2014-04-25T06:38:33Z</time>
      </trkpt>
      <trkpt lat="47.17927" lon="4.92617">
        <ele>401</ele>
        <time>2014-04-25T06:38:38Z</time>
      </trkpt>
      <trkpt lat="47.17922" lon="4.92618">
        <ele>401</ele>
        <time>2014-04-25T06:38:43Z</time>
      </trkpt>
      <trkpt lat="47.17917" lon="4.9262">
        <ele>401</ele>
        <time>2014-04-25T06:38:47Z</time>
      </trkpt>
      <trkpt lat="47.17912" lon="4.92621">
        <ele>402</ele>
        <time>2014-04-25T06:38:50Z</time>
      </trkpt>
      <trkpt lat="47.17906" lon="4.9262">
        <ele>402</ele>
        <time>2014-04-25T06:38:53Z</time>
      </trkpt>
      <trkpt lat="47.17901" lon="4.92619">
        <ele>402</ele>
        <time>2014-04-25T06:38:57Z</time>
      </trkpt>
      <trkpt lat="47.17896" lon="4.92619">
        <ele>402</ele>
        <time>2014-04-25T06:39:02Z</time>
      </trkpt>
      <trkpt lat="47.17891" lon="4.92619">
        <ele>402</ele>
        <time>2014-04-25T06:39:06Z</time>
      </trkpt>
      <trkpt lat="47.17886" lon="4.92619">
        <ele>402</ele>
        <time>2014-04-25T06:39:09Z</time>
      </trkpt>
      <trkpt lat="47.17881" lon="4.92618">
        <ele>402</ele>
        <time>2014-04-25T06:39:13Z</time>
      </trkpt>
      <trkpt lat="47.17876" lon="4.92616">
        <ele>402</ele>
        <time>2014-04-25T06:39:16Z</time>
      </trkpt>
      <trkpt lat="47.17871" lon="4.92618">
        <ele>403</ele>
        <time>2014-04-25T06:39:20Z</time>
      </trkpt>
      <trkpt lat="47.17865" lon="4.92618">
        <ele>403</ele>
        <time>2014-04-25T06:39:24Z</time>
      </trkpt>
      <trkpt lat="47.17861" lon="4.92615">
        <ele>403</ele>
        <time>2014-04-25T06:39:30Z</time>
      </trkpt>
      <trkpt lat="47.17855" lon="4.92614">
        <ele>403</ele>
        <time>2014-04-25T06:39:34Z</time>
      </trkpt>
      <trkpt lat="47.1785" lon="4.92612">
        <ele>403</ele>
        <time>2014-04-25T06:39:39Z</time>
      </trkpt>
      <trkpt lat="47.17846" lon="4.92612">
        <ele>403</ele>
        <time>2014-04-25T06:39:43Z</time>
      </trkpt>
      <trkpt lat="47.17842" lon="4.9261">
        <ele>403</ele>
        <time>2014-04-25T06:39:47Z</time>
      </trkpt>
      <trkpt lat="47.17836" lon="4.92609">
        <ele>403</ele>
        <time>2014-04-25T06:39:54Z</time>
      </trkpt>
      <trkpt lat="47.17831" lon="4.92607">
        <ele>406</ele>
        <time>2014-04-25T06:39:58Z</time>
      </trkpt>
      <trkpt lat="47.17826" lon="4.92603">
        <ele>406</ele>
        <time>2014-04-25T06:40:03Z</time>
      </trkpt>
      <trkpt lat="47.17822" lon="4.92601">
        <ele>406</ele>
        <time>2014-04-25T06:40:06Z</time>
      </trkpt>
      <trkpt lat="47.17817" lon="4.92601">
        <ele>406</ele>
        <time>2014-04-25T06:40:09Z</time>
      </trkpt>
      <trkpt lat="47.17811" lon="4.92602">
        <ele>407</ele>
        <time>2014-04-25T06:40:12Z</time>
      </trkpt>
      <trkpt lat="47.17806" lon="4.92603">
        <ele>407</ele>
        <time>2014-04-25T06:40:16Z</time>
      </trkpt>
      <trkpt lat="47.178" lon="4.92601">
        <ele>408</ele>
        <time>2014-04-25T06:40:34Z</time>
      </trkpt>
      <trkpt lat="47.17796" lon="4.92601">
        <ele>408</ele>
        <time>2014-04-25T06:40:37Z</time>
      </trkpt>
      <trkpt lat="47.17791" lon="4.92601">
        <ele>408</ele>
        <time>2014-04-25T06:40:40Z</time>
      </trkpt>
      <trkpt lat="47.17786" lon="4.92601">
        <ele>409</ele>
        <time>2014-04-25T06:40:43Z</time>
      </trkpt>
      <trkpt lat="47.17781" lon="4.92601">
        <ele>409</ele>
        <time>2014-04-25T06:40:47Z</time>
      </trkpt>
      <trkpt lat="47.17775" lon="4.92603">
        <ele>409</ele>
        <time>2014-04-25T06:40:52Z</time>
      </trkpt>
      <trkpt lat="47.1777" lon="4.92603">
        <ele>410</ele>
        <time>2014-04-25T06:40:57Z</time>
      </trkpt>
      <trkpt lat="47.17765" lon="4.92604">
        <ele>410</ele>
        <time>2014-04-25T06:41:00Z</time>
      </trkpt>
      <trkpt lat="47.1776" lon="4.92605">
        <ele>410</ele>
        <time>2014-04-25T06:41:03Z</time>
      </trkpt>
      <trkpt lat="47.17755" lon="4.92604">
        <ele>410</ele>
        <time>2014-04-25T06:41:07Z</time>
      </trkpt>
      <trkpt lat="47.1775" lon="4.92606">
        <ele>410</ele>
        <time>2014-04-25T06:41:11Z</time>
      </trkpt>
      <trkpt lat="47.17742" lon="4.92608">
        <ele>413</ele>
        <time>2014-04-25T06:41:18Z</time>
      </trkpt>
      <trkpt lat="47.17738" lon="4.9261">
        <ele>413</ele>
        <time>2014-04-25T06:41:22Z</time>
      </trkpt>
      <trkpt lat="47.17729" lon="4.92603">
        <ele>413</ele>
        <time>2014-04-25T06:41:28Z</time>
      </trkpt>
      <trkpt lat="47.17723" lon="4.92598">
        <ele>413</ele>
        <time>2014-04-25T06:41:31Z</time>
      </trkpt>
      <trkpt lat="47.17718" lon="4.92595">
        <ele>413</ele>
        <time>2014-04-25T06:41:33Z</time>
      </trkpt>
      <trkpt lat="47.17713" lon="4.92593">
        <ele>413</ele>
        <time>2014-04-25T06:41:38Z</time>
      </trkpt>
      <trkpt lat="47.17709" lon="4.92592">
        <ele>413</ele>
        <time>2014-04-25T06:41:42Z</time>
      </trkpt>
      <trkpt lat="47.17704" lon="4.92593">
        <ele>413</ele>
        <time>2014-04-25T06:41:48Z</time>
      </trkpt>
      <trkpt lat="47.17699" lon="4.92595">
        <ele>413</ele>
        <time>2014-04-25T06:41:52Z</time>
      </trkpt>
      <trkpt lat="47.17693" lon="4.92595">
        <ele>413</ele>
        <time>2014-04-25T06:41:56Z</time>
      </trkpt>
      <trkpt lat="47.17688" lon="4.92596">
        <ele>413</ele>
        <time>2014-04-25T06:42:00Z</time>
      </trkpt>
      <trkpt lat="47.17683" lon="4.92599">
        <ele>413</ele>
        <time>2014-04-25T06:42:03Z</time>
      </trkpt>
      <trkpt lat="47.17679" lon="4.92604">
        <ele>413</ele>
        <time>2014-04-25T06:42:06Z</time>
      </trkpt>
      <trkpt lat="47.17676" lon="4.92608">
        <ele>413</ele>
        <time>2014-04-25T06:42:09Z</time>
      </trkpt>
      <trkpt lat="47.17671" lon="4.92612">
        <ele>413</ele>
        <time>2014-04-25T06:42:12Z</time>
      </trkpt>
      <trkpt lat="47.17667" lon="4.92616">
        <ele>414</ele>
        <time>2014-04-25T06:42:15Z</time>
      </trkpt>
      <trkpt lat="47.17657" lon="4.92617">
        <ele>414</ele>
        <time>2014-04-25T06:42:21Z</time>
      </trkpt>
      <trkpt lat="47.17648" lon="4.92623">
        <ele>415</ele>
        <time>2014-04-25T06:42:26Z</time>
      </trkpt>
      <trkpt lat="47.17643" lon="4.92627">
        <ele>415</ele>
        <time>2014-04-25T06:42:29Z</time>
      </trkpt>
      <trkpt lat="47.17639" lon="4.9263">
        <ele>415</ele>
        <time>2014-04-25T06:42:32Z</time>
      </trkpt>
      <trkpt lat="47.17634" lon="4.92632">
        <ele>415</ele>
        <time>2014-04-25T06:42:37Z</time>
      </trkpt>
      <trkpt lat="47.17625" lon="4.92633">
        <ele>415</ele>
        <time>2014-04-25T06:42:49Z</time>
      </trkpt>
      <trkpt lat="47.1762" lon="4.92638">
        <ele>415</ele>
        <time>2014-04-25T06:42:54Z</time>
      </trkpt>
      <trkpt lat="47.17615" lon="4.92642">
        <ele>415</ele>
        <time>2014-04-25T06:42:58Z</time>
      </trkpt>
      <trkpt lat="47.1761" lon="4.92644">
        <ele>416</ele>
        <time>2014-04-25T06:43:02Z</time>
      </trkpt>
      <trkpt lat="47.17601" lon="4.92646">
        <ele>416</ele>
        <time>2014-04-25T06:43:08Z</time>
      </trkpt>
      <trkpt lat="47.17596" lon="4.92648">
        <ele>416</ele>
        <time>2014-04-25T06:43:11Z</time>
      </trkpt>
      <trkpt lat="47.17591" lon="4.92651">
        <ele>416</ele>
        <time>2014-04-25T06:43:15Z</time>
      </trkpt>
      <trkpt lat="47.17586" lon="4.92653">
        <ele>416</ele>
        <time>2014-04-25T06:43:19Z</time>
      </trkpt>
      <trkpt lat="47.1758" lon="4.92655">
        <ele>416</ele>
        <time>2014-04-25T06:43:23Z</time>
      </trkpt>
      <trkpt lat="47.17575" lon="4.92655">
        <ele>416</ele>
        <time>2014-04-25T06:43:27Z</time>
      </trkpt>
      <trkpt lat="47.17569" lon="4.92656">
        <ele>415</ele>
        <time>2014-04-25T06:43:33Z</time>
      </trkpt>
      <trkpt lat="47.17564" lon="4.92656">
        <ele>415</ele>
        <time>2014-04-25T06:43:37Z</time>
      </trkpt>
      <trkpt lat="47.1756" lon="4.92659">
        <ele>415</ele>
        <time>2014-04-25T06:43:41Z</time>
      </trkpt>
      <trkpt lat="47.17555" lon="4.92661">
        <ele>415</ele>
        <time>2014-04-25T06:43:46Z</time>
      </trkpt>
      <trkpt lat="47.17551" lon="4.92663">
        <ele>415</ele>
        <time>2014-04-25T06:43:49Z</time>
      </trkpt>
      <trkpt lat="47.17546" lon="4.92665">
        <ele>415</ele>
        <time>2014-04-25T06:43:52Z</time>
      </trkpt>
      <trkpt lat="47.1754" lon="4.9267">
        <ele>415</ele>
        <time>2014-04-25T06:43:56Z</time>
      </trkpt>
      <trkpt lat="47.17531" lon="4.92679">
        <ele>415</ele>
        <time>2014-04-25T06:44:01Z</time>
      </trkpt>
      <trkpt lat="47.17527" lon="4.9268">
        <ele>415</ele>
        <time>2014-04-25T06:44:04Z</time>
      </trkpt>
      <trkpt lat="47.17521" lon="4.9268">
        <ele>415</ele>
        <time>2014-04-25T06:44:09Z</time>
      </trkpt>
      <trkpt lat="47.17517" lon="4.92683">
        <ele>415</ele>
        <time>2014-04-25T06:44:13Z</time>
      </trkpt>
      <trkpt lat="47.17512" lon="4.92685">
        <ele>415</ele>
        <time>2014-04-25T06:44:18Z</time>
      </trkpt>
      <trkpt lat="47.17507" lon="4.92689">
        <ele>415</ele>
        <time>2014-04-25T06:44:22Z</time>
      </trkpt>
      <trkpt lat="47.17501" lon="4.92688">
        <ele>414</ele>
        <time>2014-04-25T06:44:27Z</time>
      </trkpt>
      <trkpt lat="47.17495" lon="4.92688">
        <ele>412</ele>
        <time>2014-04-25T06:44:31Z</time>
      </trkpt>
      <trkpt lat="47.1749" lon="4.9269">
        <ele>412</ele>
        <time>2014-04-25T06:44:35Z</time>
      </trkpt>
      <trkpt lat="47.17485" lon="4.92693">
        <ele>412</ele>
        <time>2014-04-25T06:44:38Z</time>
      </trkpt>
      <trkpt lat="47.17479" lon="4.92697">
        <ele>412</ele>
        <time>2014-04-25T06:44:41Z</time>
      </trkpt>
      <trkpt lat="47.17474" lon="4.92698">
        <ele>412</ele>
        <time>2014-04-25T06:44:45Z</time>
      </trkpt>
      <trkpt lat="47.17468" lon="4.92698">
        <ele>412</ele>
        <time>2014-04-25T06:44:49Z</time>
      </trkpt>
      <trkpt lat="47.17463" lon="4.92698">
        <ele>412</ele>
        <time>2014-04-25T06:44:53Z</time>
      </trkpt>
      <trkpt lat="47.17458" lon="4.92697">
        <ele>411</ele>
        <time>2014-04-25T06:44:56Z</time>
      </trkpt>
      <trkpt lat="47.17452" lon="4.92696">
        <ele>411</ele>
        <time>2014-04-25T06:45:00Z</time>
      </trkpt>
      <trkpt lat="47.17447" lon="4.92693">
        <ele>411</ele>
        <time>2014-04-25T06:45:05Z</time>
      </trkpt>
      <trkpt lat="47.17442" lon="4.9269">
        <ele>411</ele>
        <time>2014-04-25T06:45:08Z</time>
      </trkpt>
      <trkpt lat="47.17437" lon="4.9269">
        <ele>411</ele>
        <time>2014-04-25T06:45:11Z</time>
      </trkpt>
      <trkpt lat="47.17431" lon="4.9269">
        <ele>411</ele>
        <time>2014-04-25T06:45:15Z</time>
      </trkpt>
      <trkpt lat="47.17426" lon="4.92689">
        <ele>411</ele>
        <time>2014-04-25T06:45:19Z</time>
      </trkpt>
      <trkpt lat="47.17421" lon="4.9269">
        <ele>411</ele>
        <time>2014-04-25T06:45:23Z</time>
      </trkpt>
      <trkpt lat="47.17415" lon="4.92691">
        <ele>409</ele>
        <time>2014-04-25T06:45:27Z</time>
      </trkpt>
      <trkpt lat="47.17409" lon="4.9269">
        <ele>409</ele>
        <time>2014-04-25T06:45:31Z</time>
      </trkpt>
      <trkpt lat="47.17404" lon="4.92688">
        <ele>409</ele>
        <time>2014-04-25T06:45:34Z</time>
      </trkpt>
      <trkpt lat="47.17399" lon="4.92686">
        <ele>409</ele>
        <time>2014-04-25T06:45:37Z</time>
      </trkpt>
      <trkpt lat="47.17395" lon="4.92686">
        <ele>409</ele>
        <time>2014-04-25T06:45:41Z</time>
      </trkpt>
      <trkpt lat="47.17389" lon="4.92687">
        <ele>409</ele>
        <time>2014-04-25T06:45:45Z</time>
      </trkpt>
      <trkpt lat="47.17385" lon="4.92684">
        <ele>409</ele>
        <time>2014-04-25T06:45:49Z</time>
      </trkpt>
      <trkpt lat="47.1738" lon="4.92679">
        <ele>409</ele>
        <time>2014-04-25T06:45:54Z</time>
      </trkpt>
      <trkpt lat="47.17376" lon="4.92675">
        <ele>409</ele>
        <time>2014-04-25T06:45:58Z</time>
      </trkpt>
      <trkpt lat="47.17372" lon="4.92674">
        <ele>409</ele>
        <time>2014-04-25T06:46:02Z</time>
      </trkpt>
      <trkpt lat="47.17368" lon="4.9267">
        <ele>409</ele>
        <time>2014-04-25T06:46:06Z</time>
      </trkpt>
      <trkpt lat="47.17363" lon="4.92669">
        <ele>409</ele>
        <time>2014-04-25T06:46:11Z</time>
      </trkpt>
      <trkpt lat="47.17358" lon="4.92669">
        <ele>409</ele>
        <time>2014-04-25T06:46:14Z</time>
      </trkpt>
      <trkpt lat="47.17353" lon="4.92669">
        <ele>408</ele>
        <time>2014-04-25T06:46:19Z</time>
      </trkpt>
      <trkpt lat="47.17348" lon="4.9267">
        <ele>408</ele>
        <time>2014-04-25T06:46:23Z</time>
      </trkpt>
      <trkpt lat="47.17343" lon="4.92667">
        <ele>408</ele>
        <time>2014-04-25T06:46:27Z</time>
      </trkpt>
      <trkpt lat="47.17339" lon="4.92661">
        <ele>408</ele>
        <time>2014-04-25T06:46:31Z</time>
      </trkpt>
      <trkpt lat="47.17334" lon="4.92658">
        <ele>408</ele>
        <time>2014-04-25T06:46:35Z</time>
      </trkpt>
      <trkpt lat="47.1733" lon="4.92654">
        <ele>407</ele>
        <time>2014-04-25T06:46:38Z</time>
      </trkpt>
      <trkpt lat="47.17326" lon="4.92651">
        <ele>407</ele>
        <time>2014-04-25T06:46:41Z</time>
      </trkpt>
      <trkpt lat="47.17321" lon="4.9265">
        <ele>407</ele>
        <time>2014-04-25T06:46:43Z</time>
      </trkpt>
      <trkpt lat="47.17316" lon="4.92649">
        <ele>407</ele>
        <time>2014-04-25T06:46:47Z</time>
      </trkpt>
      <trkpt lat="47.17311" lon="4.92649">
        <ele>407</ele>
        <time>2014-04-25T06:46:50Z</time>
      </trkpt>
      <trkpt lat="47.17306" lon="4.9265">
        <ele>406</ele>
        <time>2014-04-25T06:46:54Z</time>
      </trkpt>
      <trkpt lat="47.17301" lon="4.92651">
        <ele>406</ele>
        <time>2014-04-25T06:46:58Z</time>
      </trkpt>
      <trkpt lat="47.17296" lon="4.9265">
        <ele>406</ele>
        <time>2014-04-25T06:47:02Z</time>
      </trkpt>
      <trkpt lat="47.17291" lon="4.92647">
        <ele>406</ele>
        <time>2014-04-25T06:47:07Z</time>
      </trkpt>
      <trkpt lat="47.17285" lon="4.92646">
        <ele>406</ele>
        <time>2014-04-25T06:47:11Z</time>
      </trkpt>
      <trkpt lat="47.1728" lon="4.92645">
        <ele>406</ele>
        <time>2014-04-25T06:47:14Z</time>
      </trkpt>
      <trkpt lat="47.17275" lon="4.92645">
        <ele>406</ele>
        <time>2014-04-25T06:47:19Z</time>
      </trkpt>
      <trkpt lat="47.17266" lon="4.92639">
        <ele>406</ele>
        <time>2014-04-25T06:47:27Z</time>
      </trkpt>
      <trkpt lat="47.17257" lon="4.92638">
        <ele>406</ele>
        <time>2014-04-25T06:47:37Z</time>
      </trkpt>
      <trkpt lat="47.17253" lon="4.92642">
        <ele>405</ele>
        <time>2014-04-25T06:48:15Z</time>
      </trkpt>
      <trkpt lat="47.17243" lon="4.92638">
        <ele>404</ele>
        <time>2014-04-25T06:49:16Z</time>
      </trkpt>
      <trkpt lat="47.17235" lon="4.92629">
        <ele>404</ele>
        <time>2014-04-25T06:49:23Z</time>
      </trkpt>
      <trkpt lat="47.17231" lon="4.92626">
        <ele>404</ele>
        <time>2014-04-25T06:49:27Z</time>
      </trkpt>
      <trkpt lat="47.17222" lon="4.92619">
        <ele>404</ele>
        <time>2014-04-25T06:49:36Z</time>
      </trkpt>
      <trkpt lat="47.17212" lon="4.92615">
        <ele>404</ele>
        <time>2014-04-25T06:49:43Z</time>
      </trkpt>
      <trkpt lat="47.17204" lon="4.9261">
        <ele>404</ele>
        <time>2014-04-25T06:49:49Z</time>
      </trkpt>
      <trkpt lat="47.17199" lon="4.92606">
        <ele>404</ele>
        <time>2014-04-25T06:49:53Z</time>
      </trkpt>
      <trkpt lat="47.17194" lon="4.92602">
        <ele>404</ele>
        <time>2014-04-25T06:49:57Z</time>
      </trkpt>
      <trkpt lat="47.1719" lon="4.92597">
        <ele>404</ele>
        <time>2014-04-25T06:50:01Z</time>
      </trkpt>
      <trkpt lat="47.17185" lon="4.92593">
        <ele>404</ele>
        <time>2014-04-25T06:50:05Z</time>
      </trkpt>
      <trkpt lat="47.17181" lon="4.9259">
        <ele>403</ele>
        <time>2014-04-25T06:50:09Z</time>
      </trkpt>
      <trkpt lat="47.17177" lon="4.92587">
        <ele>403</ele>
        <time>2014-04-25T06:50:13Z</time>
      </trkpt>
      <trkpt lat="47.17172" lon="4.92584">
        <ele>403</ele>
        <time>2014-04-25T06:50:17Z</time>
      </trkpt>
      <trkpt lat="47.17167" lon="4.92581">
        <ele>403</ele>
        <time>2014-04-25T06:50:21Z</time>
      </trkpt>
      <trkpt lat="47.17161" lon="4.92578">
        <ele>402</ele>
        <time>2014-04-25T06:50:25Z</time>
      </trkpt>
      <trkpt lat="47.17156" lon="4.92574">
        <ele>402</ele>
        <time>2014-04-25T06:50:29Z</time>
      </trkpt>
      <trkpt lat="47.17151" lon="4.92571">
        <ele>401</ele>
        <time>2014-04-25T06:50:33Z</time>
      </trkpt>
      <trkpt lat="47.17147" lon="4.92568">
        <ele>401</ele>
        <time>2014-04-25T06:50:37Z</time>
      </trkpt>
      <trkpt lat="47.17143" lon="4.92564">
        <ele>401</ele>
        <time>2014-04-25T06:50:41Z</time>
      </trkpt>
      <trkpt lat="47.17139" lon="4.92559">
        <ele>401</ele>
        <time>2014-04-25T06:50:45Z</time>
      </trkpt>
      <trkpt lat="47.17134" lon="4.92556">
        <ele>400</ele>
        <time>2014-04-25T06:50:49Z</time>
      </trkpt>
      <trkpt lat="47.1713" lon="4.92551">
        <ele>400</ele>
        <time>2014-04-25T06:50:53Z</time>
      </trkpt>
      <trkpt lat="47.17126" lon="4.92546">
        <ele>400</ele>
        <time>2014-04-25T06:50:58Z</time>
      </trkpt>
      <trkpt lat="47.17121" lon="4.92544">
        <ele>400</ele>
        <time>2014-04-25T06:51:02Z</time>
      </trkpt>
      <trkpt lat="47.17117" lon="4.92539">
        <ele>400</ele>
        <time>2014-04-25T06:51:06Z</time>
      </trkpt>
      <trkpt lat="47.17114" lon="4.92532">
        <ele>400</ele>
        <time>2014-04-25T06:51:11Z</time>
      </trkpt>
      <trkpt lat="47.1711" lon="4.92528">
        <ele>400</ele>
        <time>2014-04-25T06:51:15Z</time>
      </trkpt>
      <trkpt lat="47.17104" lon="4.92524">
        <ele>399</ele>
        <time>2014-04-25T06:51:18Z</time>
      </trkpt>
      <trkpt lat="47.171" lon="4.9252">
        <ele>399</ele>
        <time>2014-04-25T06:51:20Z</time>
      </trkpt>
      <trkpt lat="47.17095" lon="4.9251">
        <ele>399</ele>
        <time>2014-04-25T06:51:24Z</time>
      </trkpt>
      <trkpt lat="47.17093" lon="4.92506">
        <ele>399</ele>
        <time>2014-04-25T06:51:26Z</time>
      </trkpt>
      <trkpt lat="47.17091" lon="4.92502">
        <ele>399</ele>
        <time>2014-04-25T06:51:28Z</time>
      </trkpt>
      <trkpt lat="47.17089" lon="4.92497">
        <ele>398</ele>
        <time>2014-04-25T06:51:30Z</time>
      </trkpt>
      <trkpt lat="47.17087" lon="4.92493">
        <ele>398</ele>
        <time>2014-04-25T06:51:32Z</time>
      </trkpt>
      <trkpt lat="47.17084" lon="4.92489">
        <ele>399</ele>
        <time>2014-04-25T06:51:34Z</time>
      </trkpt>
      <trkpt lat="47.17082" lon="4.92487">
        <ele>398</ele>
        <time>2014-04-25T06:51:36Z</time>
      </trkpt>
      <trkpt lat="47.17077" lon="4.92485">
        <ele>398</ele>
        <time>2014-04-25T06:51:41Z</time>
      </trkpt>
      <trkpt lat="47.17073" lon="4.92481">
        <ele>398</ele>
        <time>2014-04-25T06:51:44Z</time>
      </trkpt>
      <trkpt lat="47.17069" lon="4.92477">
        <ele>398</ele>
        <time>2014-04-25T06:51:47Z</time>
      </trkpt>
      <trkpt lat="47.17064" lon="4.92479">
        <ele>397</ele>
        <time>2014-04-25T06:51:54Z</time>
      </trkpt>
      <trkpt lat="47.17063" lon="4.92482">
        <ele>397</ele>
        <time>2014-04-25T06:52:00Z</time>
      </trkpt>
      <trkpt lat="47.17058" lon="4.92479">
        <ele>397</ele>
        <time>2014-04-25T06:52:09Z</time>
      </trkpt>
      <trkpt lat="47.17055" lon="4.92472">
        <ele>397</ele>
        <time>2014-04-25T06:52:11Z</time>
      </trkpt>
      <trkpt lat="47.17051" lon="4.92466">
        <ele>397</ele>
        <time>2014-04-25T06:52:13Z</time>
      </trkpt>
      <trkpt lat="47.17048" lon="4.9246">
        <ele>397</ele>
        <time>2014-04-25T06:52:15Z</time>
      </trkpt>
      <trkpt lat="47.17044" lon="4.92455">
        <ele>397</ele>
        <time>2014-04-25T06:52:17Z</time>
      </trkpt>
      <trkpt lat="47.17042" lon="4.92452">
        <ele>397</ele>
        <time>2014-04-25T06:52:18Z</time>
      </trkpt>
      <trkpt lat="47.17039" lon="4.92449">
        <ele>397</ele>
        <time>2014-04-25T06:52:20Z</time>
      </trkpt>
      <trkpt lat="47.17037" lon="4.92445">
        <ele>397</ele>
        <time>2014-04-25T06:52:22Z</time>
      </trkpt>
      <trkpt lat="47.17034" lon="4.92443">
        <ele>397</ele>
        <time>2014-04-25T06:52:24Z</time>
      </trkpt>
      <trkpt lat="47.17028" lon="4.92443">
        <ele>397</ele>
        <time>2014-04-25T06:52:29Z</time>
      </trkpt>
      <trkpt lat="47.17023" lon="4.92438">
        <ele>397</ele>
        <time>2014-04-25T06:52:34Z</time>
      </trkpt>
      <trkpt lat="47.17019" lon="4.92434">
        <ele>397</ele>
        <time>2014-04-25T06:52:37Z</time>
      </trkpt>
      <trkpt lat="47.17015" lon="4.92431">
        <ele>397</ele>
        <time>2014-04-25T06:52:40Z</time>
      </trkpt>
      <trkpt lat="47.17007" lon="4.92425">
        <ele>397</ele>
        <time>2014-04-25T06:52:48Z</time>
      </trkpt>
      <trkpt lat="47.16998" lon="4.9242">
        <ele>397</ele>
        <time>2014-04-25T06:52:55Z</time>
      </trkpt>
      <trkpt lat="47.16994" lon="4.92415">
        <ele>396</ele>
        <time>2014-04-25T06:52:59Z</time>
      </trkpt>
      <trkpt lat="47.16985" lon="4.92408">
        <ele>396</ele>
        <time>2014-04-25T06:53:06Z</time>
      </trkpt>
      <trkpt lat="47.16978" lon="4.924">
        <ele>395</ele>
        <time>2014-04-25T06:53:12Z</time>
      </trkpt>
      <trkpt lat="47.16974" lon="4.92392">
        <ele>395</ele>
        <time>2014-04-25T06:53:18Z</time>
      </trkpt>
      <trkpt lat="47.16965" lon="4.92392">
        <ele>395</ele>
        <time>2014-04-25T06:53:29Z</time>
      </trkpt>
      <trkpt lat="47.16956" lon="4.92391">
        <ele>395</ele>
        <time>2014-04-25T06:53:39Z</time>
      </trkpt>
      <trkpt lat="47.16951" lon="4.92388">
        <ele>394</ele>
        <time>2014-04-25T06:53:44Z</time>
      </trkpt>
      <trkpt lat="47.16947" lon="4.92382">
        <ele>394</ele>
        <time>2014-04-25T06:53:46Z</time>
      </trkpt>
      <trkpt lat="47.16942" lon="4.92378">
        <ele>394</ele>
        <time>2014-04-25T06:53:48Z</time>
      </trkpt>
      <trkpt lat="47.16936" lon="4.92374">
        <ele>394</ele>
        <time>2014-04-25T06:53:51Z</time>
      </trkpt>
      <trkpt lat="47.16932" lon="4.9237">
        <ele>394</ele>
        <time>2014-04-25T06:53:54Z</time>
      </trkpt>
      <trkpt lat="47.16927" lon="4.92366">
        <ele>394</ele>
        <time>2014-04-25T06:53:58Z</time>
      </trkpt>
      <trkpt lat="47.16923" lon="4.92362">
        <ele>394</ele>
        <time>2014-04-25T06:54:02Z</time>
      </trkpt>
      <trkpt lat="47.16918" lon="4.92358">
        <ele>393</ele>
        <time>2014-04-25T06:54:06Z</time>
      </trkpt>
      <trkpt lat="47.16913" lon="4.92355">
        <ele>391</ele>
        <time>2014-04-25T06:54:10Z</time>
      </trkpt>
      <trkpt lat="47.16906" lon="4.92353">
        <ele>391</ele>
        <time>2014-04-25T06:54:15Z</time>
      </trkpt>
      <trkpt lat="47.16901" lon="4.92349">
        <ele>391</ele>
        <time>2014-04-25T06:54:20Z</time>
      </trkpt>
      <trkpt lat="47.16896" lon="4.92346">
        <ele>391</ele>
        <time>2014-04-25T06:54:25Z</time>
      </trkpt>
      <trkpt lat="47.16891" lon="4.92344">
        <ele>390</ele>
        <time>2014-04-25T06:54:29Z</time>
      </trkpt>
      <trkpt lat="47.16885" lon="4.92343">
        <ele>390</ele>
        <time>2014-04-25T06:54:33Z</time>
      </trkpt>
      <trkpt lat="47.16881" lon="4.92345">
        <ele>390</ele>
        <time>2014-04-25T06:54:38Z</time>
      </trkpt>
      <trkpt lat="47.1688" lon="4.92352">
        <ele>390</ele>
        <time>2014-04-25T06:54:41Z</time>
      </trkpt>
      <trkpt lat="47.1688" lon="4.9236">
        <ele>390</ele>
        <time>2014-04-25T06:54:44Z</time>
      </trkpt>
      <trkpt lat="47.16878" lon="4.92367">
        <ele>390</ele>
        <time>2014-04-25T06:54:46Z</time>
      </trkpt>
      <trkpt lat="47.16876" lon="4.92374">
        <ele>390</ele>
        <time>2014-04-25T06:54:48Z</time>
      </trkpt>
      <trkpt lat="47.16874" lon="4.92382">
        <ele>390</ele>
        <time>2014-04-25T06:54:51Z</time>
      </trkpt>
      <trkpt lat="47.16873" lon="4.9239">
        <ele>390</ele>
        <time>2014-04-25T06:54:54Z</time>
      </trkpt>
      <trkpt lat="47.16873" lon="4.92397">
        <ele>390</ele>
        <time>2014-04-25T06:55:00Z</time>
      </trkpt>
      <trkpt lat="47.16871" lon="4.92405">
        <ele>390</ele>
        <time>2014-04-25T06:55:04Z</time>
      </trkpt>
      <trkpt lat="47.1687" lon="4.92413">
        <ele>390</ele>
        <time>2014-04-25T06:55:08Z</time>
      </trkpt>
      <trkpt lat="47.1687" lon="4.9242">
        <ele>390</ele>
        <time>2014-04-25T06:55:14Z</time>
      </trkpt>
      <trkpt lat="47.16869" lon="4.92428">
        <ele>390</ele>
        <time>2014-04-25T06:55:17Z</time>
      </trkpt>
      <trkpt lat="47.16867" lon="4.92436">
        <ele>390</ele>
        <time>2014-04-25T06:55:21Z</time>
      </trkpt>
      <trkpt lat="47.16865" lon="4.92443">
        <ele>390</ele>
        <time>2014-04-25T06:55:25Z</time>
      </trkpt>
      <trkpt lat="47.16862" lon="4.92449">
        <ele>390</ele>
        <time>2014-04-25T06:55:28Z</time>
      </trkpt>
      <trkpt lat="47.16859" lon="4.92458">
        <ele>389</ele>
        <time>2014-04-25T06:55:32Z</time>
      </trkpt>
      <trkpt lat="47.16857" lon="4.92465">
        <ele>389</ele>
        <time>2014-04-25T06:55:35Z</time>
      </trkpt>
      <trkpt lat="47.16855" lon="4.92472">
        <ele>389</ele>
        <time>2014-04-25T06:55:39Z</time>
      </trkpt>
      <trkpt lat="47.16855" lon="4.92479">
        <ele>389</ele>
        <time>2014-04-25T06:55:45Z</time>
      </trkpt>
      <trkpt lat="47.16854" lon="4.92488">
        <ele>389</ele>
        <time>2014-04-25T06:55:49Z</time>
      </trkpt>
      <trkpt lat="47.16852" lon="4.92495">
        <ele>389</ele>
        <time>2014-04-25T06:55:53Z</time>
      </trkpt>
      <trkpt lat="47.16851" lon="4.92502">
        <ele>388</ele>
        <time>2014-04-25T06:55:56Z</time>
      </trkpt>
      <trkpt lat="47.16849" lon="4.92511">
        <ele>388</ele>
        <time>2014-04-25T06:55:59Z</time>
      </trkpt>
      <trkpt lat="47.16848" lon="4.92518">
        <ele>388</ele>
        <time>2014-04-25T06:56:02Z</time>
      </trkpt>
      <trkpt lat="47.16848" lon="4.92526">
        <ele>388</ele>
        <time>2014-04-25T06:56:06Z</time>
      </trkpt>
      <trkpt lat="47.16846" lon="4.92533">
        <ele>388</ele>
        <time>2014-04-25T06:56:10Z</time>
      </trkpt>
      <trkpt lat="47.16845" lon="4.92539">
        <ele>388</ele>
        <time>2014-04-25T06:56:14Z</time>
      </trkpt>
      <trkpt lat="47.16844" lon="4.92548">
        <ele>388</ele>
        <time>2014-04-25T06:56:18Z</time>
      </trkpt>
      <trkpt lat="47.16842" lon="4.92556">
        <ele>388</ele>
        <time>2014-04-25T06:56:22Z</time>
      </trkpt>
      <trkpt lat="47.16841" lon="4.92564">
        <ele>387</ele>
        <time>2014-04-25T06:56:26Z</time>
      </trkpt>
      <trkpt lat="47.16842" lon="4.92571">
        <ele>387</ele>
        <time>2014-04-25T06:56:30Z</time>
      </trkpt>
      <trkpt lat="47.16841" lon="4.92579">
        <ele>386</ele>
        <time>2014-04-25T06:56:34Z</time>
      </trkpt>
      <trkpt lat="47.16838" lon="4.92586">
        <ele>385</ele>
        <time>2014-04-25T06:56:40Z</time>
      </trkpt>
      <trkpt lat="47.16837" lon="4.92594">
        <ele>386</ele>
        <time>2014-04-25T06:56:44Z</time>
      </trkpt>
      <trkpt lat="47.16837" lon="4.92602">
        <ele>386</ele>
        <time>2014-04-25T06:56:49Z</time>
      </trkpt>
      <trkpt lat="47.16837" lon="4.92609">
        <ele>386</ele>
        <time>2014-04-25T06:56:54Z</time>
      </trkpt>
      <trkpt lat="47.16836" lon="4.92617">
        <ele>386</ele>
        <time>2014-04-25T06:56:57Z</time>
      </trkpt>
      <trkpt lat="47.16836" lon="4.92625">
        <ele>386</ele>
        <time>2014-04-25T06:57:01Z</time>
      </trkpt>
      <trkpt lat="47.16836" lon="4.92633">
        <ele>385</ele>
        <time>2014-04-25T06:57:03Z</time>
      </trkpt>
      <trkpt lat="47.16835" lon="4.92642">
        <ele>385</ele>
        <time>2014-04-25T06:57:06Z</time>
      </trkpt>
      <trkpt lat="47.16832" lon="4.92651">
        <ele>382</ele>
        <time>2014-04-25T06:57:10Z</time>
      </trkpt>
      <trkpt lat="47.16832" lon="4.92658">
        <ele>382</ele>
        <time>2014-04-25T06:57:13Z</time>
      </trkpt>
      <trkpt lat="47.16831" lon="4.92665">
        <ele>383</ele>
        <time>2014-04-25T06:57:17Z</time>
      </trkpt>
      <trkpt lat="47.16829" lon="4.92673">
        <ele>382</ele>
        <time>2014-04-25T06:57:21Z</time>
      </trkpt>
      <trkpt lat="47.16828" lon="4.9268">
        <ele>381</ele>
        <time>2014-04-25T06:57:24Z</time>
      </trkpt>
      <trkpt lat="47.16825" lon="4.92686">
        <ele>380</ele>
        <time>2014-04-25T06:57:27Z</time>
      </trkpt>
      <trkpt lat="47.16823" lon="4.92694">
        <ele>380</ele>
        <time>2014-04-25T06:57:31Z</time>
      </trkpt>
      <trkpt lat="47.16821" lon="4.92701">
        <ele>379</ele>
        <time>2014-04-25T06:57:37Z</time>
      </trkpt>
      <trkpt lat="47.1682" lon="4.92708">
        <ele>379</ele>
        <time>2014-04-25T06:57:41Z</time>
      </trkpt>
      <trkpt lat="47.16819" lon="4.92717">
        <ele>379</ele>
        <time>2014-04-25T06:57:45Z</time>
      </trkpt>
      <trkpt lat="47.16817" lon="4.92723">
        <ele>379</ele>
        <time>2014-04-25T06:57:49Z</time>
      </trkpt>
      <trkpt lat="47.16818" lon="4.92731">
        <ele>379</ele>
        <time>2014-04-25T06:57:56Z</time>
      </trkpt>
      <trkpt lat="47.16815" lon="4.92738">
        <ele>379</ele>
        <time>2014-04-25T06:58:00Z</time>
      </trkpt>
      <trkpt lat="47.16812" lon="4.92745">
        <ele>379</ele>
        <time>2014-04-25T06:58:03Z</time>
      </trkpt>
      <trkpt lat="47.1681" lon="4.92753">
        <ele>378</ele>
        <time>2014-04-25T06:58:06Z</time>
      </trkpt>
      <trkpt lat="47.16809" lon="4.92761">
        <ele>378</ele>
        <time>2014-04-25T06:58:09Z</time>
      </trkpt>
      <trkpt lat="47.16809" lon="4.92769">
        <ele>378</ele>
        <time>2014-04-25T06:58:12Z</time>
      </trkpt>
      <trkpt lat="47.16809" lon="4.92777">
        <ele>378</ele>
        <time>2014-04-25T06:58:15Z</time>
      </trkpt>
      <trkpt lat="47.16809" lon="4.92783">
        <ele>377</ele>
        <time>2014-04-25T06:58:19Z</time>
      </trkpt>
      <trkpt lat="47.16809" lon="4.9279">
        <ele>377</ele>
        <time>2014-04-25T06:58:23Z</time>
      </trkpt>
      <trkpt lat="47.16808" lon="4.92798">
        <ele>377</ele>
        <time>2014-04-25T06:58:28Z</time>
      </trkpt>
      <trkpt lat="47.16806" lon="4.92804">
        <ele>377</ele>
        <time>2014-04-25T06:58:32Z</time>
      </trkpt>
      <trkpt lat="47.16803" lon="4.92811">
        <ele>377</ele>
        <time>2014-04-25T06:58:36Z</time>
      </trkpt>
      <trkpt lat="47.16801" lon="4.92818">
        <ele>377</ele>
        <time>2014-04-25T06:58:39Z</time>
      </trkpt>
      <trkpt lat="47.16799" lon="4.92824">
        <ele>377</ele>
        <time>2014-04-25T06:58:43Z</time>
      </trkpt>
      <trkpt lat="47.16796" lon="4.92829">
        <ele>377</ele>
        <time>2014-04-25T06:58:46Z</time>
      </trkpt>
      <trkpt lat="47.16792" lon="4.92834">
        <ele>377</ele>
        <time>2014-04-25T06:58:50Z</time>
      </trkpt>
      <trkpt lat="47.1679" lon="4.92839">
        <ele>377</ele>
        <time>2014-04-25T06:58:53Z</time>
      </trkpt>
      <trkpt lat="47.16786" lon="4.92844">
        <ele>376</ele>
        <time>2014-04-25T06:58:57Z</time>
      </trkpt>
      <trkpt lat="47.16784" lon="4.92852">
        <ele>376</ele>
        <time>2014-04-25T06:59:01Z</time>
      </trkpt>
      <trkpt lat="47.1678" lon="4.92858">
        <ele>376</ele>
        <time>2014-04-25T06:59:05Z</time>
      </trkpt>
      <trkpt lat="47.16777" lon="4.92865">
        <ele>376</ele>
        <time>2014-04-25T06:59:08Z</time>
      </trkpt>
      <trkpt lat="47.16775" lon="4.92873">
        <ele>376</ele>
        <time>2014-04-25T06:59:12Z</time>
      </trkpt>
      <trkpt lat="47.16773" lon="4.9288">
        <ele>376</ele>
        <time>2014-04-25T06:59:16Z</time>
      </trkpt>
      <trkpt lat="47.16771" lon="4.92888">
        <ele>376</ele>
        <time>2014-04-25T06:59:19Z</time>
      </trkpt>
      <trkpt lat="47.1677" lon="4.92897">
        <ele>375</ele>
        <time>2014-04-25T06:59:22Z</time>
      </trkpt>
      <trkpt lat="47.16768" lon="4.92905">
        <ele>375</ele>
        <time>2014-04-25T06:59:26Z</time>
      </trkpt>
      <trkpt lat="47.16768" lon="4.92912">
        <ele>375</ele>
        <time>2014-04-25T06:59:30Z</time>
      </trkpt>
      <trkpt lat="47.1677" lon="4.92916">
        <ele>375</ele>
        <time>2014-04-25T06:59:37Z</time>
      </trkpt>
      <trkpt lat="47.16768" lon="4.92923">
        <ele>375</ele>
        <time>2014-04-25T06:59:42Z</time>
      </trkpt>
      <trkpt lat="47.16768" lon="4.9293">
        <ele>376</ele>
        <time>2014-04-25T06:59:46Z</time>
      </trkpt>
      <trkpt lat="47.16765" lon="4.92937">
        <ele>376</ele>
        <time>2014-04-25T06:59:49Z</time>
      </trkpt>
      <trkpt lat="47.16761" lon="4.92941">
        <ele>376</ele>
        <time>2014-04-25T06:59:51Z</time>
      </trkpt>
      <trkpt lat="47.16757" lon="4.92946">
        <ele>376</ele>
        <time>2014-04-25T06:59:54Z</time>
      </trkpt>
      <trkpt lat="47.16752" lon="4.92958">
        <ele>376</ele>
        <time>2014-04-25T07:00:00Z</time>
      </trkpt>
      <trkpt lat="47.16755" lon="4.92965">
        <ele>376</ele>
        <time>2014-04-25T07:00:05Z</time>
      </trkpt>
      <trkpt lat="47.16759" lon="4.92978">
        <ele>375</ele>
        <time>2014-04-25T07:00:10Z</time>
      </trkpt>
      <trkpt lat="47.16758" lon="4.9299">
        <ele>374</ele>
        <time>2014-04-25T07:00:18Z</time>
      </trkpt>
      <trkpt lat="47.16754" lon="4.92995">
        <ele>373</ele>
        <time>2014-04-25T07:00:21Z</time>
      </trkpt>
      <trkpt lat="47.16749" lon="4.93011">
        <ele>372</ele>
        <time>2014-04-25T07:00:26Z</time>
      </trkpt>
      <trkpt lat="47.16744" lon="4.93027">
        <ele>374</ele>
        <time>2014-04-25T07:00:29Z</time>
      </trkpt>
      <trkpt lat="47.16748" lon="4.93049">
        <ele>374</ele>
        <time>2014-04-25T07:00:30Z</time>
      </trkpt>
      <trkpt lat="47.16743" lon="4.93045">
        <ele>374</ele>
        <time>2014-04-25T07:00:31Z</time>
      </trkpt>
      <trkpt lat="47.16745" lon="4.93055">
        <ele>374</ele>
        <time>2014-04-25T07:00:48Z</time>
      </trkpt>
      <trkpt lat="47.16742" lon="4.93061">
        <ele>374</ele>
        <time>2014-04-25T07:00:53Z</time>
      </trkpt>
      <trkpt lat="47.16741" lon="4.9307">
        <ele>374</ele>
        <time>2014-04-25T07:00:57Z</time>
      </trkpt>
      <trkpt lat="47.1674" lon="4.93077">
        <ele>374</ele>
        <time>2014-04-25T07:01:01Z</time>
      </trkpt>
      <trkpt lat="47.1674" lon="4.93084">
        <ele>373</ele>
        <time>2014-04-25T07:01:06Z</time>
      </trkpt>
      <trkpt lat="47.16737" lon="4.9309">
        <ele>373</ele>
        <time>2014-04-25T07:01:11Z</time>
      </trkpt>
      <trkpt lat="47.16732" lon="4.93095">
        <ele>373</ele>
        <time>2014-04-25T07:01:14Z</time>
      </trkpt>
      <trkpt lat="47.16727" lon="4.93106">
        <ele>373</ele>
        <time>2014-04-25T07:01:19Z</time>
      </trkpt>
      <trkpt lat="47.16723" lon="4.9312">
        <ele>373</ele>
        <time>2014-04-25T07:01:25Z</time>
      </trkpt>
      <trkpt lat="47.16719" lon="4.93133">
        <ele>372</ele>
        <time>2014-04-25T07:01:32Z</time>
      </trkpt>
      <trkpt lat="47.16713" lon="4.93142">
        <ele>372</ele>
        <time>2014-04-25T07:01:39Z</time>
      </trkpt>
      <trkpt lat="47.16709" lon="4.93155">
        <ele>372</ele>
        <time>2014-04-25T07:01:53Z</time>
      </trkpt>
      <trkpt lat="47.16701" lon="4.93164">
        <ele>371</ele>
        <time>2014-04-25T07:02:01Z</time>
      </trkpt>
      <trkpt lat="47.16698" lon="4.9318">
        <ele>369</ele>
        <time>2014-04-25T07:02:07Z</time>
      </trkpt>
      <trkpt lat="47.167" lon="4.93186">
        <ele>369</ele>
        <time>2014-04-25T07:02:09Z</time>
      </trkpt>
      <trkpt lat="47.16698" lon="4.93193">
        <ele>369</ele>
        <time>2014-04-25T07:02:13Z</time>
      </trkpt>
      <trkpt lat="47.16693" lon="4.93198">
        <ele>369</ele>
        <time>2014-04-25T07:02:17Z</time>
      </trkpt>
      <trkpt lat="47.16692" lon="4.93204">
        <ele>369</ele>
        <time>2014-04-25T07:02:23Z</time>
      </trkpt>
      <trkpt lat="47.16689" lon="4.9321">
        <ele>368</ele>
        <time>2014-04-25T07:02:30Z</time>
      </trkpt>
      <trkpt lat="47.16686" lon="4.93217">
        <ele>368</ele>
        <time>2014-04-25T07:02:34Z</time>
      </trkpt>
      <trkpt lat="47.16682" lon="4.93222">
        <ele>367</ele>
        <time>2014-04-25T07:02:38Z</time>
      </trkpt>
      <trkpt lat="47.16678" lon="4.93227">
        <ele>367</ele>
        <time>2014-04-25T07:02:42Z</time>
      </trkpt>
      <trkpt lat="47.16672" lon="4.93229">
        <ele>366</ele>
        <time>2014-04-25T07:02:48Z</time>
      </trkpt>
      <trkpt lat="47.16668" lon="4.93235">
        <ele>365</ele>
        <time>2014-04-25T07:02:52Z</time>
      </trkpt>
      <trkpt lat="47.16663" lon="4.93238">
        <ele>364</ele>
        <time>2014-04-25T07:02:55Z</time>
      </trkpt>
      <trkpt lat="47.16658" lon="4.93242">
        <ele>364</ele>
        <time>2014-04-25T07:02:59Z</time>
      </trkpt>
      <trkpt lat="47.16656" lon="4.93248">
        <ele>364</ele>
        <time>2014-04-25T07:03:02Z</time>
      </trkpt>
      <trkpt lat="47.16653" lon="4.93254">
        <ele>362</ele>
        <time>2014-04-25T07:03:06Z</time>
      </trkpt>
      <trkpt lat="47.1665" lon="4.9326">
        <ele>362</ele>
        <time>2014-04-25T07:03:12Z</time>
      </trkpt>
      <trkpt lat="47.16646" lon="4.93266">
        <ele>363</ele>
        <time>2014-04-25T07:03:19Z</time>
      </trkpt>
      <trkpt lat="47.16637" lon="4.93268">
        <ele>363</ele>
        <time>2014-04-25T07:03:24Z</time>
      </trkpt>
      <trkpt lat="47.16631" lon="4.93278">
        <ele>363</ele>
        <time>2014-04-25T07:03:29Z</time>
      </trkpt>
      <trkpt lat="47.16627" lon="4.93283">
        <ele>363</ele>
        <time>2014-04-25T07:03:35Z</time>
      </trkpt>
      <trkpt lat="47.16621" lon="4.93291">
        <ele>363</ele>
        <time>2014-04-25T07:03:49Z</time>
      </trkpt>
      <trkpt lat="47.16618" lon="4.93304">
        <ele>363</ele>
        <time>2014-04-25T07:03:54Z</time>
      </trkpt>
      <trkpt lat="47.16615" lon="4.93318">
        <ele>362</ele>
        <time>2014-04-25T07:03:59Z</time>
      </trkpt>
      <trkpt lat="47.16611" lon="4.9333">
        <ele>362</ele>
        <time>2014-04-25T07:04:05Z</time>
      </trkpt>
      <trkpt lat="47.16608" lon="4.93344">
        <ele>360</ele>
        <time>2014-04-25T07:04:12Z</time>
      </trkpt>
      <trkpt lat="47.1661" lon="4.93358">
        <ele>360</ele>
        <time>2014-04-25T07:04:18Z</time>
      </trkpt>
      <trkpt lat="47.16601" lon="4.93366">
        <ele>359</ele>
        <time>2014-04-25T07:04:25Z</time>
      </trkpt>
      <trkpt lat="47.16591" lon="4.93368">
        <ele>359</ele>
        <time>2014-04-25T07:04:32Z</time>
      </trkpt>
      <trkpt lat="47.16588" lon="4.93381">
        <ele>358</ele>
        <time>2014-04-25T07:04:40Z</time>
      </trkpt>
      <trkpt lat="47.16593" lon="4.93394">
        <ele>357</ele>
        <time>2014-04-25T07:04:45Z</time>
      </trkpt>
      <trkpt lat="47.16597" lon="4.93408">
        <ele>355</ele>
        <time>2014-04-25T07:04:51Z</time>
      </trkpt>
      <trkpt lat="47.1659" lon="4.9342">
        <ele>353</ele>
        <time>2014-04-25T07:04:58Z</time>
      </trkpt>
      <trkpt lat="47.16579" lon="4.93423">
        <ele>351</ele>
        <time>2014-04-25T07:05:02Z</time>
      </trkpt>
      <trkpt lat="47.1657" lon="4.93427">
        <ele>353</ele>
        <time>2014-04-25T07:05:07Z</time>
      </trkpt>
      <trkpt lat="47.16567" lon="4.93441">
        <ele>353</ele>
        <time>2014-04-25T07:05:14Z</time>
      </trkpt>
      <trkpt lat="47.16567" lon="4.93455">
        <ele>353</ele>
        <time>2014-04-25T07:05:21Z</time>
      </trkpt>
      <trkpt lat="47.16564" lon="4.9347">
        <ele>353</ele>
        <time>2014-04-25T07:05:28Z</time>
      </trkpt>
      <trkpt lat="47.16561" lon="4.93482">
        <ele>353</ele>
        <time>2014-04-25T07:05:36Z</time>
      </trkpt>
      <trkpt lat="47.16551" lon="4.93481">
        <ele>353</ele>
        <time>2014-04-25T07:05:39Z</time>
      </trkpt>
      <trkpt lat="47.16546" lon="4.93482">
        <ele>354</ele>
        <time>2014-04-25T07:05:41Z</time>
      </trkpt>
      <trkpt lat="47.16541" lon="4.93485">
        <ele>354</ele>
        <time>2014-04-25T07:05:44Z</time>
      </trkpt>
      <trkpt lat="47.16537" lon="4.93489">
        <ele>354</ele>
        <time>2014-04-25T07:05:48Z</time>
      </trkpt>
      <trkpt lat="47.16535" lon="4.93497">
        <ele>354</ele>
        <time>2014-04-25T07:05:52Z</time>
      </trkpt>
      <trkpt lat="47.16535" lon="4.93504">
        <ele>349</ele>
        <time>2014-04-25T07:05:55Z</time>
      </trkpt>
      <trkpt lat="47.16534" lon="4.93512">
        <ele>349</ele>
        <time>2014-04-25T07:05:59Z</time>
      </trkpt>
      <trkpt lat="47.16533" lon="4.9352">
        <ele>349</ele>
        <time>2014-04-25T07:06:04Z</time>
      </trkpt>
      <trkpt lat="47.1653" lon="4.93525">
        <ele>349</ele>
        <time>2014-04-25T07:06:08Z</time>
      </trkpt>
      <trkpt lat="47.16526" lon="4.93529">
        <ele>348</ele>
        <time>2014-04-25T07:06:12Z</time>
      </trkpt>
      <trkpt lat="47.16523" lon="4.93535">
        <ele>348</ele>
        <time>2014-04-25T07:06:16Z</time>
      </trkpt>
      <trkpt lat="47.16523" lon="4.93543">
        <ele>347</ele>
        <time>2014-04-25T07:06:21Z</time>
      </trkpt>
      <trkpt lat="47.16522" lon="4.93551">
        <ele>347</ele>
        <time>2014-04-25T07:06:25Z</time>
      </trkpt>
      <trkpt lat="47.16521" lon="4.93559">
        <ele>346</ele>
        <time>2014-04-25T07:06:30Z</time>
      </trkpt>
      <trkpt lat="47.16519" lon="4.93566">
        <ele>345</ele>
        <time>2014-04-25T07:06:34Z</time>
      </trkpt>
      <trkpt lat="47.16516" lon="4.93572">
        <ele>344</ele>
        <time>2014-04-25T07:06:38Z</time>
      </trkpt>
      <trkpt lat="47.16509" lon="4.93575">
        <ele>343</ele>
        <time>2014-04-25T07:06:53Z</time>
      </trkpt>
      <trkpt lat="47.16507" lon="4.93582">
        <ele>341</ele>
        <time>2014-04-25T07:06:58Z</time>
      </trkpt>
      <trkpt lat="47.16506" lon="4.93588">
        <ele>340</ele>
        <time>2014-04-25T07:07:02Z</time>
      </trkpt>
      <trkpt lat="47.16504" lon="4.93596">
        <ele>341</ele>
        <time>2014-04-25T07:07:07Z</time>
      </trkpt>
      <trkpt lat="47.16502" lon="4.93603">
        <ele>341</ele>
        <time>2014-04-25T07:07:11Z</time>
      </trkpt>
      <trkpt lat="47.16499" lon="4.93609">
        <ele>342</ele>
        <time>2014-04-25T07:07:14Z</time>
      </trkpt>
      <trkpt lat="47.16497" lon="4.93616">
        <ele>342</ele>
        <time>2014-04-25T07:07:18Z</time>
      </trkpt>
      <trkpt lat="47.16494" lon="4.93622">
        <ele>342</ele>
        <time>2014-04-25T07:07:22Z</time>
      </trkpt>
      <trkpt lat="47.16493" lon="4.9363">
        <ele>342</ele>
        <time>2014-04-25T07:07:26Z</time>
      </trkpt>
      <trkpt lat="47.1649" lon="4.93637">
        <ele>342</ele>
        <time>2014-04-25T07:07:30Z</time>
      </trkpt>
      <trkpt lat="47.16488" lon="4.93642">
        <ele>341</ele>
        <time>2014-04-25T07:07:35Z</time>
      </trkpt>
      <trkpt lat="47.16487" lon="4.9365">
        <ele>340</ele>
        <time>2014-04-25T07:07:41Z</time>
      </trkpt>
      <trkpt lat="47.16485" lon="4.93658">
        <ele>340</ele>
        <time>2014-04-25T07:07:46Z</time>
      </trkpt>
      <trkpt lat="47.16482" lon="4.93665">
        <ele>340</ele>
        <time>2014-04-25T07:07:50Z</time>
      </trkpt>
      <trkpt lat="47.16481" lon="4.93673">
        <ele>338</ele>
        <time>2014-04-25T07:07:56Z</time>
      </trkpt>
      <trkpt lat="47.16481" lon="4.93679">
        <ele>339</ele>
        <time>2014-04-25T07:08:00Z</time>
      </trkpt>
      <trkpt lat="47.16477" lon="4.93686">
        <ele>339</ele>
        <time>2014-04-25T07:08:05Z</time>
      </trkpt>
      <trkpt lat="47.16477" lon="4.93695">
        <ele>340</ele>
        <time>2014-04-25T07:08:11Z</time>
      </trkpt>
      <trkpt lat="47.1648" lon="4.93701">
        <ele>340</ele>
        <time>2014-04-25T07:08:14Z</time>
      </trkpt>
      <trkpt lat="47.16483" lon="4.93708">
        <ele>339</ele>
        <time>2014-04-25T07:08:20Z</time>
      </trkpt>
      <trkpt lat="47.16485" lon="4.93713">
        <ele>339</ele>
        <time>2014-04-25T07:08:25Z</time>
      </trkpt>
      <trkpt lat="47.16484" lon="4.9372">
        <ele>339</ele>
        <time>2014-04-25T07:08:29Z</time>
      </trkpt>
      <trkpt lat="47.1648" lon="4.93727">
        <ele>339</ele>
        <time>2014-04-25T07:08:32Z</time>
      </trkpt>
      <trkpt lat="47.16478" lon="4.93734">
        <ele>339</ele>
        <time>2014-04-25T07:08:37Z</time>
      </trkpt>
      <trkpt lat="47.16478" lon="4.9374">
        <ele>338</ele>
        <time>2014-04-25T07:08:42Z</time>
      </trkpt>
      <trkpt lat="47.16474" lon="4.93746">
        <ele>339</ele>
        <time>2014-04-25T07:08:46Z</time>
      </trkpt>
      <trkpt lat="47.16473" lon="4.93753">
        <ele>336</ele>
        <time>2014-04-25T07:08:51Z</time>
      </trkpt>
      <trkpt lat="47.16476" lon="4.93761">
        <ele>336</ele>
        <time>2014-04-25T07:08:54Z</time>
      </trkpt>
      <trkpt lat="47.16479" lon="4.93767">
        <ele>336</ele>
        <time>2014-04-25T07:08:56Z</time>
      </trkpt>
      <trkpt lat="47.16476" lon="4.9378">
        <ele>336</ele>
        <time>2014-04-25T07:09:05Z</time>
      </trkpt>
      <trkpt lat="47.16465" lon="4.93784">
        <ele>337</ele>
        <time>2014-04-25T07:09:09Z</time>
      </trkpt>
      <trkpt lat="47.16457" lon="4.93791">
        <ele>337</ele>
        <time>2014-04-25T07:09:15Z</time>
      </trkpt>
      <trkpt lat="47.16454" lon="4.93805">
        <ele>337</ele>
        <time>2014-04-25T07:09:22Z</time>
      </trkpt>
      <trkpt lat="47.16453" lon="4.93821">
        <ele>337</ele>
        <time>2014-04-25T07:09:28Z</time>
      </trkpt>
      <trkpt lat="47.16457" lon="4.93834">
        <ele>333</ele>
        <time>2014-04-25T07:09:33Z</time>
      </trkpt>
      <trkpt lat="47.16456" lon="4.93848">
        <ele>333</ele>
        <time>2014-04-25T07:09:38Z</time>
      </trkpt>
      <trkpt lat="47.16456" lon="4.93862">
        <ele>333</ele>
        <time>2014-04-25T07:09:42Z</time>
      </trkpt>
      <trkpt lat="47.16458" lon="4.93876">
        <ele>332</ele>
        <time>2014-04-25T07:09:47Z</time>
      </trkpt>
      <trkpt lat="47.16459" lon="4.9389">
        <ele>332</ele>
        <time>2014-04-25T07:09:58Z</time>
      </trkpt>
      <trkpt lat="47.16456" lon="4.93903">
        <ele>332</ele>
        <time>2014-04-25T07:10:03Z</time>
      </trkpt>
      <trkpt lat="47.16464" lon="4.9391">
        <ele>330</ele>
        <time>2014-04-25T07:10:14Z</time>
      </trkpt>
      <trkpt lat="47.16468" lon="4.93922">
        <ele>327</ele>
        <time>2014-04-25T07:10:20Z</time>
      </trkpt>
      <trkpt lat="47.16471" lon="4.93936">
        <ele>327</ele>
        <time>2014-04-25T07:10:32Z</time>
      </trkpt>
      <trkpt lat="47.16478" lon="4.93945">
        <ele>326</ele>
        <time>2014-04-25T07:10:40Z</time>
      </trkpt>
      <trkpt lat="47.16481" lon="4.93957">
        <ele>326</ele>
        <time>2014-04-25T07:10:46Z</time>
      </trkpt>
      <trkpt lat="47.1648" lon="4.93973">
        <ele>325</ele>
        <time>2014-04-25T07:10:52Z</time>
      </trkpt>
      <trkpt lat="47.1648" lon="4.93984">
        <ele>324</ele>
        <time>2014-04-25T07:11:04Z</time>
      </trkpt>
      <trkpt lat="47.16481" lon="4.93988">
        <ele>323</ele>
        <time>2014-04-25T07:11:15Z</time>
      </trkpt>
      <trkpt lat="47.16477" lon="4.9399">
        <ele>324</ele>
        <time>2014-04-25T07:11:23Z</time>
      </trkpt>
      <trkpt lat="47.16475" lon="4.93998">
        <ele>324</ele>
        <time>2014-04-25T07:11:34Z</time>
      </trkpt>
      <trkpt lat="47.16474" lon="4.94006">
        <ele>324</ele>
        <time>2014-04-25T07:11:38Z</time>
      </trkpt>
      <trkpt lat="47.16476" lon="4.94014">
        <ele>324</ele>
        <time>2014-04-25T07:11:43Z</time>
      </trkpt>
      <trkpt lat="47.16478" lon="4.94021">
        <ele>324</ele>
        <time>2014-04-25T07:11:47Z</time>
      </trkpt>
      <trkpt lat="47.1648" lon="4.94027">
        <ele>324</ele>
        <time>2014-04-25T07:11:54Z</time>
      </trkpt>
      <trkpt lat="47.16482" lon="4.94034">
        <ele>324</ele>
        <time>2014-04-25T07:12:00Z</time>
      </trkpt>
      <trkpt lat="47.16483" lon="4.94039">
        <ele>324</ele>
        <time>2014-04-25T07:12:09Z</time>
      </trkpt>
      <trkpt lat="47.16483" lon="4.94046">
        <ele>324</ele>
        <time>2014-04-25T07:12:17Z</time>
      </trkpt>
      <trkpt lat="47.16479" lon="4.94059">
        <ele>324</ele>
        <time>2014-04-25T07:12:28Z</time>
      </trkpt>
      <trkpt lat="47.16485" lon="4.94065">
        <ele>322</ele>
        <time>2014-04-25T07:12:35Z</time>
      </trkpt>
      <trkpt lat="47.16487" lon="4.94071">
        <ele>321</ele>
        <time>2014-04-25T07:12:38Z</time>
      </trkpt>
      <trkpt lat="47.16492" lon="4.94074">
        <ele>319</ele>
        <time>2014-04-25T07:12:41Z</time>
      </trkpt>
      <trkpt lat="47.16494" lon="4.94084">
        <ele>316</ele>
        <time>2014-04-25T07:12:47Z</time>
      </trkpt>
      <trkpt lat="47.16495" lon="4.94092">
        <ele>317</ele>
        <time>2014-04-25T07:12:51Z</time>
      </trkpt>
      <trkpt lat="47.16496" lon="4.94106">
        <ele>320</ele>
        <time>2014-04-25T07:12:59Z</time>
      </trkpt>
      <trkpt lat="47.16498" lon="4.94112">
        <ele>320</ele>
        <time>2014-04-25T07:13:06Z</time>
      </trkpt>
      <trkpt lat="47.16504" lon="4.94123">
        <ele>312</ele>
        <time>2014-04-25T07:13:18Z</time>
      </trkpt>
      <trkpt lat="47.16506" lon="4.94137">
        <ele>312</ele>
        <time>2014-04-25T07:13:26Z</time>
      </trkpt>
      <trkpt lat="47.16509" lon="4.94151">
        <ele>311</ele>
        <time>2014-04-25T07:13:32Z</time>
      </trkpt>
      <trkpt lat="47.16513" lon="4.94158">
        <ele>311</ele>
        <time>2014-04-25T07:13:36Z</time>
      </trkpt>
      <trkpt lat="47.16515" lon="4.94165">
        <ele>311</ele>
        <time>2014-04-25T07:13:40Z</time>
      </trkpt>
      <trkpt lat="47.16518" lon="4.9417">
        <ele>307</ele>
        <time>2014-04-25T07:13:43Z</time>
      </trkpt>
      <trkpt lat="47.16522" lon="4.94176">
        <ele>307</ele>
        <time>2014-04-25T07:13:47Z</time>
      </trkpt>
      <trkpt lat="47.16526" lon="4.9418">
        <ele>306</ele>
        <time>2014-04-25T07:13:50Z</time>
      </trkpt>
      <trkpt lat="47.1653" lon="4.94185">
        <ele>306</ele>
        <time>2014-04-25T07:13:53Z</time>
      </trkpt>
      <trkpt lat="47.16533" lon="4.9419">
        <ele>306</ele>
        <time>2014-04-25T07:13:56Z</time>
      </trkpt>
      <trkpt lat="47.16537" lon="4.94197">
        <ele>305</ele>
        <time>2014-04-25T07:14:00Z</time>
      </trkpt>
      <trkpt lat="47.1654" lon="4.94203">
        <ele>305</ele>
        <time>2014-04-25T07:14:03Z</time>
      </trkpt>
      <trkpt lat="47.16545" lon="4.94208">
        <ele>304</ele>
        <time>2014-04-25T07:14:06Z</time>
      </trkpt>
      <trkpt lat="47.16547" lon="4.94214">
        <ele>304</ele>
        <time>2014-04-25T07:14:10Z</time>
      </trkpt>
      <trkpt lat="47.16545" lon="4.94221">
        <ele>304</ele>
        <time>2014-04-25T07:14:14Z</time>
      </trkpt>
      <trkpt lat="47.16546" lon="4.94229">
        <ele>303</ele>
        <time>2014-04-25T07:14:19Z</time>
      </trkpt>
      <trkpt lat="47.16546" lon="4.94237">
        <ele>303</ele>
        <time>2014-04-25T07:14:23Z</time>
      </trkpt>
      <trkpt lat="47.16548" lon="4.94244">
        <ele>303</ele>
        <time>2014-04-25T07:14:27Z</time>
      </trkpt>
      <trkpt lat="47.1655" lon="4.94251">
        <ele>299</ele>
        <time>2014-04-25T07:14:31Z</time>
      </trkpt>
      <trkpt lat="47.16552" lon="4.94258">
        <ele>298</ele>
        <time>2014-04-25T07:14:35Z</time>
      </trkpt>
      <trkpt lat="47.16553" lon="4.94265">
        <ele>298</ele>
        <time>2014-04-25T07:14:39Z</time>
      </trkpt>
      <trkpt lat="47.16555" lon="4.94273">
        <ele>298</ele>
        <time>2014-04-25T07:14:43Z</time>
      </trkpt>
      <trkpt lat="47.16553" lon="4.94282">
        <ele>298</ele>
        <time>2014-04-25T07:14:47Z</time>
      </trkpt>
      <trkpt lat="47.16553" lon="4.9429">
        <ele>298</ele>
        <time>2014-04-25T07:14:51Z</time>
      </trkpt>
      <trkpt lat="47.16553" lon="4.94297">
        <ele>297</ele>
        <time>2014-04-25T07:14:55Z</time>
      </trkpt>
      <trkpt lat="47.16555" lon="4.94303">
        <ele>297</ele>
        <time>2014-04-25T07:14:59Z</time>
      </trkpt>
      <trkpt lat="47.16559" lon="4.9431">
        <ele>297</ele>
        <time>2014-04-25T07:15:04Z</time>
      </trkpt>
      <trkpt lat="47.16563" lon="4.94313">
        <ele>297</ele>
        <time>2014-04-25T07:15:07Z</time>
      </trkpt>
      <trkpt lat="47.16567" lon="4.94318">
        <ele>296</ele>
        <time>2014-04-25T07:15:10Z</time>
      </trkpt>
      <trkpt lat="47.1657" lon="4.94322">
        <ele>296</ele>
        <time>2014-04-25T07:15:14Z</time>
      </trkpt>
      <trkpt lat="47.16567" lon="4.9433">
        <ele>296</ele>
        <time>2014-04-25T07:15:18Z</time>
      </trkpt>
      <trkpt lat="47.16569" lon="4.94338">
        <ele>293</ele>
        <time>2014-04-25T07:15:22Z</time>
      </trkpt>
      <trkpt lat="47.16568" lon="4.94345">
        <ele>293</ele>
        <time>2014-04-25T07:15:33Z</time>
      </trkpt>
      <trkpt lat="47.16567" lon="4.94352">
        <ele>293</ele>
        <time>2014-04-25T07:15:36Z</time>
      </trkpt>
      <trkpt lat="47.16566" lon="4.94359">
        <ele>293</ele>
        <time>2014-04-25T07:15:41Z</time>
      </trkpt>
      <trkpt lat="47.16564" lon="4.94367">
        <ele>292</ele>
        <time>2014-04-25T07:15:49Z</time>
      </trkpt>
      <trkpt lat="47.16563" lon="4.94374">
        <ele>292</ele>
        <time>2014-04-25T07:15:54Z</time>
      </trkpt>
      <trkpt lat="47.16566" lon="4.9438">
        <ele>292</ele>
        <time>2014-04-25T07:15:58Z</time>
      </trkpt>
      <trkpt lat="47.16567" lon="4.94387">
        <ele>292</ele>
        <time>2014-04-25T07:16:03Z</time>
      </trkpt>
      <trkpt lat="47.16567" lon="4.94395">
        <ele>291</ele>
        <time>2014-04-25T07:16:08Z</time>
      </trkpt>
      <trkpt lat="47.16568" lon="4.94403">
        <ele>291</ele>
        <time>2014-04-25T07:16:13Z</time>
      </trkpt>
      <trkpt lat="47.16569" lon="4.94409">
        <ele>290</ele>
        <time>2014-04-25T07:16:17Z</time>
      </trkpt>
      <trkpt lat="47.1657" lon="4.94416">
        <ele>290</ele>
        <time>2014-04-25T07:16:22Z</time>
      </trkpt>
      <trkpt lat="47.16572" lon="4.94424">
        <ele>288</ele>
        <time>2014-04-25T07:16:27Z</time>
      </trkpt>
      <trkpt lat="47.16573" lon="4.94432">
        <ele>288</ele>
        <time>2014-04-25T07:16:32Z</time>
      </trkpt>
      <trkpt lat="47.16575" lon="4.94439">
        <ele>288</ele>
        <time>2014-04-25T07:16:36Z</time>
      </trkpt>
      <trkpt lat="47.16576" lon="4.94447">
        <ele>288</ele>
        <time>2014-04-25T07:16:40Z</time>
      </trkpt>
      <trkpt lat="47.16576" lon="4.94455">
        <ele>288</ele>
        <time>2014-04-25T07:16:44Z</time>
      </trkpt>
      <trkpt lat="47.16578" lon="4.94462">
        <ele>288</ele>
        <time>2014-04-25T07:16:48Z</time>
      </trkpt>
      <trkpt lat="47.16577" lon="4.94469">
        <ele>287</ele>
        <time>2014-04-25T07:16:53Z</time>
      </trkpt>
      <trkpt lat="47.16577" lon="4.94476">
        <ele>287</ele>
        <time>2014-04-25T07:16:57Z</time>
      </trkpt>
      <trkpt lat="47.16578" lon="4.94484">
        <ele>287</ele>
        <time>2014-04-25T07:17:01Z</time>
      </trkpt>
      <trkpt lat="47.16576" lon="4.94508">
        <ele>285</ele>
        <time>2014-04-25T07:17:17Z</time>
      </trkpt>
      <trkpt lat="47.16578" lon="4.94515">
        <ele>285</ele>
        <time>2014-04-25T07:17:21Z</time>
      </trkpt>
      <trkpt lat="47.1658" lon="4.94521">
        <ele>285</ele>
        <time>2014-04-25T07:17:26Z</time>
      </trkpt>
      <trkpt lat="47.16581" lon="4.94527">
        <ele>285</ele>
        <time>2014-04-25T07:17:30Z</time>
      </trkpt>
      <trkpt lat="47.16582" lon="4.94534">
        <ele>285</ele>
        <time>2014-04-25T07:17:34Z</time>
      </trkpt>
      <trkpt lat="47.16581" lon="4.94544">
        <ele>285</ele>
        <time>2014-04-25T07:17:38Z</time>
      </trkpt>
      <trkpt lat="47.16581" lon="4.94553">
        <ele>284</ele>
        <time>2014-04-25T07:17:41Z</time>
      </trkpt>
      <trkpt lat="47.1658" lon="4.9456">
        <ele>284</ele>
        <time>2014-04-25T07:17:44Z</time>
      </trkpt>
      <trkpt lat="47.16582" lon="4.94568">
        <ele>283</ele>
        <time>2014-04-25T07:17:48Z</time>
      </trkpt>
      <trkpt lat="47.16583" lon="4.94574">
        <ele>283</ele>
        <time>2014-04-25T07:17:51Z</time>
      </trkpt>
      <trkpt lat="47.16584" lon="4.94583">
        <ele>282</ele>
        <time>2014-04-25T07:17:55Z</time>
      </trkpt>
      <trkpt lat="47.16587" lon="4.9459">
        <ele>282</ele>
        <time>2014-04-25T07:17:59Z</time>
      </trkpt>
      <trkpt lat="47.16587" lon="4.94597">
        <ele>282</ele>
        <time>2014-04-25T07:18:04Z</time>
      </trkpt>
      <trkpt lat="47.16587" lon="4.94606">
        <ele>282</ele>
        <time>2014-04-25T07:18:09Z</time>
      </trkpt>
      <trkpt lat="47.16587" lon="4.94612">
        <ele>281</ele>
        <time>2014-04-25T07:18:13Z</time>
      </trkpt>
      <trkpt lat="47.16588" lon="4.94619">
        <ele>281</ele>
        <time>2014-04-25T07:18:17Z</time>
      </trkpt>
      <trkpt lat="47.16589" lon="4.94625">
        <ele>281</ele>
        <time>2014-04-25T07:18:20Z</time>
      </trkpt>
      <trkpt lat="47.1659" lon="4.94634">
        <ele>281</ele>
        <time>2014-04-25T07:18:24Z</time>
      </trkpt>
      <trkpt lat="47.16592" lon="4.94642">
        <ele>280</ele>
        <time>2014-04-25T07:18:27Z</time>
      </trkpt>
      <trkpt lat="47.16594" lon="4.94648">
        <ele>280</ele>
        <time>2014-04-25T07:18:30Z</time>
      </trkpt>
      <trkpt lat="47.16592" lon="4.94656">
        <ele>279</ele>
        <time>2014-04-25T07:18:34Z</time>
      </trkpt>
      <trkpt lat="47.16595" lon="4.94662">
        <ele>279</ele>
        <time>2014-04-25T07:18:39Z</time>
      </trkpt>
      <trkpt lat="47.16597" lon="4.94669">
        <ele>277</ele>
        <time>2014-04-25T07:18:44Z</time>
      </trkpt>
      <trkpt lat="47.16599" lon="4.94675">
        <ele>277</ele>
        <time>2014-04-25T07:18:48Z</time>
      </trkpt>
      <trkpt lat="47.166" lon="4.94684">
        <ele>277</ele>
        <time>2014-04-25T07:18:52Z</time>
      </trkpt>
      <trkpt lat="47.166" lon="4.94692">
        <ele>277</ele>
        <time>2014-04-25T07:18:58Z</time>
      </trkpt>
      <trkpt lat="47.16599" lon="4.94699">
        <ele>277</ele>
        <time>2014-04-25T07:19:02Z</time>
      </trkpt>
      <trkpt lat="47.166" lon="4.94707">
        <ele>277</ele>
        <time>2014-04-25T07:19:06Z</time>
      </trkpt>
      <trkpt lat="47.166" lon="4.94716">
        <ele>277</ele>
        <time>2014-04-25T07:19:10Z</time>
      </trkpt>
      <trkpt lat="47.166" lon="4.94724">
        <ele>276</ele>
        <time>2014-04-25T07:19:14Z</time>
      </trkpt>
      <trkpt lat="47.16601" lon="4.94731">
        <ele>276</ele>
        <time>2014-04-25T07:19:18Z</time>
      </trkpt>
      <trkpt lat="47.16602" lon="4.94738">
        <ele>276</ele>
        <time>2014-04-25T07:19:22Z</time>
      </trkpt>
      <trkpt lat="47.16602" lon="4.94746">
        <ele>275</ele>
        <time>2014-04-25T07:19:26Z</time>
      </trkpt>
      <trkpt lat="47.16602" lon="4.94754">
        <ele>273</ele>
        <time>2014-04-25T07:19:30Z</time>
      </trkpt>
      <trkpt lat="47.16602" lon="4.94762">
        <ele>273</ele>
        <time>2014-04-25T07:19:34Z</time>
      </trkpt>
      <trkpt lat="47.16602" lon="4.9477">
        <ele>273</ele>
        <time>2014-04-25T07:19:38Z</time>
      </trkpt>
      <trkpt lat="47.16601" lon="4.94778">
        <ele>273</ele>
        <time>2014-04-25T07:19:42Z</time>
      </trkpt>
      <trkpt lat="47.16601" lon="4.94786">
        <ele>273</ele>
        <time>2014-04-25T07:19:46Z</time>
      </trkpt>
      <trkpt lat="47.166" lon="4.94793">
        <ele>273</ele>
        <time>2014-04-25T07:19:50Z</time>
      </trkpt>
      <trkpt lat="47.16598" lon="4.94801">
        <ele>272</ele>
        <time>2014-04-25T07:19:54Z</time>
      </trkpt>
      <trkpt lat="47.16596" lon="4.94809">
        <ele>272</ele>
        <time>2014-04-25T07:19:58Z</time>
      </trkpt>
      <trkpt lat="47.16594" lon="4.94817">
        <ele>271</ele>
        <time>2014-04-25T07:20:02Z</time>
      </trkpt>
      <trkpt lat="47.16593" lon="4.94825">
        <ele>271</ele>
        <time>2014-04-25T07:20:06Z</time>
      </trkpt>
      <trkpt lat="47.16591" lon="4.94832">
        <ele>270</ele>
        <time>2014-04-25T07:20:11Z</time>
      </trkpt>
      <trkpt lat="47.16589" lon="4.9484">
        <ele>269</ele>
        <time>2014-04-25T07:20:16Z</time>
      </trkpt>
      <trkpt lat="47.16586" lon="4.94845">
        <ele>269</ele>
        <time>2014-04-25T07:20:20Z</time>
      </trkpt>
      <trkpt lat="47.16583" lon="4.94851">
        <ele>268</ele>
        <time>2014-04-25T07:20:23Z</time>
      </trkpt>
      <trkpt lat="47.16578" lon="4.94858">
        <ele>267</ele>
        <time>2014-04-25T07:20:47Z</time>
      </trkpt>
      <trkpt lat="47.16574" lon="4.94865">
        <ele>267</ele>
        <time>2014-04-25T07:20:51Z</time>
      </trkpt>
      <trkpt lat="47.1657" lon="4.94872">
        <ele>267</ele>
        <time>2014-04-25T07:20:55Z</time>
      </trkpt>
      <trkpt lat="47.16567" lon="4.94877">
        <ele>267</ele>
        <time>2014-04-25T07:20:59Z</time>
      </trkpt>
      <trkpt lat="47.16564" lon="4.94883">
        <ele>266</ele>
        <time>2014-04-25T07:21:05Z</time>
      </trkpt>
      <trkpt lat="47.1656" lon="4.94889">
        <ele>266</ele>
        <time>2014-04-25T07:21:08Z</time>
      </trkpt>
      <trkpt lat="47.16557" lon="4.94896">
        <ele>266</ele>
        <time>2014-04-25T07:21:12Z</time>
      </trkpt>
      <trkpt lat="47.16554" lon="4.94902">
        <ele>266</ele>
        <time>2014-04-25T07:21:16Z</time>
      </trkpt>
      <trkpt lat="47.1655" lon="4.94908">
        <ele>266</ele>
        <time>2014-04-25T07:21:21Z</time>
      </trkpt>
      <trkpt lat="47.16547" lon="4.94913">
        <ele>266</ele>
        <time>2014-04-25T07:21:25Z</time>
      </trkpt>
      <trkpt lat="47.16545" lon="4.94918">
        <ele>264</ele>
        <time>2014-04-25T07:21:29Z</time>
      </trkpt>
      <trkpt lat="47.16541" lon="4.94924">
        <ele>264</ele>
        <time>2014-04-25T07:21:33Z</time>
      </trkpt>
      <trkpt lat="47.16537" lon="4.94928">
        <ele>264</ele>
        <time>2014-04-25T07:21:37Z</time>
      </trkpt>
      <trkpt lat="47.16534" lon="4.94932">
        <ele>264</ele>
        <time>2014-04-25T07:21:41Z</time>
      </trkpt>
      <trkpt lat="47.16529" lon="4.94938">
        <ele>264</ele>
        <time>2014-04-25T07:21:45Z</time>
      </trkpt>
      <trkpt lat="47.16526" lon="4.94943">
        <ele>264</ele>
        <time>2014-04-25T07:21:49Z</time>
      </trkpt>
      <trkpt lat="47.16522" lon="4.94948">
        <ele>263</ele>
        <time>2014-04-25T07:21:52Z</time>
      </trkpt>
      <trkpt lat="47.16518" lon="4.94951">
        <ele>263</ele>
        <time>2014-04-25T07:21:56Z</time>
      </trkpt>
      <trkpt lat="47.16513" lon="4.94954">
        <ele>263</ele>
        <time>2014-04-25T07:22:00Z</time>
      </trkpt>
      <trkpt lat="47.16511" lon="4.94957">
        <ele>263</ele>
        <time>2014-04-25T07:22:08Z</time>
      </trkpt>
      <trkpt lat="47.16505" lon="4.94959">
        <ele>263</ele>
        <time>2014-04-25T07:22:15Z</time>
      </trkpt>
      <trkpt lat="47.165" lon="4.94963">
        <ele>263</ele>
        <time>2014-04-25T07:22:19Z</time>
      </trkpt>
      <trkpt lat="47.16496" lon="4.94967">
        <ele>263</ele>
        <time>2014-04-25T07:22:22Z</time>
      </trkpt>
      <trkpt lat="47.16491" lon="4.94971">
        <ele>263</ele>
        <time>2014-04-25T07:22:26Z</time>
      </trkpt>
      <trkpt lat="47.16487" lon="4.94974">
        <ele>263</ele>
        <time>2014-04-25T07:22:31Z</time>
      </trkpt>
      <trkpt lat="47.16483" lon="4.9498">
        <ele>262</ele>
        <time>2014-04-25T07:22:35Z</time>
      </trkpt>
      <trkpt lat="47.16479" lon="4.94984">
        <ele>262</ele>
        <time>2014-04-25T07:22:38Z</time>
      </trkpt>
      <trkpt lat="47.16475" lon="4.94989">
        <ele>262</ele>
        <time>2014-04-25T07:22:43Z</time>
      </trkpt>
      <trkpt lat="47.16471" lon="4.94995">
        <ele>262</ele>
        <time>2014-04-25T07:22:47Z</time>
      </trkpt>
      <trkpt lat="47.16466" lon="4.94999">
        <ele>262</ele>
        <time>2014-04-25T07:22:52Z</time>
      </trkpt>
      <trkpt lat="47.16462" lon="4.95004">
        <ele>261</ele>
        <time>2014-04-25T07:22:56Z</time>
      </trkpt>
      <trkpt lat="47.16459" lon="4.9501">
        <ele>261</ele>
        <time>2014-04-25T07:23:01Z</time>
      </trkpt>
      <trkpt lat="47.16456" lon="4.95016">
        <ele>261</ele>
        <time>2014-04-25T07:23:07Z</time>
      </trkpt>
      <trkpt lat="47.16453" lon="4.95022">
        <ele>261</ele>
        <time>2014-04-25T07:23:12Z</time>
      </trkpt>
      <trkpt lat="47.1645" lon="4.95025">
        <ele>261</ele>
        <time>2014-04-25T07:23:28Z</time>
      </trkpt>
      <trkpt lat="47.16447" lon="4.9503">
        <ele>261</ele>
        <time>2014-04-25T07:23:32Z</time>
      </trkpt>
      <trkpt lat="47.16445" lon="4.95036">
        <ele>261</ele>
        <time>2014-04-25T07:23:36Z</time>
      </trkpt>
      <trkpt lat="47.16442" lon="4.95042">
        <ele>261</ele>
        <time>2014-04-25T07:23:40Z</time>
      </trkpt>
      <trkpt lat="47.1644" lon="4.95049">
        <ele>261</ele>
        <time>2014-04-25T07:23:44Z</time>
      </trkpt>
      <trkpt lat="47.16438" lon="4.95055">
        <ele>260</ele>
        <time>2014-04-25T07:23:48Z</time>
      </trkpt>
      <trkpt lat="47.16437" lon="4.95062">
        <ele>260</ele>
        <time>2014-04-25T07:23:53Z</time>
      </trkpt>
      <trkpt lat="47.16436" lon="4.95069">
        <ele>260</ele>
        <time>2014-04-25T07:23:58Z</time>
      </trkpt>
      <trkpt lat="47.16434" lon="4.95083">
        <ele>260</ele>
        <time>2014-04-25T07:24:11Z</time>
      </trkpt>
      <trkpt lat="47.16433" lon="4.95092">
        <ele>259</ele>
        <time>2014-04-25T07:24:14Z</time>
      </trkpt>
      <trkpt lat="47.16432" lon="4.95099">
        <ele>259</ele>
        <time>2014-04-25T07:24:17Z</time>
      </trkpt>
      <trkpt lat="47.16431" lon="4.95106">
        <ele>259</ele>
        <time>2014-04-25T07:24:20Z</time>
      </trkpt>
      <trkpt lat="47.1643" lon="4.95112">
        <ele>259</ele>
        <time>2014-04-25T07:24:23Z</time>
      </trkpt>
      <trkpt lat="47.16429" lon="4.95119">
        <ele>259</ele>
        <time>2014-04-25T07:24:26Z</time>
      </trkpt>
      <trkpt lat="47.16428" lon="4.95127">
        <ele>259</ele>
        <time>2014-04-25T07:24:30Z</time>
      </trkpt>
      <trkpt lat="47.16428" lon="4.95136">
        <ele>259</ele>
        <time>2014-04-25T07:24:34Z</time>
      </trkpt>
      <trkpt lat="47.16428" lon="4.95143">
        <ele>259</ele>
        <time>2014-04-25T07:24:37Z</time>
      </trkpt>
      <trkpt lat="47.16428" lon="4.9515">
        <ele>259</ele>
        <time>2014-04-25T07:24:41Z</time>
      </trkpt>
      <trkpt lat="47.16427" lon="4.95157">
        <ele>259</ele>
        <time>2014-04-25T07:24:46Z</time>
      </trkpt>
      <trkpt lat="47.16426" lon="4.95163">
        <ele>258</ele>
        <time>2014-04-25T07:24:50Z</time>
      </trkpt>
      <trkpt lat="47.16423" lon="4.95169">
        <ele>258</ele>
        <time>2014-04-25T07:24:54Z</time>
      </trkpt>
      <trkpt lat="47.16425" lon="4.95174">
        <ele>258</ele>
        <time>2014-04-25T07:25:16Z</time>
      </trkpt>
      <trkpt lat="47.16424" lon="4.95184">
        <ele>258</ele>
        <time>2014-04-25T07:25:25Z</time>
      </trkpt>
      <trkpt lat="47.16423" lon="4.95193">
        <ele>257</ele>
        <time>2014-04-25T07:25:29Z</time>
      </trkpt>
      <trkpt lat="47.16422" lon="4.95199">
        <ele>257</ele>
        <time>2014-04-25T07:25:32Z</time>
      </trkpt>
      <trkpt lat="47.1642" lon="4.95206">
        <ele>257</ele>
        <time>2014-04-25T07:25:36Z</time>
      </trkpt>
      <trkpt lat="47.16418" lon="4.95214">
        <ele>257</ele>
        <time>2014-04-25T07:25:40Z</time>
      </trkpt>
      <trkpt lat="47.16417" lon="4.9522">
        <ele>257</ele>
        <time>2014-04-25T07:25:44Z</time>
      </trkpt>
      <trkpt lat="47.16416" lon="4.95227">
        <ele>257</ele>
        <time>2014-04-25T07:25:48Z</time>
      </trkpt>
      <trkpt lat="47.16416" lon="4.95234">
        <ele>257</ele>
        <time>2014-04-25T07:25:52Z</time>
      </trkpt>
      <trkpt lat="47.16416" lon="4.95241">
        <ele>256</ele>
        <time>2014-04-25T07:25:56Z</time>
      </trkpt>
      <trkpt lat="47.16414" lon="4.95248">
        <ele>256</ele>
        <time>2014-04-25T07:26:00Z</time>
      </trkpt>
      <trkpt lat="47.16413" lon="4.95255">
        <ele>256</ele>
        <time>2014-04-25T07:26:04Z</time>
      </trkpt>
      <trkpt lat="47.16412" lon="4.95262">
        <ele>256</ele>
        <time>2014-04-25T07:26:09Z</time>
      </trkpt>
      <trkpt lat="47.16409" lon="4.95267">
        <ele>256</ele>
        <time>2014-04-25T07:26:13Z</time>
      </trkpt>
      <trkpt lat="47.16406" lon="4.95273">
        <ele>255</ele>
        <time>2014-04-25T07:26:16Z</time>
      </trkpt>
      <trkpt lat="47.16404" lon="4.95279">
        <ele>255</ele>
        <time>2014-04-25T07:26:20Z</time>
      </trkpt>
      <trkpt lat="47.16401" lon="4.95286">
        <ele>255</ele>
        <time>2014-04-25T07:26:25Z</time>
      </trkpt>
      <trkpt lat="47.16399" lon="4.95294">
        <ele>255</ele>
        <time>2014-04-25T07:26:29Z</time>
      </trkpt>
      <trkpt lat="47.16396" lon="4.953">
        <ele>255</ele>
        <time>2014-04-25T07:26:33Z</time>
      </trkpt>
      <trkpt lat="47.16393" lon="4.95307">
        <ele>255</ele>
        <time>2014-04-25T07:26:37Z</time>
      </trkpt>
      <trkpt lat="47.16391" lon="4.95313">
        <ele>255</ele>
        <time>2014-04-25T07:26:41Z</time>
      </trkpt>
      <trkpt lat="47.16389" lon="4.95319">
        <ele>255</ele>
        <time>2014-04-25T07:26:45Z</time>
      </trkpt>
      <trkpt lat="47.16386" lon="4.95326">
        <ele>254</ele>
        <time>2014-04-25T07:26:49Z</time>
      </trkpt>
      <trkpt lat="47.16386" lon="4.95333">
        <ele>254</ele>
        <time>2014-04-25T07:26:53Z</time>
      </trkpt>
      <trkpt lat="47.16385" lon="4.95341">
        <ele>253</ele>
        <time>2014-04-25T07:26:58Z</time>
      </trkpt>
      <trkpt lat="47.16383" lon="4.95347">
        <ele>253</ele>
        <time>2014-04-25T07:27:02Z</time>
      </trkpt>
      <trkpt lat="47.16385" lon="4.95351">
        <ele>253</ele>
        <time>2014-04-25T07:27:21Z</time>
      </trkpt>
      <trkpt lat="47.16382" lon="4.95357">
        <ele>253</ele>
        <time>2014-04-25T07:27:26Z</time>
      </trkpt>
      <trkpt lat="47.16382" lon="4.95365">
        <ele>253</ele>
        <time>2014-04-25T07:27:30Z</time>
      </trkpt>
      <trkpt lat="47.16383" lon="4.95373">
        <ele>253</ele>
        <time>2014-04-25T07:27:34Z</time>
      </trkpt>
      <trkpt lat="47.16385" lon="4.95379">
        <ele>253</ele>
        <time>2014-04-25T07:27:38Z</time>
      </trkpt>
      <trkpt lat="47.16382" lon="4.95387">
        <ele>253</ele>
        <time>2014-04-25T07:27:43Z</time>
      </trkpt>
      <trkpt lat="47.16381" lon="4.95394">
        <ele>253</ele>
        <time>2014-04-25T07:27:46Z</time>
      </trkpt>
      <trkpt lat="47.16379" lon="4.95401">
        <ele>252</ele>
        <time>2014-04-25T07:27:50Z</time>
      </trkpt>
      <trkpt lat="47.16378" lon="4.95408">
        <ele>252</ele>
        <time>2014-04-25T07:27:54Z</time>
      </trkpt>
      <trkpt lat="47.16376" lon="4.95415">
        <ele>252</ele>
        <time>2014-04-25T07:27:58Z</time>
      </trkpt>
      <trkpt lat="47.16374" lon="4.95423">
        <ele>251</ele>
        <time>2014-04-25T07:28:02Z</time>
      </trkpt>
      <trkpt lat="47.16374" lon="4.95431">
        <ele>251</ele>
        <time>2014-04-25T07:28:06Z</time>
      </trkpt>
      <trkpt lat="47.16372" lon="4.95439">
        <ele>251</ele>
        <time>2014-04-25T07:28:11Z</time>
      </trkpt>
      <trkpt lat="47.16371" lon="4.95446">
        <ele>251</ele>
        <time>2014-04-25T07:28:15Z</time>
      </trkpt>
      <trkpt lat="47.1637" lon="4.95455">
        <ele>251</ele>
        <time>2014-04-25T07:28:19Z</time>
      </trkpt>
      <trkpt lat="47.16368" lon="4.95462">
        <ele>251</ele>
        <time>2014-04-25T07:28:23Z</time>
      </trkpt>
      <trkpt lat="47.16369" lon="4.9547">
        <ele>251</ele>
        <time>2014-04-25T07:28:26Z</time>
      </trkpt>
      <trkpt lat="47.16371" lon="4.95478">
        <ele>251</ele>
        <time>2014-04-25T07:28:29Z</time>
      </trkpt>
      <trkpt lat="47.1637" lon="4.95486">
        <ele>251</ele>
        <time>2014-04-25T07:28:32Z</time>
      </trkpt>
      <trkpt lat="47.16369" lon="4.95493">
        <ele>251</ele>
        <time>2014-04-25T07:28:37Z</time>
      </trkpt>
      <trkpt lat="47.16367" lon="4.955">
        <ele>249</ele>
        <time>2014-04-25T07:28:42Z</time>
      </trkpt>
      <trkpt lat="47.16365" lon="4.95507">
        <ele>249</ele>
        <time>2014-04-25T07:28:46Z</time>
      </trkpt>
      <trkpt lat="47.16361" lon="4.95512">
        <ele>249</ele>
        <time>2014-04-25T07:28:51Z</time>
      </trkpt>
      <trkpt lat="47.1636" lon="4.95519">
        <ele>249</ele>
        <time>2014-04-25T07:28:56Z</time>
      </trkpt>
      <trkpt lat="47.16358" lon="4.95525">
        <ele>248</ele>
        <time>2014-04-25T07:29:00Z</time>
      </trkpt>
      <trkpt lat="47.16355" lon="4.95532">
        <ele>248</ele>
        <time>2014-04-25T07:29:04Z</time>
      </trkpt>
      <trkpt lat="47.16353" lon="4.9554">
        <ele>248</ele>
        <time>2014-04-25T07:29:08Z</time>
      </trkpt>
      <trkpt lat="47.1635" lon="4.95545">
        <ele>248</ele>
        <time>2014-04-25T07:29:12Z</time>
      </trkpt>
      <trkpt lat="47.16347" lon="4.9555">
        <ele>247</ele>
        <time>2014-04-25T07:29:16Z</time>
      </trkpt>
      <trkpt lat="47.16343" lon="4.95556">
        <ele>247</ele>
        <time>2014-04-25T07:29:21Z</time>
      </trkpt>
      <trkpt lat="47.16339" lon="4.95558">
        <ele>247</ele>
        <time>2014-04-25T07:29:24Z</time>
      </trkpt>
      <trkpt lat="47.16333" lon="4.95562">
        <ele>246</ele>
        <time>2014-04-25T07:29:28Z</time>
      </trkpt>
      <trkpt lat="47.16328" lon="4.95566">
        <ele>246</ele>
        <time>2014-04-25T07:29:32Z</time>
      </trkpt>
      <trkpt lat="47.16324" lon="4.95567">
        <ele>246</ele>
        <time>2014-04-25T07:29:36Z</time>
      </trkpt>
      <trkpt lat="47.16319" lon="4.95567">
        <ele>246</ele>
        <time>2014-04-25T07:29:41Z</time>
      </trkpt>
      <trkpt lat="47.16315" lon="4.95572">
        <ele>246</ele>
        <time>2014-04-25T07:29:52Z</time>
      </trkpt>
      <trkpt lat="47.16312" lon="4.95576">
        <ele>246</ele>
        <time>2014-04-25T07:29:56Z</time>
      </trkpt>
      <trkpt lat="47.16307" lon="4.95577">
        <ele>246</ele>
        <time>2014-04-25T07:30:00Z</time>
      </trkpt>
      <trkpt lat="47.16302" lon="4.95577">
        <ele>246</ele>
        <time>2014-04-25T07:30:06Z</time>
      </trkpt>
      <trkpt lat="47.16296" lon="4.95576">
        <ele>246</ele>
        <time>2014-04-25T07:30:12Z</time>
      </trkpt>
      <trkpt lat="47.16292" lon="4.95576">
        <ele>246</ele>
        <time>2014-04-25T07:30:16Z</time>
      </trkpt>
      <trkpt lat="47.16288" lon="4.95579">
        <ele>246</ele>
        <time>2014-04-25T07:30:25Z</time>
      </trkpt>
      <trkpt lat="47.16284" lon="4.95581">
        <ele>246</ele>
        <time>2014-04-25T07:30:35Z</time>
      </trkpt>
      <trkpt lat="47.16279" lon="4.95581">
        <ele>246</ele>
        <time>2014-04-25T07:30:39Z</time>
      </trkpt>
      <trkpt lat="47.16274" lon="4.95578">
        <ele>246</ele>
        <time>2014-04-25T07:30:43Z</time>
      </trkpt>
      <trkpt lat="47.16269" lon="4.95578">
        <ele>246</ele>
        <time>2014-04-25T07:30:48Z</time>
      </trkpt>
      <trkpt lat="47.16264" lon="4.95578">
        <ele>246</ele>
        <time>2014-04-25T07:30:53Z</time>
      </trkpt>
      <trkpt lat="47.16259" lon="4.95578">
        <ele>246</ele>
        <time>2014-04-25T07:30:57Z</time>
      </trkpt>
      <trkpt lat="47.16254" lon="4.95579">
        <ele>245</ele>
        <time>2014-04-25T07:31:01Z</time>
      </trkpt>
      <trkpt lat="47.16249" lon="4.95581">
        <ele>245</ele>
        <time>2014-04-25T07:31:06Z</time>
      </trkpt>
      <trkpt lat="47.16244" lon="4.95581">
        <ele>245</ele>
        <time>2014-04-25T07:31:11Z</time>
      </trkpt>
      <trkpt lat="47.1624" lon="4.95582">
        <ele>245</ele>
        <time>2014-04-25T07:31:15Z</time>
      </trkpt>
      <trkpt lat="47.16235" lon="4.95581">
        <ele>246</ele>
        <time>2014-04-25T07:31:19Z</time>
      </trkpt>
      <trkpt lat="47.1623" lon="4.9558">
        <ele>246</ele>
        <time>2014-04-25T07:31:23Z</time>
      </trkpt>
      <trkpt lat="47.16225" lon="4.9558">
        <ele>246</ele>
        <time>2014-04-25T07:31:27Z</time>
      </trkpt>
      <trkpt lat="47.16219" lon="4.95577">
        <ele>246</ele>
        <time>2014-04-25T07:31:31Z</time>
      </trkpt>
      <trkpt lat="47.16215" lon="4.95576">
        <ele>246</ele>
        <time>2014-04-25T07:31:35Z</time>
      </trkpt>
      <trkpt lat="47.16209" lon="4.95575">
        <ele>246</ele>
        <time>2014-04-25T07:31:40Z</time>
      </trkpt>
      <trkpt lat="47.16204" lon="4.95573">
        <ele>246</ele>
        <time>2014-04-25T07:31:44Z</time>
      </trkpt>
      <trkpt lat="47.16199" lon="4.95571">
        <ele>246</ele>
        <time>2014-04-25T07:31:48Z</time>
      </trkpt>
      <trkpt lat="47.16194" lon="4.95569">
        <ele>246</ele>
        <time>2014-04-25T07:31:52Z</time>
      </trkpt>
      <trkpt lat="47.16189" lon="4.95567">
        <ele>246</ele>
        <time>2014-04-25T07:31:56Z</time>
      </trkpt>
      <trkpt lat="47.16183" lon="4.95565">
        <ele>246</ele>
        <time>2014-04-25T07:32:00Z</time>
      </trkpt>
      <trkpt lat="47.16178" lon="4.95563">
        <ele>246</ele>
        <time>2014-04-25T07:32:05Z</time>
      </trkpt>
      <trkpt lat="47.16173" lon="4.95562">
        <ele>246</ele>
        <time>2014-04-25T07:32:09Z</time>
      </trkpt>
      <trkpt lat="47.16168" lon="4.95562">
        <ele>246</ele>
        <time>2014-04-25T07:32:12Z</time>
      </trkpt>
      <trkpt lat="47.16163" lon="4.95559">
        <ele>246</ele>
        <time>2014-04-25T07:32:16Z</time>
      </trkpt>
      <trkpt lat="47.16159" lon="4.95557">
        <ele>246</ele>
        <time>2014-04-25T07:32:20Z</time>
      </trkpt>
      <trkpt lat="47.16155" lon="4.95552">
        <ele>246</ele>
        <time>2014-04-25T07:32:24Z</time>
      </trkpt>
      <trkpt lat="47.16151" lon="4.95546">
        <ele>246</ele>
        <time>2014-04-25T07:32:28Z</time>
      </trkpt>
      <trkpt lat="47.16148" lon="4.95539">
        <ele>246</ele>
        <time>2014-04-25T07:32:32Z</time>
      </trkpt>
      <trkpt lat="47.16144" lon="4.95534">
        <ele>246</ele>
        <time>2014-04-25T07:32:39Z</time>
      </trkpt>
      <trkpt lat="47.1614" lon="4.95533">
        <ele>246</ele>
        <time>2014-04-25T07:32:43Z</time>
      </trkpt>
      <trkpt lat="47.16135" lon="4.95534">
        <ele>246</ele>
        <time>2014-04-25T07:32:48Z</time>
      </trkpt>
      <trkpt lat="47.1613" lon="4.95533">
        <ele>246</ele>
        <time>2014-04-25T07:32:53Z</time>
      </trkpt>
      <trkpt lat="47.16124" lon="4.95531">
        <ele>246</ele>
        <time>2014-04-25T07:32:58Z</time>
      </trkpt>
      <trkpt lat="47.1612" lon="4.95527">
        <ele>246</ele>
        <time>2014-04-25T07:33:02Z</time>
      </trkpt>
      <trkpt lat="47.16117" lon="4.95522">
        <ele>246</ele>
        <time>2014-04-25T07:33:06Z</time>
      </trkpt>
      <trkpt lat="47.16115" lon="4.95516">
        <ele>246</ele>
        <time>2014-04-25T07:33:10Z</time>
      </trkpt>
      <trkpt lat="47.16113" lon="4.95509">
        <ele>246</ele>
        <time>2014-04-25T07:33:13Z</time>
      </trkpt>
      <trkpt lat="47.16112" lon="4.95502">
        <ele>246</ele>
        <time>2014-04-25T07:33:19Z</time>
      </trkpt>
      <trkpt lat="47.16109" lon="4.95496">
        <ele>247</ele>
        <time>2014-04-25T07:33:24Z</time>
      </trkpt>
      <trkpt lat="47.16104" lon="4.95493">
        <ele>247</ele>
        <time>2014-04-25T07:33:29Z</time>
      </trkpt>
      <trkpt lat="47.16099" lon="4.95493">
        <ele>247</ele>
        <time>2014-04-25T07:33:34Z</time>
      </trkpt>
      <trkpt lat="47.16095" lon="4.95493">
        <ele>246</ele>
        <time>2014-04-25T07:33:38Z</time>
      </trkpt>
      <trkpt lat="47.1609" lon="4.9549">
        <ele>246</ele>
        <time>2014-04-25T07:33:45Z</time>
      </trkpt>
      <trkpt lat="47.16085" lon="4.95485">
        <ele>246</ele>
        <time>2014-04-25T07:33:49Z</time>
      </trkpt>
      <trkpt lat="47.16081" lon="4.95482">
        <ele>246</ele>
        <time>2014-04-25T07:33:52Z</time>
      </trkpt>
      <trkpt lat="47.16077" lon="4.95476">
        <ele>245</ele>
        <time>2014-04-25T07:33:56Z</time>
      </trkpt>
      <trkpt lat="47.16076" lon="4.95469">
        <ele>245</ele>
        <time>2014-04-25T07:33:59Z</time>
      </trkpt>
      <trkpt lat="47.16073" lon="4.95464">
        <ele>245</ele>
        <time>2014-04-25T07:34:02Z</time>
      </trkpt>
      <trkpt lat="47.16068" lon="4.9546">
        <ele>245</ele>
        <time>2014-04-25T07:34:06Z</time>
      </trkpt>
      <trkpt lat="47.16064" lon="4.95455">
        <ele>245</ele>
        <time>2014-04-25T07:34:11Z</time>
      </trkpt>
      <trkpt lat="47.1606" lon="4.95451">
        <ele>245</ele>
        <time>2014-04-25T07:34:16Z</time>
      </trkpt>
      <trkpt lat="47.16055" lon="4.95449">
        <ele>245</ele>
        <time>2014-04-25T07:34:21Z</time>
      </trkpt>
      <trkpt lat="47.16053" lon="4.95443">
        <ele>245</ele>
        <time>2014-04-25T07:34:31Z</time>
      </trkpt>
      <trkpt lat="47.16052" lon="4.9544">
        <ele>245</ele>
        <time>2014-04-25T07:35:03Z</time>
      </trkpt>
      <trkpt lat="47.1605" lon="4.95434">
        <ele>245</ele>
        <time>2014-04-25T07:35:10Z</time>
      </trkpt>
      <trkpt lat="47.16048" lon="4.95429">
        <ele>245</ele>
        <time>2014-04-25T07:35:34Z</time>
      </trkpt>
      <trkpt lat="47.16045" lon="4.95424">
        <ele>245</ele>
        <time>2014-04-25T07:35:45Z</time>
      </trkpt>
      <trkpt lat="47.16042" lon="4.95418">
        <ele>245</ele>
        <time>2014-04-25T07:36:42Z</time>
      </trkpt>
      <trkpt lat="47.16046" lon="4.95417">
        <ele>246</ele>
        <time>2014-04-25T07:37:09Z</time>
      </trkpt>
      <trkpt lat="47.1605" lon="4.95422">
        <ele>245</ele>
        <time>2014-04-25T07:37:11Z</time>
      </trkpt>
      <trkpt lat="47.16055" lon="4.95428">
        <ele>245</ele>
        <time>2014-04-25T07:37:14Z</time>
      </trkpt>
      <trkpt lat="47.16059" lon="4.95432">
        <ele>245</ele>
        <time>2014-04-25T07:37:17Z</time>
      </trkpt>
      <trkpt lat="47.16063" lon="4.95437">
        <ele>245</ele>
        <time>2014-04-25T07:37:20Z</time>
      </trkpt>
      <trkpt lat="47.16063" lon="4.95446">
        <ele>245</ele>
        <time>2014-04-25T07:37:23Z</time>
      </trkpt>
      <trkpt lat="47.16069" lon="4.95449">
        <ele>245</ele>
        <time>2014-04-25T07:37:28Z</time>
      </trkpt>
      <trkpt lat="47.16074" lon="4.95451">
        <ele>245</ele>
        <time>2014-04-25T07:37:32Z</time>
      </trkpt>
      <trkpt lat="47.16079" lon="4.95453">
        <ele>245</ele>
        <time>2014-04-25T07:37:38Z</time>
      </trkpt>
      <trkpt lat="47.16084" lon="4.95456">
        <ele>247</ele>
        <time>2014-04-25T07:37:42Z</time>
      </trkpt>
      <trkpt lat="47.16089" lon="4.95457">
        <ele>247</ele>
        <time>2014-04-25T07:37:47Z</time>
      </trkpt>
      <trkpt lat="47.16094" lon="4.95457">
        <ele>247</ele>
        <time>2014-04-25T07:37:50Z</time>
      </trkpt>
      <trkpt lat="47.16099" lon="4.95461">
        <ele>247</ele>
        <time>2014-04-25T07:37:53Z</time>
      </trkpt>
      <trkpt lat="47.16102" lon="4.95466">
        <ele>247</ele>
        <time>2014-04-25T07:37:56Z</time>
      </trkpt>
      <trkpt lat="47.16106" lon="4.95471">
        <ele>247</ele>
        <time>2014-04-25T07:38:00Z</time>
      </trkpt>
      <trkpt lat="47.1611" lon="4.95476">
        <ele>247</ele>
        <time>2014-04-25T07:38:06Z</time>
      </trkpt>
      <trkpt lat="47.16115" lon="4.95474">
        <ele>247</ele>
        <time>2014-04-25T07:38:10Z</time>
      </trkpt>
      <trkpt lat="47.16117" lon="4.95467">
        <ele>247</ele>
        <time>2014-04-25T07:38:13Z</time>
      </trkpt>
      <trkpt lat="47.16119" lon="4.95461">
        <ele>247</ele>
        <time>2014-04-25T07:38:16Z</time>
      </trkpt>
      <trkpt lat="47.16121" lon="4.95454">
        <ele>247</ele>
        <time>2014-04-25T07:38:19Z</time>
      </trkpt>
      <trkpt lat="47.15813" lon="4.95481">
        <ele>245</ele>
        <time>2014-04-25T07:51:37Z</time>
      </trkpt>
      <trkpt lat="47.15807" lon="4.95482">
        <ele>244</ele>
        <time>2014-04-25T07:51:40Z</time>
      </trkpt>
      <trkpt lat="47.15802" lon="4.95484">
        <ele>244</ele>
        <time>2014-04-25T07:51:45Z</time>
      </trkpt>
      <trkpt lat="47.15802" lon="4.95485">
        <ele>244</ele>
        <time>2014-04-25T07:52:40Z</time>
      </trkpt>
      <trkpt lat="47.15797" lon="4.95485">
        <ele>244</ele>
        <time>2014-04-25T07:52:48Z</time>
      </trkpt>
      <trkpt lat="47.15791" lon="4.95486">
        <ele>244</ele>
        <time>2014-04-25T07:52:53Z</time>
      </trkpt>
      <trkpt lat="47.15787" lon="4.95486">
        <ele>244</ele>
        <time>2014-04-25T07:52:57Z</time>
      </trkpt>
      <trkpt lat="47.15781" lon="4.95487">
        <ele>244</ele>
        <time>2014-04-25T07:53:01Z</time>
      </trkpt>
      <trkpt lat="47.15777" lon="4.95489">
        <ele>244</ele>
        <time>2014-04-25T07:53:05Z</time>
      </trkpt>
      <trkpt lat="47.15771" lon="4.95488">
        <ele>244</ele>
        <time>2014-04-25T07:53:10Z</time>
      </trkpt>
      <trkpt lat="47.15767" lon="4.95484">
        <ele>244</ele>
        <time>2014-04-25T07:53:14Z</time>
      </trkpt>
      <trkpt lat="47.15763" lon="4.9548">
        <ele>244</ele>
        <time>2014-04-25T07:53:19Z</time>
      </trkpt>
      <trkpt lat="47.15759" lon="4.95479">
        <ele>244</ele>
        <time>2014-04-25T07:53:52Z</time>
      </trkpt>
      <trkpt lat="47.15754" lon="4.95475">
        <ele>244</ele>
        <time>2014-04-25T07:53:57Z</time>
      </trkpt>
      <trkpt lat="47.15749" lon="4.95472">
        <ele>244</ele>
        <time>2014-04-25T07:54:00Z</time>
      </trkpt>
      <trkpt lat="47.15745" lon="4.9547">
        <ele>244</ele>
        <time>2014-04-25T07:54:04Z</time>
      </trkpt>
      <trkpt lat="47.1574" lon="4.95466">
        <ele>244</ele>
        <time>2014-04-25T07:54:08Z</time>
      </trkpt>
      <trkpt lat="47.15736" lon="4.95462">
        <ele>244</ele>
        <time>2014-04-25T07:54:12Z</time>
      </trkpt>
      <trkpt lat="47.15732" lon="4.95459">
        <ele>244</ele>
        <time>2014-04-25T07:54:16Z</time>
      </trkpt>
      <trkpt lat="47.15728" lon="4.95454">
        <ele>244</ele>
        <time>2014-04-25T07:54:20Z</time>
      </trkpt>
      <trkpt lat="47.15724" lon="4.95449">
        <ele>244</ele>
        <time>2014-04-25T07:54:24Z</time>
      </trkpt>
      <trkpt lat="47.15721" lon="4.95444">
        <ele>244</ele>
        <time>2014-04-25T07:54:27Z</time>
      </trkpt>
      <trkpt lat="47.15717" lon="4.9544">
        <ele>244</ele>
        <time>2014-04-25T07:54:30Z</time>
      </trkpt>
      <trkpt lat="47.15713" lon="4.95436">
        <ele>244</ele>
        <time>2014-04-25T07:54:34Z</time>
      </trkpt>
      <trkpt lat="47.15709" lon="4.95432">
        <ele>244</ele>
        <time>2014-04-25T07:54:39Z</time>
      </trkpt>
      <trkpt lat="47.15704" lon="4.95429">
        <ele>244</ele>
        <time>2014-04-25T07:54:43Z</time>
      </trkpt>
      <trkpt lat="47.157" lon="4.95424">
        <ele>244</ele>
        <time>2014-04-25T07:54:47Z</time>
      </trkpt>
      <trkpt lat="47.15696" lon="4.95421">
        <ele>244</ele>
        <time>2014-04-25T07:54:51Z</time>
      </trkpt>
      <trkpt lat="47.15693" lon="4.95416">
        <ele>244</ele>
        <time>2014-04-25T07:54:55Z</time>
      </trkpt>
      <trkpt lat="47.1569" lon="4.9541">
        <ele>244</ele>
        <time>2014-04-25T07:54:59Z</time>
      </trkpt>
      <trkpt lat="47.15687" lon="4.95405">
        <ele>244</ele>
        <time>2014-04-25T07:55:03Z</time>
      </trkpt>
      <trkpt lat="47.15673" lon="4.95377">
        <ele>245</ele>
        <time>2014-04-25T07:58:18Z</time>
      </trkpt>
      <trkpt lat="47.1567" lon="4.95372">
        <ele>245</ele>
        <time>2014-04-25T07:58:23Z</time>
      </trkpt>
      <trkpt lat="47.15666" lon="4.95367">
        <ele>246</ele>
        <time>2014-04-25T07:58:28Z</time>
      </trkpt>
      <trkpt lat="47.15666" lon="4.95367">
        <ele>246</ele>
        <time>2014-04-25T07:59:11Z</time>
      </trkpt>
      <trkpt lat="47.15663" lon="4.95368">
        <ele>246</ele>
        <time>2014-04-25T07:59:16Z</time>
      </trkpt>
      <trkpt lat="47.15659" lon="4.95366">
        <ele>246</ele>
        <time>2014-04-25T07:59:20Z</time>
      </trkpt>
      <trkpt lat="47.15655" lon="4.95363">
        <ele>246</ele>
        <time>2014-04-25T07:59:23Z</time>
      </trkpt>
      <trkpt lat="47.1565" lon="4.9536">
        <ele>246</ele>
        <time>2014-04-25T07:59:27Z</time>
      </trkpt>
      <trkpt lat="47.15645" lon="4.95355">
        <ele>246</ele>
        <time>2014-04-25T07:59:31Z</time>
      </trkpt>
      <trkpt lat="47.15642" lon="4.9535">
        <ele>246</ele>
        <time>2014-04-25T07:59:35Z</time>
      </trkpt>
      <trkpt lat="47.15637" lon="4.95346">
        <ele>246</ele>
        <time>2014-04-25T07:59:39Z</time>
      </trkpt>
      <trkpt lat="47.15633" lon="4.95343">
        <ele>246</ele>
        <time>2014-04-25T07:59:43Z</time>
      </trkpt>
      <trkpt lat="47.15629" lon="4.9534">
        <ele>246</ele>
        <time>2014-04-25T07:59:47Z</time>
      </trkpt>
      <trkpt lat="47.15625" lon="4.95335">
        <ele>246</ele>
        <time>2014-04-25T07:59:51Z</time>
      </trkpt>
      <trkpt lat="47.15621" lon="4.9533">
        <ele>247</ele>
        <time>2014-04-25T07:59:55Z</time>
      </trkpt>
      <trkpt lat="47.15616" lon="4.95326">
        <ele>247</ele>
        <time>2014-04-25T07:59:59Z</time>
      </trkpt>
      <trkpt lat="47.15612" lon="4.95323">
        <ele>247</ele>
        <time>2014-04-25T08:00:03Z</time>
      </trkpt>
      <trkpt lat="47.15608" lon="4.9532">
        <ele>247</ele>
        <time>2014-04-25T08:00:07Z</time>
      </trkpt>
      <trkpt lat="47.15603" lon="4.95315">
        <ele>247</ele>
        <time>2014-04-25T08:00:12Z</time>
      </trkpt>
      <trkpt lat="47.15599" lon="4.9531">
        <ele>247</ele>
        <time>2014-04-25T08:00:16Z</time>
      </trkpt>
      <trkpt lat="47.15595" lon="4.95304">
        <ele>247</ele>
        <time>2014-04-25T08:00:20Z</time>
      </trkpt>
      <trkpt lat="47.15591" lon="4.95299">
        <ele>247</ele>
        <time>2014-04-25T08:00:23Z</time>
      </trkpt>
      <trkpt lat="47.15588" lon="4.95295">
        <ele>247</ele>
        <time>2014-04-25T08:00:26Z</time>
      </trkpt>
      <trkpt lat="47.15583" lon="4.9529">
        <ele>247</ele>
        <time>2014-04-25T08:00:30Z</time>
      </trkpt>
      <trkpt lat="47.15579" lon="4.95285">
        <ele>246</ele>
        <time>2014-04-25T08:00:34Z</time>
      </trkpt>
      <trkpt lat="47.15574" lon="4.95281">
        <ele>246</ele>
        <time>2014-04-25T08:00:38Z</time>
      </trkpt>
      <trkpt lat="47.1557" lon="4.95277">
        <ele>246</ele>
        <time>2014-04-25T08:00:42Z</time>
      </trkpt>
      <trkpt lat="47.15565" lon="4.95274">
        <ele>246</ele>
        <time>2014-04-25T08:00:46Z</time>
      </trkpt>
      <trkpt lat="47.15561" lon="4.95271">
        <ele>246</ele>
        <time>2014-04-25T08:00:50Z</time>
      </trkpt>
      <trkpt lat="47.15557" lon="4.95268">
        <ele>246</ele>
        <time>2014-04-25T08:00:54Z</time>
      </trkpt>
      <trkpt lat="47.15552" lon="4.95264">
        <ele>246</ele>
        <time>2014-04-25T08:00:59Z</time>
      </trkpt>
      <trkpt lat="47.15548" lon="4.95261">
        <ele>246</ele>
        <time>2014-04-25T08:01:03Z</time>
      </trkpt>
      <trkpt lat="47.15543" lon="4.95259">
        <ele>246</ele>
        <time>2014-04-25T08:01:07Z</time>
      </trkpt>
      <trkpt lat="47.15539" lon="4.95255">
        <ele>245</ele>
        <time>2014-04-25T08:01:11Z</time>
      </trkpt>
      <trkpt lat="47.15535" lon="4.95251">
        <ele>245</ele>
        <time>2014-04-25T08:01:15Z</time>
      </trkpt>
      <trkpt lat="47.1553" lon="4.95247">
        <ele>245</ele>
        <time>2014-04-25T08:01:19Z</time>
      </trkpt>
      <trkpt lat="47.15525" lon="4.95244">
        <ele>245</ele>
        <time>2014-04-25T08:01:23Z</time>
      </trkpt>
      <trkpt lat="47.1552" lon="4.95241">
        <ele>245</ele>
        <time>2014-04-25T08:01:27Z</time>
      </trkpt>
      <trkpt lat="47.15515" lon="4.95237">
        <ele>245</ele>
        <time>2014-04-25T08:01:31Z</time>
      </trkpt>
      <trkpt lat="47.1551" lon="4.95236">
        <ele>245</ele>
        <time>2014-04-25T08:01:35Z</time>
      </trkpt>
      <trkpt lat="47.15505" lon="4.95233">
        <ele>245</ele>
        <time>2014-04-25T08:01:39Z</time>
      </trkpt>
      <trkpt lat="47.15501" lon="4.95229">
        <ele>245</ele>
        <time>2014-04-25T08:01:42Z</time>
      </trkpt>
      <trkpt lat="47.15497" lon="4.95227">
        <ele>243</ele>
        <time>2014-04-25T08:01:45Z</time>
      </trkpt>
      <trkpt lat="47.15492" lon="4.95225">
        <ele>243</ele>
        <time>2014-04-25T08:01:48Z</time>
      </trkpt>
      <trkpt lat="47.15487" lon="4.95223">
        <ele>242</ele>
        <time>2014-04-25T08:01:52Z</time>
      </trkpt>
      <trkpt lat="47.15482" lon="4.9522">
        <ele>242</ele>
        <time>2014-04-25T08:01:56Z</time>
      </trkpt>
      <trkpt lat="47.15476" lon="4.95219">
        <ele>242</ele>
        <time>2014-04-25T08:02:00Z</time>
      </trkpt>
      <trkpt lat="47.1547" lon="4.95217">
        <ele>242</ele>
        <time>2014-04-25T08:02:04Z</time>
      </trkpt>
      <trkpt lat="47.15465" lon="4.95215">
        <ele>242</ele>
        <time>2014-04-25T08:02:08Z</time>
      </trkpt>
      <trkpt lat="47.15461" lon="4.95215">
        <ele>242</ele>
        <time>2014-04-25T08:02:12Z</time>
      </trkpt>
      <trkpt lat="47.15456" lon="4.95218">
        <ele>241</ele>
        <time>2014-04-25T08:02:16Z</time>
      </trkpt>
      <trkpt lat="47.15451" lon="4.95221">
        <ele>241</ele>
        <time>2014-04-25T08:02:21Z</time>
      </trkpt>
      <trkpt lat="47.15446" lon="4.95223">
        <ele>241</ele>
        <time>2014-04-25T08:02:25Z</time>
      </trkpt>
      <trkpt lat="47.15441" lon="4.95224">
        <ele>241</ele>
        <time>2014-04-25T08:02:29Z</time>
      </trkpt>
      <trkpt lat="47.15436" lon="4.95224">
        <ele>241</ele>
        <time>2014-04-25T08:02:34Z</time>
      </trkpt>
      <trkpt lat="47.15431" lon="4.95225">
        <ele>240</ele>
        <time>2014-04-25T08:02:38Z</time>
      </trkpt>
      <trkpt lat="47.15426" lon="4.95227">
        <ele>240</ele>
        <time>2014-04-25T08:02:41Z</time>
      </trkpt>
      <trkpt lat="47.15422" lon="4.95229">
        <ele>240</ele>
        <time>2014-04-25T08:02:44Z</time>
      </trkpt>
      <trkpt lat="47.15417" lon="4.95231">
        <ele>240</ele>
        <time>2014-04-25T08:02:47Z</time>
      </trkpt>
      <trkpt lat="47.15412" lon="4.95232">
        <ele>239</ele>
        <time>2014-04-25T08:02:50Z</time>
      </trkpt>
      <trkpt lat="47.15407" lon="4.95234">
        <ele>239</ele>
        <time>2014-04-25T08:02:53Z</time>
      </trkpt>
      <trkpt lat="47.15402" lon="4.95234">
        <ele>239</ele>
        <time>2014-04-25T08:02:58Z</time>
      </trkpt>
      <trkpt lat="47.15397" lon="4.95232">
        <ele>239</ele>
        <time>2014-04-25T08:03:02Z</time>
      </trkpt>
      <trkpt lat="47.15392" lon="4.9523">
        <ele>239</ele>
        <time>2014-04-25T08:03:06Z</time>
      </trkpt>
      <trkpt lat="47.15387" lon="4.95227">
        <ele>239</ele>
        <time>2014-04-25T08:03:10Z</time>
      </trkpt>
      <trkpt lat="47.15381" lon="4.95225">
        <ele>239</ele>
        <time>2014-04-25T08:03:14Z</time>
      </trkpt>
      <trkpt lat="47.15377" lon="4.95224">
        <ele>239</ele>
        <time>2014-04-25T08:03:17Z</time>
      </trkpt>
      <trkpt lat="47.15371" lon="4.95222">
        <ele>239</ele>
        <time>2014-04-25T08:03:21Z</time>
      </trkpt>
      <trkpt lat="47.15366" lon="4.95221">
        <ele>239</ele>
        <time>2014-04-25T08:03:24Z</time>
      </trkpt>
      <trkpt lat="47.15361" lon="4.95219">
        <ele>239</ele>
        <time>2014-04-25T08:03:27Z</time>
      </trkpt>
      <trkpt lat="47.15356" lon="4.95217">
        <ele>239</ele>
        <time>2014-04-25T08:03:30Z</time>
      </trkpt>
      <trkpt lat="47.15351" lon="4.95215">
        <ele>239</ele>
        <time>2014-04-25T08:03:33Z</time>
      </trkpt>
      <trkpt lat="47.15346" lon="4.95213">
        <ele>239</ele>
        <time>2014-04-25T08:03:37Z</time>
      </trkpt>
      <trkpt lat="47.15343" lon="4.95213">
        <ele>239</ele>
        <time>2014-04-25T08:03:44Z</time>
      </trkpt>
      <trkpt lat="47.15338" lon="4.95212">
        <ele>239</ele>
        <time>2014-04-25T08:03:49Z</time>
      </trkpt>
      <trkpt lat="47.15334" lon="4.95208">
        <ele>239</ele>
        <time>2014-04-25T08:03:52Z</time>
      </trkpt>
      <trkpt lat="47.15329" lon="4.95203">
        <ele>241</ele>
        <time>2014-04-25T08:03:55Z</time>
      </trkpt>
      <trkpt lat="47.15324" lon="4.95202">
        <ele>241</ele>
        <time>2014-04-25T08:03:58Z</time>
      </trkpt>
      <trkpt lat="47.15319" lon="4.95201">
        <ele>241</ele>
        <time>2014-04-25T08:04:01Z</time>
      </trkpt>
      <trkpt lat="47.15314" lon="4.95199">
        <ele>241</ele>
        <time>2014-04-25T08:04:04Z</time>
      </trkpt>
      <trkpt lat="47.15309" lon="4.95197">
        <ele>241</ele>
        <time>2014-04-25T08:04:07Z</time>
      </trkpt>
      <trkpt lat="47.15304" lon="4.95195">
        <ele>241</ele>
        <time>2014-04-25T08:04:11Z</time>
      </trkpt>
      <trkpt lat="47.15299" lon="4.95193">
        <ele>241</ele>
        <time>2014-04-25T08:04:19Z</time>
      </trkpt>
      <trkpt lat="47.15294" lon="4.95191">
        <ele>241</ele>
        <time>2014-04-25T08:04:22Z</time>
      </trkpt>
      <trkpt lat="47.1529" lon="4.95188">
        <ele>241</ele>
        <time>2014-04-25T08:04:25Z</time>
      </trkpt>
      <trkpt lat="47.15285" lon="4.95186">
        <ele>242</ele>
        <time>2014-04-25T08:04:28Z</time>
      </trkpt>
      <trkpt lat="47.15279" lon="4.95184">
        <ele>242</ele>
        <time>2014-04-25T08:04:31Z</time>
      </trkpt>
      <trkpt lat="47.15274" lon="4.95183">
        <ele>242</ele>
        <time>2014-04-25T08:04:34Z</time>
      </trkpt>
      <trkpt lat="47.1527" lon="4.95182">
        <ele>242</ele>
        <time>2014-04-25T08:04:40Z</time>
      </trkpt>
      <trkpt lat="47.15265" lon="4.95182">
        <ele>242</ele>
        <time>2014-04-25T08:04:44Z</time>
      </trkpt>
      <trkpt lat="47.15259" lon="4.95182">
        <ele>242</ele>
        <time>2014-04-25T08:04:48Z</time>
      </trkpt>
      <trkpt lat="47.15254" lon="4.95181">
        <ele>242</ele>
        <time>2014-04-25T08:04:51Z</time>
      </trkpt>
      <trkpt lat="47.15248" lon="4.95182">
        <ele>244</ele>
        <time>2014-04-25T08:04:57Z</time>
      </trkpt>
      <trkpt lat="47.15243" lon="4.95182">
        <ele>244</ele>
        <time>2014-04-25T08:05:01Z</time>
      </trkpt>
      <trkpt lat="47.15238" lon="4.95184">
        <ele>244</ele>
        <time>2014-04-25T08:05:04Z</time>
      </trkpt>
      <trkpt lat="47.15233" lon="4.95185">
        <ele>244</ele>
        <time>2014-04-25T08:05:07Z</time>
      </trkpt>
      <trkpt lat="47.15228" lon="4.95187">
        <ele>244</ele>
        <time>2014-04-25T08:05:11Z</time>
      </trkpt>
      <trkpt lat="47.15224" lon="4.95191">
        <ele>244</ele>
        <time>2014-04-25T08:05:16Z</time>
      </trkpt>
      <trkpt lat="47.1522" lon="4.95193">
        <ele>244</ele>
        <time>2014-04-25T08:05:20Z</time>
      </trkpt>
      <trkpt lat="47.15214" lon="4.95194">
        <ele>244</ele>
        <time>2014-04-25T08:05:24Z</time>
      </trkpt>
      <trkpt lat="47.15208" lon="4.95194">
        <ele>244</ele>
        <time>2014-04-25T08:05:27Z</time>
      </trkpt>
      <trkpt lat="47.15202" lon="4.95196">
        <ele>244</ele>
        <time>2014-04-25T08:05:30Z</time>
      </trkpt>
      <trkpt lat="47.15197" lon="4.952">
        <ele>244</ele>
        <time>2014-04-25T08:05:34Z</time>
      </trkpt>
      <trkpt lat="47.15192" lon="4.95202">
        <ele>245</ele>
        <time>2014-04-25T08:05:39Z</time>
      </trkpt>
      <trkpt lat="47.15187" lon="4.95202">
        <ele>245</ele>
        <time>2014-04-25T08:05:43Z</time>
      </trkpt>
      <trkpt lat="47.15182" lon="4.95203">
        <ele>245</ele>
        <time>2014-04-25T08:05:47Z</time>
      </trkpt>
      <trkpt lat="47.15177" lon="4.95203">
        <ele>245</ele>
        <time>2014-04-25T08:05:50Z</time>
      </trkpt>
      <trkpt lat="47.15172" lon="4.95202">
        <ele>245</ele>
        <time>2014-04-25T08:05:53Z</time>
      </trkpt>
      <trkpt lat="47.15166" lon="4.95203">
        <ele>246</ele>
        <time>2014-04-25T08:05:56Z</time>
      </trkpt>
      <trkpt lat="47.15161" lon="4.95206">
        <ele>246</ele>
        <time>2014-04-25T08:06:00Z</time>
      </trkpt>
      <trkpt lat="47.15157" lon="4.9521">
        <ele>246</ele>
        <time>2014-04-25T08:06:06Z</time>
      </trkpt>
      <trkpt lat="47.15151" lon="4.95212">
        <ele>246</ele>
        <time>2014-04-25T08:06:10Z</time>
      </trkpt>
      <trkpt lat="47.15146" lon="4.95215">
        <ele>246</ele>
        <time>2014-04-25T08:06:13Z</time>
      </trkpt>
      <trkpt lat="47.15142" lon="4.95216">
        <ele>246</ele>
        <time>2014-04-25T08:06:16Z</time>
      </trkpt>
      <trkpt lat="47.15135" lon="4.95216">
        <ele>247</ele>
        <time>2014-04-25T08:06:29Z</time>
      </trkpt>
      <trkpt lat="47.1513" lon="4.95217">
        <ele>247</ele>
        <time>2014-04-25T08:06:33Z</time>
      </trkpt>
      <trkpt lat="47.15125" lon="4.95218">
        <ele>247</ele>
        <time>2014-04-25T08:06:36Z</time>
      </trkpt>
      <trkpt lat="47.15119" lon="4.95218">
        <ele>247</ele>
        <time>2014-04-25T08:06:40Z</time>
      </trkpt>
      <trkpt lat="47.15115" lon="4.95216">
        <ele>247</ele>
        <time>2014-04-25T08:06:47Z</time>
      </trkpt>
      <trkpt lat="47.15109" lon="4.95216">
        <ele>247</ele>
        <time>2014-04-25T08:06:51Z</time>
      </trkpt>
      <trkpt lat="47.15104" lon="4.95216">
        <ele>247</ele>
        <time>2014-04-25T08:06:54Z</time>
      </trkpt>
      <trkpt lat="47.15098" lon="4.95217">
        <ele>247</ele>
        <time>2014-04-25T08:06:57Z</time>
      </trkpt>
      <trkpt lat="47.15094" lon="4.9522">
        <ele>247</ele>
        <time>2014-04-25T08:06:59Z</time>
      </trkpt>
      <trkpt lat="47.15089" lon="4.95223">
        <ele>247</ele>
        <time>2014-04-25T08:07:01Z</time>
      </trkpt>
      <trkpt lat="47.15082" lon="4.95223">
        <ele>248</ele>
        <time>2014-04-25T08:07:05Z</time>
      </trkpt>
      <trkpt lat="47.1508" lon="4.95212">
        <ele>248</ele>
        <time>2014-04-25T08:07:12Z</time>
      </trkpt>
      <trkpt lat="47.15077" lon="4.95204">
        <ele>248</ele>
        <time>2014-04-25T08:07:20Z</time>
      </trkpt>
      <trkpt lat="47.15071" lon="4.95201">
        <ele>248</ele>
        <time>2014-04-25T08:07:24Z</time>
      </trkpt>
      <trkpt lat="47.15067" lon="4.95196">
        <ele>249</ele>
        <time>2014-04-25T08:07:27Z</time>
      </trkpt>
      <trkpt lat="47.15063" lon="4.95192">
        <ele>249</ele>
        <time>2014-04-25T08:07:33Z</time>
      </trkpt>
      <trkpt lat="47.15059" lon="4.95187">
        <ele>249</ele>
        <time>2014-04-25T08:07:39Z</time>
      </trkpt>
      <trkpt lat="47.15056" lon="4.9518">
        <ele>249</ele>
        <time>2014-04-25T08:07:42Z</time>
      </trkpt>
      <trkpt lat="47.15053" lon="4.95174">
        <ele>249</ele>
        <time>2014-04-25T08:07:45Z</time>
      </trkpt>
      <trkpt lat="47.15049" lon="4.95169">
        <ele>249</ele>
        <time>2014-04-25T08:07:48Z</time>
      </trkpt>
      <trkpt lat="47.15044" lon="4.95164">
        <ele>249</ele>
        <time>2014-04-25T08:07:54Z</time>
      </trkpt>
      <trkpt lat="47.15041" lon="4.95159">
        <ele>249</ele>
        <time>2014-04-25T08:07:58Z</time>
      </trkpt>
      <trkpt lat="47.15037" lon="4.95155">
        <ele>249</ele>
        <time>2014-04-25T08:08:02Z</time>
      </trkpt>
      <trkpt lat="47.15032" lon="4.95151">
        <ele>249</ele>
        <time>2014-04-25T08:08:08Z</time>
      </trkpt>
      <trkpt lat="47.15028" lon="4.95147">
        <ele>249</ele>
        <time>2014-04-25T08:08:12Z</time>
      </trkpt>
      <trkpt lat="47.15024" lon="4.95144">
        <ele>249</ele>
        <time>2014-04-25T08:08:16Z</time>
      </trkpt>
      <trkpt lat="47.1502" lon="4.95137">
        <ele>249</ele>
        <time>2014-04-25T08:08:21Z</time>
      </trkpt>
      <trkpt lat="47.15016" lon="4.95131">
        <ele>249</ele>
        <time>2014-04-25T08:08:25Z</time>
      </trkpt>
      <trkpt lat="47.15012" lon="4.9513">
        <ele>249</ele>
        <time>2014-04-25T08:08:29Z</time>
      </trkpt>
      <trkpt lat="47.15007" lon="4.95127">
        <ele>249</ele>
        <time>2014-04-25T08:08:33Z</time>
      </trkpt>
      <trkpt lat="47.15003" lon="4.95124">
        <ele>249</ele>
        <time>2014-04-25T08:08:37Z</time>
      </trkpt>
      <trkpt lat="47.14999" lon="4.9512">
        <ele>250</ele>
        <time>2014-04-25T08:08:41Z</time>
      </trkpt>
      <trkpt lat="47.14994" lon="4.95116">
        <ele>250</ele>
        <time>2014-04-25T08:08:45Z</time>
      </trkpt>
      <trkpt lat="47.14989" lon="4.95114">
        <ele>250</ele>
        <time>2014-04-25T08:08:49Z</time>
      </trkpt>
      <trkpt lat="47.14984" lon="4.95111">
        <ele>250</ele>
        <time>2014-04-25T08:08:53Z</time>
      </trkpt>
      <trkpt lat="47.1498" lon="4.95107">
        <ele>250</ele>
        <time>2014-04-25T08:08:58Z</time>
      </trkpt>
      <trkpt lat="47.14976" lon="4.95104">
        <ele>250</ele>
        <time>2014-04-25T08:09:02Z</time>
      </trkpt>
      <trkpt lat="47.1497" lon="4.95101">
        <ele>250</ele>
        <time>2014-04-25T08:09:06Z</time>
      </trkpt>
      <trkpt lat="47.14965" lon="4.95098">
        <ele>250</ele>
        <time>2014-04-25T08:09:10Z</time>
      </trkpt>
      <trkpt lat="47.1496" lon="4.95096">
        <ele>250</ele>
        <time>2014-04-25T08:09:14Z</time>
      </trkpt>
      <trkpt lat="47.14954" lon="4.95091">
        <ele>250</ele>
        <time>2014-04-25T08:09:32Z</time>
      </trkpt>
      <trkpt lat="47.1495" lon="4.95086">
        <ele>250</ele>
        <time>2014-04-25T08:09:36Z</time>
      </trkpt>
      <trkpt lat="47.14946" lon="4.95083">
        <ele>251</ele>
        <time>2014-04-25T08:09:40Z</time>
      </trkpt>
      <trkpt lat="47.14941" lon="4.95079">
        <ele>251</ele>
        <time>2014-04-25T08:09:44Z</time>
      </trkpt>
      <trkpt lat="47.14936" lon="4.95075">
        <ele>251</ele>
        <time>2014-04-25T08:09:48Z</time>
      </trkpt>
      <trkpt lat="47.14932" lon="4.9507">
        <ele>251</ele>
        <time>2014-04-25T08:09:52Z</time>
      </trkpt>
      <trkpt lat="47.14928" lon="4.95065">
        <ele>251</ele>
        <time>2014-04-25T08:09:56Z</time>
      </trkpt>
      <trkpt lat="47.14924" lon="4.9506">
        <ele>251</ele>
        <time>2014-04-25T08:10:00Z</time>
      </trkpt>
      <trkpt lat="47.1492" lon="4.95056">
        <ele>251</ele>
        <time>2014-04-25T08:10:04Z</time>
      </trkpt>
      <trkpt lat="47.14916" lon="4.95052">
        <ele>251</ele>
        <time>2014-04-25T08:10:08Z</time>
      </trkpt>
      <trkpt lat="47.14911" lon="4.95047">
        <ele>251</ele>
        <time>2014-04-25T08:10:13Z</time>
      </trkpt>
      <trkpt lat="47.14907" lon="4.95042">
        <ele>251</ele>
        <time>2014-04-25T08:10:17Z</time>
      </trkpt>
      <trkpt lat="47.14903" lon="4.95039">
        <ele>251</ele>
        <time>2014-04-25T08:10:21Z</time>
      </trkpt>
      <trkpt lat="47.14898" lon="4.95038">
        <ele>251</ele>
        <time>2014-04-25T08:10:25Z</time>
      </trkpt>
      <trkpt lat="47.14894" lon="4.95034">
        <ele>251</ele>
        <time>2014-04-25T08:10:30Z</time>
      </trkpt>
      <trkpt lat="47.14891" lon="4.95029">
        <ele>251</ele>
        <time>2014-04-25T08:10:34Z</time>
      </trkpt>
      <trkpt lat="47.14886" lon="4.95031">
        <ele>251</ele>
        <time>2014-04-25T08:10:42Z</time>
      </trkpt>
      <trkpt lat="47.14882" lon="4.95027">
        <ele>251</ele>
        <time>2014-04-25T08:10:46Z</time>
      </trkpt>
      <trkpt lat="47.14877" lon="4.95023">
        <ele>251</ele>
        <time>2014-04-25T08:10:49Z</time>
      </trkpt>
      <trkpt lat="47.14873" lon="4.95017">
        <ele>251</ele>
        <time>2014-04-25T08:10:52Z</time>
      </trkpt>
      <trkpt lat="47.14871" lon="4.95011">
        <ele>251</ele>
        <time>2014-04-25T08:10:55Z</time>
      </trkpt>
      <trkpt lat="47.14868" lon="4.95004">
        <ele>251</ele>
        <time>2014-04-25T08:10:59Z</time>
      </trkpt>
      <trkpt lat="47.14866" lon="4.94996">
        <ele>251</ele>
        <time>2014-04-25T08:11:03Z</time>
      </trkpt>
      <trkpt lat="47.14863" lon="4.9499">
        <ele>251</ele>
        <time>2014-04-25T08:11:08Z</time>
      </trkpt>
      <trkpt lat="47.14859" lon="4.94985">
        <ele>251</ele>
        <time>2014-04-25T08:11:11Z</time>
      </trkpt>
      <trkpt lat="47.14854" lon="4.9498">
        <ele>251</ele>
        <time>2014-04-25T08:11:14Z</time>
      </trkpt>
      <trkpt lat="47.14851" lon="4.94975">
        <ele>251</ele>
        <time>2014-04-25T08:11:17Z</time>
      </trkpt>
      <trkpt lat="47.14848" lon="4.94968">
        <ele>251</ele>
        <time>2014-04-25T08:11:22Z</time>
      </trkpt>
      <trkpt lat="47.14844" lon="4.94963">
        <ele>251</ele>
        <time>2014-04-25T08:11:26Z</time>
      </trkpt>
      <trkpt lat="47.1484" lon="4.94958">
        <ele>251</ele>
        <time>2014-04-25T08:11:30Z</time>
      </trkpt>
      <trkpt lat="47.14836" lon="4.94954">
        <ele>251</ele>
        <time>2014-04-25T08:11:34Z</time>
      </trkpt>
      <trkpt lat="47.14832" lon="4.94949">
        <ele>250</ele>
        <time>2014-04-25T08:11:37Z</time>
      </trkpt>
      <trkpt lat="47.14829" lon="4.94943">
        <ele>250</ele>
        <time>2014-04-25T08:11:40Z</time>
      </trkpt>
      <trkpt lat="47.14826" lon="4.94938">
        <ele>250</ele>
        <time>2014-04-25T08:11:43Z</time>
      </trkpt>
      <trkpt lat="47.14823" lon="4.94932">
        <ele>250</ele>
        <time>2014-04-25T08:11:47Z</time>
      </trkpt>
      <trkpt lat="47.14818" lon="4.94927">
        <ele>250</ele>
        <time>2014-04-25T08:11:51Z</time>
      </trkpt>
      <trkpt lat="47.14815" lon="4.94921">
        <ele>250</ele>
        <time>2014-04-25T08:11:57Z</time>
      </trkpt>
      <trkpt lat="47.1481" lon="4.94919">
        <ele>250</ele>
        <time>2014-04-25T08:12:01Z</time>
      </trkpt>
      <trkpt lat="47.14805" lon="4.94918">
        <ele>250</ele>
        <time>2014-04-25T08:12:04Z</time>
      </trkpt>
      <trkpt lat="47.148" lon="4.94916">
        <ele>250</ele>
        <time>2014-04-25T08:12:07Z</time>
      </trkpt>
      <trkpt lat="47.14795" lon="4.94913">
        <ele>250</ele>
        <time>2014-04-25T08:12:11Z</time>
      </trkpt>
      <trkpt lat="47.14791" lon="4.9491">
        <ele>250</ele>
        <time>2014-04-25T08:12:14Z</time>
      </trkpt>
      <trkpt lat="47.14787" lon="4.94904">
        <ele>250</ele>
        <time>2014-04-25T08:12:18Z</time>
      </trkpt>
      <trkpt lat="47.14782" lon="4.94901">
        <ele>250</ele>
        <time>2014-04-25T08:12:21Z</time>
      </trkpt>
      <trkpt lat="47.14779" lon="4.94897">
        <ele>250</ele>
        <time>2014-04-25T08:12:24Z</time>
      </trkpt>
      <trkpt lat="47.14775" lon="4.94893">
        <ele>250</ele>
        <time>2014-04-25T08:12:27Z</time>
      </trkpt>
      <trkpt lat="47.14773" lon="4.94886">
        <ele>250</ele>
        <time>2014-04-25T08:12:31Z</time>
      </trkpt>
      <trkpt lat="47.14769" lon="4.94882">
        <ele>250</ele>
        <time>2014-04-25T08:12:34Z</time>
      </trkpt>
      <trkpt lat="47.14765" lon="4.94877">
        <ele>250</ele>
        <time>2014-04-25T08:12:38Z</time>
      </trkpt>
      <trkpt lat="47.1476" lon="4.94874">
        <ele>250</ele>
        <time>2014-04-25T08:12:42Z</time>
      </trkpt>
      <trkpt lat="47.14756" lon="4.94871">
        <ele>250</ele>
        <time>2014-04-25T08:12:45Z</time>
      </trkpt>
      <trkpt lat="47.14751" lon="4.94868">
        <ele>250</ele>
        <time>2014-04-25T08:12:48Z</time>
      </trkpt>
      <trkpt lat="47.14746" lon="4.94866">
        <ele>250</ele>
        <time>2014-04-25T08:12:51Z</time>
      </trkpt>
      <trkpt lat="47.14742" lon="4.94862">
        <ele>250</ele>
        <time>2014-04-25T08:12:55Z</time>
      </trkpt>
      <trkpt lat="47.14737" lon="4.94858">
        <ele>250</ele>
        <time>2014-04-25T08:13:00Z</time>
      </trkpt>
      <trkpt lat="47.14732" lon="4.94855">
        <ele>250</ele>
        <time>2014-04-25T08:13:04Z</time>
      </trkpt>
      <trkpt lat="47.14728" lon="4.94851">
        <ele>250</ele>
        <time>2014-04-25T08:13:07Z</time>
      </trkpt>
      <trkpt lat="47.14723" lon="4.94847">
        <ele>250</ele>
        <time>2014-04-25T08:13:11Z</time>
      </trkpt>
      <trkpt lat="47.1472" lon="4.94841">
        <ele>250</ele>
        <time>2014-04-25T08:13:16Z</time>
      </trkpt>
      <trkpt lat="47.14715" lon="4.94837">
        <ele>250</ele>
        <time>2014-04-25T08:13:20Z</time>
      </trkpt>
      <trkpt lat="47.1471" lon="4.94834">
        <ele>250</ele>
        <time>2014-04-25T08:13:25Z</time>
      </trkpt>
      <trkpt lat="47.14706" lon="4.9483">
        <ele>249</ele>
        <time>2014-04-25T08:13:29Z</time>
      </trkpt>
      <trkpt lat="47.14702" lon="4.94825">
        <ele>249</ele>
        <time>2014-04-25T08:13:32Z</time>
      </trkpt>
      <trkpt lat="47.14697" lon="4.94822">
        <ele>249</ele>
        <time>2014-04-25T08:13:35Z</time>
      </trkpt>
      <trkpt lat="47.14693" lon="4.94818">
        <ele>249</ele>
        <time>2014-04-25T08:13:39Z</time>
      </trkpt>
      <trkpt lat="47.14689" lon="4.94813">
        <ele>249</ele>
        <time>2014-04-25T08:13:43Z</time>
      </trkpt>
      <trkpt lat="47.14686" lon="4.94808">
        <ele>249</ele>
        <time>2014-04-25T08:13:47Z</time>
      </trkpt>
      <trkpt lat="47.14682" lon="4.94803">
        <ele>249</ele>
        <time>2014-04-25T08:13:52Z</time>
      </trkpt>
      <trkpt lat="47.14676" lon="4.94803">
        <ele>249</ele>
        <time>2014-04-25T08:13:56Z</time>
      </trkpt>
      <trkpt lat="47.14671" lon="4.94802">
        <ele>249</ele>
        <time>2014-04-25T08:13:59Z</time>
      </trkpt>
      <trkpt lat="47.14667" lon="4.94802">
        <ele>249</ele>
        <time>2014-04-25T08:14:02Z</time>
      </trkpt>
      <trkpt lat="47.14661" lon="4.94801">
        <ele>249</ele>
        <time>2014-04-25T08:14:06Z</time>
      </trkpt>
      <trkpt lat="47.14656" lon="4.94799">
        <ele>249</ele>
        <time>2014-04-25T08:14:10Z</time>
      </trkpt>
      <trkpt lat="47.14652" lon="4.94796">
        <ele>249</ele>
        <time>2014-04-25T08:14:15Z</time>
      </trkpt>
      <trkpt lat="47.14647" lon="4.94795">
        <ele>249</ele>
        <time>2014-04-25T08:14:19Z</time>
      </trkpt>
      <trkpt lat="47.14642" lon="4.94795">
        <ele>249</ele>
        <time>2014-04-25T08:14:22Z</time>
      </trkpt>
      <trkpt lat="47.14636" lon="4.94795">
        <ele>249</ele>
        <time>2014-04-25T08:14:26Z</time>
      </trkpt>
      <trkpt lat="47.14631" lon="4.94797">
        <ele>249</ele>
        <time>2014-04-25T08:14:28Z</time>
      </trkpt>
      <trkpt lat="47.14627" lon="4.94793">
        <ele>249</ele>
        <time>2014-04-25T08:14:34Z</time>
      </trkpt>
      <trkpt lat="47.14622" lon="4.94791">
        <ele>249</ele>
        <time>2014-04-25T08:14:39Z</time>
      </trkpt>
      <trkpt lat="47.14617" lon="4.94788">
        <ele>249</ele>
        <time>2014-04-25T08:14:43Z</time>
      </trkpt>
      <trkpt lat="47.1461" lon="4.94787">
        <ele>249</ele>
        <time>2014-04-25T08:15:08Z</time>
      </trkpt>
      <trkpt lat="47.14604" lon="4.94785">
        <ele>249</ele>
        <time>2014-04-25T08:15:12Z</time>
      </trkpt>
      <trkpt lat="47.14599" lon="4.94783">
        <ele>249</ele>
        <time>2014-04-25T08:15:16Z</time>
      </trkpt>
      <trkpt lat="47.14595" lon="4.9478">
        <ele>249</ele>
        <time>2014-04-25T08:15:20Z</time>
      </trkpt>
      <trkpt lat="47.14591" lon="4.94777">
        <ele>249</ele>
        <time>2014-04-25T08:15:24Z</time>
      </trkpt>
      <trkpt lat="47.14586" lon="4.94772">
        <ele>248</ele>
        <time>2014-04-25T08:15:29Z</time>
      </trkpt>
      <trkpt lat="47.14582" lon="4.94767">
        <ele>248</ele>
        <time>2014-04-25T08:15:34Z</time>
      </trkpt>
      <trkpt lat="47.14578" lon="4.94763">
        <ele>248</ele>
        <time>2014-04-25T08:15:38Z</time>
      </trkpt>
      <trkpt lat="47.14573" lon="4.9476">
        <ele>248</ele>
        <time>2014-04-25T08:15:43Z</time>
      </trkpt>
      <trkpt lat="47.14568" lon="4.94758">
        <ele>248</ele>
        <time>2014-04-25T08:15:48Z</time>
      </trkpt>
      <trkpt lat="47.14563" lon="4.94756">
        <ele>248</ele>
        <time>2014-04-25T08:15:51Z</time>
      </trkpt>
      <trkpt lat="47.14558" lon="4.94759">
        <ele>248</ele>
        <time>2014-04-25T08:15:55Z</time>
      </trkpt>
      <trkpt lat="47.14554" lon="4.9476">
        <ele>248</ele>
        <time>2014-04-25T08:16:00Z</time>
      </trkpt>
      <trkpt lat="47.14548" lon="4.94763">
        <ele>248</ele>
        <time>2014-04-25T08:16:06Z</time>
      </trkpt>
      <trkpt lat="47.14544" lon="4.94767">
        <ele>248</ele>
        <time>2014-04-25T08:16:09Z</time>
      </trkpt>
      <trkpt lat="47.14543" lon="4.94763">
        <ele>248</ele>
        <time>2014-04-25T08:16:19Z</time>
      </trkpt>
      <trkpt lat="47.14539" lon="4.94766">
        <ele>248</ele>
        <time>2014-04-25T08:16:34Z</time>
      </trkpt>
      <trkpt lat="47.14534" lon="4.94766">
        <ele>248</ele>
        <time>2014-04-25T08:16:38Z</time>
      </trkpt>
      <trkpt lat="47.14528" lon="4.94765">
        <ele>248</ele>
        <time>2014-04-25T08:16:42Z</time>
      </trkpt>
      <trkpt lat="47.14523" lon="4.94763">
        <ele>248</ele>
        <time>2014-04-25T08:16:46Z</time>
      </trkpt>
      <trkpt lat="47.14518" lon="4.94761">
        <ele>248</ele>
        <time>2014-04-25T08:16:50Z</time>
      </trkpt>
      <trkpt lat="47.14514" lon="4.94758">
        <ele>248</ele>
        <time>2014-04-25T08:16:54Z</time>
      </trkpt>
      <trkpt lat="47.1451" lon="4.94752">
        <ele>248</ele>
        <time>2014-04-25T08:16:58Z</time>
      </trkpt>
      <trkpt lat="47.14506" lon="4.9475">
        <ele>248</ele>
        <time>2014-04-25T08:17:02Z</time>
      </trkpt>
      <trkpt lat="47.14501" lon="4.94748">
        <ele>248</ele>
        <time>2014-04-25T08:17:06Z</time>
      </trkpt>
      <trkpt lat="47.14497" lon="4.94745">
        <ele>248</ele>
        <time>2014-04-25T08:17:10Z</time>
      </trkpt>
      <trkpt lat="47.14493" lon="4.94741">
        <ele>247</ele>
        <time>2014-04-25T08:17:14Z</time>
      </trkpt>
      <trkpt lat="47.14488" lon="4.94738">
        <ele>247</ele>
        <time>2014-04-25T08:17:18Z</time>
      </trkpt>
      <trkpt lat="47.14484" lon="4.94735">
        <ele>247</ele>
        <time>2014-04-25T08:17:22Z</time>
      </trkpt>
      <trkpt lat="47.1448" lon="4.94731">
        <ele>247</ele>
        <time>2014-04-25T08:17:26Z</time>
      </trkpt>
      <trkpt lat="47.14476" lon="4.94728">
        <ele>247</ele>
        <time>2014-04-25T08:17:29Z</time>
      </trkpt>
      <trkpt lat="47.14471" lon="4.94723">
        <ele>247</ele>
        <time>2014-04-25T08:17:33Z</time>
      </trkpt>
      <trkpt lat="47.14466" lon="4.94719">
        <ele>246</ele>
        <time>2014-04-25T08:17:37Z</time>
      </trkpt>
      <trkpt lat="47.14461" lon="4.94716">
        <ele>246</ele>
        <time>2014-04-25T08:17:41Z</time>
      </trkpt>
      <trkpt lat="47.14457" lon="4.94713">
        <ele>246</ele>
        <time>2014-04-25T08:17:45Z</time>
      </trkpt>
      <trkpt lat="47.14453" lon="4.94709">
        <ele>246</ele>
        <time>2014-04-25T08:17:50Z</time>
      </trkpt>
      <trkpt lat="47.14448" lon="4.94705">
        <ele>246</ele>
        <time>2014-04-25T08:17:54Z</time>
      </trkpt>
      <trkpt lat="47.14444" lon="4.94703">
        <ele>246</ele>
        <time>2014-04-25T08:17:58Z</time>
      </trkpt>
      <trkpt lat="47.14439" lon="4.94697">
        <ele>246</ele>
        <time>2014-04-25T08:18:02Z</time>
      </trkpt>
      <trkpt lat="47.14435" lon="4.94693">
        <ele>246</ele>
        <time>2014-04-25T08:18:06Z</time>
      </trkpt>
      <trkpt lat="47.14429" lon="4.94692">
        <ele>246</ele>
        <time>2014-04-25T08:18:11Z</time>
      </trkpt>
      <trkpt lat="47.14426" lon="4.94687">
        <ele>246</ele>
        <time>2014-04-25T08:18:16Z</time>
      </trkpt>
      <trkpt lat="47.14422" lon="4.94682">
        <ele>246</ele>
        <time>2014-04-25T08:18:20Z</time>
      </trkpt>
      <trkpt lat="47.14419" lon="4.94678">
        <ele>245</ele>
        <time>2014-04-25T08:18:24Z</time>
      </trkpt>
      <trkpt lat="47.14414" lon="4.94674">
        <ele>245</ele>
        <time>2014-04-25T08:18:28Z</time>
      </trkpt>
      <trkpt lat="47.14408" lon="4.94671">
        <ele>245</ele>
        <time>2014-04-25T08:18:32Z</time>
      </trkpt>
      <trkpt lat="47.14404" lon="4.94667">
        <ele>245</ele>
        <time>2014-04-25T08:18:35Z</time>
      </trkpt>
      <trkpt lat="47.144" lon="4.94662">
        <ele>245</ele>
        <time>2014-04-25T08:18:39Z</time>
      </trkpt>
      <trkpt lat="47.14396" lon="4.94657">
        <ele>245</ele>
        <time>2014-04-25T08:18:43Z</time>
      </trkpt>
      <trkpt lat="47.1439" lon="4.94654">
        <ele>245</ele>
        <time>2014-04-25T08:18:47Z</time>
      </trkpt>
      <trkpt lat="47.14386" lon="4.9465">
        <ele>245</ele>
        <time>2014-04-25T08:18:50Z</time>
      </trkpt>
      <trkpt lat="47.14382" lon="4.94647">
        <ele>245</ele>
        <time>2014-04-25T08:18:53Z</time>
      </trkpt>
      <trkpt lat="47.14378" lon="4.94642">
        <ele>245</ele>
        <time>2014-04-25T08:18:57Z</time>
      </trkpt>
      <trkpt lat="47.14373" lon="4.94637">
        <ele>244</ele>
        <time>2014-04-25T08:19:01Z</time>
      </trkpt>
      <trkpt lat="47.14369" lon="4.94635">
        <ele>244</ele>
        <time>2014-04-25T08:19:04Z</time>
      </trkpt>
      <trkpt lat="47.14365" lon="4.94632">
        <ele>244</ele>
        <time>2014-04-25T08:19:08Z</time>
      </trkpt>
      <trkpt lat="47.14363" lon="4.94625">
        <ele>244</ele>
        <time>2014-04-25T08:19:13Z</time>
      </trkpt>
      <trkpt lat="47.14359" lon="4.94621">
        <ele>244</ele>
        <time>2014-04-25T08:19:19Z</time>
      </trkpt>
      <trkpt lat="47.14356" lon="4.94616">
        <ele>244</ele>
        <time>2014-04-25T08:19:24Z</time>
      </trkpt>
      <trkpt lat="47.14351" lon="4.94612">
        <ele>244</ele>
        <time>2014-04-25T08:19:28Z</time>
      </trkpt>
      <trkpt lat="47.14346" lon="4.9461">
        <ele>244</ele>
        <time>2014-04-25T08:19:33Z</time>
      </trkpt>
      <trkpt lat="47.14343" lon="4.94605">
        <ele>244</ele>
        <time>2014-04-25T08:19:38Z</time>
      </trkpt>
      <trkpt lat="47.14339" lon="4.946">
        <ele>244</ele>
        <time>2014-04-25T08:19:42Z</time>
      </trkpt>
      <trkpt lat="47.14335" lon="4.94595">
        <ele>244</ele>
        <time>2014-04-25T08:19:47Z</time>
      </trkpt>
      <trkpt lat="47.14331" lon="4.94591">
        <ele>244</ele>
        <time>2014-04-25T08:19:51Z</time>
      </trkpt>
      <trkpt lat="47.14326" lon="4.94588">
        <ele>244</ele>
        <time>2014-04-25T08:19:55Z</time>
      </trkpt>
      <trkpt lat="47.14321" lon="4.94584">
        <ele>244</ele>
        <time>2014-04-25T08:20:00Z</time>
      </trkpt>
      <trkpt lat="47.14316" lon="4.94582">
        <ele>244</ele>
        <time>2014-04-25T08:20:04Z</time>
      </trkpt>
      <trkpt lat="47.14311" lon="4.94578">
        <ele>244</ele>
        <time>2014-04-25T08:20:08Z</time>
      </trkpt>
      <trkpt lat="47.14307" lon="4.94574">
        <ele>244</ele>
        <time>2014-04-25T08:20:12Z</time>
      </trkpt>
      <trkpt lat="47.14304" lon="4.94569">
        <ele>244</ele>
        <time>2014-04-25T08:20:16Z</time>
      </trkpt>
      <trkpt lat="47.143" lon="4.94567">
        <ele>243</ele>
        <time>2014-04-25T08:20:19Z</time>
      </trkpt>
      <trkpt lat="47.14295" lon="4.94565">
        <ele>243</ele>
        <time>2014-04-25T08:20:23Z</time>
      </trkpt>
      <trkpt lat="47.14292" lon="4.94559">
        <ele>243</ele>
        <time>2014-04-25T08:20:28Z</time>
      </trkpt>
      <trkpt lat="47.1429" lon="4.94554">
        <ele>243</ele>
        <time>2014-04-25T08:20:32Z</time>
      </trkpt>
      <trkpt lat="47.14285" lon="4.9455">
        <ele>243</ele>
        <time>2014-04-25T08:20:36Z</time>
      </trkpt>
      <trkpt lat="47.14281" lon="4.94545">
        <ele>243</ele>
        <time>2014-04-25T08:20:40Z</time>
      </trkpt>
      <trkpt lat="47.14276" lon="4.94541">
        <ele>243</ele>
        <time>2014-04-25T08:20:44Z</time>
      </trkpt>
      <trkpt lat="47.14271" lon="4.94538">
        <ele>243</ele>
        <time>2014-04-25T08:20:48Z</time>
      </trkpt>
      <trkpt lat="47.14267" lon="4.94533">
        <ele>243</ele>
        <time>2014-04-25T08:20:52Z</time>
      </trkpt>
      <trkpt lat="47.14264" lon="4.94527">
        <ele>243</ele>
        <time>2014-04-25T08:20:57Z</time>
      </trkpt>
      <trkpt lat="47.14263" lon="4.94521">
        <ele>243</ele>
        <time>2014-04-25T08:21:00Z</time>
      </trkpt>
      <trkpt lat="47.14261" lon="4.94514">
        <ele>243</ele>
        <time>2014-04-25T08:21:05Z</time>
      </trkpt>
      <trkpt lat="47.14256" lon="4.94511">
        <ele>243</ele>
        <time>2014-04-25T08:21:10Z</time>
      </trkpt>
      <trkpt lat="47.14252" lon="4.94507">
        <ele>243</ele>
        <time>2014-04-25T08:21:14Z</time>
      </trkpt>
      <trkpt lat="47.14247" lon="4.94502">
        <ele>243</ele>
        <time>2014-04-25T08:21:18Z</time>
      </trkpt>
      <trkpt lat="47.14242" lon="4.94499">
        <ele>243</ele>
        <time>2014-04-25T08:21:22Z</time>
      </trkpt>
      <trkpt lat="47.14239" lon="4.94493">
        <ele>243</ele>
        <time>2014-04-25T08:21:30Z</time>
      </trkpt>
      <trkpt lat="47.14234" lon="4.94492">
        <ele>243</ele>
        <time>2014-04-25T08:21:34Z</time>
      </trkpt>
      <trkpt lat="47.1423" lon="4.94489">
        <ele>243</ele>
        <time>2014-04-25T08:21:38Z</time>
      </trkpt>
      <trkpt lat="47.14226" lon="4.94484">
        <ele>243</ele>
        <time>2014-04-25T08:21:42Z</time>
      </trkpt>
      <trkpt lat="47.14222" lon="4.9448">
        <ele>243</ele>
        <time>2014-04-25T08:21:46Z</time>
      </trkpt>
      <trkpt lat="47.14218" lon="4.94483">
        <ele>243</ele>
        <time>2014-04-25T08:21:48Z</time>
      </trkpt>
      <trkpt lat="47.14212" lon="4.94486">
        <ele>243</ele>
        <time>2014-04-25T08:21:51Z</time>
      </trkpt>
      <trkpt lat="47.14207" lon="4.94484">
        <ele>244</ele>
        <time>2014-04-25T08:21:57Z</time>
      </trkpt>
      <trkpt lat="47.14202" lon="4.94482">
        <ele>244</ele>
        <time>2014-04-25T08:22:01Z</time>
      </trkpt>
      <trkpt lat="47.14199" lon="4.94481">
        <ele>244</ele>
        <time>2014-04-25T08:22:10Z</time>
      </trkpt>
      <trkpt lat="47.14192" lon="4.94476">
        <ele>244</ele>
        <time>2014-04-25T08:22:21Z</time>
      </trkpt>
      <trkpt lat="47.14187" lon="4.94472">
        <ele>244</ele>
        <time>2014-04-25T08:22:24Z</time>
      </trkpt>
      <trkpt lat="47.14181" lon="4.94465">
        <ele>244</ele>
        <time>2014-04-25T08:22:34Z</time>
      </trkpt>
      <trkpt lat="47.14176" lon="4.94463">
        <ele>244</ele>
        <time>2014-04-25T08:22:38Z</time>
      </trkpt>
      <trkpt lat="47.14174" lon="4.94456">
        <ele>244</ele>
        <time>2014-04-25T08:22:44Z</time>
      </trkpt>
      <trkpt lat="47.14169" lon="4.94451">
        <ele>244</ele>
        <time>2014-04-25T08:22:50Z</time>
      </trkpt>
      <trkpt lat="47.14165" lon="4.94449">
        <ele>243</ele>
        <time>2014-04-25T08:22:55Z</time>
      </trkpt>
      <trkpt lat="47.1416" lon="4.94449">
        <ele>243</ele>
        <time>2014-04-25T08:23:00Z</time>
      </trkpt>
      <trkpt lat="47.14158" lon="4.94447">
        <ele>243</ele>
        <time>2014-04-25T08:23:07Z</time>
      </trkpt>
      <trkpt lat="47.14162" lon="4.94443">
        <ele>243</ele>
        <time>2014-04-25T08:23:16Z</time>
      </trkpt>
      <trkpt lat="47.14169" lon="4.94446">
        <ele>244</ele>
        <time>2014-04-25T08:23:21Z</time>
      </trkpt>
      <trkpt lat="47.14175" lon="4.94445">
        <ele>244</ele>
        <time>2014-04-25T08:23:24Z</time>
      </trkpt>
      <trkpt lat="47.14177" lon="4.94438">
        <ele>244</ele>
        <time>2014-04-25T08:23:28Z</time>
      </trkpt>
      <trkpt lat="47.14176" lon="4.9443">
        <ele>244</ele>
        <time>2014-04-25T08:23:32Z</time>
      </trkpt>
      <trkpt lat="47.14176" lon="4.94422">
        <ele>244</ele>
        <time>2014-04-25T08:23:37Z</time>
      </trkpt>
      <trkpt lat="47.14175" lon="4.94415">
        <ele>244</ele>
        <time>2014-04-25T08:23:43Z</time>
      </trkpt>
      <trkpt lat="47.14176" lon="4.94407">
        <ele>244</ele>
        <time>2014-04-25T08:23:49Z</time>
      </trkpt>
      <trkpt lat="47.14175" lon="4.944">
        <ele>244</ele>
        <time>2014-04-25T08:23:53Z</time>
      </trkpt>
      <trkpt lat="47.14176" lon="4.94392">
        <ele>244</ele>
        <time>2014-04-25T08:23:57Z</time>
      </trkpt>
      <trkpt lat="47.14172" lon="4.94387">
        <ele>244</ele>
        <time>2014-04-25T08:24:04Z</time>
      </trkpt>
      <trkpt lat="47.1417" lon="4.9438">
        <ele>244</ele>
        <time>2014-04-25T08:24:09Z</time>
      </trkpt>
      <trkpt lat="47.14167" lon="4.94373">
        <ele>244</ele>
        <time>2014-04-25T08:24:13Z</time>
      </trkpt>
      <trkpt lat="47.14164" lon="4.94366">
        <ele>243</ele>
        <time>2014-04-25T08:24:18Z</time>
      </trkpt>
      <trkpt lat="47.14162" lon="4.94359">
        <ele>243</ele>
        <time>2014-04-25T08:24:30Z</time>
      </trkpt>
      <trkpt lat="47.14157" lon="4.94359">
        <ele>243</ele>
        <time>2014-04-25T08:24:36Z</time>
      </trkpt>
      <trkpt lat="47.14155" lon="4.94366">
        <ele>243</ele>
        <time>2014-04-25T08:24:44Z</time>
      </trkpt>
      <trkpt lat="47.1415" lon="4.94366">
        <ele>243</ele>
        <time>2014-04-25T08:24:49Z</time>
      </trkpt>
      <trkpt lat="47.1415" lon="4.94374">
        <ele>243</ele>
        <time>2014-04-25T08:24:59Z</time>
      </trkpt>
      <trkpt lat="47.14152" lon="4.94379">
        <ele>243</ele>
        <time>2014-04-25T08:25:03Z</time>
      </trkpt>
      <trkpt lat="47.14153" lon="4.94387">
        <ele>243</ele>
        <time>2014-04-25T08:25:10Z</time>
      </trkpt>
      <trkpt lat="47.14153" lon="4.94394">
        <ele>243</ele>
        <time>2014-04-25T08:25:13Z</time>
      </trkpt>
      <trkpt lat="47.1415" lon="4.94394">
        <ele>243</ele>
        <time>2014-04-25T08:25:19Z</time>
      </trkpt>
      <trkpt lat="47.14153" lon="4.94386">
        <ele>243</ele>
        <time>2014-04-25T08:25:34Z</time>
      </trkpt>
      <trkpt lat="47.1415" lon="4.94386">
        <ele>243</ele>
        <time>2014-04-25T08:25:42Z</time>
      </trkpt>
      <trkpt lat="47.14145" lon="4.94384">
        <ele>243</ele>
        <time>2014-04-25T08:25:50Z</time>
      </trkpt>
      <trkpt lat="47.1415" lon="4.94379">
        <ele>243</ele>
        <time>2014-04-25T08:26:02Z</time>
      </trkpt>
      <trkpt lat="47.14155" lon="4.94379">
        <ele>243</ele>
        <time>2014-04-25T08:26:07Z</time>
      </trkpt>
      <trkpt lat="47.14155" lon="4.94384">
        <ele>243</ele>
        <time>2014-04-25T08:26:15Z</time>
      </trkpt>
      <trkpt lat="47.1415" lon="4.94388">
        <ele>243</ele>
        <time>2014-04-25T08:26:26Z</time>
      </trkpt>
      <trkpt lat="47.14146" lon="4.94389">
        <ele>243</ele>
        <time>2014-04-25T08:26:35Z</time>
      </trkpt>
      <trkpt lat="47.14133" lon="4.94383">
        <ele>243</ele>
        <time>2014-04-25T08:44:19Z</time>
      </trkpt>
      <trkpt lat="47.14134" lon="4.94379">
        <ele>243</ele>
        <time>2014-04-25T08:44:33Z</time>
      </trkpt>
      <trkpt lat="47.14128" lon="4.94379">
        <ele>243</ele>
        <time>2014-04-25T08:44:38Z</time>
      </trkpt>
      <trkpt lat="47.14122" lon="4.94383">
        <ele>243</ele>
        <time>2014-04-25T08:44:40Z</time>
      </trkpt>
      <trkpt lat="47.14119" lon="4.94385">
        <ele>243</ele>
        <time>2014-04-25T08:44:41Z</time>
      </trkpt>
      <trkpt lat="47.14117" lon="4.94387">
        <ele>243</ele>
        <time>2014-04-25T08:44:42Z</time>
      </trkpt>
      <trkpt lat="47.14115" lon="4.94386">
        <ele>243</ele>
        <time>2014-04-25T08:44:45Z</time>
      </trkpt>
      <trkpt lat="47.1411" lon="4.94384">
        <ele>243</ele>
        <time>2014-04-25T08:44:54Z</time>
      </trkpt>
      <trkpt lat="47.14105" lon="4.94384">
        <ele>243</ele>
        <time>2014-04-25T08:44:59Z</time>
      </trkpt>
      <trkpt lat="47.14101" lon="4.94389">
        <ele>243</ele>
        <time>2014-04-25T08:45:05Z</time>
      </trkpt>
      <trkpt lat="47.14096" lon="4.94386">
        <ele>243</ele>
        <time>2014-04-25T08:45:14Z</time>
      </trkpt>
      <trkpt lat="47.14091" lon="4.94389">
        <ele>243</ele>
        <time>2014-04-25T08:45:17Z</time>
      </trkpt>
      <trkpt lat="47.14086" lon="4.94393">
        <ele>243</ele>
        <time>2014-04-25T08:45:20Z</time>
      </trkpt>
      <trkpt lat="47.14082" lon="4.94397">
        <ele>242</ele>
        <time>2014-04-25T08:45:23Z</time>
      </trkpt>
      <trkpt lat="47.14076" lon="4.94399">
        <ele>242</ele>
        <time>2014-04-25T08:45:28Z</time>
      </trkpt>
      <trkpt lat="47.14072" lon="4.94402">
        <ele>242</ele>
        <time>2014-04-25T08:45:32Z</time>
      </trkpt>
      <trkpt lat="47.14067" lon="4.94407">
        <ele>242</ele>
        <time>2014-04-25T08:45:36Z</time>
      </trkpt>
      <trkpt lat="47.14064" lon="4.9441">
        <ele>242</ele>
        <time>2014-04-25T08:45:38Z</time>
      </trkpt>
      <trkpt lat="47.14059" lon="4.94414">
        <ele>242</ele>
        <time>2014-04-25T08:45:40Z</time>
      </trkpt>
      <trkpt lat="47.14054" lon="4.94417">
        <ele>242</ele>
        <time>2014-04-25T08:45:43Z</time>
      </trkpt>
      <trkpt lat="47.14048" lon="4.94418">
        <ele>242</ele>
        <time>2014-04-25T08:45:46Z</time>
      </trkpt>
      <trkpt lat="47.14043" lon="4.94418">
        <ele>242</ele>
        <time>2014-04-25T08:45:50Z</time>
      </trkpt>
      <trkpt lat="47.14043" lon="4.94415">
        <ele>242</ele>
        <time>2014-04-25T08:45:56Z</time>
      </trkpt>
      <trkpt lat="47.1404" lon="4.94411">
        <ele>242</ele>
        <time>2014-04-25T08:46:12Z</time>
      </trkpt>
      <trkpt lat="47.14036" lon="4.94408">
        <ele>242</ele>
        <time>2014-04-25T08:46:15Z</time>
      </trkpt>
      <trkpt lat="47.14031" lon="4.94405">
        <ele>242</ele>
        <time>2014-04-25T08:46:18Z</time>
      </trkpt>
      <trkpt lat="47.14026" lon="4.94405">
        <ele>242</ele>
        <time>2014-04-25T08:46:20Z</time>
      </trkpt>
      <trkpt lat="47.14021" lon="4.94404">
        <ele>242</ele>
        <time>2014-04-25T08:46:22Z</time>
      </trkpt>
      <trkpt lat="47.14017" lon="4.94401">
        <ele>242</ele>
        <time>2014-04-25T08:46:27Z</time>
      </trkpt>
      <trkpt lat="47.14012" lon="4.94398">
        <ele>242</ele>
        <time>2014-04-25T08:46:31Z</time>
      </trkpt>
      <trkpt lat="47.14007" lon="4.94395">
        <ele>242</ele>
        <time>2014-04-25T08:46:36Z</time>
      </trkpt>
      <trkpt lat="47.14003" lon="4.94399">
        <ele>242</ele>
        <time>2014-04-25T08:46:43Z</time>
      </trkpt>
      <trkpt lat="47.13998" lon="4.94404">
        <ele>241</ele>
        <time>2014-04-25T08:46:46Z</time>
      </trkpt>
      <trkpt lat="47.13994" lon="4.94411">
        <ele>241</ele>
        <time>2014-04-25T08:46:49Z</time>
      </trkpt>
      <trkpt lat="47.13993" lon="4.94419">
        <ele>241</ele>
        <time>2014-04-25T08:46:52Z</time>
      </trkpt>
      <trkpt lat="47.13991" lon="4.94427">
        <ele>241</ele>
        <time>2014-04-25T08:46:55Z</time>
      </trkpt>
      <trkpt lat="47.13988" lon="4.94432">
        <ele>241</ele>
        <time>2014-04-25T08:46:58Z</time>
      </trkpt>
      <trkpt lat="47.13987" lon="4.94439">
        <ele>241</ele>
        <time>2014-04-25T08:47:04Z</time>
      </trkpt>
      <trkpt lat="47.13982" lon="4.94442">
        <ele>241</ele>
        <time>2014-04-25T08:47:09Z</time>
      </trkpt>
      <trkpt lat="47.13972" lon="4.94443">
        <ele>241</ele>
        <time>2014-04-25T08:47:16Z</time>
      </trkpt>
      <trkpt lat="47.13968" lon="4.94448">
        <ele>241</ele>
        <time>2014-04-25T08:47:21Z</time>
      </trkpt>
      <trkpt lat="47.13965" lon="4.94454">
        <ele>241</ele>
        <time>2014-04-25T08:47:24Z</time>
      </trkpt>
      <trkpt lat="47.13962" lon="4.94459">
        <ele>241</ele>
        <time>2014-04-25T08:47:28Z</time>
      </trkpt>
      <trkpt lat="47.1396" lon="4.94466">
        <ele>241</ele>
        <time>2014-04-25T08:47:32Z</time>
      </trkpt>
      <trkpt lat="47.13956" lon="4.94472">
        <ele>241</ele>
        <time>2014-04-25T08:47:35Z</time>
      </trkpt>
      <trkpt lat="47.13952" lon="4.94476">
        <ele>241</ele>
        <time>2014-04-25T08:47:42Z</time>
      </trkpt>
      <trkpt lat="47.13949" lon="4.94482">
        <ele>241</ele>
        <time>2014-04-25T08:47:44Z</time>
      </trkpt>
      <trkpt lat="47.13946" lon="4.94488">
        <ele>241</ele>
        <time>2014-04-25T08:47:47Z</time>
      </trkpt>
      <trkpt lat="47.13942" lon="4.94495">
        <ele>241</ele>
        <time>2014-04-25T08:47:50Z</time>
      </trkpt>
      <trkpt lat="47.13937" lon="4.94501">
        <ele>241</ele>
        <time>2014-04-25T08:47:52Z</time>
      </trkpt>
      <trkpt lat="47.13933" lon="4.94506">
        <ele>241</ele>
        <time>2014-04-25T08:47:54Z</time>
      </trkpt>
      <trkpt lat="47.13928" lon="4.94512">
        <ele>241</ele>
        <time>2014-04-25T08:48:04Z</time>
      </trkpt>
      <trkpt lat="47.13925" lon="4.94519">
        <ele>241</ele>
        <time>2014-04-25T08:48:08Z</time>
      </trkpt>
      <trkpt lat="47.13922" lon="4.94524">
        <ele>241</ele>
        <time>2014-04-25T08:48:11Z</time>
      </trkpt>
      <trkpt lat="47.13919" lon="4.9453">
        <ele>241</ele>
        <time>2014-04-25T08:48:15Z</time>
      </trkpt>
      <trkpt lat="47.13915" lon="4.94534">
        <ele>241</ele>
        <time>2014-04-25T08:48:20Z</time>
      </trkpt>
      <trkpt lat="47.13912" lon="4.94542">
        <ele>241</ele>
        <time>2014-04-25T08:48:24Z</time>
      </trkpt>
      <trkpt lat="47.1391" lon="4.94548">
        <ele>241</ele>
        <time>2014-04-25T08:48:28Z</time>
      </trkpt>
      <trkpt lat="47.13906" lon="4.94553">
        <ele>241</ele>
        <time>2014-04-25T08:48:32Z</time>
      </trkpt>
      <trkpt lat="47.13902" lon="4.9456">
        <ele>241</ele>
        <time>2014-04-25T08:48:36Z</time>
      </trkpt>
      <trkpt lat="47.139" lon="4.94568">
        <ele>241</ele>
        <time>2014-04-25T08:48:39Z</time>
      </trkpt>
      <trkpt lat="47.13898" lon="4.94576">
        <ele>241</ele>
        <time>2014-04-25T08:48:42Z</time>
      </trkpt>
      <trkpt lat="47.13895" lon="4.94583">
        <ele>241</ele>
        <time>2014-04-25T08:48:45Z</time>
      </trkpt>
      <trkpt lat="47.13892" lon="4.94589">
        <ele>241</ele>
        <time>2014-04-25T08:48:49Z</time>
      </trkpt>
      <trkpt lat="47.13888" lon="4.94594">
        <ele>241</ele>
        <time>2014-04-25T08:48:54Z</time>
      </trkpt>
      <trkpt lat="47.13887" lon="4.94602">
        <ele>241</ele>
        <time>2014-04-25T08:48:58Z</time>
      </trkpt>
      <trkpt lat="47.13889" lon="4.9461">
        <ele>241</ele>
        <time>2014-04-25T08:49:01Z</time>
      </trkpt>
      <trkpt lat="47.13885" lon="4.94615">
        <ele>241</ele>
        <time>2014-04-25T08:49:07Z</time>
      </trkpt>
      <trkpt lat="47.13881" lon="4.9462">
        <ele>241</ele>
        <time>2014-04-25T08:49:10Z</time>
      </trkpt>
      <trkpt lat="47.13878" lon="4.94625">
        <ele>241</ele>
        <time>2014-04-25T08:49:13Z</time>
      </trkpt>
      <trkpt lat="47.13876" lon="4.94632">
        <ele>241</ele>
        <time>2014-04-25T08:49:16Z</time>
      </trkpt>
      <trkpt lat="47.13872" lon="4.94637">
        <ele>241</ele>
        <time>2014-04-25T08:49:21Z</time>
      </trkpt>
      <trkpt lat="47.13868" lon="4.94639">
        <ele>241</ele>
        <time>2014-04-25T08:49:24Z</time>
      </trkpt>
      <trkpt lat="47.13862" lon="4.94644">
        <ele>241</ele>
        <time>2014-04-25T08:49:28Z</time>
      </trkpt>
      <trkpt lat="47.13858" lon="4.94648">
        <ele>241</ele>
        <time>2014-04-25T08:49:31Z</time>
      </trkpt>
      <trkpt lat="47.13853" lon="4.94657">
        <ele>242</ele>
        <time>2014-04-25T08:50:05Z</time>
      </trkpt>
      <trkpt lat="47.13837" lon="4.94688">
        <ele>242</ele>
        <time>2014-04-25T08:50:21Z</time>
      </trkpt>
      <trkpt lat="47.13832" lon="4.94691">
        <ele>242</ele>
        <time>2014-04-25T08:50:24Z</time>
      </trkpt>
      <trkpt lat="47.13826" lon="4.94691">
        <ele>242</ele>
        <time>2014-04-25T08:50:27Z</time>
      </trkpt>
      <trkpt lat="47.13821" lon="4.94686">
        <ele>242</ele>
        <time>2014-04-25T08:50:30Z</time>
      </trkpt>
      <trkpt lat="47.13816" lon="4.94683">
        <ele>242</ele>
        <time>2014-04-25T08:50:32Z</time>
      </trkpt>
      <trkpt lat="47.1381" lon="4.94692">
        <ele>242</ele>
        <time>2014-04-25T08:50:34Z</time>
      </trkpt>
      <trkpt lat="47.13799" lon="4.94711">
        <ele>242</ele>
        <time>2014-04-25T08:50:40Z</time>
      </trkpt>
      <trkpt lat="47.13792" lon="4.94708">
        <ele>242</ele>
        <time>2014-04-25T08:50:49Z</time>
      </trkpt>
      <trkpt lat="47.13787" lon="4.9471">
        <ele>241</ele>
        <time>2014-04-25T08:50:53Z</time>
      </trkpt>
      <trkpt lat="47.13781" lon="4.94712">
        <ele>241</ele>
        <time>2014-04-25T08:50:57Z</time>
      </trkpt>
      <trkpt lat="47.13776" lon="4.94713">
        <ele>241</ele>
        <time>2014-04-25T08:51:02Z</time>
      </trkpt>
      <trkpt lat="47.13772" lon="4.94716">
        <ele>241</ele>
        <time>2014-04-25T08:51:06Z</time>
      </trkpt>
      <trkpt lat="47.13769" lon="4.94721">
        <ele>242</ele>
        <time>2014-04-25T08:51:11Z</time>
      </trkpt>
      <trkpt lat="47.13765" lon="4.94725">
        <ele>242</ele>
        <time>2014-04-25T08:51:17Z</time>
      </trkpt>
      <trkpt lat="47.13761" lon="4.94729">
        <ele>242</ele>
        <time>2014-04-25T08:51:22Z</time>
      </trkpt>
      <trkpt lat="47.13758" lon="4.94734">
        <ele>242</ele>
        <time>2014-04-25T08:51:30Z</time>
      </trkpt>
      <trkpt lat="47.13753" lon="4.94732">
        <ele>242</ele>
        <time>2014-04-25T08:51:33Z</time>
      </trkpt>
      <trkpt lat="47.13754" lon="4.94731">
        <ele>242</ele>
        <time>2014-04-25T08:51:59Z</time>
      </trkpt>
      <trkpt lat="47.13751" lon="4.94727">
        <ele>242</ele>
        <time>2014-04-25T08:52:20Z</time>
      </trkpt>
      <trkpt lat="47.13746" lon="4.94729">
        <ele>241</ele>
        <time>2014-04-25T08:52:23Z</time>
      </trkpt>
      <trkpt lat="47.13741" lon="4.94732">
        <ele>242</ele>
        <time>2014-04-25T08:52:26Z</time>
      </trkpt>
      <trkpt lat="47.13737" lon="4.94737">
        <ele>242</ele>
        <time>2014-04-25T08:52:30Z</time>
      </trkpt>
      <trkpt lat="47.13736" lon="4.94745">
        <ele>242</ele>
        <time>2014-04-25T08:52:34Z</time>
      </trkpt>
      <trkpt lat="47.13733" lon="4.94751">
        <ele>242</ele>
        <time>2014-04-25T08:52:38Z</time>
      </trkpt>
      <trkpt lat="47.13729" lon="4.94754">
        <ele>242</ele>
        <time>2014-04-25T08:52:42Z</time>
      </trkpt>
      <trkpt lat="47.13723" lon="4.94757">
        <ele>242</ele>
        <time>2014-04-25T08:52:46Z</time>
      </trkpt>
      <trkpt lat="47.13716" lon="4.94762">
        <ele>242</ele>
        <time>2014-04-25T08:52:48Z</time>
      </trkpt>
      <trkpt lat="47.13709" lon="4.94769">
        <ele>242</ele>
        <time>2014-04-25T08:52:50Z</time>
      </trkpt>
      <trkpt lat="47.13706" lon="4.94774">
        <ele>242</ele>
        <time>2014-04-25T08:52:52Z</time>
      </trkpt>
      <trkpt lat="47.137" lon="4.94771">
        <ele>242</ele>
        <time>2014-04-25T08:52:58Z</time>
      </trkpt>
      <trkpt lat="47.13696" lon="4.94766">
        <ele>242</ele>
        <time>2014-04-25T08:53:01Z</time>
      </trkpt>
      <trkpt lat="47.13692" lon="4.94762">
        <ele>242</ele>
        <time>2014-04-25T08:53:09Z</time>
      </trkpt>
      <trkpt lat="47.13692" lon="4.94758">
        <ele>242</ele>
        <time>2014-04-25T08:53:16Z</time>
      </trkpt>
      <trkpt lat="47.13695" lon="4.94753">
        <ele>242</ele>
        <time>2014-04-25T08:53:21Z</time>
      </trkpt>
      <trkpt lat="47.13693" lon="4.94746">
        <ele>242</ele>
        <time>2014-04-25T08:53:27Z</time>
      </trkpt>
      <trkpt lat="47.13691" lon="4.94742">
        <ele>242</ele>
        <time>2014-04-25T08:53:39Z</time>
      </trkpt>
      <trkpt lat="47.13697" lon="4.94742">
        <ele>242</ele>
        <time>2014-04-25T08:53:43Z</time>
      </trkpt>
      <trkpt lat="47.13698" lon="4.94734">
        <ele>241</ele>
        <time>2014-04-25T08:53:51Z</time>
      </trkpt>
      <trkpt lat="47.13694" lon="4.94727">
        <ele>241</ele>
        <time>2014-04-25T08:53:55Z</time>
      </trkpt>
      <trkpt lat="47.1369" lon="4.94724">
        <ele>241</ele>
        <time>2014-04-25T08:54:00Z</time>
      </trkpt>
      <trkpt lat="47.1369" lon="4.94732">
        <ele>242</ele>
        <time>2014-04-25T08:54:14Z</time>
      </trkpt>
      <trkpt lat="47.13684" lon="4.94726">
        <ele>241</ele>
        <time>2014-04-25T08:54:37Z</time>
      </trkpt>
      <trkpt lat="47.13679" lon="4.94722">
        <ele>241</ele>
        <time>2014-04-25T08:54:47Z</time>
      </trkpt>
      <trkpt lat="47.1368" lon="4.94717">
        <ele>241</ele>
        <time>2014-04-25T08:55:11Z</time>
      </trkpt>
      <trkpt lat="47.13676" lon="4.94711">
        <ele>241</ele>
        <time>2014-04-25T08:55:30Z</time>
      </trkpt>
      <trkpt lat="47.13673" lon="4.94705">
        <ele>241</ele>
        <time>2014-04-25T08:55:33Z</time>
      </trkpt>
      <trkpt lat="47.1367" lon="4.94698">
        <ele>241</ele>
        <time>2014-04-25T08:55:36Z</time>
      </trkpt>
      <trkpt lat="47.13669" lon="4.94693">
        <ele>241</ele>
        <time>2014-04-25T08:55:44Z</time>
      </trkpt>
      <trkpt lat="47.13665" lon="4.94683">
        <ele>241</ele>
        <time>2014-04-25T08:56:00Z</time>
      </trkpt>
      <trkpt lat="47.13656" lon="4.94669">
        <ele>241</ele>
        <time>2014-04-25T08:56:04Z</time>
      </trkpt>
      <trkpt lat="47.13658" lon="4.94666">
        <ele>241</ele>
        <time>2014-04-25T08:56:12Z</time>
      </trkpt>
      <trkpt lat="47.13665" lon="4.94676">
        <ele>241</ele>
        <time>2014-04-25T08:56:15Z</time>
      </trkpt>
      <trkpt lat="47.13671" lon="4.94683">
        <ele>241</ele>
        <time>2014-04-25T08:56:19Z</time>
      </trkpt>
      <trkpt lat="47.13673" lon="4.94688">
        <ele>241</ele>
        <time>2014-04-25T08:56:31Z</time>
      </trkpt>
      <trkpt lat="47.13673" lon="4.94694">
        <ele>241</ele>
        <time>2014-04-25T08:56:38Z</time>
      </trkpt>
      <trkpt lat="47.13678" lon="4.94701">
        <ele>241</ele>
        <time>2014-04-25T08:56:44Z</time>
      </trkpt>
      <trkpt lat="47.13676" lon="4.94696">
        <ele>241</ele>
        <time>2014-04-25T08:57:19Z</time>
      </trkpt>
      <trkpt lat="47.13672" lon="4.94693">
        <ele>241</ele>
        <time>2014-04-25T08:57:24Z</time>
      </trkpt>
      <trkpt lat="47.13669" lon="4.94687">
        <ele>241</ele>
        <time>2014-04-25T08:57:30Z</time>
      </trkpt>
      <trkpt lat="47.13666" lon="4.94692">
        <ele>241</ele>
        <time>2014-04-25T08:57:38Z</time>
      </trkpt>
      <trkpt lat="47.13664" lon="4.94698">
        <ele>241</ele>
        <time>2014-04-25T08:57:58Z</time>
      </trkpt>
      <trkpt lat="47.13662" lon="4.94698">
        <ele>241</ele>
        <time>2014-04-25T08:58:44Z</time>
      </trkpt>
      <trkpt lat="47.13661" lon="4.94694">
        <ele>241</ele>
        <time>2014-04-25T08:58:54Z</time>
      </trkpt>
      <trkpt lat="47.13661" lon="4.94696">
        <ele>241</ele>
        <time>2014-04-25T08:59:21Z</time>
      </trkpt>
      <trkpt lat="47.13663" lon="4.94698">
        <ele>241</ele>
        <time>2014-04-25T08:59:37Z</time>
      </trkpt>
      <trkpt lat="47.13668" lon="4.947">
        <ele>241</ele>
        <time>2014-04-25T08:59:41Z</time>
      </trkpt>
      <trkpt lat="47.13669" lon="4.94698">
        <ele>241</ele>
        <time>2014-04-25T08:59:56Z</time>
      </trkpt>
      <trkpt lat="47.13672" lon="4.94684">
        <ele>241</ele>
        <time>2014-04-25T09:00:05Z</time>
      </trkpt>
      <trkpt lat="47.13712" lon="4.94706">
        <ele>241</ele>
        <time>2014-04-25T09:00:28Z</time>
      </trkpt>
      <trkpt lat="47.13709" lon="4.94693">
        <ele>241</ele>
        <time>2014-04-25T09:00:41Z</time>
      </trkpt>
      <trkpt lat="47.13701" lon="4.94687">
        <ele>241</ele>
        <time>2014-04-25T09:00:45Z</time>
      </trkpt>
      <trkpt lat="47.13691" lon="4.94686">
        <ele>241</ele>
        <time>2014-04-25T09:00:48Z</time>
      </trkpt>
      <trkpt lat="47.1368" lon="4.94686">
        <ele>241</ele>
        <time>2014-04-25T09:00:52Z</time>
      </trkpt>
      <trkpt lat="47.13677" lon="4.94699">
        <ele>241</ele>
        <time>2014-04-25T09:01:00Z</time>
      </trkpt>
      <trkpt lat="47.13683" lon="4.9471">
        <ele>241</ele>
        <time>2014-04-25T09:01:04Z</time>
      </trkpt>
      <trkpt lat="47.13688" lon="4.94722">
        <ele>241</ele>
        <time>2014-04-25T09:01:10Z</time>
      </trkpt>
      <trkpt lat="47.13684" lon="4.94728">
        <ele>242</ele>
        <time>2014-04-25T09:01:14Z</time>
      </trkpt>
      <trkpt lat="47.13689" lon="4.94732">
        <ele>242</ele>
        <time>2014-04-25T09:01:20Z</time>
      </trkpt>
      <trkpt lat="47.13694" lon="4.9473">
        <ele>241</ele>
        <time>2014-04-25T09:01:24Z</time>
      </trkpt>
      <trkpt lat="47.13693" lon="4.94731">
        <ele>241</ele>
        <time>2014-04-25T09:02:07Z</time>
      </trkpt>
      <trkpt lat="47.13693" lon="4.94739">
        <ele>242</ele>
        <time>2014-04-25T09:02:12Z</time>
      </trkpt>
      <trkpt lat="47.137" lon="4.94752">
        <ele>242</ele>
        <time>2014-04-25T09:02:18Z</time>
      </trkpt>
      <trkpt lat="47.13704" lon="4.94757">
        <ele>242</ele>
        <time>2014-04-25T09:02:21Z</time>
      </trkpt>
      <trkpt lat="47.13706" lon="4.94764">
        <ele>242</ele>
        <time>2014-04-25T09:02:24Z</time>
      </trkpt>
      <trkpt lat="47.13693" lon="4.94776">
        <ele>242</ele>
        <time>2014-04-25T09:02:27Z</time>
      </trkpt>
      <trkpt lat="47.1369" lon="4.94771">
        <ele>242</ele>
        <time>2014-04-25T09:02:31Z</time>
      </trkpt>
      <trkpt lat="47.13683" lon="4.94769">
        <ele>242</ele>
        <time>2014-04-25T09:02:48Z</time>
      </trkpt>
      <trkpt lat="47.13678" lon="4.94771">
        <ele>242</ele>
        <time>2014-04-25T09:02:53Z</time>
      </trkpt>
      <trkpt lat="47.13673" lon="4.94772">
        <ele>242</ele>
        <time>2014-04-25T09:02:57Z</time>
      </trkpt>
      <trkpt lat="47.13668" lon="4.94771">
        <ele>242</ele>
        <time>2014-04-25T09:03:02Z</time>
      </trkpt>
      <trkpt lat="47.13666" lon="4.94765">
        <ele>242</ele>
        <time>2014-04-25T09:03:04Z</time>
      </trkpt>
      <trkpt lat="47.13662" lon="4.9476">
        <ele>242</ele>
        <time>2014-04-25T09:03:08Z</time>
      </trkpt>
      <trkpt lat="47.13657" lon="4.9476">
        <ele>242</ele>
        <time>2014-04-25T09:03:12Z</time>
      </trkpt>
      <trkpt lat="47.13652" lon="4.94761">
        <ele>242</ele>
        <time>2014-04-25T09:03:15Z</time>
      </trkpt>
      <trkpt lat="47.13649" lon="4.94761">
        <ele>242</ele>
        <time>2014-04-25T09:03:24Z</time>
      </trkpt>
      <trkpt lat="47.13646" lon="4.94768">
        <ele>242</ele>
        <time>2014-04-25T09:03:29Z</time>
      </trkpt>
      <trkpt lat="47.13641" lon="4.94775">
        <ele>242</ele>
        <time>2014-04-25T09:03:32Z</time>
      </trkpt>
      <trkpt lat="47.13638" lon="4.9478">
        <ele>242</ele>
        <time>2014-04-25T09:03:34Z</time>
      </trkpt>
      <trkpt lat="47.13633" lon="4.94786">
        <ele>242</ele>
        <time>2014-04-25T09:03:37Z</time>
      </trkpt>
      <trkpt lat="47.13629" lon="4.94788">
        <ele>242</ele>
        <time>2014-04-25T09:03:40Z</time>
      </trkpt>
      <trkpt lat="47.13623" lon="4.94786">
        <ele>242</ele>
        <time>2014-04-25T09:03:43Z</time>
      </trkpt>
      <trkpt lat="47.13619" lon="4.9479">
        <ele>242</ele>
        <time>2014-04-25T09:03:47Z</time>
      </trkpt>
      <trkpt lat="47.13614" lon="4.9479">
        <ele>242</ele>
        <time>2014-04-25T09:03:51Z</time>
      </trkpt>
      <trkpt lat="47.1361" lon="4.94789">
        <ele>242</ele>
        <time>2014-04-25T09:03:53Z</time>
      </trkpt>
      <trkpt lat="47.13605" lon="4.9479">
        <ele>242</ele>
        <time>2014-04-25T09:03:56Z</time>
      </trkpt>
      <trkpt lat="47.13596" lon="4.94797">
        <ele>242</ele>
        <time>2014-04-25T09:04:01Z</time>
      </trkpt>
      <trkpt lat="47.13596" lon="4.94812">
        <ele>242</ele>
        <time>2014-04-25T09:04:06Z</time>
      </trkpt>
      <trkpt lat="47.13599" lon="4.94822">
        <ele>242</ele>
        <time>2014-04-25T09:04:09Z</time>
      </trkpt>
      <trkpt lat="47.13603" lon="4.94828">
        <ele>242</ele>
        <time>2014-04-25T09:04:13Z</time>
      </trkpt>
      <trkpt lat="47.13607" lon="4.94832">
        <ele>242</ele>
        <time>2014-04-25T09:04:16Z</time>
      </trkpt>
      <trkpt lat="47.13611" lon="4.94837">
        <ele>242</ele>
        <time>2014-04-25T09:04:20Z</time>
      </trkpt>
      <trkpt lat="47.1362" lon="4.94832">
        <ele>242</ele>
        <time>2014-04-25T09:04:30Z</time>
      </trkpt>
      <trkpt lat="47.1363" lon="4.94833">
        <ele>242</ele>
        <time>2014-04-25T09:04:35Z</time>
      </trkpt>
      <trkpt lat="47.13634" lon="4.94838">
        <ele>242</ele>
        <time>2014-04-25T09:04:39Z</time>
      </trkpt>
      <trkpt lat="47.13654" lon="4.94846">
        <ele>242</ele>
        <time>2014-04-25T09:05:30Z</time>
      </trkpt>
      <trkpt lat="47.13664" lon="4.94848">
        <ele>243</ele>
        <time>2014-04-25T09:05:34Z</time>
      </trkpt>
      <trkpt lat="47.13664" lon="4.94855">
        <ele>242</ele>
        <time>2014-04-25T09:05:41Z</time>
      </trkpt>
      <trkpt lat="47.13664" lon="4.9487">
        <ele>242</ele>
        <time>2014-04-25T09:05:47Z</time>
      </trkpt>
      <trkpt lat="47.13665" lon="4.94884">
        <ele>242</ele>
        <time>2014-04-25T09:05:50Z</time>
      </trkpt>
      <trkpt lat="47.13665" lon="4.94891">
        <ele>242</ele>
        <time>2014-04-25T09:05:58Z</time>
      </trkpt>
      <trkpt lat="47.13662" lon="4.94892">
        <ele>242</ele>
        <time>2014-04-25T09:06:29Z</time>
      </trkpt>
      <trkpt lat="47.13658" lon="4.94892">
        <ele>242</ele>
        <time>2014-04-25T09:06:32Z</time>
      </trkpt>
      <trkpt lat="47.13653" lon="4.94892">
        <ele>242</ele>
        <time>2014-04-25T09:06:35Z</time>
      </trkpt>
      <trkpt lat="47.13649" lon="4.94886">
        <ele>242</ele>
        <time>2014-04-25T09:06:38Z</time>
      </trkpt>
      <trkpt lat="47.13646" lon="4.94879">
        <ele>242</ele>
        <time>2014-04-25T09:06:41Z</time>
      </trkpt>
      <trkpt lat="47.13644" lon="4.94873">
        <ele>242</ele>
        <time>2014-04-25T09:06:44Z</time>
      </trkpt>
      <trkpt lat="47.13641" lon="4.94867">
        <ele>242</ele>
        <time>2014-04-25T09:06:49Z</time>
      </trkpt>
      <trkpt lat="47.13637" lon="4.94863">
        <ele>242</ele>
        <time>2014-04-25T09:06:54Z</time>
      </trkpt>
      <trkpt lat="47.13633" lon="4.94858">
        <ele>242</ele>
        <time>2014-04-25T09:07:01Z</time>
      </trkpt>
      <trkpt lat="47.13628" lon="4.94854">
        <ele>242</ele>
        <time>2014-04-25T09:07:06Z</time>
      </trkpt>
      <trkpt lat="47.13625" lon="4.94848">
        <ele>242</ele>
        <time>2014-04-25T09:07:09Z</time>
      </trkpt>
      <trkpt lat="47.13621" lon="4.94839">
        <ele>242</ele>
        <time>2014-04-25T09:07:13Z</time>
      </trkpt>
      <trkpt lat="47.13617" lon="4.94833">
        <ele>242</ele>
        <time>2014-04-25T09:07:16Z</time>
      </trkpt>
      <trkpt lat="47.13612" lon="4.94828">
        <ele>242</ele>
        <time>2014-04-25T09:07:19Z</time>
      </trkpt>
      <trkpt lat="47.1361" lon="4.94823">
        <ele>242</ele>
        <time>2014-04-25T09:07:22Z</time>
      </trkpt>
      <trkpt lat="47.13605" lon="4.94819">
        <ele>242</ele>
        <time>2014-04-25T09:07:27Z</time>
      </trkpt>
      <trkpt lat="47.13602" lon="4.94825">
        <ele>242</ele>
        <time>2014-04-25T09:07:31Z</time>
      </trkpt>
      <trkpt lat="47.13593" lon="4.94828">
        <ele>242</ele>
        <time>2014-04-25T09:07:36Z</time>
      </trkpt>
      <trkpt lat="47.13583" lon="4.94828">
        <ele>242</ele>
        <time>2014-04-25T09:07:41Z</time>
      </trkpt>
      <trkpt lat="47.13575" lon="4.94821">
        <ele>241</ele>
        <time>2014-04-25T09:07:47Z</time>
      </trkpt>
      <trkpt lat="47.13568" lon="4.94811">
        <ele>241</ele>
        <time>2014-04-25T09:08:00Z</time>
      </trkpt>
      <trkpt lat="47.13564" lon="4.94807">
        <ele>241</ele>
        <time>2014-04-25T09:08:07Z</time>
      </trkpt>
      <trkpt lat="47.13559" lon="4.94802">
        <ele>241</ele>
        <time>2014-04-25T09:08:10Z</time>
      </trkpt>
      <trkpt lat="47.13555" lon="4.94796">
        <ele>241</ele>
        <time>2014-04-25T09:08:13Z</time>
      </trkpt>
      <trkpt lat="47.13551" lon="4.94792">
        <ele>241</ele>
        <time>2014-04-25T09:08:17Z</time>
      </trkpt>
      <trkpt lat="47.13546" lon="4.9479">
        <ele>241</ele>
        <time>2014-04-25T09:08:21Z</time>
      </trkpt>
      <trkpt lat="47.13541" lon="4.9479">
        <ele>241</ele>
        <time>2014-04-25T09:08:24Z</time>
      </trkpt>
      <trkpt lat="47.13537" lon="4.94789">
        <ele>241</ele>
        <time>2014-04-25T09:08:27Z</time>
      </trkpt>
      <trkpt lat="47.13532" lon="4.94786">
        <ele>241</ele>
        <time>2014-04-25T09:08:31Z</time>
      </trkpt>
      <trkpt lat="47.13527" lon="4.94785">
        <ele>241</ele>
        <time>2014-04-25T09:08:35Z</time>
      </trkpt>
      <trkpt lat="47.13522" lon="4.94787">
        <ele>241</ele>
        <time>2014-04-25T09:08:39Z</time>
      </trkpt>
      <trkpt lat="47.13518" lon="4.94791">
        <ele>241</ele>
        <time>2014-04-25T09:08:45Z</time>
      </trkpt>
      <trkpt lat="47.13527" lon="4.94808">
        <ele>241</ele>
        <time>2014-04-25T09:09:14Z</time>
      </trkpt>
      <trkpt lat="47.13522" lon="4.94803">
        <ele>241</ele>
        <time>2014-04-25T09:09:16Z</time>
      </trkpt>
      <trkpt lat="47.13518" lon="4.94798">
        <ele>241</ele>
        <time>2014-04-25T09:09:18Z</time>
      </trkpt>
      <trkpt lat="47.13516" lon="4.9479">
        <ele>241</ele>
        <time>2014-04-25T09:09:20Z</time>
      </trkpt>
      <trkpt lat="47.13517" lon="4.94781">
        <ele>241</ele>
        <time>2014-04-25T09:09:23Z</time>
      </trkpt>
      <trkpt lat="47.13519" lon="4.94774">
        <ele>241</ele>
        <time>2014-04-25T09:09:26Z</time>
      </trkpt>
      <trkpt lat="47.13522" lon="4.94769">
        <ele>240</ele>
        <time>2014-04-25T09:09:29Z</time>
      </trkpt>
      <trkpt lat="47.13525" lon="4.94763">
        <ele>241</ele>
        <time>2014-04-25T09:09:32Z</time>
      </trkpt>
      <trkpt lat="47.13529" lon="4.94758">
        <ele>241</ele>
        <time>2014-04-25T09:09:37Z</time>
      </trkpt>
      <trkpt lat="47.13533" lon="4.94755">
        <ele>241</ele>
        <time>2014-04-25T09:09:41Z</time>
      </trkpt>
      <trkpt lat="47.13539" lon="4.94754">
        <ele>241</ele>
        <time>2014-04-25T09:09:44Z</time>
      </trkpt>
      <trkpt lat="47.13544" lon="4.94752">
        <ele>241</ele>
        <time>2014-04-25T09:09:47Z</time>
      </trkpt>
      <trkpt lat="47.13548" lon="4.94751">
        <ele>241</ele>
        <time>2014-04-25T09:09:53Z</time>
      </trkpt>
      <trkpt lat="47.13551" lon="4.94744">
        <ele>241</ele>
        <time>2014-04-25T09:10:00Z</time>
      </trkpt>
      <trkpt lat="47.13553" lon="4.94738">
        <ele>241</ele>
        <time>2014-04-25T09:10:04Z</time>
      </trkpt>
      <trkpt lat="47.13555" lon="4.9473">
        <ele>241</ele>
        <time>2014-04-25T09:10:08Z</time>
      </trkpt>
      <trkpt lat="47.1356" lon="4.94731">
        <ele>241</ele>
        <time>2014-04-25T09:10:12Z</time>
      </trkpt>
      <trkpt lat="47.13565" lon="4.94727">
        <ele>241</ele>
        <time>2014-04-25T09:10:17Z</time>
      </trkpt>
      <trkpt lat="47.13567" lon="4.94721">
        <ele>241</ele>
        <time>2014-04-25T09:10:27Z</time>
      </trkpt>
      <trkpt lat="47.1357" lon="4.94714">
        <ele>241</ele>
        <time>2014-04-25T09:10:41Z</time>
      </trkpt>
      <trkpt lat="47.13574" lon="4.94709">
        <ele>241</ele>
        <time>2014-04-25T09:10:45Z</time>
      </trkpt>
      <trkpt lat="47.13578" lon="4.94705">
        <ele>241</ele>
        <time>2014-04-25T09:10:49Z</time>
      </trkpt>
      <trkpt lat="47.1358" lon="4.94699">
        <ele>241</ele>
        <time>2014-04-25T09:10:53Z</time>
      </trkpt>
      <trkpt lat="47.13585" lon="4.94695">
        <ele>241</ele>
        <time>2014-04-25T09:10:58Z</time>
      </trkpt>
      <trkpt lat="47.13589" lon="4.94694">
        <ele>241</ele>
        <time>2014-04-25T09:11:02Z</time>
      </trkpt>
      <trkpt lat="47.13594" lon="4.94692">
        <ele>241</ele>
        <time>2014-04-25T09:11:06Z</time>
      </trkpt>
      <trkpt lat="47.13599" lon="4.94689">
        <ele>241</ele>
        <time>2014-04-25T09:11:13Z</time>
      </trkpt>
      <trkpt lat="47.13603" lon="4.94687">
        <ele>241</ele>
        <time>2014-04-25T09:11:17Z</time>
      </trkpt>
      <trkpt lat="47.13609" lon="4.94686">
        <ele>241</ele>
        <time>2014-04-25T09:11:22Z</time>
      </trkpt>
      <trkpt lat="47.13612" lon="4.94681">
        <ele>241</ele>
        <time>2014-04-25T09:11:25Z</time>
      </trkpt>
      <trkpt lat="47.13611" lon="4.94674">
        <ele>241</ele>
        <time>2014-04-25T09:11:28Z</time>
      </trkpt>
      <trkpt lat="47.1361" lon="4.94666">
        <ele>241</ele>
        <time>2014-04-25T09:11:32Z</time>
      </trkpt>
      <trkpt lat="47.13611" lon="4.94659">
        <ele>241</ele>
        <time>2014-04-25T09:11:36Z</time>
      </trkpt>
      <trkpt lat="47.13613" lon="4.94652">
        <ele>242</ele>
        <time>2014-04-25T09:11:40Z</time>
      </trkpt>
      <trkpt lat="47.13618" lon="4.94651">
        <ele>242</ele>
        <time>2014-04-25T09:11:45Z</time>
      </trkpt>
      <trkpt lat="47.13623" lon="4.94649">
        <ele>242</ele>
        <time>2014-04-25T09:11:50Z</time>
      </trkpt>
      <trkpt lat="47.13626" lon="4.94644">
        <ele>242</ele>
        <time>2014-04-25T09:11:55Z</time>
      </trkpt>
      <trkpt lat="47.1363" lon="4.94638">
        <ele>242</ele>
        <time>2014-04-25T09:11:58Z</time>
      </trkpt>
      <trkpt lat="47.13634" lon="4.94633">
        <ele>242</ele>
        <time>2014-04-25T09:12:01Z</time>
      </trkpt>
      <trkpt lat="47.13639" lon="4.94629">
        <ele>242</ele>
        <time>2014-04-25T09:12:04Z</time>
      </trkpt>
      <trkpt lat="47.13644" lon="4.94626">
        <ele>242</ele>
        <time>2014-04-25T09:12:07Z</time>
      </trkpt>
      <trkpt lat="47.13648" lon="4.94623">
        <ele>242</ele>
        <time>2014-04-25T09:12:11Z</time>
      </trkpt>
      <trkpt lat="47.13665" lon="4.94625">
        <ele>242</ele>
        <time>2014-04-25T09:12:12Z</time>
      </trkpt>
      <trkpt lat="47.1367" lon="4.94626">
        <ele>241</ele>
        <time>2014-04-25T09:12:13Z</time>
      </trkpt>
      <trkpt lat="47.13672" lon="4.94624">
        <ele>241</ele>
        <time>2014-04-25T09:12:17Z</time>
      </trkpt>
      <trkpt lat="47.13674" lon="4.94617">
        <ele>241</ele>
        <time>2014-04-25T09:12:27Z</time>
      </trkpt>
      <trkpt lat="47.13677" lon="4.94612">
        <ele>241</ele>
        <time>2014-04-25T09:12:30Z</time>
      </trkpt>
      <trkpt lat="47.13681" lon="4.94608">
        <ele>241</ele>
        <time>2014-04-25T09:12:34Z</time>
      </trkpt>
      <trkpt lat="47.13687" lon="4.94606">
        <ele>241</ele>
        <time>2014-04-25T09:12:38Z</time>
      </trkpt>
      <trkpt lat="47.13692" lon="4.94607">
        <ele>241</ele>
        <time>2014-04-25T09:12:45Z</time>
      </trkpt>
      <trkpt lat="47.13697" lon="4.94606">
        <ele>241</ele>
        <time>2014-04-25T09:12:51Z</time>
      </trkpt>
      <trkpt lat="47.13702" lon="4.94609">
        <ele>241</ele>
        <time>2014-04-25T09:12:55Z</time>
      </trkpt>
      <trkpt lat="47.13707" lon="4.9461">
        <ele>241</ele>
        <time>2014-04-25T09:12:58Z</time>
      </trkpt>
      <trkpt lat="47.13712" lon="4.94611">
        <ele>241</ele>
        <time>2014-04-25T09:13:00Z</time>
      </trkpt>
      <trkpt lat="47.13717" lon="4.94611">
        <ele>241</ele>
        <time>2014-04-25T09:13:02Z</time>
      </trkpt>
      <trkpt lat="47.13722" lon="4.94609">
        <ele>241</ele>
        <time>2014-04-25T09:13:06Z</time>
      </trkpt>
      <trkpt lat="47.13726" lon="4.94606">
        <ele>241</ele>
        <time>2014-04-25T09:13:12Z</time>
      </trkpt>
      <trkpt lat="47.1373" lon="4.94604">
        <ele>241</ele>
        <time>2014-04-25T09:13:18Z</time>
      </trkpt>
      <trkpt lat="47.13729" lon="4.94608">
        <ele>241</ele>
        <time>2014-04-25T09:13:47Z</time>
      </trkpt>
      <trkpt lat="47.1373" lon="4.94608">
        <ele>241</ele>
        <time>2014-04-25T09:14:03Z</time>
      </trkpt>
      <trkpt lat="47.1373" lon="4.94601">
        <ele>241</ele>
        <time>2014-04-25T09:14:10Z</time>
      </trkpt>
      <trkpt lat="47.13728" lon="4.946">
        <ele>241</ele>
        <time>2014-04-25T09:16:11Z</time>
      </trkpt>
      <trkpt lat="47.13739" lon="4.94597">
        <ele>241</ele>
        <time>2014-04-25T09:16:30Z</time>
      </trkpt>
      <trkpt lat="47.13734" lon="4.94593">
        <ele>241</ele>
        <time>2014-04-25T09:17:07Z</time>
      </trkpt>
      <trkpt lat="47.1373" lon="4.94597">
        <ele>241</ele>
        <time>2014-04-25T09:17:09Z</time>
      </trkpt>
      <trkpt lat="47.13724" lon="4.946">
        <ele>241</ele>
        <time>2014-04-25T09:17:11Z</time>
      </trkpt>
      <trkpt lat="47.13719" lon="4.94602">
        <ele>241</ele>
        <time>2014-04-25T09:17:13Z</time>
      </trkpt>
      <trkpt lat="47.13714" lon="4.94604">
        <ele>241</ele>
        <time>2014-04-25T09:17:15Z</time>
      </trkpt>
      <trkpt lat="47.13709" lon="4.94607">
        <ele>241</ele>
        <time>2014-04-25T09:17:18Z</time>
      </trkpt>
      <trkpt lat="47.13703" lon="4.9461">
        <ele>241</ele>
        <time>2014-04-25T09:17:21Z</time>
      </trkpt>
      <trkpt lat="47.13698" lon="4.94609">
        <ele>241</ele>
        <time>2014-04-25T09:17:30Z</time>
      </trkpt>
      <trkpt lat="47.13688" lon="4.94611">
        <ele>241</ele>
        <time>2014-04-25T09:17:35Z</time>
      </trkpt>
      <trkpt lat="47.13683" lon="4.94609">
        <ele>241</ele>
        <time>2014-04-25T09:17:39Z</time>
      </trkpt>
      <trkpt lat="47.13677" lon="4.94608">
        <ele>241</ele>
        <time>2014-04-25T09:17:43Z</time>
      </trkpt>
      <trkpt lat="47.13672" lon="4.94607">
        <ele>241</ele>
        <time>2014-04-25T09:17:47Z</time>
      </trkpt>
      <trkpt lat="47.13667" lon="4.94608">
        <ele>242</ele>
        <time>2014-04-25T09:17:54Z</time>
      </trkpt>
      <trkpt lat="47.13662" lon="4.94607">
        <ele>242</ele>
        <time>2014-04-25T09:17:57Z</time>
      </trkpt>
      <trkpt lat="47.13652" lon="4.94608">
        <ele>242</ele>
        <time>2014-04-25T09:18:02Z</time>
      </trkpt>
      <trkpt lat="47.13648" lon="4.94614">
        <ele>242</ele>
        <time>2014-04-25T09:18:05Z</time>
      </trkpt>
      <trkpt lat="47.13647" lon="4.94622">
        <ele>242</ele>
        <time>2014-04-25T09:18:08Z</time>
      </trkpt>
      <trkpt lat="47.13645" lon="4.94628">
        <ele>242</ele>
        <time>2014-04-25T09:18:12Z</time>
      </trkpt>
      <trkpt lat="47.13641" lon="4.94633">
        <ele>242</ele>
        <time>2014-04-25T09:18:16Z</time>
      </trkpt>
      <trkpt lat="47.13637" lon="4.94638">
        <ele>242</ele>
        <time>2014-04-25T09:18:22Z</time>
      </trkpt>
      <trkpt lat="47.13632" lon="4.9464">
        <ele>242</ele>
        <time>2014-04-25T09:18:27Z</time>
      </trkpt>
      <trkpt lat="47.13627" lon="4.94644">
        <ele>242</ele>
        <time>2014-04-25T09:18:31Z</time>
      </trkpt>
      <trkpt lat="47.13623" lon="4.94648">
        <ele>242</ele>
        <time>2014-04-25T09:18:35Z</time>
      </trkpt>
      <trkpt lat="47.13618" lon="4.9465">
        <ele>242</ele>
        <time>2014-04-25T09:18:39Z</time>
      </trkpt>
      <trkpt lat="47.13613" lon="4.94649">
        <ele>242</ele>
        <time>2014-04-25T09:18:44Z</time>
      </trkpt>
      <trkpt lat="47.13609" lon="4.94646">
        <ele>242</ele>
        <time>2014-04-25T09:18:49Z</time>
      </trkpt>
      <trkpt lat="47.13605" lon="4.94641">
        <ele>242</ele>
        <time>2014-04-25T09:18:54Z</time>
      </trkpt>
      <trkpt lat="47.13603" lon="4.94634">
        <ele>242</ele>
        <time>2014-04-25T09:19:00Z</time>
      </trkpt>
      <trkpt lat="47.13603" lon="4.94627">
        <ele>242</ele>
        <time>2014-04-25T09:19:04Z</time>
      </trkpt>
      <trkpt lat="47.13601" lon="4.9462">
        <ele>242</ele>
        <time>2014-04-25T09:19:10Z</time>
      </trkpt>
      <trkpt lat="47.13605" lon="4.94614">
        <ele>242</ele>
        <time>2014-04-25T09:19:16Z</time>
      </trkpt>
      <trkpt lat="47.13609" lon="4.94608">
        <ele>242</ele>
        <time>2014-04-25T09:19:20Z</time>
      </trkpt>
      <trkpt lat="47.13613" lon="4.94603">
        <ele>242</ele>
        <time>2014-04-25T09:19:24Z</time>
      </trkpt>
      <trkpt lat="47.13622" lon="4.94599">
        <ele>242</ele>
        <time>2014-04-25T09:19:35Z</time>
      </trkpt>
      <trkpt lat="47.13593" lon="4.94618">
        <ele>242</ele>
        <time>2014-04-25T09:27:22Z</time>
      </trkpt>
      <trkpt lat="47.13596" lon="4.94626">
        <ele>242</ele>
        <time>2014-04-25T09:27:25Z</time>
      </trkpt>
      <trkpt lat="47.13599" lon="4.94629">
        <ele>242</ele>
        <time>2014-04-25T09:27:27Z</time>
      </trkpt>
      <trkpt lat="47.13604" lon="4.94632">
        <ele>242</ele>
        <time>2014-04-25T09:27:30Z</time>
      </trkpt>
      <trkpt lat="47.13601" lon="4.94642">
        <ele>242</ele>
        <time>2014-04-25T09:27:42Z</time>
      </trkpt>
      <trkpt lat="47.13603" lon="4.94644">
        <ele>242</ele>
        <time>2014-04-25T09:27:58Z</time>
      </trkpt>
      <trkpt lat="47.13607" lon="4.94644">
        <ele>242</ele>
        <time>2014-04-25T09:28:02Z</time>
      </trkpt>
      <trkpt lat="47.13607" lon="4.94651">
        <ele>242</ele>
        <time>2014-04-25T09:28:09Z</time>
      </trkpt>
      <trkpt lat="47.13609" lon="4.94659">
        <ele>241</ele>
        <time>2014-04-25T09:28:30Z</time>
      </trkpt>
      <trkpt lat="47.13612" lon="4.94663">
        <ele>241</ele>
        <time>2014-04-25T09:28:35Z</time>
      </trkpt>
      <trkpt lat="47.1361" lon="4.94669">
        <ele>241</ele>
        <time>2014-04-25T09:28:39Z</time>
      </trkpt>
      <trkpt lat="47.13608" lon="4.94676">
        <ele>241</ele>
        <time>2014-04-25T09:28:44Z</time>
      </trkpt>
      <trkpt lat="47.13608" lon="4.94683">
        <ele>241</ele>
        <time>2014-04-25T09:28:50Z</time>
      </trkpt>
      <trkpt lat="47.13609" lon="4.94685">
        <ele>241</ele>
        <time>2014-04-25T09:29:04Z</time>
      </trkpt>
      <trkpt lat="47.13611" lon="4.94676">
        <ele>241</ele>
        <time>2014-04-25T09:29:08Z</time>
      </trkpt>
      <trkpt lat="47.13609" lon="4.94669">
        <ele>241</ele>
        <time>2014-04-25T09:29:11Z</time>
      </trkpt>
      <trkpt lat="47.13608" lon="4.94662">
        <ele>241</ele>
        <time>2014-04-25T09:29:16Z</time>
      </trkpt>
      <trkpt lat="47.13607" lon="4.94655">
        <ele>241</ele>
        <time>2014-04-25T09:29:20Z</time>
      </trkpt>
      <trkpt lat="47.13609" lon="4.94648">
        <ele>242</ele>
        <time>2014-04-25T09:29:25Z</time>
      </trkpt>
      <trkpt lat="47.13612" lon="4.94642">
        <ele>242</ele>
        <time>2014-04-25T09:29:29Z</time>
      </trkpt>
      <trkpt lat="47.13609" lon="4.94635">
        <ele>242</ele>
        <time>2014-04-25T09:29:36Z</time>
      </trkpt>
      <trkpt lat="47.13609" lon="4.94628">
        <ele>242</ele>
        <time>2014-04-25T09:29:39Z</time>
      </trkpt>
      <trkpt lat="47.13607" lon="4.94621">
        <ele>242</ele>
        <time>2014-04-25T09:29:42Z</time>
      </trkpt>
      <trkpt lat="47.13605" lon="4.94613">
        <ele>242</ele>
        <time>2014-04-25T09:29:45Z</time>
      </trkpt>
      <trkpt lat="47.13604" lon="4.94605">
        <ele>242</ele>
        <time>2014-04-25T09:29:49Z</time>
      </trkpt>
      <trkpt lat="47.13602" lon="4.94597">
        <ele>242</ele>
        <time>2014-04-25T09:29:53Z</time>
      </trkpt>
      <trkpt lat="47.13599" lon="4.94591">
        <ele>242</ele>
        <time>2014-04-25T09:29:57Z</time>
      </trkpt>
      <trkpt lat="47.13599" lon="4.94584">
        <ele>242</ele>
        <time>2014-04-25T09:30:01Z</time>
      </trkpt>
      <trkpt lat="47.13597" lon="4.94576">
        <ele>243</ele>
        <time>2014-04-25T09:30:05Z</time>
      </trkpt>
      <trkpt lat="47.13597" lon="4.94569">
        <ele>243</ele>
        <time>2014-04-25T09:30:12Z</time>
      </trkpt>
      <trkpt lat="47.13597" lon="4.94559">
        <ele>243</ele>
        <time>2014-04-25T09:30:16Z</time>
      </trkpt>
      <trkpt lat="47.13594" lon="4.94552">
        <ele>243</ele>
        <time>2014-04-25T09:30:18Z</time>
      </trkpt>
      <trkpt lat="47.1359" lon="4.94547">
        <ele>243</ele>
        <time>2014-04-25T09:30:20Z</time>
      </trkpt>
      <trkpt lat="47.13587" lon="4.94542">
        <ele>243</ele>
        <time>2014-04-25T09:30:23Z</time>
      </trkpt>
      <trkpt lat="47.13585" lon="4.94534">
        <ele>243</ele>
        <time>2014-04-25T09:30:27Z</time>
      </trkpt>
      <trkpt lat="47.13582" lon="4.94527">
        <ele>243</ele>
        <time>2014-04-25T09:30:30Z</time>
      </trkpt>
      <trkpt lat="47.1358" lon="4.94519">
        <ele>243</ele>
        <time>2014-04-25T09:30:33Z</time>
      </trkpt>
      <trkpt lat="47.13582" lon="4.94512">
        <ele>244</ele>
        <time>2014-04-25T09:30:38Z</time>
      </trkpt>
      <trkpt lat="47.13586" lon="4.94509">
        <ele>244</ele>
        <time>2014-04-25T09:30:41Z</time>
      </trkpt>
      <trkpt lat="47.13583" lon="4.94502">
        <ele>244</ele>
        <time>2014-04-25T09:30:46Z</time>
      </trkpt>
      <trkpt lat="47.1358" lon="4.94497">
        <ele>244</ele>
        <time>2014-04-25T09:30:50Z</time>
      </trkpt>
      <trkpt lat="47.13578" lon="4.9449">
        <ele>244</ele>
        <time>2014-04-25T09:30:56Z</time>
      </trkpt>
      <trkpt lat="47.13574" lon="4.94485">
        <ele>244</ele>
        <time>2014-04-25T09:30:59Z</time>
      </trkpt>
      <trkpt lat="47.13571" lon="4.94479">
        <ele>244</ele>
        <time>2014-04-25T09:31:04Z</time>
      </trkpt>
      <trkpt lat="47.1357" lon="4.94472">
        <ele>244</ele>
        <time>2014-04-25T09:31:10Z</time>
      </trkpt>
      <trkpt lat="47.13571" lon="4.94465">
        <ele>244</ele>
        <time>2014-04-25T09:31:19Z</time>
      </trkpt>
      <trkpt lat="47.1357" lon="4.94458">
        <ele>244</ele>
        <time>2014-04-25T09:31:23Z</time>
      </trkpt>
      <trkpt lat="47.1357" lon="4.94451">
        <ele>244</ele>
        <time>2014-04-25T09:31:28Z</time>
      </trkpt>
      <trkpt lat="47.13566" lon="4.94447">
        <ele>244</ele>
        <time>2014-04-25T09:31:30Z</time>
      </trkpt>
      <trkpt lat="47.13562" lon="4.94443">
        <ele>244</ele>
        <time>2014-04-25T09:31:33Z</time>
      </trkpt>
      <trkpt lat="47.13557" lon="4.94442">
        <ele>244</ele>
        <time>2014-04-25T09:31:36Z</time>
      </trkpt>
      <trkpt lat="47.13552" lon="4.94442">
        <ele>244</ele>
        <time>2014-04-25T09:31:39Z</time>
      </trkpt>
      <trkpt lat="47.13547" lon="4.94442">
        <ele>244</ele>
        <time>2014-04-25T09:31:42Z</time>
      </trkpt>
      <trkpt lat="47.13542" lon="4.94442">
        <ele>244</ele>
        <time>2014-04-25T09:31:46Z</time>
      </trkpt>
      <trkpt lat="47.13537" lon="4.94442">
        <ele>244</ele>
        <time>2014-04-25T09:31:50Z</time>
      </trkpt>
      <trkpt lat="47.13531" lon="4.94443">
        <ele>243</ele>
        <time>2014-04-25T09:31:54Z</time>
      </trkpt>
      <trkpt lat="47.13526" lon="4.94442">
        <ele>243</ele>
        <time>2014-04-25T09:31:58Z</time>
      </trkpt>
      <trkpt lat="47.13521" lon="4.94442">
        <ele>243</ele>
        <time>2014-04-25T09:32:01Z</time>
      </trkpt>
      <trkpt lat="47.13516" lon="4.94441">
        <ele>243</ele>
        <time>2014-04-25T09:32:04Z</time>
      </trkpt>
      <trkpt lat="47.13511" lon="4.94438">
        <ele>243</ele>
        <time>2014-04-25T09:32:08Z</time>
      </trkpt>
      <trkpt lat="47.13506" lon="4.94437">
        <ele>243</ele>
        <time>2014-04-25T09:32:12Z</time>
      </trkpt>
      <trkpt lat="47.13501" lon="4.94436">
        <ele>243</ele>
        <time>2014-04-25T09:32:16Z</time>
      </trkpt>
      <trkpt lat="47.13497" lon="4.94432">
        <ele>243</ele>
        <time>2014-04-25T09:32:20Z</time>
      </trkpt>
      <trkpt lat="47.13493" lon="4.94428">
        <ele>243</ele>
        <time>2014-04-25T09:32:24Z</time>
      </trkpt>
      <trkpt lat="47.13488" lon="4.94425">
        <ele>243</ele>
        <time>2014-04-25T09:32:29Z</time>
      </trkpt>
      <trkpt lat="47.13483" lon="4.94421">
        <ele>243</ele>
        <time>2014-04-25T09:32:34Z</time>
      </trkpt>
      <trkpt lat="47.13479" lon="4.94417">
        <ele>245</ele>
        <time>2014-04-25T09:32:38Z</time>
      </trkpt>
      <trkpt lat="47.13475" lon="4.94414">
        <ele>245</ele>
        <time>2014-04-25T09:32:41Z</time>
      </trkpt>
      <trkpt lat="47.1347" lon="4.94413">
        <ele>245</ele>
        <time>2014-04-25T09:32:44Z</time>
      </trkpt>
      <trkpt lat="47.13466" lon="4.94411">
        <ele>246</ele>
        <time>2014-04-25T09:32:48Z</time>
      </trkpt>
      <trkpt lat="47.1346" lon="4.94408">
        <ele>246</ele>
        <time>2014-04-25T09:32:54Z</time>
      </trkpt>
      <trkpt lat="47.13454" lon="4.94406">
        <ele>246</ele>
        <time>2014-04-25T09:32:58Z</time>
      </trkpt>
      <trkpt lat="47.13449" lon="4.94405">
        <ele>246</ele>
        <time>2014-04-25T09:33:04Z</time>
      </trkpt>
      <trkpt lat="47.13443" lon="4.94404">
        <ele>246</ele>
        <time>2014-04-25T09:33:08Z</time>
      </trkpt>
      <trkpt lat="47.13438" lon="4.94403">
        <ele>246</ele>
        <time>2014-04-25T09:33:12Z</time>
      </trkpt>
      <trkpt lat="47.13433" lon="4.94402">
        <ele>246</ele>
        <time>2014-04-25T09:33:16Z</time>
      </trkpt>
      <trkpt lat="47.13429" lon="4.94401">
        <ele>246</ele>
        <time>2014-04-25T09:33:20Z</time>
      </trkpt>
      <trkpt lat="47.13423" lon="4.944">
        <ele>246</ele>
        <time>2014-04-25T09:33:25Z</time>
      </trkpt>
      <trkpt lat="47.13418" lon="4.94401">
        <ele>246</ele>
        <time>2014-04-25T09:33:29Z</time>
      </trkpt>
      <trkpt lat="47.13413" lon="4.94402">
        <ele>246</ele>
        <time>2014-04-25T09:33:33Z</time>
      </trkpt>
      <trkpt lat="47.13409" lon="4.94404">
        <ele>246</ele>
        <time>2014-04-25T09:33:37Z</time>
      </trkpt>
      <trkpt lat="47.13403" lon="4.94405">
        <ele>246</ele>
        <time>2014-04-25T09:33:42Z</time>
      </trkpt>
      <trkpt lat="47.13398" lon="4.94406">
        <ele>246</ele>
        <time>2014-04-25T09:33:46Z</time>
      </trkpt>
      <trkpt lat="47.13393" lon="4.94407">
        <ele>246</ele>
        <time>2014-04-25T09:33:50Z</time>
      </trkpt>
      <trkpt lat="47.13389" lon="4.94408">
        <ele>246</ele>
        <time>2014-04-25T09:33:54Z</time>
      </trkpt>
      <trkpt lat="47.13384" lon="4.94409">
        <ele>246</ele>
        <time>2014-04-25T09:33:57Z</time>
      </trkpt>
      <trkpt lat="47.13379" lon="4.9441">
        <ele>246</ele>
        <time>2014-04-25T09:34:00Z</time>
      </trkpt>
      <trkpt lat="47.13375" lon="4.9441">
        <ele>246</ele>
        <time>2014-04-25T09:34:03Z</time>
      </trkpt>
      <trkpt lat="47.1337" lon="4.94412">
        <ele>246</ele>
        <time>2014-04-25T09:34:07Z</time>
      </trkpt>
      <trkpt lat="47.13366" lon="4.94411">
        <ele>246</ele>
        <time>2014-04-25T09:34:11Z</time>
      </trkpt>
      <trkpt lat="47.13361" lon="4.94406">
        <ele>246</ele>
        <time>2014-04-25T09:34:15Z</time>
      </trkpt>
      <trkpt lat="47.13357" lon="4.94403">
        <ele>246</ele>
        <time>2014-04-25T09:34:19Z</time>
      </trkpt>
      <trkpt lat="47.13351" lon="4.94402">
        <ele>246</ele>
        <time>2014-04-25T09:34:23Z</time>
      </trkpt>
      <trkpt lat="47.13346" lon="4.94401">
        <ele>246</ele>
        <time>2014-04-25T09:34:27Z</time>
      </trkpt>
      <trkpt lat="47.1334" lon="4.944">
        <ele>245</ele>
        <time>2014-04-25T09:34:31Z</time>
      </trkpt>
      <trkpt lat="47.13335" lon="4.94402">
        <ele>245</ele>
        <time>2014-04-25T09:34:36Z</time>
      </trkpt>
      <trkpt lat="47.1333" lon="4.94404">
        <ele>245</ele>
        <time>2014-04-25T09:34:41Z</time>
      </trkpt>
      <trkpt lat="47.13325" lon="4.94407">
        <ele>245</ele>
        <time>2014-04-25T09:34:45Z</time>
      </trkpt>
      <trkpt lat="47.1332" lon="4.94409">
        <ele>245</ele>
        <time>2014-04-25T09:34:49Z</time>
      </trkpt>
      <trkpt lat="47.13315" lon="4.94406">
        <ele>245</ele>
        <time>2014-04-25T09:34:56Z</time>
      </trkpt>
      <trkpt lat="47.13311" lon="4.94404">
        <ele>245</ele>
        <time>2014-04-25T09:35:02Z</time>
      </trkpt>
      <trkpt lat="47.13308" lon="4.9441">
        <ele>245</ele>
        <time>2014-04-25T09:35:09Z</time>
      </trkpt>
      <trkpt lat="47.13307" lon="4.94415">
        <ele>245</ele>
        <time>2014-04-25T09:35:45Z</time>
      </trkpt>
      <trkpt lat="47.13302" lon="4.94417">
        <ele>243</ele>
        <time>2014-04-25T09:35:50Z</time>
      </trkpt>
      <trkpt lat="47.13298" lon="4.94418">
        <ele>243</ele>
        <time>2014-04-25T09:35:54Z</time>
      </trkpt>
      <trkpt lat="47.13293" lon="4.94422">
        <ele>243</ele>
        <time>2014-04-25T09:36:02Z</time>
      </trkpt>
      <trkpt lat="47.13287" lon="4.94424">
        <ele>242</ele>
        <time>2014-04-25T09:36:06Z</time>
      </trkpt>
      <trkpt lat="47.13281" lon="4.94424">
        <ele>242</ele>
        <time>2014-04-25T09:36:10Z</time>
      </trkpt>
      <trkpt lat="47.13277" lon="4.94425">
        <ele>242</ele>
        <time>2014-04-25T09:36:13Z</time>
      </trkpt>
      <trkpt lat="47.13272" lon="4.94425">
        <ele>242</ele>
        <time>2014-04-25T09:36:16Z</time>
      </trkpt>
      <trkpt lat="47.13267" lon="4.94425">
        <ele>243</ele>
        <time>2014-04-25T09:36:19Z</time>
      </trkpt>
      <trkpt lat="47.13263" lon="4.94428">
        <ele>243</ele>
        <time>2014-04-25T09:36:23Z</time>
      </trkpt>
      <trkpt lat="47.13258" lon="4.94428">
        <ele>243</ele>
        <time>2014-04-25T09:36:27Z</time>
      </trkpt>
      <trkpt lat="47.13254" lon="4.94423">
        <ele>243</ele>
        <time>2014-04-25T09:36:32Z</time>
      </trkpt>
      <trkpt lat="47.1325" lon="4.94419">
        <ele>243</ele>
        <time>2014-04-25T09:36:35Z</time>
      </trkpt>
      <trkpt lat="47.13246" lon="4.94415">
        <ele>243</ele>
        <time>2014-04-25T09:36:38Z</time>
      </trkpt>
      <trkpt lat="47.13241" lon="4.94412">
        <ele>244</ele>
        <time>2014-04-25T09:36:41Z</time>
      </trkpt>
      <trkpt lat="47.13236" lon="4.94409">
        <ele>244</ele>
        <time>2014-04-25T09:36:44Z</time>
      </trkpt>
      <trkpt lat="47.13232" lon="4.94405">
        <ele>244</ele>
        <time>2014-04-25T09:36:48Z</time>
      </trkpt>
      <trkpt lat="47.13227" lon="4.94401">
        <ele>244</ele>
        <time>2014-04-25T09:36:53Z</time>
      </trkpt>
      <trkpt lat="47.13223" lon="4.94399">
        <ele>244</ele>
        <time>2014-04-25T09:36:58Z</time>
      </trkpt>
      <trkpt lat="47.13217" lon="4.94396">
        <ele>244</ele>
        <time>2014-04-25T09:37:03Z</time>
      </trkpt>
      <trkpt lat="47.13215" lon="4.94392">
        <ele>244</ele>
        <time>2014-04-25T09:37:11Z</time>
      </trkpt>
      <trkpt lat="47.13211" lon="4.94391">
        <ele>244</ele>
        <time>2014-04-25T09:37:22Z</time>
      </trkpt>
      <trkpt lat="47.13205" lon="4.94391">
        <ele>244</ele>
        <time>2014-04-25T09:37:26Z</time>
      </trkpt>
      <trkpt lat="47.132" lon="4.94389">
        <ele>244</ele>
        <time>2014-04-25T09:37:30Z</time>
      </trkpt>
      <trkpt lat="47.13195" lon="4.94388">
        <ele>244</ele>
        <time>2014-04-25T09:37:35Z</time>
      </trkpt>
      <trkpt lat="47.1319" lon="4.94386">
        <ele>244</ele>
        <time>2014-04-25T09:37:39Z</time>
      </trkpt>
      <trkpt lat="47.13185" lon="4.94384">
        <ele>244</ele>
        <time>2014-04-25T09:37:43Z</time>
      </trkpt>
      <trkpt lat="47.1318" lon="4.94381">
        <ele>244</ele>
        <time>2014-04-25T09:37:47Z</time>
      </trkpt>
      <trkpt lat="47.13174" lon="4.94377">
        <ele>244</ele>
        <time>2014-04-25T09:37:51Z</time>
      </trkpt>
      <trkpt lat="47.13168" lon="4.94377">
        <ele>244</ele>
        <time>2014-04-25T09:37:53Z</time>
      </trkpt>
      <trkpt lat="47.13163" lon="4.94378">
        <ele>244</ele>
        <time>2014-04-25T09:37:56Z</time>
      </trkpt>
      <trkpt lat="47.13157" lon="4.9438">
        <ele>243</ele>
        <time>2014-04-25T09:38:01Z</time>
      </trkpt>
      <trkpt lat="47.13151" lon="4.94385">
        <ele>243</ele>
        <time>2014-04-25T09:38:04Z</time>
      </trkpt>
      <trkpt lat="47.13146" lon="4.94389">
        <ele>243</ele>
        <time>2014-04-25T09:38:06Z</time>
      </trkpt>
      <trkpt lat="47.13143" lon="4.9439">
        <ele>243</ele>
        <time>2014-04-25T09:38:08Z</time>
      </trkpt>
      <trkpt lat="47.13141" lon="4.94387">
        <ele>243</ele>
        <time>2014-04-25T09:38:11Z</time>
      </trkpt>
      <trkpt lat="47.13137" lon="4.94383">
        <ele>243</ele>
        <time>2014-04-25T09:38:15Z</time>
      </trkpt>
      <trkpt lat="47.13131" lon="4.94383">
        <ele>243</ele>
        <time>2014-04-25T09:38:19Z</time>
      </trkpt>
      <trkpt lat="47.13127" lon="4.94382">
        <ele>243</ele>
        <time>2014-04-25T09:38:25Z</time>
      </trkpt>
      <trkpt lat="47.13121" lon="4.94382">
        <ele>243</ele>
        <time>2014-04-25T09:38:31Z</time>
      </trkpt>
      <trkpt lat="47.13117" lon="4.94377">
        <ele>243</ele>
        <time>2014-04-25T09:38:34Z</time>
      </trkpt>
      <trkpt lat="47.13113" lon="4.94372">
        <ele>244</ele>
        <time>2014-04-25T09:38:37Z</time>
      </trkpt>
      <trkpt lat="47.13108" lon="4.9437">
        <ele>244</ele>
        <time>2014-04-25T09:38:41Z</time>
      </trkpt>
      <trkpt lat="47.13103" lon="4.94371">
        <ele>244</ele>
        <time>2014-04-25T09:38:45Z</time>
      </trkpt>
      <trkpt lat="47.13098" lon="4.94373">
        <ele>243</ele>
        <time>2014-04-25T09:38:49Z</time>
      </trkpt>
      <trkpt lat="47.13093" lon="4.94374">
        <ele>243</ele>
        <time>2014-04-25T09:38:53Z</time>
      </trkpt>
      <trkpt lat="47.13088" lon="4.94375">
        <ele>243</ele>
        <time>2014-04-25T09:38:57Z</time>
      </trkpt>
      <trkpt lat="47.13083" lon="4.94374">
        <ele>243</ele>
        <time>2014-04-25T09:39:01Z</time>
      </trkpt>
      <trkpt lat="47.13077" lon="4.94374">
        <ele>243</ele>
        <time>2014-04-25T09:39:05Z</time>
      </trkpt>
      <trkpt lat="47.13073" lon="4.94374">
        <ele>243</ele>
        <time>2014-04-25T09:39:09Z</time>
      </trkpt>
      <trkpt lat="47.13068" lon="4.94374">
        <ele>243</ele>
        <time>2014-04-25T09:39:14Z</time>
      </trkpt>
      <trkpt lat="47.13063" lon="4.94374">
        <ele>243</ele>
        <time>2014-04-25T09:39:19Z</time>
      </trkpt>
      <trkpt lat="47.13058" lon="4.94373">
        <ele>243</ele>
        <time>2014-04-25T09:39:24Z</time>
      </trkpt>
      <trkpt lat="47.13053" lon="4.94372">
        <ele>243</ele>
        <time>2014-04-25T09:39:28Z</time>
      </trkpt>
      <trkpt lat="47.13047" lon="4.94371">
        <ele>243</ele>
        <time>2014-04-25T09:39:32Z</time>
      </trkpt>
      <trkpt lat="47.13043" lon="4.94371">
        <ele>243</ele>
        <time>2014-04-25T09:39:36Z</time>
      </trkpt>
      <trkpt lat="47.13037" lon="4.94369">
        <ele>243</ele>
        <time>2014-04-25T09:39:43Z</time>
      </trkpt>
      <trkpt lat="47.13032" lon="4.94367">
        <ele>243</ele>
        <time>2014-04-25T09:39:46Z</time>
      </trkpt>
      <trkpt lat="47.13027" lon="4.94367">
        <ele>243</ele>
        <time>2014-04-25T09:39:50Z</time>
      </trkpt>
      <trkpt lat="47.13021" lon="4.94367">
        <ele>243</ele>
        <time>2014-04-25T09:39:54Z</time>
      </trkpt>
      <trkpt lat="47.13024" lon="4.94368">
        <ele>243</ele>
        <time>2014-04-25T09:40:14Z</time>
      </trkpt>
      <trkpt lat="47.13025" lon="4.9437">
        <ele>243</ele>
        <time>2014-04-25T09:40:37Z</time>
      </trkpt>
      <trkpt lat="47.1302" lon="4.9437">
        <ele>243</ele>
        <time>2014-04-25T09:40:41Z</time>
      </trkpt>
      <trkpt lat="47.13013" lon="4.94372">
        <ele>243</ele>
        <time>2014-04-25T09:40:45Z</time>
      </trkpt>
      <trkpt lat="47.13009" lon="4.94373">
        <ele>243</ele>
        <time>2014-04-25T09:40:48Z</time>
      </trkpt>
      <trkpt lat="47.13004" lon="4.94373">
        <ele>243</ele>
        <time>2014-04-25T09:40:51Z</time>
      </trkpt>
      <trkpt lat="47.12999" lon="4.94371">
        <ele>243</ele>
        <time>2014-04-25T09:40:55Z</time>
      </trkpt>
      <trkpt lat="47.12993" lon="4.94368">
        <ele>243</ele>
        <time>2014-04-25T09:40:59Z</time>
      </trkpt>
      <trkpt lat="47.12988" lon="4.94367">
        <ele>243</ele>
        <time>2014-04-25T09:41:02Z</time>
      </trkpt>
      <trkpt lat="47.12983" lon="4.94364">
        <ele>243</ele>
        <time>2014-04-25T09:41:07Z</time>
      </trkpt>
      <trkpt lat="47.12978" lon="4.94361">
        <ele>243</ele>
        <time>2014-04-25T09:41:11Z</time>
      </trkpt>
      <trkpt lat="47.12973" lon="4.94358">
        <ele>243</ele>
        <time>2014-04-25T09:41:15Z</time>
      </trkpt>
      <trkpt lat="47.12967" lon="4.94357">
        <ele>243</ele>
        <time>2014-04-25T09:41:19Z</time>
      </trkpt>
      <trkpt lat="47.12962" lon="4.94355">
        <ele>243</ele>
        <time>2014-04-25T09:41:23Z</time>
      </trkpt>
      <trkpt lat="47.12957" lon="4.94353">
        <ele>243</ele>
        <time>2014-04-25T09:41:27Z</time>
      </trkpt>
      <trkpt lat="47.12953" lon="4.94347">
        <ele>243</ele>
        <time>2014-04-25T09:41:33Z</time>
      </trkpt>
      <trkpt lat="47.12949" lon="4.94342">
        <ele>243</ele>
        <time>2014-04-25T09:41:37Z</time>
      </trkpt>
      <trkpt lat="47.12948" lon="4.94335">
        <ele>243</ele>
        <time>2014-04-25T09:41:43Z</time>
      </trkpt>
      <trkpt lat="47.12948" lon="4.94335">
        <ele>243</ele>
        <time>2014-04-25T09:42:13Z</time>
      </trkpt>
      <trkpt lat="47.12952" lon="4.94338">
        <ele>243</ele>
        <time>2014-04-25T09:42:18Z</time>
      </trkpt>
      <trkpt lat="47.1295" lon="4.94338">
        <ele>243</ele>
        <time>2014-04-25T09:45:31Z</time>
      </trkpt>
      <trkpt lat="47.12945" lon="4.94338">
        <ele>243</ele>
        <time>2014-04-25T09:45:34Z</time>
      </trkpt>
      <trkpt lat="47.12941" lon="4.94335">
        <ele>243</ele>
        <time>2014-04-25T09:45:38Z</time>
      </trkpt>
      <trkpt lat="47.12938" lon="4.94328">
        <ele>244</ele>
        <time>2014-04-25T09:45:42Z</time>
      </trkpt>
      <trkpt lat="47.12935" lon="4.94323">
        <ele>244</ele>
        <time>2014-04-25T09:45:44Z</time>
      </trkpt>
      <trkpt lat="47.12931" lon="4.9432">
        <ele>244</ele>
        <time>2014-04-25T09:45:46Z</time>
      </trkpt>
      <trkpt lat="47.12925" lon="4.94317">
        <ele>244</ele>
        <time>2014-04-25T09:45:49Z</time>
      </trkpt>
      <trkpt lat="47.12921" lon="4.94315">
        <ele>244</ele>
        <time>2014-04-25T09:45:52Z</time>
      </trkpt>
      <trkpt lat="47.12917" lon="4.94311">
        <ele>244</ele>
        <time>2014-04-25T09:45:56Z</time>
      </trkpt>
      <trkpt lat="47.12913" lon="4.94307">
        <ele>243</ele>
        <time>2014-04-25T09:46:00Z</time>
      </trkpt>
      <trkpt lat="47.12908" lon="4.94304">
        <ele>243</ele>
        <time>2014-04-25T09:46:04Z</time>
      </trkpt>
      <trkpt lat="47.12904" lon="4.943">
        <ele>243</ele>
        <time>2014-04-25T09:46:08Z</time>
      </trkpt>
      <trkpt lat="47.12899" lon="4.94296">
        <ele>243</ele>
        <time>2014-04-25T09:46:12Z</time>
      </trkpt>
      <trkpt lat="47.12894" lon="4.94292">
        <ele>243</ele>
        <time>2014-04-25T09:46:16Z</time>
      </trkpt>
      <trkpt lat="47.12889" lon="4.9429">
        <ele>243</ele>
        <time>2014-04-25T09:46:20Z</time>
      </trkpt>
      <trkpt lat="47.12885" lon="4.94287">
        <ele>243</ele>
        <time>2014-04-25T09:46:24Z</time>
      </trkpt>
      <trkpt lat="47.1288" lon="4.94284">
        <ele>243</ele>
        <time>2014-04-25T09:46:29Z</time>
      </trkpt>
      <trkpt lat="47.12875" lon="4.94283">
        <ele>243</ele>
        <time>2014-04-25T09:46:37Z</time>
      </trkpt>
      <trkpt lat="47.12872" lon="4.94276">
        <ele>243</ele>
        <time>2014-04-25T09:46:46Z</time>
      </trkpt>
      <trkpt lat="47.12868" lon="4.94273">
        <ele>243</ele>
        <time>2014-04-25T09:46:51Z</time>
      </trkpt>
      <trkpt lat="47.12866" lon="4.94267">
        <ele>243</ele>
        <time>2014-04-25T09:46:56Z</time>
      </trkpt>
      <trkpt lat="47.12865" lon="4.94258">
        <ele>243</ele>
        <time>2014-04-25T09:47:01Z</time>
      </trkpt>
      <trkpt lat="47.12863" lon="4.94251">
        <ele>243</ele>
        <time>2014-04-25T09:47:06Z</time>
      </trkpt>
      <trkpt lat="47.12868" lon="4.9425">
        <ele>247</ele>
        <time>2014-04-25T09:47:23Z</time>
      </trkpt>
      <trkpt lat="47.12867" lon="4.94249">
        <ele>247</ele>
        <time>2014-04-25T09:47:52Z</time>
      </trkpt>
      <trkpt lat="47.12862" lon="4.94246">
        <ele>246</ele>
        <time>2014-04-25T09:48:16Z</time>
      </trkpt>
      <trkpt lat="47.12859" lon="4.94239">
        <ele>246</ele>
        <time>2014-04-25T09:48:20Z</time>
      </trkpt>
      <trkpt lat="47.12855" lon="4.94234">
        <ele>247</ele>
        <time>2014-04-25T09:48:24Z</time>
      </trkpt>
      <trkpt lat="47.12853" lon="4.94228">
        <ele>247</ele>
        <time>2014-04-25T09:48:28Z</time>
      </trkpt>
      <trkpt lat="47.12852" lon="4.94222">
        <ele>247</ele>
        <time>2014-04-25T09:48:33Z</time>
      </trkpt>
      <trkpt lat="47.12852" lon="4.94214">
        <ele>247</ele>
        <time>2014-04-25T09:48:39Z</time>
      </trkpt>
      <trkpt lat="47.12852" lon="4.94207">
        <ele>248</ele>
        <time>2014-04-25T09:48:42Z</time>
      </trkpt>
      <trkpt lat="47.12849" lon="4.94201">
        <ele>248</ele>
        <time>2014-04-25T09:48:45Z</time>
      </trkpt>
      <trkpt lat="47.12847" lon="4.94194">
        <ele>248</ele>
        <time>2014-04-25T09:48:49Z</time>
      </trkpt>
      <trkpt lat="47.12845" lon="4.94187">
        <ele>248</ele>
        <time>2014-04-25T09:48:53Z</time>
      </trkpt>
      <trkpt lat="47.12844" lon="4.9418">
        <ele>249</ele>
        <time>2014-04-25T09:48:57Z</time>
      </trkpt>
      <trkpt lat="47.12841" lon="4.94173">
        <ele>249</ele>
        <time>2014-04-25T09:49:02Z</time>
      </trkpt>
      <trkpt lat="47.12839" lon="4.94166">
        <ele>251</ele>
        <time>2014-04-25T09:49:06Z</time>
      </trkpt>
      <trkpt lat="47.12836" lon="4.94158">
        <ele>252</ele>
        <time>2014-04-25T09:49:11Z</time>
      </trkpt>
      <trkpt lat="47.12832" lon="4.94152">
        <ele>250</ele>
        <time>2014-04-25T09:49:15Z</time>
      </trkpt>
      <trkpt lat="47.12829" lon="4.94146">
        <ele>251</ele>
        <time>2014-04-25T09:49:18Z</time>
      </trkpt>
      <trkpt lat="47.12826" lon="4.94138">
        <ele>251</ele>
        <time>2014-04-25T09:49:21Z</time>
      </trkpt>
      <trkpt lat="47.12824" lon="4.94132">
        <ele>252</ele>
        <time>2014-04-25T09:49:24Z</time>
      </trkpt>
      <trkpt lat="47.12825" lon="4.94125">
        <ele>252</ele>
        <time>2014-04-25T09:49:31Z</time>
      </trkpt>
      <trkpt lat="47.12826" lon="4.94119">
        <ele>253</ele>
        <time>2014-04-25T09:49:40Z</time>
      </trkpt>
      <trkpt lat="47.12825" lon="4.94111">
        <ele>254</ele>
        <time>2014-04-25T09:49:46Z</time>
      </trkpt>
      <trkpt lat="47.12825" lon="4.94104">
        <ele>254</ele>
        <time>2014-04-25T09:49:50Z</time>
      </trkpt>
      <trkpt lat="47.12825" lon="4.94096">
        <ele>255</ele>
        <time>2014-04-25T09:49:55Z</time>
      </trkpt>
      <trkpt lat="47.12825" lon="4.94089">
        <ele>256</ele>
        <time>2014-04-25T09:49:59Z</time>
      </trkpt>
      <trkpt lat="47.12823" lon="4.94082">
        <ele>259</ele>
        <time>2014-04-25T09:50:05Z</time>
      </trkpt>
      <trkpt lat="47.12822" lon="4.94075">
        <ele>259</ele>
        <time>2014-04-25T09:50:09Z</time>
      </trkpt>
      <trkpt lat="47.1282" lon="4.94069">
        <ele>260</ele>
        <time>2014-04-25T09:50:12Z</time>
      </trkpt>
      <trkpt lat="47.12816" lon="4.94062">
        <ele>260</ele>
        <time>2014-04-25T09:50:16Z</time>
      </trkpt>
      <trkpt lat="47.12814" lon="4.94056">
        <ele>260</ele>
        <time>2014-04-25T09:50:22Z</time>
      </trkpt>
      <trkpt lat="47.1281" lon="4.94051">
        <ele>260</ele>
        <time>2014-04-25T09:50:26Z</time>
      </trkpt>
      <trkpt lat="47.12805" lon="4.94046">
        <ele>260</ele>
        <time>2014-04-25T09:50:30Z</time>
      </trkpt>
      <trkpt lat="47.12801" lon="4.94043">
        <ele>260</ele>
        <time>2014-04-25T09:50:33Z</time>
      </trkpt>
      <trkpt lat="47.12797" lon="4.94039">
        <ele>260</ele>
        <time>2014-04-25T09:50:36Z</time>
      </trkpt>
      <trkpt lat="47.12779" lon="4.94021">
        <ele>260</ele>
        <time>2014-04-25T09:50:51Z</time>
      </trkpt>
      <trkpt lat="47.12777" lon="4.94019">
        <ele>260</ele>
        <time>2014-04-25T09:50:57Z</time>
      </trkpt>
      <trkpt lat="47.12773" lon="4.94013">
        <ele>260</ele>
        <time>2014-04-25T09:51:04Z</time>
      </trkpt>
      <trkpt lat="47.12769" lon="4.9401">
        <ele>260</ele>
        <time>2014-04-25T09:51:07Z</time>
      </trkpt>
      <trkpt lat="47.12763" lon="4.94008">
        <ele>260</ele>
        <time>2014-04-25T09:51:11Z</time>
      </trkpt>
      <trkpt lat="47.12758" lon="4.94008">
        <ele>260</ele>
        <time>2014-04-25T09:51:15Z</time>
      </trkpt>
      <trkpt lat="47.12754" lon="4.94005">
        <ele>260</ele>
        <time>2014-04-25T09:51:19Z</time>
      </trkpt>
      <trkpt lat="47.12749" lon="4.94003">
        <ele>259</ele>
        <time>2014-04-25T09:51:23Z</time>
      </trkpt>
      <trkpt lat="47.12744" lon="4.94001">
        <ele>258</ele>
        <time>2014-04-25T09:51:26Z</time>
      </trkpt>
      <trkpt lat="47.1274" lon="4.93998">
        <ele>260</ele>
        <time>2014-04-25T09:51:30Z</time>
      </trkpt>
      <trkpt lat="47.12735" lon="4.93994">
        <ele>260</ele>
        <time>2014-04-25T09:51:34Z</time>
      </trkpt>
      <trkpt lat="47.12731" lon="4.9399">
        <ele>260</ele>
        <time>2014-04-25T09:51:38Z</time>
      </trkpt>
      <trkpt lat="47.12726" lon="4.93986">
        <ele>260</ele>
        <time>2014-04-25T09:51:42Z</time>
      </trkpt>
      <trkpt lat="47.12722" lon="4.93982">
        <ele>260</ele>
        <time>2014-04-25T09:51:46Z</time>
      </trkpt>
      <trkpt lat="47.12718" lon="4.93978">
        <ele>260</ele>
        <time>2014-04-25T09:51:50Z</time>
      </trkpt>
      <trkpt lat="47.12713" lon="4.93974">
        <ele>260</ele>
        <time>2014-04-25T09:51:55Z</time>
      </trkpt>
      <trkpt lat="47.12709" lon="4.9397">
        <ele>259</ele>
        <time>2014-04-25T09:51:59Z</time>
      </trkpt>
      <trkpt lat="47.12704" lon="4.93967">
        <ele>259</ele>
        <time>2014-04-25T09:52:03Z</time>
      </trkpt>
      <trkpt lat="47.127" lon="4.93963">
        <ele>259</ele>
        <time>2014-04-25T09:52:07Z</time>
      </trkpt>
      <trkpt lat="47.12696" lon="4.93958">
        <ele>260</ele>
        <time>2014-04-25T09:52:12Z</time>
      </trkpt>
      <trkpt lat="47.12691" lon="4.93953">
        <ele>260</ele>
        <time>2014-04-25T09:52:16Z</time>
      </trkpt>
      <trkpt lat="47.12687" lon="4.93951">
        <ele>260</ele>
        <time>2014-04-25T09:52:20Z</time>
      </trkpt>
      <trkpt lat="47.12682" lon="4.93948">
        <ele>260</ele>
        <time>2014-04-25T09:52:24Z</time>
      </trkpt>
      <trkpt lat="47.12677" lon="4.93945">
        <ele>260</ele>
        <time>2014-04-25T09:52:28Z</time>
      </trkpt>
      <trkpt lat="47.12673" lon="4.93942">
        <ele>260</ele>
        <time>2014-04-25T09:52:32Z</time>
      </trkpt>
      <trkpt lat="47.1267" lon="4.93937">
        <ele>260</ele>
        <time>2014-04-25T09:52:36Z</time>
      </trkpt>
      <trkpt lat="47.12665" lon="4.93934">
        <ele>258</ele>
        <time>2014-04-25T09:52:39Z</time>
      </trkpt>
      <trkpt lat="47.12661" lon="4.9393">
        <ele>258</ele>
        <time>2014-04-25T09:52:43Z</time>
      </trkpt>
      <trkpt lat="47.12657" lon="4.93926">
        <ele>258</ele>
        <time>2014-04-25T09:52:47Z</time>
      </trkpt>
      <trkpt lat="47.12652" lon="4.93924">
        <ele>258</ele>
        <time>2014-04-25T09:52:50Z</time>
      </trkpt>
      <trkpt lat="47.12648" lon="4.93921">
        <ele>257</ele>
        <time>2014-04-25T09:52:54Z</time>
      </trkpt>
      <trkpt lat="47.12644" lon="4.93917">
        <ele>257</ele>
        <time>2014-04-25T09:52:58Z</time>
      </trkpt>
      <trkpt lat="47.1264" lon="4.93913">
        <ele>260</ele>
        <time>2014-04-25T09:53:02Z</time>
      </trkpt>
      <trkpt lat="47.12636" lon="4.93909">
        <ele>260</ele>
        <time>2014-04-25T09:53:06Z</time>
      </trkpt>
      <trkpt lat="47.12632" lon="4.93905">
        <ele>260</ele>
        <time>2014-04-25T09:53:10Z</time>
      </trkpt>
      <trkpt lat="47.12628" lon="4.939">
        <ele>260</ele>
        <time>2014-04-25T09:53:14Z</time>
      </trkpt>
      <trkpt lat="47.12623" lon="4.93897">
        <ele>260</ele>
        <time>2014-04-25T09:53:18Z</time>
      </trkpt>
      <trkpt lat="47.12618" lon="4.93893">
        <ele>260</ele>
        <time>2014-04-25T09:53:22Z</time>
      </trkpt>
      <trkpt lat="47.12613" lon="4.93888">
        <ele>259</ele>
        <time>2014-04-25T09:53:26Z</time>
      </trkpt>
      <trkpt lat="47.12609" lon="4.93885">
        <ele>259</ele>
        <time>2014-04-25T09:53:30Z</time>
      </trkpt>
      <trkpt lat="47.12604" lon="4.93882">
        <ele>259</ele>
        <time>2014-04-25T09:53:34Z</time>
      </trkpt>
      <trkpt lat="47.126" lon="4.93877">
        <ele>259</ele>
        <time>2014-04-25T09:53:38Z</time>
      </trkpt>
      <trkpt lat="47.12596" lon="4.93872">
        <ele>259</ele>
        <time>2014-04-25T09:53:42Z</time>
      </trkpt>
      <trkpt lat="47.12592" lon="4.93868">
        <ele>259</ele>
        <time>2014-04-25T09:53:45Z</time>
      </trkpt>
      <trkpt lat="47.12587" lon="4.93866">
        <ele>259</ele>
        <time>2014-04-25T09:53:49Z</time>
      </trkpt>
      <trkpt lat="47.12583" lon="4.93865">
        <ele>256</ele>
        <time>2014-04-25T09:53:53Z</time>
      </trkpt>
      <trkpt lat="47.12579" lon="4.93863">
        <ele>256</ele>
        <time>2014-04-25T09:53:57Z</time>
      </trkpt>
      <trkpt lat="47.12574" lon="4.9386">
        <ele>256</ele>
        <time>2014-04-25T09:54:01Z</time>
      </trkpt>
      <trkpt lat="47.1257" lon="4.93856">
        <ele>256</ele>
        <time>2014-04-25T09:54:05Z</time>
      </trkpt>
      <trkpt lat="47.12565" lon="4.93853">
        <ele>256</ele>
        <time>2014-04-25T09:54:09Z</time>
      </trkpt>
      <trkpt lat="47.1256" lon="4.93851">
        <ele>256</ele>
        <time>2014-04-25T09:54:13Z</time>
      </trkpt>
      <trkpt lat="47.12555" lon="4.93849">
        <ele>256</ele>
        <time>2014-04-25T09:54:17Z</time>
      </trkpt>
      <trkpt lat="47.12551" lon="4.93847">
        <ele>256</ele>
        <time>2014-04-25T09:54:21Z</time>
      </trkpt>
      <trkpt lat="47.12546" lon="4.93844">
        <ele>256</ele>
        <time>2014-04-25T09:54:26Z</time>
      </trkpt>
      <trkpt lat="47.12541" lon="4.93839">
        <ele>256</ele>
        <time>2014-04-25T09:54:30Z</time>
      </trkpt>
      <trkpt lat="47.12538" lon="4.93835">
        <ele>256</ele>
        <time>2014-04-25T09:54:33Z</time>
      </trkpt>
      <trkpt lat="47.12533" lon="4.9383">
        <ele>258</ele>
        <time>2014-04-25T09:54:37Z</time>
      </trkpt>
      <trkpt lat="47.12529" lon="4.93826">
        <ele>258</ele>
        <time>2014-04-25T09:54:40Z</time>
      </trkpt>
      <trkpt lat="47.12525" lon="4.93823">
        <ele>258</ele>
        <time>2014-04-25T09:54:43Z</time>
      </trkpt>
      <trkpt lat="47.1252" lon="4.9382">
        <ele>258</ele>
        <time>2014-04-25T09:54:47Z</time>
      </trkpt>
      <trkpt lat="47.12516" lon="4.93815">
        <ele>258</ele>
        <time>2014-04-25T09:54:51Z</time>
      </trkpt>
      <trkpt lat="47.12511" lon="4.93812">
        <ele>258</ele>
        <time>2014-04-25T09:54:55Z</time>
      </trkpt>
      <trkpt lat="47.12506" lon="4.9381">
        <ele>258</ele>
        <time>2014-04-25T09:54:59Z</time>
      </trkpt>
      <trkpt lat="47.125" lon="4.93807">
        <ele>258</ele>
        <time>2014-04-25T09:55:03Z</time>
      </trkpt>
      <trkpt lat="47.12496" lon="4.93806">
        <ele>256</ele>
        <time>2014-04-25T09:55:07Z</time>
      </trkpt>
      <trkpt lat="47.12491" lon="4.93804">
        <ele>256</ele>
        <time>2014-04-25T09:55:11Z</time>
      </trkpt>
      <trkpt lat="47.12487" lon="4.93801">
        <ele>256</ele>
        <time>2014-04-25T09:55:15Z</time>
      </trkpt>
      <trkpt lat="47.12482" lon="4.93798">
        <ele>256</ele>
        <time>2014-04-25T09:55:19Z</time>
      </trkpt>
      <trkpt lat="47.12477" lon="4.93797">
        <ele>256</ele>
        <time>2014-04-25T09:55:23Z</time>
      </trkpt>
      <trkpt lat="47.12472" lon="4.93796">
        <ele>256</ele>
        <time>2014-04-25T09:55:27Z</time>
      </trkpt>
      <trkpt lat="47.12466" lon="4.93794">
        <ele>256</ele>
        <time>2014-04-25T09:55:31Z</time>
      </trkpt>
      <trkpt lat="47.12461" lon="4.93791">
        <ele>256</ele>
        <time>2014-04-25T09:55:35Z</time>
      </trkpt>
      <trkpt lat="47.12457" lon="4.93787">
        <ele>256</ele>
        <time>2014-04-25T09:55:39Z</time>
      </trkpt>
      <trkpt lat="47.12453" lon="4.93784">
        <ele>255</ele>
        <time>2014-04-25T09:55:43Z</time>
      </trkpt>
      <trkpt lat="47.12449" lon="4.93779">
        <ele>255</ele>
        <time>2014-04-25T09:55:47Z</time>
      </trkpt>
      <trkpt lat="47.12445" lon="4.93775">
        <ele>255</ele>
        <time>2014-04-25T09:55:51Z</time>
      </trkpt>
      <trkpt lat="47.1244" lon="4.93773">
        <ele>255</ele>
        <time>2014-04-25T09:55:55Z</time>
      </trkpt>
      <trkpt lat="47.12436" lon="4.9377">
        <ele>255</ele>
        <time>2014-04-25T09:55:58Z</time>
      </trkpt>
      <trkpt lat="47.12433" lon="4.93765">
        <ele>255</ele>
        <time>2014-04-25T09:56:02Z</time>
      </trkpt>
      <trkpt lat="47.12431" lon="4.93757">
        <ele>255</ele>
        <time>2014-04-25T09:56:06Z</time>
      </trkpt>
      <trkpt lat="47.12427" lon="4.93751">
        <ele>255</ele>
        <time>2014-04-25T09:56:10Z</time>
      </trkpt>
      <trkpt lat="47.12424" lon="4.93745">
        <ele>256</ele>
        <time>2014-04-25T09:56:14Z</time>
      </trkpt>
      <trkpt lat="47.12419" lon="4.9374">
        <ele>256</ele>
        <time>2014-04-25T09:56:18Z</time>
      </trkpt>
      <trkpt lat="47.12415" lon="4.93734">
        <ele>255</ele>
        <time>2014-04-25T09:56:22Z</time>
      </trkpt>
      <trkpt lat="47.12411" lon="4.93728">
        <ele>255</ele>
        <time>2014-04-25T09:56:26Z</time>
      </trkpt>
      <trkpt lat="47.12408" lon="4.93723">
        <ele>255</ele>
        <time>2014-04-25T09:56:30Z</time>
      </trkpt>
      <trkpt lat="47.12406" lon="4.93721">
        <ele>255</ele>
        <time>2014-04-25T09:56:35Z</time>
      </trkpt>
      <trkpt lat="47.12402" lon="4.93716">
        <ele>255</ele>
        <time>2014-04-25T09:56:50Z</time>
      </trkpt>
      <trkpt lat="47.12399" lon="4.93711">
        <ele>255</ele>
        <time>2014-04-25T09:56:55Z</time>
      </trkpt>
      <trkpt lat="47.12395" lon="4.93708">
        <ele>255</ele>
        <time>2014-04-25T09:56:58Z</time>
      </trkpt>
      <trkpt lat="47.1239" lon="4.93704">
        <ele>255</ele>
        <time>2014-04-25T09:57:02Z</time>
      </trkpt>
      <trkpt lat="47.12386" lon="4.937">
        <ele>255</ele>
        <time>2014-04-25T09:57:06Z</time>
      </trkpt>
      <trkpt lat="47.12381" lon="4.93697">
        <ele>255</ele>
        <time>2014-04-25T09:57:09Z</time>
      </trkpt>
      <trkpt lat="47.12377" lon="4.93694">
        <ele>255</ele>
        <time>2014-04-25T09:57:12Z</time>
      </trkpt>
      <trkpt lat="47.12374" lon="4.93687">
        <ele>255</ele>
        <time>2014-04-25T09:57:16Z</time>
      </trkpt>
      <trkpt lat="47.12369" lon="4.93684">
        <ele>255</ele>
        <time>2014-04-25T09:57:20Z</time>
      </trkpt>
      <trkpt lat="47.12365" lon="4.93679">
        <ele>255</ele>
        <time>2014-04-25T09:57:24Z</time>
      </trkpt>
      <trkpt lat="47.12361" lon="4.93675">
        <ele>255</ele>
        <time>2014-04-25T09:57:28Z</time>
      </trkpt>
      <trkpt lat="47.12356" lon="4.9367">
        <ele>255</ele>
        <time>2014-04-25T09:57:32Z</time>
      </trkpt>
      <trkpt lat="47.12351" lon="4.93665">
        <ele>257</ele>
        <time>2014-04-25T09:57:36Z</time>
      </trkpt>
      <trkpt lat="47.12347" lon="4.93661">
        <ele>257</ele>
        <time>2014-04-25T09:57:42Z</time>
      </trkpt>
      <trkpt lat="47.12342" lon="4.93661">
        <ele>257</ele>
        <time>2014-04-25T09:57:47Z</time>
      </trkpt>
      <trkpt lat="47.12338" lon="4.9366">
        <ele>256</ele>
        <time>2014-04-25T09:57:51Z</time>
      </trkpt>
      <trkpt lat="47.12334" lon="4.93658">
        <ele>256</ele>
        <time>2014-04-25T09:57:54Z</time>
      </trkpt>
      <trkpt lat="47.12328" lon="4.93658">
        <ele>256</ele>
        <time>2014-04-25T09:57:58Z</time>
      </trkpt>
      <trkpt lat="47.12323" lon="4.93657">
        <ele>256</ele>
        <time>2014-04-25T09:58:01Z</time>
      </trkpt>
      <trkpt lat="47.12319" lon="4.93656">
        <ele>256</ele>
        <time>2014-04-25T09:58:04Z</time>
      </trkpt>
      <trkpt lat="47.12314" lon="4.93657">
        <ele>256</ele>
        <time>2014-04-25T09:58:08Z</time>
      </trkpt>
      <trkpt lat="47.12308" lon="4.93658">
        <ele>257</ele>
        <time>2014-04-25T09:58:13Z</time>
      </trkpt>
      <trkpt lat="47.12303" lon="4.93656">
        <ele>257</ele>
        <time>2014-04-25T09:58:17Z</time>
      </trkpt>
      <trkpt lat="47.12298" lon="4.93654">
        <ele>257</ele>
        <time>2014-04-25T09:58:21Z</time>
      </trkpt>
      <trkpt lat="47.12293" lon="4.9365">
        <ele>257</ele>
        <time>2014-04-25T09:58:26Z</time>
      </trkpt>
      <trkpt lat="47.12289" lon="4.9365">
        <ele>257</ele>
        <time>2014-04-25T09:58:30Z</time>
      </trkpt>
      <trkpt lat="47.12283" lon="4.93651">
        <ele>257</ele>
        <time>2014-04-25T09:58:34Z</time>
      </trkpt>
      <trkpt lat="47.12278" lon="4.93651">
        <ele>257</ele>
        <time>2014-04-25T09:58:37Z</time>
      </trkpt>
      <trkpt lat="47.12273" lon="4.93648">
        <ele>257</ele>
        <time>2014-04-25T09:58:41Z</time>
      </trkpt>
      <trkpt lat="47.12269" lon="4.93646">
        <ele>257</ele>
        <time>2014-04-25T09:58:46Z</time>
      </trkpt>
      <trkpt lat="47.12264" lon="4.93644">
        <ele>257</ele>
        <time>2014-04-25T09:58:51Z</time>
      </trkpt>
      <trkpt lat="47.12259" lon="4.93642">
        <ele>257</ele>
        <time>2014-04-25T09:58:55Z</time>
      </trkpt>
      <trkpt lat="47.12254" lon="4.93638">
        <ele>257</ele>
        <time>2014-04-25T09:58:59Z</time>
      </trkpt>
      <trkpt lat="47.12249" lon="4.93635">
        <ele>257</ele>
        <time>2014-04-25T09:59:03Z</time>
      </trkpt>
      <trkpt lat="47.12244" lon="4.93632">
        <ele>257</ele>
        <time>2014-04-25T09:59:07Z</time>
      </trkpt>
      <trkpt lat="47.12239" lon="4.9363">
        <ele>257</ele>
        <time>2014-04-25T09:59:13Z</time>
      </trkpt>
      <trkpt lat="47.12235" lon="4.93628">
        <ele>257</ele>
        <time>2014-04-25T09:59:17Z</time>
      </trkpt>
      <trkpt lat="47.1223" lon="4.93625">
        <ele>257</ele>
        <time>2014-04-25T09:59:21Z</time>
      </trkpt>
      <trkpt lat="47.12224" lon="4.93624">
        <ele>257</ele>
        <time>2014-04-25T09:59:24Z</time>
      </trkpt>
      <trkpt lat="47.12219" lon="4.93624">
        <ele>257</ele>
        <time>2014-04-25T09:59:27Z</time>
      </trkpt>
      <trkpt lat="47.12214" lon="4.93624">
        <ele>257</ele>
        <time>2014-04-25T09:59:30Z</time>
      </trkpt>
      <trkpt lat="47.1221" lon="4.93622">
        <ele>257</ele>
        <time>2014-04-25T09:59:34Z</time>
      </trkpt>
      <trkpt lat="47.12206" lon="4.93619">
        <ele>257</ele>
        <time>2014-04-25T09:59:38Z</time>
      </trkpt>
      <trkpt lat="47.12201" lon="4.93619">
        <ele>257</ele>
        <time>2014-04-25T09:59:42Z</time>
      </trkpt>
      <trkpt lat="47.12196" lon="4.93619">
        <ele>257</ele>
        <time>2014-04-25T09:59:46Z</time>
      </trkpt>
      <trkpt lat="47.12191" lon="4.93618">
        <ele>257</ele>
        <time>2014-04-25T09:59:50Z</time>
      </trkpt>
      <trkpt lat="47.12186" lon="4.93616">
        <ele>257</ele>
        <time>2014-04-25T09:59:55Z</time>
      </trkpt>
      <trkpt lat="47.12181" lon="4.93615">
        <ele>258</ele>
        <time>2014-04-25T10:00:00Z</time>
      </trkpt>
      <trkpt lat="47.12176" lon="4.93614">
        <ele>258</ele>
        <time>2014-04-25T10:00:04Z</time>
      </trkpt>
      <trkpt lat="47.12172" lon="4.93611">
        <ele>258</ele>
        <time>2014-04-25T10:00:08Z</time>
      </trkpt>
      <trkpt lat="47.12166" lon="4.93609">
        <ele>257</ele>
        <time>2014-04-25T10:00:12Z</time>
      </trkpt>
      <trkpt lat="47.12162" lon="4.93606">
        <ele>257</ele>
        <time>2014-04-25T10:00:16Z</time>
      </trkpt>
      <trkpt lat="47.12158" lon="4.93602">
        <ele>258</ele>
        <time>2014-04-25T10:00:20Z</time>
      </trkpt>
      <trkpt lat="47.12153" lon="4.93599">
        <ele>258</ele>
        <time>2014-04-25T10:00:24Z</time>
      </trkpt>
      <trkpt lat="47.12148" lon="4.93596">
        <ele>258</ele>
        <time>2014-04-25T10:00:28Z</time>
      </trkpt>
      <trkpt lat="47.12143" lon="4.93595">
        <ele>257</ele>
        <time>2014-04-25T10:00:31Z</time>
      </trkpt>
      <trkpt lat="47.12138" lon="4.93595">
        <ele>257</ele>
        <time>2014-04-25T10:00:34Z</time>
      </trkpt>
      <trkpt lat="47.12134" lon="4.93596">
        <ele>257</ele>
        <time>2014-04-25T10:00:37Z</time>
      </trkpt>
      <trkpt lat="47.12128" lon="4.93596">
        <ele>257</ele>
        <time>2014-04-25T10:00:41Z</time>
      </trkpt>
      <trkpt lat="47.12123" lon="4.93595">
        <ele>257</ele>
        <time>2014-04-25T10:00:45Z</time>
      </trkpt>
      <trkpt lat="47.12118" lon="4.93595">
        <ele>257</ele>
        <time>2014-04-25T10:00:50Z</time>
      </trkpt>
      <trkpt lat="47.12113" lon="4.93594">
        <ele>257</ele>
        <time>2014-04-25T10:00:54Z</time>
      </trkpt>
      <trkpt lat="47.12109" lon="4.93589">
        <ele>257</ele>
        <time>2014-04-25T10:00:58Z</time>
      </trkpt>
      <trkpt lat="47.12105" lon="4.93587">
        <ele>257</ele>
        <time>2014-04-25T10:01:02Z</time>
      </trkpt>
      <trkpt lat="47.12099" lon="4.93585">
        <ele>257</ele>
        <time>2014-04-25T10:01:06Z</time>
      </trkpt>
      <trkpt lat="47.12094" lon="4.93583">
        <ele>261</ele>
        <time>2014-04-25T10:01:11Z</time>
      </trkpt>
      <trkpt lat="47.12088" lon="4.9358">
        <ele>260</ele>
        <time>2014-04-25T10:01:15Z</time>
      </trkpt>
      <trkpt lat="47.12083" lon="4.9358">
        <ele>260</ele>
        <time>2014-04-25T10:01:19Z</time>
      </trkpt>
      <trkpt lat="47.12078" lon="4.9358">
        <ele>260</ele>
        <time>2014-04-25T10:01:23Z</time>
      </trkpt>
      <trkpt lat="47.12073" lon="4.93579">
        <ele>261</ele>
        <time>2014-04-25T10:01:28Z</time>
      </trkpt>
      <trkpt lat="47.12067" lon="4.93579">
        <ele>261</ele>
        <time>2014-04-25T10:01:32Z</time>
      </trkpt>
      <trkpt lat="47.12062" lon="4.93578">
        <ele>261</ele>
        <time>2014-04-25T10:01:36Z</time>
      </trkpt>
      <trkpt lat="47.12056" lon="4.93575">
        <ele>262</ele>
        <time>2014-04-25T10:01:40Z</time>
      </trkpt>
      <trkpt lat="47.12052" lon="4.93569">
        <ele>262</ele>
        <time>2014-04-25T10:01:44Z</time>
      </trkpt>
      <trkpt lat="47.12047" lon="4.93567">
        <ele>262</ele>
        <time>2014-04-25T10:01:48Z</time>
      </trkpt>
      <trkpt lat="47.12042" lon="4.93566">
        <ele>262</ele>
        <time>2014-04-25T10:01:52Z</time>
      </trkpt>
      <trkpt lat="47.12037" lon="4.93564">
        <ele>262</ele>
        <time>2014-04-25T10:01:57Z</time>
      </trkpt>
      <trkpt lat="47.12033" lon="4.93562">
        <ele>262</ele>
        <time>2014-04-25T10:02:06Z</time>
      </trkpt>
      <trkpt lat="47.12027" lon="4.9356">
        <ele>262</ele>
        <time>2014-04-25T10:02:16Z</time>
      </trkpt>
      <trkpt lat="47.12022" lon="4.93557">
        <ele>262</ele>
        <time>2014-04-25T10:02:21Z</time>
      </trkpt>
      <trkpt lat="47.12017" lon="4.93552">
        <ele>262</ele>
        <time>2014-04-25T10:02:25Z</time>
      </trkpt>
      <trkpt lat="47.12013" lon="4.93547">
        <ele>263</ele>
        <time>2014-04-25T10:02:29Z</time>
      </trkpt>
      <trkpt lat="47.12008" lon="4.93543">
        <ele>263</ele>
        <time>2014-04-25T10:02:33Z</time>
      </trkpt>
      <trkpt lat="47.12003" lon="4.93539">
        <ele>263</ele>
        <time>2014-04-25T10:02:38Z</time>
      </trkpt>
      <trkpt lat="47.11999" lon="4.93535">
        <ele>262</ele>
        <time>2014-04-25T10:02:43Z</time>
      </trkpt>
      <trkpt lat="47.11994" lon="4.93531">
        <ele>262</ele>
        <time>2014-04-25T10:02:47Z</time>
      </trkpt>
      <trkpt lat="47.11991" lon="4.93528">
        <ele>262</ele>
        <time>2014-04-25T10:02:56Z</time>
      </trkpt>
      <trkpt lat="47.11986" lon="4.93525">
        <ele>262</ele>
        <time>2014-04-25T10:03:02Z</time>
      </trkpt>
      <trkpt lat="47.1198" lon="4.93521">
        <ele>263</ele>
        <time>2014-04-25T10:03:06Z</time>
      </trkpt>
      <trkpt lat="47.11975" lon="4.93519">
        <ele>262</ele>
        <time>2014-04-25T10:03:09Z</time>
      </trkpt>
      <trkpt lat="47.1197" lon="4.93516">
        <ele>262</ele>
        <time>2014-04-25T10:03:13Z</time>
      </trkpt>
      <trkpt lat="47.11965" lon="4.93511">
        <ele>262</ele>
        <time>2014-04-25T10:03:18Z</time>
      </trkpt>
      <trkpt lat="47.1196" lon="4.93507">
        <ele>262</ele>
        <time>2014-04-25T10:03:23Z</time>
      </trkpt>
      <trkpt lat="47.11956" lon="4.93504">
        <ele>262</ele>
        <time>2014-04-25T10:03:29Z</time>
      </trkpt>
      <trkpt lat="47.11952" lon="4.935">
        <ele>269</ele>
        <time>2014-04-25T10:03:33Z</time>
      </trkpt>
      <trkpt lat="47.11948" lon="4.93495">
        <ele>268</ele>
        <time>2014-04-25T10:03:37Z</time>
      </trkpt>
      <trkpt lat="47.11944" lon="4.93489">
        <ele>268</ele>
        <time>2014-04-25T10:03:41Z</time>
      </trkpt>
      <trkpt lat="47.1194" lon="4.93483">
        <ele>268</ele>
        <time>2014-04-25T10:03:45Z</time>
      </trkpt>
      <trkpt lat="47.11937" lon="4.93479">
        <ele>268</ele>
        <time>2014-04-25T10:03:49Z</time>
      </trkpt>
      <trkpt lat="47.11934" lon="4.93473">
        <ele>269</ele>
        <time>2014-04-25T10:03:53Z</time>
      </trkpt>
      <trkpt lat="47.1193" lon="4.93468">
        <ele>269</ele>
        <time>2014-04-25T10:03:57Z</time>
      </trkpt>
      <trkpt lat="47.11927" lon="4.93462">
        <ele>269</ele>
        <time>2014-04-25T10:04:01Z</time>
      </trkpt>
      <trkpt lat="47.11926" lon="4.93456">
        <ele>270</ele>
        <time>2014-04-25T10:04:04Z</time>
      </trkpt>
      <trkpt lat="47.11923" lon="4.93449">
        <ele>270</ele>
        <time>2014-04-25T10:04:08Z</time>
      </trkpt>
      <trkpt lat="47.1192" lon="4.93444">
        <ele>270</ele>
        <time>2014-04-25T10:04:11Z</time>
      </trkpt>
      <trkpt lat="47.11916" lon="4.93438">
        <ele>267</ele>
        <time>2014-04-25T10:04:15Z</time>
      </trkpt>
      <trkpt lat="47.11913" lon="4.93433">
        <ele>267</ele>
        <time>2014-04-25T10:04:19Z</time>
      </trkpt>
      <trkpt lat="47.1191" lon="4.93428">
        <ele>268</ele>
        <time>2014-04-25T10:04:23Z</time>
      </trkpt>
      <trkpt lat="47.11907" lon="4.93423">
        <ele>268</ele>
        <time>2014-04-25T10:04:27Z</time>
      </trkpt>
      <trkpt lat="47.11903" lon="4.93417">
        <ele>268</ele>
        <time>2014-04-25T10:04:31Z</time>
      </trkpt>
      <trkpt lat="47.11901" lon="4.93411">
        <ele>271</ele>
        <time>2014-04-25T10:04:34Z</time>
      </trkpt>
      <trkpt lat="47.11898" lon="4.93406">
        <ele>271</ele>
        <time>2014-04-25T10:04:37Z</time>
      </trkpt>
      <trkpt lat="47.11894" lon="4.93401">
        <ele>272</ele>
        <time>2014-04-25T10:04:40Z</time>
      </trkpt>
      <trkpt lat="47.1189" lon="4.93397">
        <ele>272</ele>
        <time>2014-04-25T10:04:44Z</time>
      </trkpt>
      <trkpt lat="47.11887" lon="4.93391">
        <ele>272</ele>
        <time>2014-04-25T10:04:48Z</time>
      </trkpt>
      <trkpt lat="47.11883" lon="4.93387">
        <ele>272</ele>
        <time>2014-04-25T10:04:52Z</time>
      </trkpt>
      <trkpt lat="47.1188" lon="4.93381">
        <ele>272</ele>
        <time>2014-04-25T10:04:56Z</time>
      </trkpt>
      <trkpt lat="47.11877" lon="4.93376">
        <ele>272</ele>
        <time>2014-04-25T10:05:00Z</time>
      </trkpt>
      <trkpt lat="47.11873" lon="4.93372">
        <ele>272</ele>
        <time>2014-04-25T10:05:04Z</time>
      </trkpt>
      <trkpt lat="47.11869" lon="4.93368">
        <ele>272</ele>
        <time>2014-04-25T10:05:08Z</time>
      </trkpt>
      <trkpt lat="47.11865" lon="4.93364">
        <ele>272</ele>
        <time>2014-04-25T10:05:12Z</time>
      </trkpt>
      <trkpt lat="47.11861" lon="4.93359">
        <ele>272</ele>
        <time>2014-04-25T10:05:16Z</time>
      </trkpt>
      <trkpt lat="47.1186" lon="4.93359">
        <ele>272</ele>
        <time>2014-04-25T10:05:34Z</time>
      </trkpt>
      <trkpt lat="47.11855" lon="4.93354">
        <ele>272</ele>
        <time>2014-04-25T10:05:38Z</time>
      </trkpt>
      <trkpt lat="47.11851" lon="4.93349">
        <ele>271</ele>
        <time>2014-04-25T10:05:42Z</time>
      </trkpt>
      <trkpt lat="47.11847" lon="4.93345">
        <ele>271</ele>
        <time>2014-04-25T10:05:46Z</time>
      </trkpt>
      <trkpt lat="47.11843" lon="4.93342">
        <ele>271</ele>
        <time>2014-04-25T10:05:51Z</time>
      </trkpt>
      <trkpt lat="47.11838" lon="4.93337">
        <ele>270</ele>
        <time>2014-04-25T10:05:56Z</time>
      </trkpt>
      <trkpt lat="47.11835" lon="4.93332">
        <ele>271</ele>
        <time>2014-04-25T10:05:59Z</time>
      </trkpt>
      <trkpt lat="47.11831" lon="4.93328">
        <ele>270</ele>
        <time>2014-04-25T10:06:02Z</time>
      </trkpt>
      <trkpt lat="47.11826" lon="4.93324">
        <ele>271</ele>
        <time>2014-04-25T10:06:06Z</time>
      </trkpt>
      <trkpt lat="47.11822" lon="4.93322">
        <ele>271</ele>
        <time>2014-04-25T10:06:09Z</time>
      </trkpt>
      <trkpt lat="47.11817" lon="4.93319">
        <ele>271</ele>
        <time>2014-04-25T10:06:12Z</time>
      </trkpt>
      <trkpt lat="47.11812" lon="4.93316">
        <ele>271</ele>
        <time>2014-04-25T10:06:16Z</time>
      </trkpt>
      <trkpt lat="47.11807" lon="4.93313">
        <ele>271</ele>
        <time>2014-04-25T10:06:20Z</time>
      </trkpt>
      <trkpt lat="47.11802" lon="4.93311">
        <ele>271</ele>
        <time>2014-04-25T10:06:23Z</time>
      </trkpt>
      <trkpt lat="47.11795" lon="4.9331">
        <ele>271</ele>
        <time>2014-04-25T10:06:26Z</time>
      </trkpt>
      <trkpt lat="47.1179" lon="4.93309">
        <ele>271</ele>
        <time>2014-04-25T10:06:29Z</time>
      </trkpt>
      <trkpt lat="47.11786" lon="4.93306">
        <ele>270</ele>
        <time>2014-04-25T10:06:32Z</time>
      </trkpt>
      <trkpt lat="47.11781" lon="4.93303">
        <ele>270</ele>
        <time>2014-04-25T10:06:36Z</time>
      </trkpt>
      <trkpt lat="47.11776" lon="4.93301">
        <ele>270</ele>
        <time>2014-04-25T10:06:42Z</time>
      </trkpt>
      <trkpt lat="47.11772" lon="4.93297">
        <ele>270</ele>
        <time>2014-04-25T10:06:46Z</time>
      </trkpt>
      <trkpt lat="47.11768" lon="4.93293">
        <ele>270</ele>
        <time>2014-04-25T10:06:50Z</time>
      </trkpt>
      <trkpt lat="47.11763" lon="4.9329">
        <ele>270</ele>
        <time>2014-04-25T10:06:56Z</time>
      </trkpt>
      <trkpt lat="47.11759" lon="4.93286">
        <ele>270</ele>
        <time>2014-04-25T10:07:03Z</time>
      </trkpt>
      <trkpt lat="47.11755" lon="4.93284">
        <ele>270</ele>
        <time>2014-04-25T10:07:09Z</time>
      </trkpt>
      <trkpt lat="47.1175" lon="4.93284">
        <ele>266</ele>
        <time>2014-04-25T10:07:13Z</time>
      </trkpt>
      <trkpt lat="47.11745" lon="4.93283">
        <ele>266</ele>
        <time>2014-04-25T10:07:18Z</time>
      </trkpt>
      <trkpt lat="47.1174" lon="4.93286">
        <ele>265</ele>
        <time>2014-04-25T10:07:22Z</time>
      </trkpt>
      <trkpt lat="47.11736" lon="4.93289">
        <ele>265</ele>
        <time>2014-04-25T10:07:29Z</time>
      </trkpt>
      <trkpt lat="47.11731" lon="4.93292">
        <ele>265</ele>
        <time>2014-04-25T10:07:34Z</time>
      </trkpt>
      <trkpt lat="47.11727" lon="4.93295">
        <ele>265</ele>
        <time>2014-04-25T10:07:37Z</time>
      </trkpt>
      <trkpt lat="47.11721" lon="4.93298">
        <ele>264</ele>
        <time>2014-04-25T10:07:40Z</time>
      </trkpt>
      <trkpt lat="47.11717" lon="4.93302">
        <ele>264</ele>
        <time>2014-04-25T10:07:43Z</time>
      </trkpt>
      <trkpt lat="47.11711" lon="4.93306">
        <ele>264</ele>
        <time>2014-04-25T10:07:46Z</time>
      </trkpt>
      <trkpt lat="47.11707" lon="4.93308">
        <ele>263</ele>
        <time>2014-04-25T10:07:49Z</time>
      </trkpt>
      <trkpt lat="47.11702" lon="4.93309">
        <ele>263</ele>
        <time>2014-04-25T10:07:53Z</time>
      </trkpt>
      <trkpt lat="47.11696" lon="4.93309">
        <ele>263</ele>
        <time>2014-04-25T10:07:57Z</time>
      </trkpt>
      <trkpt lat="47.11691" lon="4.93309">
        <ele>263</ele>
        <time>2014-04-25T10:08:00Z</time>
      </trkpt>
      <trkpt lat="47.11686" lon="4.93308">
        <ele>263</ele>
        <time>2014-04-25T10:08:03Z</time>
      </trkpt>
      <trkpt lat="47.11681" lon="4.93307">
        <ele>262</ele>
        <time>2014-04-25T10:08:06Z</time>
      </trkpt>
      <trkpt lat="47.11677" lon="4.93305">
        <ele>262</ele>
        <time>2014-04-25T10:08:09Z</time>
      </trkpt>
      <trkpt lat="47.11671" lon="4.93304">
        <ele>262</ele>
        <time>2014-04-25T10:08:13Z</time>
      </trkpt>
      <trkpt lat="47.11667" lon="4.933">
        <ele>263</ele>
        <time>2014-04-25T10:08:18Z</time>
      </trkpt>
      <trkpt lat="47.11663" lon="4.93294">
        <ele>260</ele>
        <time>2014-04-25T10:08:22Z</time>
      </trkpt>
      <trkpt lat="47.11659" lon="4.93291">
        <ele>260</ele>
        <time>2014-04-25T10:08:25Z</time>
      </trkpt>
      <trkpt lat="47.11654" lon="4.93288">
        <ele>260</ele>
        <time>2014-04-25T10:08:29Z</time>
      </trkpt>
      <trkpt lat="47.11649" lon="4.93285">
        <ele>260</ele>
        <time>2014-04-25T10:08:33Z</time>
      </trkpt>
      <trkpt lat="47.11644" lon="4.93279">
        <ele>260</ele>
        <time>2014-04-25T10:08:37Z</time>
      </trkpt>
      <trkpt lat="47.11642" lon="4.93274">
        <ele>260</ele>
        <time>2014-04-25T10:08:41Z</time>
      </trkpt>
      <trkpt lat="47.11637" lon="4.93269">
        <ele>260</ele>
        <time>2014-04-25T10:08:45Z</time>
      </trkpt>
      <trkpt lat="47.11632" lon="4.93265">
        <ele>260</ele>
        <time>2014-04-25T10:08:48Z</time>
      </trkpt>
      <trkpt lat="47.11628" lon="4.93262">
        <ele>260</ele>
        <time>2014-04-25T10:08:51Z</time>
      </trkpt>
      <trkpt lat="47.11623" lon="4.93259">
        <ele>260</ele>
        <time>2014-04-25T10:08:55Z</time>
      </trkpt>
      <trkpt lat="47.11619" lon="4.93255">
        <ele>260</ele>
        <time>2014-04-25T10:09:02Z</time>
      </trkpt>
      <trkpt lat="47.11615" lon="4.9325">
        <ele>260</ele>
        <time>2014-04-25T10:09:06Z</time>
      </trkpt>
      <trkpt lat="47.11609" lon="4.93247">
        <ele>266</ele>
        <time>2014-04-25T10:09:10Z</time>
      </trkpt>
      <trkpt lat="47.11604" lon="4.93245">
        <ele>265</ele>
        <time>2014-04-25T10:09:14Z</time>
      </trkpt>
      <trkpt lat="47.11599" lon="4.93243">
        <ele>265</ele>
        <time>2014-04-25T10:09:19Z</time>
      </trkpt>
      <trkpt lat="47.11595" lon="4.93238">
        <ele>265</ele>
        <time>2014-04-25T10:09:23Z</time>
      </trkpt>
      <trkpt lat="47.11592" lon="4.93233">
        <ele>265</ele>
        <time>2014-04-25T10:09:27Z</time>
      </trkpt>
      <trkpt lat="47.11589" lon="4.93228">
        <ele>266</ele>
        <time>2014-04-25T10:09:31Z</time>
      </trkpt>
      <trkpt lat="47.11584" lon="4.93225">
        <ele>266</ele>
        <time>2014-04-25T10:09:34Z</time>
      </trkpt>
      <trkpt lat="47.11579" lon="4.93221">
        <ele>262</ele>
        <time>2014-04-25T10:09:37Z</time>
      </trkpt>
      <trkpt lat="47.11575" lon="4.93218">
        <ele>263</ele>
        <time>2014-04-25T10:09:40Z</time>
      </trkpt>
      <trkpt lat="47.1157" lon="4.93214">
        <ele>263</ele>
        <time>2014-04-25T10:09:44Z</time>
      </trkpt>
      <trkpt lat="47.11567" lon="4.93209">
        <ele>263</ele>
        <time>2014-04-25T10:09:48Z</time>
      </trkpt>
      <trkpt lat="47.11563" lon="4.93203">
        <ele>264</ele>
        <time>2014-04-25T10:09:54Z</time>
      </trkpt>
      <trkpt lat="47.11561" lon="4.93195">
        <ele>265</ele>
        <time>2014-04-25T10:09:59Z</time>
      </trkpt>
      <trkpt lat="47.11558" lon="4.93191">
        <ele>265</ele>
        <time>2014-04-25T10:10:06Z</time>
      </trkpt>
      <trkpt lat="47.11554" lon="4.93188">
        <ele>265</ele>
        <time>2014-04-25T10:10:11Z</time>
      </trkpt>
      <trkpt lat="47.1155" lon="4.93183">
        <ele>265</ele>
        <time>2014-04-25T10:10:14Z</time>
      </trkpt>
      <trkpt lat="47.11547" lon="4.93177">
        <ele>265</ele>
        <time>2014-04-25T10:10:18Z</time>
      </trkpt>
      <trkpt lat="47.11544" lon="4.9317">
        <ele>265</ele>
        <time>2014-04-25T10:10:23Z</time>
      </trkpt>
      <trkpt lat="47.11543" lon="4.93163">
        <ele>273</ele>
        <time>2014-04-25T10:10:26Z</time>
      </trkpt>
      <trkpt lat="47.11539" lon="4.93157">
        <ele>273</ele>
        <time>2014-04-25T10:10:29Z</time>
      </trkpt>
      <trkpt lat="47.11535" lon="4.93153">
        <ele>273</ele>
        <time>2014-04-25T10:10:33Z</time>
      </trkpt>
      <trkpt lat="47.11531" lon="4.93148">
        <ele>273</ele>
        <time>2014-04-25T10:10:38Z</time>
      </trkpt>
      <trkpt lat="47.11527" lon="4.93144">
        <ele>273</ele>
        <time>2014-04-25T10:10:42Z</time>
      </trkpt>
      <trkpt lat="47.11522" lon="4.93141">
        <ele>273</ele>
        <time>2014-04-25T10:10:46Z</time>
      </trkpt>
      <trkpt lat="47.11517" lon="4.93138">
        <ele>273</ele>
        <time>2014-04-25T10:10:50Z</time>
      </trkpt>
      <trkpt lat="47.11513" lon="4.93135">
        <ele>273</ele>
        <time>2014-04-25T10:10:53Z</time>
      </trkpt>
      <trkpt lat="47.11508" lon="4.93134">
        <ele>273</ele>
        <time>2014-04-25T10:10:58Z</time>
      </trkpt>
      <trkpt lat="47.11504" lon="4.93133">
        <ele>273</ele>
        <time>2014-04-25T10:11:03Z</time>
      </trkpt>
      <trkpt lat="47.11499" lon="4.93133">
        <ele>266</ele>
        <time>2014-04-25T10:11:08Z</time>
      </trkpt>
      <trkpt lat="47.11499" lon="4.93126">
        <ele>267</ele>
        <time>2014-04-25T10:11:11Z</time>
      </trkpt>
      <trkpt lat="47.11496" lon="4.93122">
        <ele>267</ele>
        <time>2014-04-25T10:11:15Z</time>
      </trkpt>
      <trkpt lat="47.1149" lon="4.93121">
        <ele>267</ele>
        <time>2014-04-25T10:11:19Z</time>
      </trkpt>
      <trkpt lat="47.11485" lon="4.93121">
        <ele>267</ele>
        <time>2014-04-25T10:11:23Z</time>
      </trkpt>
      <trkpt lat="47.1148" lon="4.9312">
        <ele>267</ele>
        <time>2014-04-25T10:11:29Z</time>
      </trkpt>
      <trkpt lat="47.11475" lon="4.93119">
        <ele>266</ele>
        <time>2014-04-25T10:11:33Z</time>
      </trkpt>
      <trkpt lat="47.11471" lon="4.9312">
        <ele>266</ele>
        <time>2014-04-25T10:11:37Z</time>
      </trkpt>
      <trkpt lat="47.11464" lon="4.93119">
        <ele>265</ele>
        <time>2014-04-25T10:11:47Z</time>
      </trkpt>
      <trkpt lat="47.11459" lon="4.93116">
        <ele>265</ele>
        <time>2014-04-25T10:11:51Z</time>
      </trkpt>
      <trkpt lat="47.11454" lon="4.93115">
        <ele>265</ele>
        <time>2014-04-25T10:11:55Z</time>
      </trkpt>
      <trkpt lat="47.11449" lon="4.93114">
        <ele>265</ele>
        <time>2014-04-25T10:11:59Z</time>
      </trkpt>
      <trkpt lat="47.11443" lon="4.93113">
        <ele>264</ele>
        <time>2014-04-25T10:12:03Z</time>
      </trkpt>
      <trkpt lat="47.11438" lon="4.93112">
        <ele>264</ele>
        <time>2014-04-25T10:12:07Z</time>
      </trkpt>
      <trkpt lat="47.11434" lon="4.93107">
        <ele>264</ele>
        <time>2014-04-25T10:12:17Z</time>
      </trkpt>
      <trkpt lat="47.11429" lon="4.93104">
        <ele>264</ele>
        <time>2014-04-25T10:12:21Z</time>
      </trkpt>
      <trkpt lat="47.11424" lon="4.93104">
        <ele>264</ele>
        <time>2014-04-25T10:12:25Z</time>
      </trkpt>
      <trkpt lat="47.11418" lon="4.93103">
        <ele>264</ele>
        <time>2014-04-25T10:12:29Z</time>
      </trkpt>
      <trkpt lat="47.11414" lon="4.93099">
        <ele>259</ele>
        <time>2014-04-25T10:12:34Z</time>
      </trkpt>
      <trkpt lat="47.11415" lon="4.93096">
        <ele>260</ele>
        <time>2014-04-25T10:12:40Z</time>
      </trkpt>
      <trkpt lat="47.1141" lon="4.93094">
        <ele>260</ele>
        <time>2014-04-25T10:12:50Z</time>
      </trkpt>
      <trkpt lat="47.11406" lon="4.9309">
        <ele>260</ele>
        <time>2014-04-25T10:12:53Z</time>
      </trkpt>
      <trkpt lat="47.11402" lon="4.93086">
        <ele>259</ele>
        <time>2014-04-25T10:12:59Z</time>
      </trkpt>
      <trkpt lat="47.11397" lon="4.93081">
        <ele>264</ele>
        <time>2014-04-25T10:13:04Z</time>
      </trkpt>
      <trkpt lat="47.11392" lon="4.9308">
        <ele>264</ele>
        <time>2014-04-25T10:13:08Z</time>
      </trkpt>
      <trkpt lat="47.11386" lon="4.93077">
        <ele>263</ele>
        <time>2014-04-25T10:13:12Z</time>
      </trkpt>
      <trkpt lat="47.11383" lon="4.93077">
        <ele>263</ele>
        <time>2014-04-25T10:13:43Z</time>
      </trkpt>
      <trkpt lat="47.11378" lon="4.93075">
        <ele>263</ele>
        <time>2014-04-25T10:13:50Z</time>
      </trkpt>
      <trkpt lat="47.11374" lon="4.93072">
        <ele>262</ele>
        <time>2014-04-25T10:13:55Z</time>
      </trkpt>
      <trkpt lat="47.11369" lon="4.93069">
        <ele>262</ele>
        <time>2014-04-25T10:14:00Z</time>
      </trkpt>
      <trkpt lat="47.11365" lon="4.93064">
        <ele>262</ele>
        <time>2014-04-25T10:14:04Z</time>
      </trkpt>
      <trkpt lat="47.1136" lon="4.93059">
        <ele>262</ele>
        <time>2014-04-25T10:14:08Z</time>
      </trkpt>
      <trkpt lat="47.11355" lon="4.93057">
        <ele>261</ele>
        <time>2014-04-25T10:14:12Z</time>
      </trkpt>
      <trkpt lat="47.11351" lon="4.93055">
        <ele>261</ele>
        <time>2014-04-25T10:14:15Z</time>
      </trkpt>
      <trkpt lat="47.11346" lon="4.93051">
        <ele>261</ele>
        <time>2014-04-25T10:14:19Z</time>
      </trkpt>
      <trkpt lat="47.11341" lon="4.93046">
        <ele>262</ele>
        <time>2014-04-25T10:14:23Z</time>
      </trkpt>
      <trkpt lat="47.11338" lon="4.9304">
        <ele>262</ele>
        <time>2014-04-25T10:14:28Z</time>
      </trkpt>
      <trkpt lat="47.11334" lon="4.93035">
        <ele>263</ele>
        <time>2014-04-25T10:14:32Z</time>
      </trkpt>
      <trkpt lat="47.11329" lon="4.93031">
        <ele>255</ele>
        <time>2014-04-25T10:14:36Z</time>
      </trkpt>
      <trkpt lat="47.11324" lon="4.93028">
        <ele>255</ele>
        <time>2014-04-25T10:14:40Z</time>
      </trkpt>
      <trkpt lat="47.11319" lon="4.93024">
        <ele>255</ele>
        <time>2014-04-25T10:14:44Z</time>
      </trkpt>
      <trkpt lat="47.11315" lon="4.93019">
        <ele>255</ele>
        <time>2014-04-25T10:14:48Z</time>
      </trkpt>
      <trkpt lat="47.11311" lon="4.93015">
        <ele>255</ele>
        <time>2014-04-25T10:14:52Z</time>
      </trkpt>
      <trkpt lat="47.11307" lon="4.93009">
        <ele>255</ele>
        <time>2014-04-25T10:14:57Z</time>
      </trkpt>
      <trkpt lat="47.11302" lon="4.93005">
        <ele>255</ele>
        <time>2014-04-25T10:15:02Z</time>
      </trkpt>
      <trkpt lat="47.11299" lon="4.93001">
        <ele>254</ele>
        <time>2014-04-25T10:15:06Z</time>
      </trkpt>
      <trkpt lat="47.11294" lon="4.92997">
        <ele>261</ele>
        <time>2014-04-25T10:15:10Z</time>
      </trkpt>
      <trkpt lat="47.11289" lon="4.92995">
        <ele>260</ele>
        <time>2014-04-25T10:15:14Z</time>
      </trkpt>
      <trkpt lat="47.11284" lon="4.92993">
        <ele>260</ele>
        <time>2014-04-25T10:15:18Z</time>
      </trkpt>
      <trkpt lat="47.1128" lon="4.92991">
        <ele>259</ele>
        <time>2014-04-25T10:15:22Z</time>
      </trkpt>
      <trkpt lat="47.11275" lon="4.92991">
        <ele>258</ele>
        <time>2014-04-25T10:15:26Z</time>
      </trkpt>
      <trkpt lat="47.1127" lon="4.92992">
        <ele>257</ele>
        <time>2014-04-25T10:15:29Z</time>
      </trkpt>
      <trkpt lat="47.1119" lon="4.92957">
        <ele>247</ele>
        <time>2014-04-25T10:15:33Z</time>
      </trkpt>
      <trkpt lat="47.11047" lon="4.92672">
        <ele>259</ele>
        <time>2014-04-25T10:21:08Z</time>
      </trkpt>
      <trkpt lat="47.11047" lon="4.92664">
        <ele>265</ele>
        <time>2014-04-25T10:21:12Z</time>
      </trkpt>
      <trkpt lat="47.11045" lon="4.92669">
        <ele>259</ele>
        <time>2014-04-25T10:21:43Z</time>
      </trkpt>
      <trkpt lat="47.10775" lon="4.92264">
        <ele>254</ele>
        <time>2014-04-25T10:32:05Z</time>
      </trkpt>
      <trkpt lat="47.10636" lon="4.92164">
        <ele>247</ele>
        <time>2014-04-25T10:32:12Z</time>
      </trkpt>
      <trkpt lat="47.10553" lon="4.92194">
        <ele>243</ele>
        <time>2014-04-25T10:32:16Z</time>
      </trkpt>
      <trkpt lat="47.10549" lon="4.92196">
        <ele>243</ele>
        <time>2014-04-25T10:32:20Z</time>
      </trkpt>
      <trkpt lat="47.10545" lon="4.922">
        <ele>243</ele>
        <time>2014-04-25T10:32:24Z</time>
      </trkpt>
      <trkpt lat="47.1054" lon="4.922">
        <ele>243</ele>
        <time>2014-04-25T10:32:28Z</time>
      </trkpt>
      <trkpt lat="47.10534" lon="4.922">
        <ele>243</ele>
        <time>2014-04-25T10:32:32Z</time>
      </trkpt>
      <trkpt lat="47.10528" lon="4.92201">
        <ele>243</ele>
        <time>2014-04-25T10:32:36Z</time>
      </trkpt>
      <trkpt lat="47.10524" lon="4.92201">
        <ele>243</ele>
        <time>2014-04-25T10:32:40Z</time>
      </trkpt>
      <trkpt lat="47.10518" lon="4.922">
        <ele>243</ele>
        <time>2014-04-25T10:32:44Z</time>
      </trkpt>
      <trkpt lat="47.10513" lon="4.922">
        <ele>243</ele>
        <time>2014-04-25T10:32:48Z</time>
      </trkpt>
      <trkpt lat="47.10507" lon="4.92199">
        <ele>243</ele>
        <time>2014-04-25T10:32:52Z</time>
      </trkpt>
      <trkpt lat="47.10502" lon="4.92196">
        <ele>243</ele>
        <time>2014-04-25T10:32:56Z</time>
      </trkpt>
      <trkpt lat="47.10497" lon="4.92195">
        <ele>243</ele>
        <time>2014-04-25T10:32:59Z</time>
      </trkpt>
      <trkpt lat="47.10491" lon="4.92195">
        <ele>243</ele>
        <time>2014-04-25T10:33:02Z</time>
      </trkpt>
      <trkpt lat="47.10486" lon="4.92196">
        <ele>243</ele>
        <time>2014-04-25T10:33:07Z</time>
      </trkpt>
      <trkpt lat="47.10481" lon="4.92197">
        <ele>243</ele>
        <time>2014-04-25T10:33:11Z</time>
      </trkpt>
      <trkpt lat="47.10477" lon="4.92197">
        <ele>243</ele>
        <time>2014-04-25T10:33:14Z</time>
      </trkpt>
      <trkpt lat="47.10472" lon="4.92197">
        <ele>243</ele>
        <time>2014-04-25T10:33:18Z</time>
      </trkpt>
      <trkpt lat="47.10467" lon="4.92196">
        <ele>243</ele>
        <time>2014-04-25T10:33:22Z</time>
      </trkpt>
      <trkpt lat="47.10461" lon="4.92196">
        <ele>243</ele>
        <time>2014-04-25T10:33:25Z</time>
      </trkpt>
      <trkpt lat="47.10457" lon="4.92195">
        <ele>243</ele>
        <time>2014-04-25T10:33:30Z</time>
      </trkpt>
      <trkpt lat="47.10451" lon="4.92194">
        <ele>243</ele>
        <time>2014-04-25T10:33:36Z</time>
      </trkpt>
      <trkpt lat="47.10446" lon="4.92193">
        <ele>243</ele>
        <time>2014-04-25T10:33:40Z</time>
      </trkpt>
      <trkpt lat="47.10441" lon="4.92194">
        <ele>243</ele>
        <time>2014-04-25T10:33:44Z</time>
      </trkpt>
      <trkpt lat="47.10436" lon="4.92196">
        <ele>243</ele>
        <time>2014-04-25T10:33:49Z</time>
      </trkpt>
      <trkpt lat="47.10432" lon="4.92198">
        <ele>243</ele>
        <time>2014-04-25T10:33:52Z</time>
      </trkpt>
      <trkpt lat="47.10427" lon="4.922">
        <ele>243</ele>
        <time>2014-04-25T10:33:55Z</time>
      </trkpt>
      <trkpt lat="47.10422" lon="4.922">
        <ele>243</ele>
        <time>2014-04-25T10:33:59Z</time>
      </trkpt>
      <trkpt lat="47.10418" lon="4.92196">
        <ele>243</ele>
        <time>2014-04-25T10:34:04Z</time>
      </trkpt>
      <trkpt lat="47.10415" lon="4.9219">
        <ele>243</ele>
        <time>2014-04-25T10:34:09Z</time>
      </trkpt>
      <trkpt lat="47.10414" lon="4.92183">
        <ele>243</ele>
        <time>2014-04-25T10:34:12Z</time>
      </trkpt>
      <trkpt lat="47.1041" lon="4.92177">
        <ele>243</ele>
        <time>2014-04-25T10:34:22Z</time>
      </trkpt>
      <trkpt lat="47.10409" lon="4.92184">
        <ele>243</ele>
        <time>2014-04-25T10:34:24Z</time>
      </trkpt>
      <trkpt lat="47.10404" lon="4.92184">
        <ele>243</ele>
        <time>2014-04-25T10:34:27Z</time>
      </trkpt>
      <trkpt lat="47.10395" lon="4.92175">
        <ele>243</ele>
        <time>2014-04-25T10:34:33Z</time>
      </trkpt>
      <trkpt lat="47.1039" lon="4.92153">
        <ele>243</ele>
        <time>2014-04-25T10:34:44Z</time>
      </trkpt>
      <trkpt lat="47.10391" lon="4.92149">
        <ele>243</ele>
        <time>2014-04-25T10:34:50Z</time>
      </trkpt>
      <trkpt lat="47.1039" lon="4.92134">
        <ele>243</ele>
        <time>2014-04-25T10:34:56Z</time>
      </trkpt>
      <trkpt lat="47.10393" lon="4.92144">
        <ele>243</ele>
        <time>2014-04-25T10:51:45Z</time>
      </trkpt>
      <trkpt lat="47.10388" lon="4.92175">
        <ele>243</ele>
        <time>2014-04-25T10:52:00Z</time>
      </trkpt>
      <trkpt lat="47.10385" lon="4.9218">
        <ele>243</ele>
        <time>2014-04-25T10:52:04Z</time>
      </trkpt>
      <trkpt lat="47.10381" lon="4.92184">
        <ele>243</ele>
        <time>2014-04-25T10:52:10Z</time>
      </trkpt>
      <trkpt lat="47.10379" lon="4.9219">
        <ele>243</ele>
        <time>2014-04-25T10:52:14Z</time>
      </trkpt>
      <trkpt lat="47.10375" lon="4.92196">
        <ele>243</ele>
        <time>2014-04-25T10:52:19Z</time>
      </trkpt>
      <trkpt lat="47.1037" lon="4.92199">
        <ele>243</ele>
        <time>2014-04-25T10:52:23Z</time>
      </trkpt>
      <trkpt lat="47.10365" lon="4.92196">
        <ele>243</ele>
        <time>2014-04-25T10:52:26Z</time>
      </trkpt>
      <trkpt lat="47.10361" lon="4.92192">
        <ele>243</ele>
        <time>2014-04-25T10:52:29Z</time>
      </trkpt>
      <trkpt lat="47.10356" lon="4.92194">
        <ele>243</ele>
        <time>2014-04-25T10:52:33Z</time>
      </trkpt>
      <trkpt lat="47.1035" lon="4.92197">
        <ele>242</ele>
        <time>2014-04-25T10:52:37Z</time>
      </trkpt>
      <trkpt lat="47.10345" lon="4.92199">
        <ele>242</ele>
        <time>2014-04-25T10:52:41Z</time>
      </trkpt>
      <trkpt lat="47.1034" lon="4.92199">
        <ele>242</ele>
        <time>2014-04-25T10:52:45Z</time>
      </trkpt>
      <trkpt lat="47.10335" lon="4.92197">
        <ele>242</ele>
        <time>2014-04-25T10:52:49Z</time>
      </trkpt>
      <trkpt lat="47.1033" lon="4.92196">
        <ele>241</ele>
        <time>2014-04-25T10:52:53Z</time>
      </trkpt>
      <trkpt lat="47.10325" lon="4.92194">
        <ele>241</ele>
        <time>2014-04-25T10:52:57Z</time>
      </trkpt>
      <trkpt lat="47.10321" lon="4.92191">
        <ele>241</ele>
        <time>2014-04-25T10:53:01Z</time>
      </trkpt>
      <trkpt lat="47.10316" lon="4.92189">
        <ele>241</ele>
        <time>2014-04-25T10:53:05Z</time>
      </trkpt>
      <trkpt lat="47.10312" lon="4.92186">
        <ele>241</ele>
        <time>2014-04-25T10:53:09Z</time>
      </trkpt>
      <trkpt lat="47.10307" lon="4.92183">
        <ele>241</ele>
        <time>2014-04-25T10:53:13Z</time>
      </trkpt>
      <trkpt lat="47.10302" lon="4.92181">
        <ele>241</ele>
        <time>2014-04-25T10:53:17Z</time>
      </trkpt>
      <trkpt lat="47.10298" lon="4.92178">
        <ele>240</ele>
        <time>2014-04-25T10:53:21Z</time>
      </trkpt>
      <trkpt lat="47.10293" lon="4.92175">
        <ele>240</ele>
        <time>2014-04-25T10:53:25Z</time>
      </trkpt>
      <trkpt lat="47.10289" lon="4.92171">
        <ele>240</ele>
        <time>2014-04-25T10:53:28Z</time>
      </trkpt>
      <trkpt lat="47.10284" lon="4.92168">
        <ele>240</ele>
        <time>2014-04-25T10:53:32Z</time>
      </trkpt>
      <trkpt lat="47.1028" lon="4.92162">
        <ele>240</ele>
        <time>2014-04-25T10:53:36Z</time>
      </trkpt>
      <trkpt lat="47.10277" lon="4.92157">
        <ele>240</ele>
        <time>2014-04-25T10:53:39Z</time>
      </trkpt>
      <trkpt lat="47.10275" lon="4.9215">
        <ele>240</ele>
        <time>2014-04-25T10:53:43Z</time>
      </trkpt>
      <trkpt lat="47.10272" lon="4.92143">
        <ele>240</ele>
        <time>2014-04-25T10:53:48Z</time>
      </trkpt>
      <trkpt lat="47.10268" lon="4.92138">
        <ele>240</ele>
        <time>2014-04-25T10:53:54Z</time>
      </trkpt>
      <trkpt lat="47.10265" lon="4.92133">
        <ele>239</ele>
        <time>2014-04-25T10:53:58Z</time>
      </trkpt>
      <trkpt lat="47.1026" lon="4.9213">
        <ele>239</ele>
        <time>2014-04-25T10:54:01Z</time>
      </trkpt>
      <trkpt lat="47.10257" lon="4.92125">
        <ele>239</ele>
        <time>2014-04-25T10:54:05Z</time>
      </trkpt>
      <trkpt lat="47.10254" lon="4.92119">
        <ele>239</ele>
        <time>2014-04-25T10:54:08Z</time>
      </trkpt>
      <trkpt lat="47.10253" lon="4.92111">
        <ele>239</ele>
        <time>2014-04-25T10:54:11Z</time>
      </trkpt>
      <trkpt lat="47.10249" lon="4.92106">
        <ele>237</ele>
        <time>2014-04-25T10:54:14Z</time>
      </trkpt>
      <trkpt lat="47.10246" lon="4.92101">
        <ele>237</ele>
        <time>2014-04-25T10:54:19Z</time>
      </trkpt>
      <trkpt lat="47.10241" lon="4.92096">
        <ele>237</ele>
        <time>2014-04-25T10:54:23Z</time>
      </trkpt>
      <trkpt lat="47.10236" lon="4.92096">
        <ele>237</ele>
        <time>2014-04-25T10:54:28Z</time>
      </trkpt>
      <trkpt lat="47.10231" lon="4.92096">
        <ele>236</ele>
        <time>2014-04-25T10:54:38Z</time>
      </trkpt>
      <trkpt lat="47.10227" lon="4.9209">
        <ele>236</ele>
        <time>2014-04-25T10:54:46Z</time>
      </trkpt>
      <trkpt lat="47.10225" lon="4.92084">
        <ele>236</ele>
        <time>2014-04-25T10:54:48Z</time>
      </trkpt>
      <trkpt lat="47.10223" lon="4.92074">
        <ele>236</ele>
        <time>2014-04-25T10:54:52Z</time>
      </trkpt>
      <trkpt lat="47.10217" lon="4.92068">
        <ele>236</ele>
        <time>2014-04-25T10:54:55Z</time>
      </trkpt>
      <trkpt lat="47.10212" lon="4.92065">
        <ele>235</ele>
        <time>2014-04-25T10:54:57Z</time>
      </trkpt>
      <trkpt lat="47.10209" lon="4.92063">
        <ele>235</ele>
        <time>2014-04-25T10:54:58Z</time>
      </trkpt>
      <trkpt lat="47.10206" lon="4.92062">
        <ele>235</ele>
        <time>2014-04-25T10:54:59Z</time>
      </trkpt>
      <trkpt lat="47.10201" lon="4.92059">
        <ele>235</ele>
        <time>2014-04-25T10:55:01Z</time>
      </trkpt>
      <trkpt lat="47.10195" lon="4.92055">
        <ele>235</ele>
        <time>2014-04-25T10:55:03Z</time>
      </trkpt>
      <trkpt lat="47.10221" lon="4.92073">
        <ele>236</ele>
        <time>2014-04-25T10:56:03Z</time>
      </trkpt>
      <trkpt lat="47.10219" lon="4.92078">
        <ele>236</ele>
        <time>2014-04-25T10:56:12Z</time>
      </trkpt>
      <trkpt lat="47.10219" lon="4.92085">
        <ele>236</ele>
        <time>2014-04-25T10:56:47Z</time>
      </trkpt>
      <trkpt lat="47.10216" lon="4.921">
        <ele>236</ele>
        <time>2014-04-25T10:56:53Z</time>
      </trkpt>
      <trkpt lat="47.10214" lon="4.92106">
        <ele>236</ele>
        <time>2014-04-25T10:56:56Z</time>
      </trkpt>
      <trkpt lat="47.10209" lon="4.92106">
        <ele>236</ele>
        <time>2014-04-25T10:57:00Z</time>
      </trkpt>
      <trkpt lat="47.10203" lon="4.92108">
        <ele>236</ele>
        <time>2014-04-25T10:57:04Z</time>
      </trkpt>
      <trkpt lat="47.10198" lon="4.9211">
        <ele>236</ele>
        <time>2014-04-25T10:57:08Z</time>
      </trkpt>
      <trkpt lat="47.10193" lon="4.92112">
        <ele>236</ele>
        <time>2014-04-25T10:57:11Z</time>
      </trkpt>
      <trkpt lat="47.10188" lon="4.92113">
        <ele>236</ele>
        <time>2014-04-25T10:57:14Z</time>
      </trkpt>
      <trkpt lat="47.10183" lon="4.9211">
        <ele>236</ele>
        <time>2014-04-25T10:57:18Z</time>
      </trkpt>
      <trkpt lat="47.10177" lon="4.92104">
        <ele>235</ele>
        <time>2014-04-25T10:57:25Z</time>
      </trkpt>
      <trkpt lat="47.10173" lon="4.92108">
        <ele>235</ele>
        <time>2014-04-25T10:57:31Z</time>
      </trkpt>
      <trkpt lat="47.10168" lon="4.92105">
        <ele>235</ele>
        <time>2014-04-25T10:57:35Z</time>
      </trkpt>
      <trkpt lat="47.10163" lon="4.92102">
        <ele>234</ele>
        <time>2014-04-25T10:57:38Z</time>
      </trkpt>
      <trkpt lat="47.10158" lon="4.92102">
        <ele>234</ele>
        <time>2014-04-25T10:57:42Z</time>
      </trkpt>
      <trkpt lat="47.10152" lon="4.92102">
        <ele>234</ele>
        <time>2014-04-25T10:57:48Z</time>
      </trkpt>
      <trkpt lat="47.10148" lon="4.92101">
        <ele>234</ele>
        <time>2014-04-25T10:57:50Z</time>
      </trkpt>
      <trkpt lat="47.10141" lon="4.92099">
        <ele>234</ele>
        <time>2014-04-25T10:57:53Z</time>
      </trkpt>
      <trkpt lat="47.10137" lon="4.92097">
        <ele>234</ele>
        <time>2014-04-25T10:57:57Z</time>
      </trkpt>
      <trkpt lat="47.10132" lon="4.92098">
        <ele>234</ele>
        <time>2014-04-25T10:58:01Z</time>
      </trkpt>
      <trkpt lat="47.10127" lon="4.92097">
        <ele>234</ele>
        <time>2014-04-25T10:58:04Z</time>
      </trkpt>
      <trkpt lat="47.10121" lon="4.92096">
        <ele>234</ele>
        <time>2014-04-25T10:58:07Z</time>
      </trkpt>
      <trkpt lat="47.10116" lon="4.92096">
        <ele>234</ele>
        <time>2014-04-25T10:58:10Z</time>
      </trkpt>
      <trkpt lat="47.10111" lon="4.92096">
        <ele>234</ele>
        <time>2014-04-25T10:58:14Z</time>
      </trkpt>
      <trkpt lat="47.10107" lon="4.92099">
        <ele>233</ele>
        <time>2014-04-25T10:58:19Z</time>
      </trkpt>
      <trkpt lat="47.10102" lon="4.921">
        <ele>233</ele>
        <time>2014-04-25T10:58:23Z</time>
      </trkpt>
      <trkpt lat="47.10097" lon="4.92099">
        <ele>233</ele>
        <time>2014-04-25T10:58:27Z</time>
      </trkpt>
      <trkpt lat="47.10091" lon="4.92098">
        <ele>233</ele>
        <time>2014-04-25T10:58:30Z</time>
      </trkpt>
      <trkpt lat="47.10085" lon="4.92099">
        <ele>233</ele>
        <time>2014-04-25T10:58:33Z</time>
      </trkpt>
      <trkpt lat="47.1008" lon="4.921">
        <ele>232</ele>
        <time>2014-04-25T10:58:36Z</time>
      </trkpt>
      <trkpt lat="47.10075" lon="4.92101">
        <ele>232</ele>
        <time>2014-04-25T10:58:39Z</time>
      </trkpt>
      <trkpt lat="47.10069" lon="4.92099">
        <ele>232</ele>
        <time>2014-04-25T10:58:42Z</time>
      </trkpt>
      <trkpt lat="47.10067" lon="4.92097">
        <ele>232</ele>
        <time>2014-04-25T10:58:43Z</time>
      </trkpt>
      <trkpt lat="47.10065" lon="4.92094">
        <ele>232</ele>
        <time>2014-04-25T10:58:44Z</time>
      </trkpt>
      <trkpt lat="47.10063" lon="4.92089">
        <ele>232</ele>
        <time>2014-04-25T10:58:46Z</time>
      </trkpt>
      <trkpt lat="47.10056" lon="4.92081">
        <ele>233</ele>
        <time>2014-04-25T10:58:56Z</time>
      </trkpt>
      <trkpt lat="47.10052" lon="4.92081">
        <ele>232</ele>
        <time>2014-04-25T10:59:02Z</time>
      </trkpt>
      <trkpt lat="47.10047" lon="4.92079">
        <ele>232</ele>
        <time>2014-04-25T10:59:11Z</time>
      </trkpt>
      <trkpt lat="47.10045" lon="4.92085">
        <ele>232</ele>
        <time>2014-04-25T10:59:14Z</time>
      </trkpt>
      <trkpt lat="47.10043" lon="4.92092">
        <ele>232</ele>
        <time>2014-04-25T10:59:17Z</time>
      </trkpt>
      <trkpt lat="47.1004" lon="4.92098">
        <ele>232</ele>
        <time>2014-04-25T10:59:20Z</time>
      </trkpt>
      <trkpt lat="47.10037" lon="4.92104">
        <ele>232</ele>
        <time>2014-04-25T10:59:24Z</time>
      </trkpt>
      <trkpt lat="47.10036" lon="4.92111">
        <ele>232</ele>
        <time>2014-04-25T10:59:29Z</time>
      </trkpt>
      <trkpt lat="47.10031" lon="4.92116">
        <ele>231</ele>
        <time>2014-04-25T10:59:34Z</time>
      </trkpt>
      <trkpt lat="47.10027" lon="4.92121">
        <ele>231</ele>
        <time>2014-04-25T10:59:38Z</time>
      </trkpt>
      <trkpt lat="47.10026" lon="4.92127">
        <ele>231</ele>
        <time>2014-04-25T10:59:43Z</time>
      </trkpt>
      <trkpt lat="47.10022" lon="4.92131">
        <ele>231</ele>
        <time>2014-04-25T10:59:47Z</time>
      </trkpt>
      <trkpt lat="47.10019" lon="4.92138">
        <ele>231</ele>
        <time>2014-04-25T10:59:53Z</time>
      </trkpt>
      <trkpt lat="47.10017" lon="4.92145">
        <ele>231</ele>
        <time>2014-04-25T10:59:56Z</time>
      </trkpt>
      <trkpt lat="47.10013" lon="4.92151">
        <ele>231</ele>
        <time>2014-04-25T11:00:00Z</time>
      </trkpt>
      <trkpt lat="47.10009" lon="4.92154">
        <ele>231</ele>
        <time>2014-04-25T11:00:03Z</time>
      </trkpt>
      <trkpt lat="47.10004" lon="4.9216">
        <ele>230</ele>
        <time>2014-04-25T11:00:07Z</time>
      </trkpt>
      <trkpt lat="47.09999" lon="4.92164">
        <ele>230</ele>
        <time>2014-04-25T11:00:11Z</time>
      </trkpt>
      <trkpt lat="47.09995" lon="4.92168">
        <ele>230</ele>
        <time>2014-04-25T11:00:15Z</time>
      </trkpt>
      <trkpt lat="47.09993" lon="4.92174">
        <ele>230</ele>
        <time>2014-04-25T11:00:19Z</time>
      </trkpt>
      <trkpt lat="47.0999" lon="4.9218">
        <ele>230</ele>
        <time>2014-04-25T11:00:24Z</time>
      </trkpt>
      <trkpt lat="47.09987" lon="4.92186">
        <ele>230</ele>
        <time>2014-04-25T11:00:28Z</time>
      </trkpt>
      <trkpt lat="47.09983" lon="4.92192">
        <ele>230</ele>
        <time>2014-04-25T11:00:32Z</time>
      </trkpt>
      <trkpt lat="47.09978" lon="4.92195">
        <ele>230</ele>
        <time>2014-04-25T11:00:36Z</time>
      </trkpt>
      <trkpt lat="47.09972" lon="4.92196">
        <ele>230</ele>
        <time>2014-04-25T11:00:40Z</time>
      </trkpt>
      <trkpt lat="47.09966" lon="4.92197">
        <ele>230</ele>
        <time>2014-04-25T11:00:44Z</time>
      </trkpt>
      <trkpt lat="47.09961" lon="4.92199">
        <ele>230</ele>
        <time>2014-04-25T11:00:47Z</time>
      </trkpt>
      <trkpt lat="47.09956" lon="4.92201">
        <ele>230</ele>
        <time>2014-04-25T11:00:49Z</time>
      </trkpt>
      <trkpt lat="47.0995" lon="4.92203">
        <ele>230</ele>
        <time>2014-04-25T11:00:52Z</time>
      </trkpt>
      <trkpt lat="47.09945" lon="4.92204">
        <ele>230</ele>
        <time>2014-04-25T11:00:56Z</time>
      </trkpt>
      <trkpt lat="47.09941" lon="4.92198">
        <ele>230</ele>
        <time>2014-04-25T11:01:01Z</time>
      </trkpt>
      <trkpt lat="47.09939" lon="4.92201">
        <ele>230</ele>
        <time>2014-04-25T11:01:16Z</time>
      </trkpt>
      <trkpt lat="47.09935" lon="4.92204">
        <ele>230</ele>
        <time>2014-04-25T11:01:22Z</time>
      </trkpt>
      <trkpt lat="47.0993" lon="4.92204">
        <ele>230</ele>
        <time>2014-04-25T11:01:25Z</time>
      </trkpt>
      <trkpt lat="47.09925" lon="4.92205">
        <ele>229</ele>
        <time>2014-04-25T11:01:30Z</time>
      </trkpt>
      <trkpt lat="47.09923" lon="4.92199">
        <ele>229</ele>
        <time>2014-04-25T11:01:35Z</time>
      </trkpt>
      <trkpt lat="47.09918" lon="4.92193">
        <ele>229</ele>
        <time>2014-04-25T11:01:40Z</time>
      </trkpt>
      <trkpt lat="47.09914" lon="4.9219">
        <ele>229</ele>
        <time>2014-04-25T11:01:42Z</time>
      </trkpt>
      <trkpt lat="47.09908" lon="4.92187">
        <ele>229</ele>
        <time>2014-04-25T11:01:45Z</time>
      </trkpt>
      <trkpt lat="47.09904" lon="4.92186">
        <ele>229</ele>
        <time>2014-04-25T11:01:49Z</time>
      </trkpt>
      <trkpt lat="47.09898" lon="4.92185">
        <ele>229</ele>
        <time>2014-04-25T11:01:52Z</time>
      </trkpt>
      <trkpt lat="47.09893" lon="4.92184">
        <ele>229</ele>
        <time>2014-04-25T11:01:57Z</time>
      </trkpt>
      <trkpt lat="47.09889" lon="4.92181">
        <ele>229</ele>
        <time>2014-04-25T11:02:00Z</time>
      </trkpt>
      <trkpt lat="47.09884" lon="4.92179">
        <ele>229</ele>
        <time>2014-04-25T11:02:04Z</time>
      </trkpt>
      <trkpt lat="47.0988" lon="4.92176">
        <ele>229</ele>
        <time>2014-04-25T11:02:08Z</time>
      </trkpt>
      <trkpt lat="47.09876" lon="4.92171">
        <ele>229</ele>
        <time>2014-04-25T11:02:12Z</time>
      </trkpt>
      <trkpt lat="47.09871" lon="4.92167">
        <ele>229</ele>
        <time>2014-04-25T11:02:16Z</time>
      </trkpt>
      <trkpt lat="47.09867" lon="4.92162">
        <ele>229</ele>
        <time>2014-04-25T11:02:20Z</time>
      </trkpt>
      <trkpt lat="47.09863" lon="4.92158">
        <ele>229</ele>
        <time>2014-04-25T11:02:23Z</time>
      </trkpt>
      <trkpt lat="47.09858" lon="4.92155">
        <ele>229</ele>
        <time>2014-04-25T11:02:28Z</time>
      </trkpt>
      <trkpt lat="47.09852" lon="4.92151">
        <ele>229</ele>
        <time>2014-04-25T11:02:32Z</time>
      </trkpt>
      <trkpt lat="47.09847" lon="4.92148">
        <ele>229</ele>
        <time>2014-04-25T11:02:36Z</time>
      </trkpt>
      <trkpt lat="47.09841" lon="4.92147">
        <ele>229</ele>
        <time>2014-04-25T11:02:40Z</time>
      </trkpt>
      <trkpt lat="47.09837" lon="4.92146">
        <ele>229</ele>
        <time>2014-04-25T11:02:43Z</time>
      </trkpt>
      <trkpt lat="47.09832" lon="4.92145">
        <ele>229</ele>
        <time>2014-04-25T11:02:47Z</time>
      </trkpt>
      <trkpt lat="47.09828" lon="4.92141">
        <ele>230</ele>
        <time>2014-04-25T11:02:52Z</time>
      </trkpt>
      <trkpt lat="47.09823" lon="4.92137">
        <ele>230</ele>
        <time>2014-04-25T11:02:57Z</time>
      </trkpt>
      <trkpt lat="47.09818" lon="4.92134">
        <ele>230</ele>
        <time>2014-04-25T11:03:00Z</time>
      </trkpt>
      <trkpt lat="47.09813" lon="4.92129">
        <ele>230</ele>
        <time>2014-04-25T11:03:05Z</time>
      </trkpt>
      <trkpt lat="47.09808" lon="4.92126">
        <ele>230</ele>
        <time>2014-04-25T11:03:09Z</time>
      </trkpt>
      <trkpt lat="47.09803" lon="4.92123">
        <ele>230</ele>
        <time>2014-04-25T11:03:12Z</time>
      </trkpt>
      <trkpt lat="47.09799" lon="4.9212">
        <ele>230</ele>
        <time>2014-04-25T11:03:16Z</time>
      </trkpt>
      <trkpt lat="47.09794" lon="4.92117">
        <ele>230</ele>
        <time>2014-04-25T11:03:20Z</time>
      </trkpt>
      <trkpt lat="47.0979" lon="4.92115">
        <ele>230</ele>
        <time>2014-04-25T11:03:24Z</time>
      </trkpt>
      <trkpt lat="47.09785" lon="4.92111">
        <ele>230</ele>
        <time>2014-04-25T11:03:28Z</time>
      </trkpt>
      <trkpt lat="47.09781" lon="4.92107">
        <ele>230</ele>
        <time>2014-04-25T11:03:31Z</time>
      </trkpt>
      <trkpt lat="47.09777" lon="4.92104">
        <ele>230</ele>
        <time>2014-04-25T11:03:34Z</time>
      </trkpt>
      <trkpt lat="47.09773" lon="4.92099">
        <ele>230</ele>
        <time>2014-04-25T11:03:37Z</time>
      </trkpt>
      <trkpt lat="47.0977" lon="4.92094">
        <ele>230</ele>
        <time>2014-04-25T11:03:42Z</time>
      </trkpt>
      <trkpt lat="47.09765" lon="4.92092">
        <ele>230</ele>
        <time>2014-04-25T11:03:50Z</time>
      </trkpt>
      <trkpt lat="47.0976" lon="4.92087">
        <ele>230</ele>
        <time>2014-04-25T11:03:52Z</time>
      </trkpt>
      <trkpt lat="47.09755" lon="4.92083">
        <ele>230</ele>
        <time>2014-04-25T11:03:56Z</time>
      </trkpt>
      <trkpt lat="47.09751" lon="4.92081">
        <ele>230</ele>
        <time>2014-04-25T11:04:03Z</time>
      </trkpt>
      <trkpt lat="47.09746" lon="4.92079">
        <ele>230</ele>
        <time>2014-04-25T11:04:10Z</time>
      </trkpt>
      <trkpt lat="47.0974" lon="4.92075">
        <ele>230</ele>
        <time>2014-04-25T11:04:14Z</time>
      </trkpt>
      <trkpt lat="47.09736" lon="4.92072">
        <ele>230</ele>
        <time>2014-04-25T11:04:16Z</time>
      </trkpt>
      <trkpt lat="47.09731" lon="4.9207">
        <ele>230</ele>
        <time>2014-04-25T11:04:18Z</time>
      </trkpt>
      <trkpt lat="47.09729" lon="4.92069">
        <ele>230</ele>
        <time>2014-04-25T11:04:18Z</time>
      </trkpt>
      <trkpt lat="47.09725" lon="4.92067">
        <ele>230</ele>
        <time>2014-04-25T11:04:20Z</time>
      </trkpt>
      <trkpt lat="47.09723" lon="4.92066">
        <ele>230</ele>
        <time>2014-04-25T11:04:22Z</time>
      </trkpt>
      <trkpt lat="47.0972" lon="4.92064">
        <ele>230</ele>
        <time>2014-04-25T11:04:30Z</time>
      </trkpt>
      <trkpt lat="47.09715" lon="4.9206">
        <ele>230</ele>
        <time>2014-04-25T11:04:35Z</time>
      </trkpt>
      <trkpt lat="47.09711" lon="4.92056">
        <ele>230</ele>
        <time>2014-04-25T11:04:37Z</time>
      </trkpt>
      <trkpt lat="47.09706" lon="4.92051">
        <ele>231</ele>
        <time>2014-04-25T11:04:40Z</time>
      </trkpt>
      <trkpt lat="47.09702" lon="4.92048">
        <ele>231</ele>
        <time>2014-04-25T11:04:48Z</time>
      </trkpt>
      <trkpt lat="47.09697" lon="4.92044">
        <ele>231</ele>
        <time>2014-04-25T11:04:52Z</time>
      </trkpt>
      <trkpt lat="47.09692" lon="4.92039">
        <ele>231</ele>
        <time>2014-04-25T11:04:56Z</time>
      </trkpt>
      <trkpt lat="47.09687" lon="4.92036">
        <ele>231</ele>
        <time>2014-04-25T11:05:00Z</time>
      </trkpt>
      <trkpt lat="47.09682" lon="4.92033">
        <ele>231</ele>
        <time>2014-04-25T11:05:04Z</time>
      </trkpt>
      <trkpt lat="47.09677" lon="4.92032">
        <ele>231</ele>
        <time>2014-04-25T11:05:08Z</time>
      </trkpt>
      <trkpt lat="47.09672" lon="4.9203">
        <ele>231</ele>
        <time>2014-04-25T11:05:25Z</time>
      </trkpt>
      <trkpt lat="47.09668" lon="4.92027">
        <ele>231</ele>
        <time>2014-04-25T11:05:29Z</time>
      </trkpt>
      <trkpt lat="47.09664" lon="4.92024">
        <ele>231</ele>
        <time>2014-04-25T11:05:31Z</time>
      </trkpt>
      <trkpt lat="47.09659" lon="4.92021">
        <ele>231</ele>
        <time>2014-04-25T11:05:34Z</time>
      </trkpt>
      <trkpt lat="47.09655" lon="4.92018">
        <ele>231</ele>
        <time>2014-04-25T11:05:38Z</time>
      </trkpt>
      <trkpt lat="47.09651" lon="4.92014">
        <ele>231</ele>
        <time>2014-04-25T11:05:42Z</time>
      </trkpt>
      <trkpt lat="47.09647" lon="4.92011">
        <ele>231</ele>
        <time>2014-04-25T11:05:46Z</time>
      </trkpt>
      <trkpt lat="47.09642" lon="4.92007">
        <ele>231</ele>
        <time>2014-04-25T11:05:49Z</time>
      </trkpt>
      <trkpt lat="47.09637" lon="4.92004">
        <ele>231</ele>
        <time>2014-04-25T11:05:53Z</time>
      </trkpt>
      <trkpt lat="47.09632" lon="4.92001">
        <ele>231</ele>
        <time>2014-04-25T11:05:57Z</time>
      </trkpt>
      <trkpt lat="47.09627" lon="4.92">
        <ele>231</ele>
        <time>2014-04-25T11:06:01Z</time>
      </trkpt>
      <trkpt lat="47.09622" lon="4.91999">
        <ele>231</ele>
        <time>2014-04-25T11:06:06Z</time>
      </trkpt>
      <trkpt lat="47.09618" lon="4.91994">
        <ele>231</ele>
        <time>2014-04-25T11:06:10Z</time>
      </trkpt>
      <trkpt lat="47.09613" lon="4.91989">
        <ele>231</ele>
        <time>2014-04-25T11:06:14Z</time>
      </trkpt>
      <trkpt lat="47.09609" lon="4.91986">
        <ele>231</ele>
        <time>2014-04-25T11:06:24Z</time>
      </trkpt>
      <trkpt lat="47.09607" lon="4.91986">
        <ele>231</ele>
        <time>2014-04-25T11:06:40Z</time>
      </trkpt>
      <trkpt lat="47.09602" lon="4.91984">
        <ele>231</ele>
        <time>2014-04-25T11:06:44Z</time>
      </trkpt>
      <trkpt lat="47.09599" lon="4.91979">
        <ele>231</ele>
        <time>2014-04-25T11:06:47Z</time>
      </trkpt>
      <trkpt lat="47.09597" lon="4.91972">
        <ele>231</ele>
        <time>2014-04-25T11:06:50Z</time>
      </trkpt>
      <trkpt lat="47.09592" lon="4.91968">
        <ele>231</ele>
        <time>2014-04-25T11:06:54Z</time>
      </trkpt>
      <trkpt lat="47.09587" lon="4.9197">
        <ele>231</ele>
        <time>2014-04-25T11:06:57Z</time>
      </trkpt>
      <trkpt lat="47.09582" lon="4.91968">
        <ele>231</ele>
        <time>2014-04-25T11:07:01Z</time>
      </trkpt>
      <trkpt lat="47.09578" lon="4.91965">
        <ele>231</ele>
        <time>2014-04-25T11:07:06Z</time>
      </trkpt>
      <trkpt lat="47.09572" lon="4.91966">
        <ele>231</ele>
        <time>2014-04-25T11:07:10Z</time>
      </trkpt>
      <trkpt lat="47.09568" lon="4.9196">
        <ele>231</ele>
        <time>2014-04-25T11:07:14Z</time>
      </trkpt>
      <trkpt lat="47.09565" lon="4.91954">
        <ele>231</ele>
        <time>2014-04-25T11:07:17Z</time>
      </trkpt>
      <trkpt lat="47.09562" lon="4.91947">
        <ele>231</ele>
        <time>2014-04-25T11:07:20Z</time>
      </trkpt>
      <trkpt lat="47.09559" lon="4.91942">
        <ele>231</ele>
        <time>2014-04-25T11:07:24Z</time>
      </trkpt>
      <trkpt lat="47.09555" lon="4.91937">
        <ele>231</ele>
        <time>2014-04-25T11:07:28Z</time>
      </trkpt>
      <trkpt lat="47.09552" lon="4.91932">
        <ele>231</ele>
        <time>2014-04-25T11:07:33Z</time>
      </trkpt>
      <trkpt lat="47.09548" lon="4.91927">
        <ele>231</ele>
        <time>2014-04-25T11:07:36Z</time>
      </trkpt>
      <trkpt lat="47.09545" lon="4.91921">
        <ele>231</ele>
        <time>2014-04-25T11:07:40Z</time>
      </trkpt>
      <trkpt lat="47.09542" lon="4.91915">
        <ele>232</ele>
        <time>2014-04-25T11:07:43Z</time>
      </trkpt>
      <trkpt lat="47.09538" lon="4.91911">
        <ele>232</ele>
        <time>2014-04-25T11:07:47Z</time>
      </trkpt>
      <trkpt lat="47.09533" lon="4.91908">
        <ele>232</ele>
        <time>2014-04-25T11:07:51Z</time>
      </trkpt>
      <trkpt lat="47.09529" lon="4.91904">
        <ele>232</ele>
        <time>2014-04-25T11:07:56Z</time>
      </trkpt>
      <trkpt lat="47.09526" lon="4.919">
        <ele>232</ele>
        <time>2014-04-25T11:08:00Z</time>
      </trkpt>
      <trkpt lat="47.09523" lon="4.91894">
        <ele>232</ele>
        <time>2014-04-25T11:08:05Z</time>
      </trkpt>
      <trkpt lat="47.09521" lon="4.91887">
        <ele>232</ele>
        <time>2014-04-25T11:08:08Z</time>
      </trkpt>
      <trkpt lat="47.09519" lon="4.9188">
        <ele>232</ele>
        <time>2014-04-25T11:08:12Z</time>
      </trkpt>
      <trkpt lat="47.09515" lon="4.91874">
        <ele>232</ele>
        <time>2014-04-25T11:08:15Z</time>
      </trkpt>
      <trkpt lat="47.0951" lon="4.9187">
        <ele>232</ele>
        <time>2014-04-25T11:08:17Z</time>
      </trkpt>
      <trkpt lat="47.09506" lon="4.91866">
        <ele>232</ele>
        <time>2014-04-25T11:08:19Z</time>
      </trkpt>
      <trkpt lat="47.09502" lon="4.91859">
        <ele>232</ele>
        <time>2014-04-25T11:08:23Z</time>
      </trkpt>
      <trkpt lat="47.09499" lon="4.91853">
        <ele>233</ele>
        <time>2014-04-25T11:08:27Z</time>
      </trkpt>
      <trkpt lat="47.09495" lon="4.91848">
        <ele>232</ele>
        <time>2014-04-25T11:08:32Z</time>
      </trkpt>
      <trkpt lat="47.09491" lon="4.91841">
        <ele>232</ele>
        <time>2014-04-25T11:08:36Z</time>
      </trkpt>
      <trkpt lat="47.09487" lon="4.91837">
        <ele>232</ele>
        <time>2014-04-25T11:08:42Z</time>
      </trkpt>
      <trkpt lat="47.09484" lon="4.91832">
        <ele>233</ele>
        <time>2014-04-25T11:08:45Z</time>
      </trkpt>
      <trkpt lat="47.0948" lon="4.91827">
        <ele>233</ele>
        <time>2014-04-25T11:08:49Z</time>
      </trkpt>
      <trkpt lat="47.09475" lon="4.91822">
        <ele>234</ele>
        <time>2014-04-25T11:08:54Z</time>
      </trkpt>
      <trkpt lat="47.09472" lon="4.91816">
        <ele>234</ele>
        <time>2014-04-25T11:08:58Z</time>
      </trkpt>
      <trkpt lat="47.09468" lon="4.91811">
        <ele>234</ele>
        <time>2014-04-25T11:09:04Z</time>
      </trkpt>
      <trkpt lat="47.09464" lon="4.91807">
        <ele>234</ele>
        <time>2014-04-25T11:09:07Z</time>
      </trkpt>
      <trkpt lat="47.0946" lon="4.91803">
        <ele>234</ele>
        <time>2014-04-25T11:09:10Z</time>
      </trkpt>
      <trkpt lat="47.09455" lon="4.91799">
        <ele>234</ele>
        <time>2014-04-25T11:09:14Z</time>
      </trkpt>
      <trkpt lat="47.0945" lon="4.91794">
        <ele>234</ele>
        <time>2014-04-25T11:09:18Z</time>
      </trkpt>
      <trkpt lat="47.09447" lon="4.91786">
        <ele>234</ele>
        <time>2014-04-25T11:09:22Z</time>
      </trkpt>
      <trkpt lat="47.09445" lon="4.91779">
        <ele>234</ele>
        <time>2014-04-25T11:09:25Z</time>
      </trkpt>
      <trkpt lat="47.09442" lon="4.91773">
        <ele>235</ele>
        <time>2014-04-25T11:09:29Z</time>
      </trkpt>
      <trkpt lat="47.09437" lon="4.91769">
        <ele>235</ele>
        <time>2014-04-25T11:09:33Z</time>
      </trkpt>
      <trkpt lat="47.09432" lon="4.91763">
        <ele>235</ele>
        <time>2014-04-25T11:09:38Z</time>
      </trkpt>
      <trkpt lat="47.09428" lon="4.91759">
        <ele>235</ele>
        <time>2014-04-25T11:09:42Z</time>
      </trkpt>
      <trkpt lat="47.09425" lon="4.91754">
        <ele>235</ele>
        <time>2014-04-25T11:09:46Z</time>
      </trkpt>
      <trkpt lat="47.0942" lon="4.91751">
        <ele>235</ele>
        <time>2014-04-25T11:09:51Z</time>
      </trkpt>
      <trkpt lat="47.09416" lon="4.91748">
        <ele>235</ele>
        <time>2014-04-25T11:09:57Z</time>
      </trkpt>
      <trkpt lat="47.09412" lon="4.91744">
        <ele>235</ele>
        <time>2014-04-25T11:10:02Z</time>
      </trkpt>
      <trkpt lat="47.09409" lon="4.91739">
        <ele>235</ele>
        <time>2014-04-25T11:10:06Z</time>
      </trkpt>
      <trkpt lat="47.09405" lon="4.91733">
        <ele>235</ele>
        <time>2014-04-25T11:10:11Z</time>
      </trkpt>
      <trkpt lat="47.09402" lon="4.91727">
        <ele>235</ele>
        <time>2014-04-25T11:10:15Z</time>
      </trkpt>
      <trkpt lat="47.09398" lon="4.91723">
        <ele>235</ele>
        <time>2014-04-25T11:10:19Z</time>
      </trkpt>
      <trkpt lat="47.09393" lon="4.91719">
        <ele>235</ele>
        <time>2014-04-25T11:10:23Z</time>
      </trkpt>
      <trkpt lat="47.09389" lon="4.91714">
        <ele>235</ele>
        <time>2014-04-25T11:10:27Z</time>
      </trkpt>
      <trkpt lat="47.09386" lon="4.91708">
        <ele>235</ele>
        <time>2014-04-25T11:10:31Z</time>
      </trkpt>
      <trkpt lat="47.09383" lon="4.91704">
        <ele>235</ele>
        <time>2014-04-25T11:10:35Z</time>
      </trkpt>
      <trkpt lat="47.09378" lon="4.917">
        <ele>235</ele>
        <time>2014-04-25T11:10:39Z</time>
      </trkpt>
      <trkpt lat="47.09374" lon="4.91695">
        <ele>235</ele>
        <time>2014-04-25T11:10:44Z</time>
      </trkpt>
      <trkpt lat="47.0937" lon="4.9169">
        <ele>235</ele>
        <time>2014-04-25T11:10:49Z</time>
      </trkpt>
      <trkpt lat="47.09367" lon="4.91685">
        <ele>235</ele>
        <time>2014-04-25T11:10:53Z</time>
      </trkpt>
      <trkpt lat="47.09363" lon="4.91681">
        <ele>235</ele>
        <time>2014-04-25T11:10:56Z</time>
      </trkpt>
      <trkpt lat="47.0936" lon="4.91676">
        <ele>235</ele>
        <time>2014-04-25T11:10:59Z</time>
      </trkpt>
      <trkpt lat="47.09357" lon="4.91671">
        <ele>235</ele>
        <time>2014-04-25T11:11:02Z</time>
      </trkpt>
      <trkpt lat="47.09354" lon="4.91665">
        <ele>235</ele>
        <time>2014-04-25T11:11:05Z</time>
      </trkpt>
      <trkpt lat="47.09351" lon="4.9166">
        <ele>235</ele>
        <time>2014-04-25T11:11:08Z</time>
      </trkpt>
      <trkpt lat="47.09347" lon="4.91655">
        <ele>235</ele>
        <time>2014-04-25T11:11:13Z</time>
      </trkpt>
      <trkpt lat="47.09344" lon="4.91649">
        <ele>235</ele>
        <time>2014-04-25T11:11:17Z</time>
      </trkpt>
      <trkpt lat="47.0934" lon="4.91646">
        <ele>235</ele>
        <time>2014-04-25T11:11:21Z</time>
      </trkpt>
      <trkpt lat="47.09336" lon="4.91641">
        <ele>235</ele>
        <time>2014-04-25T11:11:25Z</time>
      </trkpt>
      <trkpt lat="47.09332" lon="4.91636">
        <ele>234</ele>
        <time>2014-04-25T11:11:29Z</time>
      </trkpt>
      <trkpt lat="47.09328" lon="4.91632">
        <ele>234</ele>
        <time>2014-04-25T11:11:33Z</time>
      </trkpt>
      <trkpt lat="47.09325" lon="4.91628">
        <ele>234</ele>
        <time>2014-04-25T11:11:37Z</time>
      </trkpt>
      <trkpt lat="47.09321" lon="4.91622">
        <ele>234</ele>
        <time>2014-04-25T11:11:41Z</time>
      </trkpt>
      <trkpt lat="47.09317" lon="4.91616">
        <ele>234</ele>
        <time>2014-04-25T11:11:45Z</time>
      </trkpt>
      <trkpt lat="47.09314" lon="4.9161">
        <ele>234</ele>
        <time>2014-04-25T11:11:49Z</time>
      </trkpt>
      <trkpt lat="47.0931" lon="4.91606">
        <ele>234</ele>
        <time>2014-04-25T11:11:53Z</time>
      </trkpt>
      <trkpt lat="47.09306" lon="4.91603">
        <ele>234</ele>
        <time>2014-04-25T11:11:57Z</time>
      </trkpt>
      <trkpt lat="47.09303" lon="4.91599">
        <ele>234</ele>
        <time>2014-04-25T11:12:01Z</time>
      </trkpt>
      <trkpt lat="47.093" lon="4.91593">
        <ele>234</ele>
        <time>2014-04-25T11:12:06Z</time>
      </trkpt>
      <trkpt lat="47.09297" lon="4.91586">
        <ele>234</ele>
        <time>2014-04-25T11:12:09Z</time>
      </trkpt>
      <trkpt lat="47.09295" lon="4.91579">
        <ele>234</ele>
        <time>2014-04-25T11:12:14Z</time>
      </trkpt>
      <trkpt lat="47.09292" lon="4.91572">
        <ele>234</ele>
        <time>2014-04-25T11:12:18Z</time>
      </trkpt>
      <trkpt lat="47.09291" lon="4.91564">
        <ele>234</ele>
        <time>2014-04-25T11:12:22Z</time>
      </trkpt>
      <trkpt lat="47.09288" lon="4.91559">
        <ele>234</ele>
        <time>2014-04-25T11:12:25Z</time>
      </trkpt>
      <trkpt lat="47.09284" lon="4.91555">
        <ele>234</ele>
        <time>2014-04-25T11:12:30Z</time>
      </trkpt>
      <trkpt lat="47.09281" lon="4.9155">
        <ele>234</ele>
        <time>2014-04-25T11:12:33Z</time>
      </trkpt>
      <trkpt lat="47.09277" lon="4.91545">
        <ele>234</ele>
        <time>2014-04-25T11:12:37Z</time>
      </trkpt>
      <trkpt lat="47.09275" lon="4.9154">
        <ele>234</ele>
        <time>2014-04-25T11:12:40Z</time>
      </trkpt>
      <trkpt lat="47.09272" lon="4.91534">
        <ele>234</ele>
        <time>2014-04-25T11:12:44Z</time>
      </trkpt>
      <trkpt lat="47.09269" lon="4.91527">
        <ele>234</ele>
        <time>2014-04-25T11:12:48Z</time>
      </trkpt>
      <trkpt lat="47.09266" lon="4.91521">
        <ele>234</ele>
        <time>2014-04-25T11:12:52Z</time>
      </trkpt>
      <trkpt lat="47.09264" lon="4.91514">
        <ele>234</ele>
        <time>2014-04-25T11:12:55Z</time>
      </trkpt>
      <trkpt lat="47.09262" lon="4.91509">
        <ele>234</ele>
        <time>2014-04-25T11:12:59Z</time>
      </trkpt>
      <trkpt lat="47.09259" lon="4.91502">
        <ele>234</ele>
        <time>2014-04-25T11:13:03Z</time>
      </trkpt>
      <trkpt lat="47.09256" lon="4.91495">
        <ele>234</ele>
        <time>2014-04-25T11:13:08Z</time>
      </trkpt>
      <trkpt lat="47.09255" lon="4.91488">
        <ele>234</ele>
        <time>2014-04-25T11:13:12Z</time>
      </trkpt>
      <trkpt lat="47.09252" lon="4.91482">
        <ele>234</ele>
        <time>2014-04-25T11:13:18Z</time>
      </trkpt>
      <trkpt lat="47.09247" lon="4.91477">
        <ele>234</ele>
        <time>2014-04-25T11:13:21Z</time>
      </trkpt>
      <trkpt lat="47.09243" lon="4.91472">
        <ele>234</ele>
        <time>2014-04-25T11:13:25Z</time>
      </trkpt>
      <trkpt lat="47.0924" lon="4.91466">
        <ele>234</ele>
        <time>2014-04-25T11:13:28Z</time>
      </trkpt>
      <trkpt lat="47.09236" lon="4.91461">
        <ele>234</ele>
        <time>2014-04-25T11:13:32Z</time>
      </trkpt>
      <trkpt lat="47.09232" lon="4.91457">
        <ele>234</ele>
        <time>2014-04-25T11:13:37Z</time>
      </trkpt>
      <trkpt lat="47.09227" lon="4.91453">
        <ele>234</ele>
        <time>2014-04-25T11:13:42Z</time>
      </trkpt>
      <trkpt lat="47.09222" lon="4.91449">
        <ele>234</ele>
        <time>2014-04-25T11:13:48Z</time>
      </trkpt>
      <trkpt lat="47.09218" lon="4.91445">
        <ele>234</ele>
        <time>2014-04-25T11:13:51Z</time>
      </trkpt>
      <trkpt lat="47.09214" lon="4.91441">
        <ele>234</ele>
        <time>2014-04-25T11:13:57Z</time>
      </trkpt>
      <trkpt lat="47.09209" lon="4.91436">
        <ele>234</ele>
        <time>2014-04-25T11:14:01Z</time>
      </trkpt>
      <trkpt lat="47.09205" lon="4.91432">
        <ele>233</ele>
        <time>2014-04-25T11:14:04Z</time>
      </trkpt>
      <trkpt lat="47.09201" lon="4.91427">
        <ele>233</ele>
        <time>2014-04-25T11:14:08Z</time>
      </trkpt>
      <trkpt lat="47.09197" lon="4.91424">
        <ele>233</ele>
        <time>2014-04-25T11:14:12Z</time>
      </trkpt>
      <trkpt lat="47.09192" lon="4.91422">
        <ele>233</ele>
        <time>2014-04-25T11:14:16Z</time>
      </trkpt>
      <trkpt lat="47.09187" lon="4.9142">
        <ele>233</ele>
        <time>2014-04-25T11:14:20Z</time>
      </trkpt>
      <trkpt lat="47.09183" lon="4.91416">
        <ele>233</ele>
        <time>2014-04-25T11:14:25Z</time>
      </trkpt>
      <trkpt lat="47.09178" lon="4.91413">
        <ele>233</ele>
        <time>2014-04-25T11:14:29Z</time>
      </trkpt>
      <trkpt lat="47.09174" lon="4.91408">
        <ele>233</ele>
        <time>2014-04-25T11:14:33Z</time>
      </trkpt>
      <trkpt lat="47.09169" lon="4.91404">
        <ele>233</ele>
        <time>2014-04-25T11:14:37Z</time>
      </trkpt>
      <trkpt lat="47.09165" lon="4.91401">
        <ele>233</ele>
        <time>2014-04-25T11:14:42Z</time>
      </trkpt>
      <trkpt lat="47.0916" lon="4.91399">
        <ele>233</ele>
        <time>2014-04-25T11:14:46Z</time>
      </trkpt>
      <trkpt lat="47.09155" lon="4.91397">
        <ele>233</ele>
        <time>2014-04-25T11:14:49Z</time>
      </trkpt>
      <trkpt lat="47.09151" lon="4.91393">
        <ele>233</ele>
        <time>2014-04-25T11:14:53Z</time>
      </trkpt>
      <trkpt lat="47.09147" lon="4.91388">
        <ele>233</ele>
        <time>2014-04-25T11:14:58Z</time>
      </trkpt>
      <trkpt lat="47.09142" lon="4.91384">
        <ele>233</ele>
        <time>2014-04-25T11:15:02Z</time>
      </trkpt>
      <trkpt lat="47.09137" lon="4.91381">
        <ele>233</ele>
        <time>2014-04-25T11:15:06Z</time>
      </trkpt>
      <trkpt lat="47.09132" lon="4.91377">
        <ele>233</ele>
        <time>2014-04-25T11:15:10Z</time>
      </trkpt>
      <trkpt lat="47.09128" lon="4.91373">
        <ele>233</ele>
        <time>2014-04-25T11:15:14Z</time>
      </trkpt>
      <trkpt lat="47.09124" lon="4.91369">
        <ele>233</ele>
        <time>2014-04-25T11:15:18Z</time>
      </trkpt>
      <trkpt lat="47.0912" lon="4.91367">
        <ele>233</ele>
        <time>2014-04-25T11:15:21Z</time>
      </trkpt>
      <trkpt lat="47.09115" lon="4.91364">
        <ele>233</ele>
        <time>2014-04-25T11:15:25Z</time>
      </trkpt>
      <trkpt lat="47.0911" lon="4.91363">
        <ele>233</ele>
        <time>2014-04-25T11:15:29Z</time>
      </trkpt>
      <trkpt lat="47.09105" lon="4.91367">
        <ele>232</ele>
        <time>2014-04-25T11:15:34Z</time>
      </trkpt>
      <trkpt lat="47.09097" lon="4.91365">
        <ele>232</ele>
        <time>2014-04-25T11:15:39Z</time>
      </trkpt>
      <trkpt lat="47.09093" lon="4.9136">
        <ele>233</ele>
        <time>2014-04-25T11:15:42Z</time>
      </trkpt>
      <trkpt lat="47.0909" lon="4.91353">
        <ele>233</ele>
        <time>2014-04-25T11:15:46Z</time>
      </trkpt>
      <trkpt lat="47.09084" lon="4.91351">
        <ele>233</ele>
        <time>2014-04-25T11:15:50Z</time>
      </trkpt>
      <trkpt lat="47.0908" lon="4.91353">
        <ele>232</ele>
        <time>2014-04-25T11:15:52Z</time>
      </trkpt>
      <trkpt lat="47.09069" lon="4.91355">
        <ele>232</ele>
        <time>2014-04-25T11:15:57Z</time>
      </trkpt>
      <trkpt lat="47.09061" lon="4.91355">
        <ele>232</ele>
        <time>2014-04-25T11:16:01Z</time>
      </trkpt>
      <trkpt lat="47.09055" lon="4.91358">
        <ele>232</ele>
        <time>2014-04-25T11:16:04Z</time>
      </trkpt>
      <trkpt lat="47.09046" lon="4.91351">
        <ele>232</ele>
        <time>2014-04-25T11:16:15Z</time>
      </trkpt>
      <trkpt lat="47.09043" lon="4.91345">
        <ele>232</ele>
        <time>2014-04-25T11:16:20Z</time>
      </trkpt>
      <trkpt lat="47.09038" lon="4.91342">
        <ele>231</ele>
        <time>2014-04-25T11:16:23Z</time>
      </trkpt>
      <trkpt lat="47.09034" lon="4.91341">
        <ele>231</ele>
        <time>2014-04-25T11:16:26Z</time>
      </trkpt>
      <trkpt lat="47.0903" lon="4.91337">
        <ele>231</ele>
        <time>2014-04-25T11:16:29Z</time>
      </trkpt>
      <trkpt lat="47.09025" lon="4.91335">
        <ele>231</ele>
        <time>2014-04-25T11:16:32Z</time>
      </trkpt>
      <trkpt lat="47.09016" lon="4.91329">
        <ele>231</ele>
        <time>2014-04-25T11:16:39Z</time>
      </trkpt>
      <trkpt lat="47.09014" lon="4.91329">
        <ele>231</ele>
        <time>2014-04-25T11:16:53Z</time>
      </trkpt>
      <trkpt lat="47.09009" lon="4.91326">
        <ele>231</ele>
        <time>2014-04-25T11:16:56Z</time>
      </trkpt>
      <trkpt lat="47.09005" lon="4.91323">
        <ele>231</ele>
        <time>2014-04-25T11:17:01Z</time>
      </trkpt>
      <trkpt lat="47.09" lon="4.9132">
        <ele>231</ele>
        <time>2014-04-25T11:17:05Z</time>
      </trkpt>
      <trkpt lat="47.08996" lon="4.91315">
        <ele>231</ele>
        <time>2014-04-25T11:17:09Z</time>
      </trkpt>
      <trkpt lat="47.0899" lon="4.91312">
        <ele>231</ele>
        <time>2014-04-25T11:17:13Z</time>
      </trkpt>
      <trkpt lat="47.08985" lon="4.9131">
        <ele>231</ele>
        <time>2014-04-25T11:17:16Z</time>
      </trkpt>
      <trkpt lat="47.0898" lon="4.91309">
        <ele>231</ele>
        <time>2014-04-25T11:17:19Z</time>
      </trkpt>
      <trkpt lat="47.08975" lon="4.91307">
        <ele>231</ele>
        <time>2014-04-25T11:17:23Z</time>
      </trkpt>
      <trkpt lat="47.0897" lon="4.91307">
        <ele>231</ele>
        <time>2014-04-25T11:17:27Z</time>
      </trkpt>
      <trkpt lat="47.08965" lon="4.91304">
        <ele>231</ele>
        <time>2014-04-25T11:17:31Z</time>
      </trkpt>
      <trkpt lat="47.0896" lon="4.91303">
        <ele>231</ele>
        <time>2014-04-25T11:17:35Z</time>
      </trkpt>
      <trkpt lat="47.08955" lon="4.913">
        <ele>231</ele>
        <time>2014-04-25T11:17:40Z</time>
      </trkpt>
      <trkpt lat="47.0895" lon="4.91296">
        <ele>231</ele>
        <time>2014-04-25T11:17:44Z</time>
      </trkpt>
      <trkpt lat="47.08945" lon="4.91293">
        <ele>231</ele>
        <time>2014-04-25T11:17:48Z</time>
      </trkpt>
      <trkpt lat="47.0894" lon="4.9129">
        <ele>231</ele>
        <time>2014-04-25T11:17:52Z</time>
      </trkpt>
      <trkpt lat="47.08935" lon="4.91289">
        <ele>231</ele>
        <time>2014-04-25T11:17:55Z</time>
      </trkpt>
      <trkpt lat="47.0893" lon="4.91286">
        <ele>231</ele>
        <time>2014-04-25T11:18:00Z</time>
      </trkpt>
      <trkpt lat="47.08924" lon="4.91285">
        <ele>231</ele>
        <time>2014-04-25T11:18:04Z</time>
      </trkpt>
      <trkpt lat="47.0892" lon="4.91282">
        <ele>231</ele>
        <time>2014-04-25T11:18:08Z</time>
      </trkpt>
      <trkpt lat="47.08917" lon="4.91276">
        <ele>231</ele>
        <time>2014-04-25T11:18:13Z</time>
      </trkpt>
      <trkpt lat="47.08914" lon="4.91271">
        <ele>231</ele>
        <time>2014-04-25T11:18:17Z</time>
      </trkpt>
      <trkpt lat="47.0891" lon="4.91266">
        <ele>231</ele>
        <time>2014-04-25T11:18:21Z</time>
      </trkpt>
      <trkpt lat="47.08904" lon="4.91265">
        <ele>231</ele>
        <time>2014-04-25T11:18:25Z</time>
      </trkpt>
      <trkpt lat="47.089" lon="4.91265">
        <ele>231</ele>
        <time>2014-04-25T11:18:28Z</time>
      </trkpt>
      <trkpt lat="47.08895" lon="4.91263">
        <ele>231</ele>
        <time>2014-04-25T11:18:31Z</time>
      </trkpt>
      <trkpt lat="47.0889" lon="4.91262">
        <ele>231</ele>
        <time>2014-04-25T11:18:35Z</time>
      </trkpt>
      <trkpt lat="47.08885" lon="4.91258">
        <ele>231</ele>
        <time>2014-04-25T11:18:40Z</time>
      </trkpt>
      <trkpt lat="47.08881" lon="4.91256">
        <ele>231</ele>
        <time>2014-04-25T11:18:45Z</time>
      </trkpt>
      <trkpt lat="47.08875" lon="4.91254">
        <ele>231</ele>
        <time>2014-04-25T11:18:49Z</time>
      </trkpt>
      <trkpt lat="47.0887" lon="4.91252">
        <ele>231</ele>
        <time>2014-04-25T11:18:52Z</time>
      </trkpt>
      <trkpt lat="47.08865" lon="4.91251">
        <ele>231</ele>
        <time>2014-04-25T11:18:55Z</time>
      </trkpt>
      <trkpt lat="47.08861" lon="4.9125">
        <ele>231</ele>
        <time>2014-04-25T11:18:58Z</time>
      </trkpt>
      <trkpt lat="47.08853" lon="4.91246">
        <ele>231</ele>
        <time>2014-04-25T11:19:02Z</time>
      </trkpt>
      <trkpt lat="47.08849" lon="4.9124">
        <ele>231</ele>
        <time>2014-04-25T11:19:07Z</time>
      </trkpt>
      <trkpt lat="47.08844" lon="4.91236">
        <ele>231</ele>
        <time>2014-04-25T11:19:11Z</time>
      </trkpt>
      <trkpt lat="47.0884" lon="4.91233">
        <ele>231</ele>
        <time>2014-04-25T11:19:15Z</time>
      </trkpt>
      <trkpt lat="47.08838" lon="4.91226">
        <ele>231</ele>
        <time>2014-04-25T11:19:19Z</time>
      </trkpt>
      <trkpt lat="47.08832" lon="4.91225">
        <ele>232</ele>
        <time>2014-04-25T11:19:24Z</time>
      </trkpt>
      <trkpt lat="47.08826" lon="4.91224">
        <ele>232</ele>
        <time>2014-04-25T11:19:29Z</time>
      </trkpt>
      <trkpt lat="47.08821" lon="4.91219">
        <ele>232</ele>
        <time>2014-04-25T11:19:32Z</time>
      </trkpt>
      <trkpt lat="47.08817" lon="4.91215">
        <ele>232</ele>
        <time>2014-04-25T11:19:36Z</time>
      </trkpt>
      <trkpt lat="47.08813" lon="4.91213">
        <ele>232</ele>
        <time>2014-04-25T11:19:40Z</time>
      </trkpt>
      <trkpt lat="47.08809" lon="4.91207">
        <ele>232</ele>
        <time>2014-04-25T11:19:45Z</time>
      </trkpt>
      <trkpt lat="47.08806" lon="4.91201">
        <ele>232</ele>
        <time>2014-04-25T11:19:50Z</time>
      </trkpt>
      <trkpt lat="47.08803" lon="4.91195">
        <ele>232</ele>
        <time>2014-04-25T11:19:55Z</time>
      </trkpt>
      <trkpt lat="47.088" lon="4.91189">
        <ele>232</ele>
        <time>2014-04-25T11:19:59Z</time>
      </trkpt>
      <trkpt lat="47.08796" lon="4.91185">
        <ele>232</ele>
        <time>2014-04-25T11:20:03Z</time>
      </trkpt>
      <trkpt lat="47.08792" lon="4.91178">
        <ele>233</ele>
        <time>2014-04-25T11:20:12Z</time>
      </trkpt>
      <trkpt lat="47.08789" lon="4.91173">
        <ele>233</ele>
        <time>2014-04-25T11:20:18Z</time>
      </trkpt>
      <trkpt lat="47.08785" lon="4.91168">
        <ele>233</ele>
        <time>2014-04-25T11:20:22Z</time>
      </trkpt>
      <trkpt lat="47.08782" lon="4.91163">
        <ele>233</ele>
        <time>2014-04-25T11:20:26Z</time>
      </trkpt>
      <trkpt lat="47.0878" lon="4.91157">
        <ele>233</ele>
        <time>2014-04-25T11:20:30Z</time>
      </trkpt>
      <trkpt lat="47.08776" lon="4.91151">
        <ele>233</ele>
        <time>2014-04-25T11:20:34Z</time>
      </trkpt>
      <trkpt lat="47.08772" lon="4.91147">
        <ele>233</ele>
        <time>2014-04-25T11:20:38Z</time>
      </trkpt>
      <trkpt lat="47.0877" lon="4.9114">
        <ele>233</ele>
        <time>2014-04-25T11:20:42Z</time>
      </trkpt>
      <trkpt lat="47.08766" lon="4.91135">
        <ele>233</ele>
        <time>2014-04-25T11:20:46Z</time>
      </trkpt>
      <trkpt lat="47.08762" lon="4.91131">
        <ele>233</ele>
        <time>2014-04-25T11:20:50Z</time>
      </trkpt>
      <trkpt lat="47.08757" lon="4.91127">
        <ele>233</ele>
        <time>2014-04-25T11:20:55Z</time>
      </trkpt>
      <trkpt lat="47.08753" lon="4.91123">
        <ele>233</ele>
        <time>2014-04-25T11:21:00Z</time>
      </trkpt>
      <trkpt lat="47.08749" lon="4.91118">
        <ele>233</ele>
        <time>2014-04-25T11:21:03Z</time>
      </trkpt>
      <trkpt lat="47.08745" lon="4.91113">
        <ele>233</ele>
        <time>2014-04-25T11:21:06Z</time>
      </trkpt>
      <trkpt lat="47.08741" lon="4.91106">
        <ele>233</ele>
        <time>2014-04-25T11:21:10Z</time>
      </trkpt>
      <trkpt lat="47.08738" lon="4.911">
        <ele>232</ele>
        <time>2014-04-25T11:21:11Z</time>
      </trkpt>
      <trkpt lat="47.08736" lon="4.91094">
        <ele>232</ele>
        <time>2014-04-25T11:21:14Z</time>
      </trkpt>
      <trkpt lat="47.0873" lon="4.91086">
        <ele>232</ele>
        <time>2014-04-25T11:21:29Z</time>
      </trkpt>
      <trkpt lat="47.08726" lon="4.91079">
        <ele>232</ele>
        <time>2014-04-25T11:21:32Z</time>
      </trkpt>
      <trkpt lat="47.08723" lon="4.91074">
        <ele>232</ele>
        <time>2014-04-25T11:21:34Z</time>
      </trkpt>
      <trkpt lat="47.0872" lon="4.91068">
        <ele>232</ele>
        <time>2014-04-25T11:21:38Z</time>
      </trkpt>
      <trkpt lat="47.08716" lon="4.91062">
        <ele>232</ele>
        <time>2014-04-25T11:21:42Z</time>
      </trkpt>
      <trkpt lat="47.08712" lon="4.91058">
        <ele>232</ele>
        <time>2014-04-25T11:21:46Z</time>
      </trkpt>
      <trkpt lat="47.08709" lon="4.91051">
        <ele>232</ele>
        <time>2014-04-25T11:21:51Z</time>
      </trkpt>
      <trkpt lat="47.08706" lon="4.91045">
        <ele>232</ele>
        <time>2014-04-25T11:21:54Z</time>
      </trkpt>
      <trkpt lat="47.08703" lon="4.91039">
        <ele>232</ele>
        <time>2014-04-25T11:22:00Z</time>
      </trkpt>
      <trkpt lat="47.08701" lon="4.91031">
        <ele>232</ele>
        <time>2014-04-25T11:22:03Z</time>
      </trkpt>
      <trkpt lat="47.08699" lon="4.91023">
        <ele>232</ele>
        <time>2014-04-25T11:22:05Z</time>
      </trkpt>
      <trkpt lat="47.08697" lon="4.91016">
        <ele>232</ele>
        <time>2014-04-25T11:22:09Z</time>
      </trkpt>
      <trkpt lat="47.08693" lon="4.91011">
        <ele>232</ele>
        <time>2014-04-25T11:22:12Z</time>
      </trkpt>
      <trkpt lat="47.08691" lon="4.91005">
        <ele>232</ele>
        <time>2014-04-25T11:22:16Z</time>
      </trkpt>
      <trkpt lat="47.08687" lon="4.91">
        <ele>233</ele>
        <time>2014-04-25T11:22:21Z</time>
      </trkpt>
      <trkpt lat="47.08684" lon="4.90994">
        <ele>233</ele>
        <time>2014-04-25T11:22:25Z</time>
      </trkpt>
      <trkpt lat="47.0868" lon="4.90987">
        <ele>233</ele>
        <time>2014-04-25T11:22:29Z</time>
      </trkpt>
      <trkpt lat="47.08677" lon="4.90982">
        <ele>233</ele>
        <time>2014-04-25T11:22:32Z</time>
      </trkpt>
      <trkpt lat="47.08673" lon="4.90977">
        <ele>233</ele>
        <time>2014-04-25T11:22:37Z</time>
      </trkpt>
      <trkpt lat="47.08669" lon="4.90972">
        <ele>233</ele>
        <time>2014-04-25T11:22:42Z</time>
      </trkpt>
      <trkpt lat="47.08667" lon="4.90966">
        <ele>233</ele>
        <time>2014-04-25T11:22:46Z</time>
      </trkpt>
      <trkpt lat="47.08664" lon="4.90959">
        <ele>234</ele>
        <time>2014-04-25T11:22:49Z</time>
      </trkpt>
      <trkpt lat="47.08662" lon="4.90953">
        <ele>234</ele>
        <time>2014-04-25T11:22:53Z</time>
      </trkpt>
      <trkpt lat="47.08661" lon="4.90945">
        <ele>234</ele>
        <time>2014-04-25T11:22:58Z</time>
      </trkpt>
      <trkpt lat="47.08656" lon="4.90942">
        <ele>234</ele>
        <time>2014-04-25T11:23:03Z</time>
      </trkpt>
      <trkpt lat="47.08651" lon="4.90937">
        <ele>234</ele>
        <time>2014-04-25T11:23:07Z</time>
      </trkpt>
      <trkpt lat="47.08648" lon="4.90931">
        <ele>234</ele>
        <time>2014-04-25T11:23:11Z</time>
      </trkpt>
      <trkpt lat="47.08646" lon="4.90924">
        <ele>234</ele>
        <time>2014-04-25T11:23:15Z</time>
      </trkpt>
      <trkpt lat="47.08644" lon="4.90917">
        <ele>234</ele>
        <time>2014-04-25T11:23:20Z</time>
      </trkpt>
      <trkpt lat="47.0864" lon="4.90911">
        <ele>235</ele>
        <time>2014-04-25T11:23:25Z</time>
      </trkpt>
      <trkpt lat="47.08636" lon="4.90906">
        <ele>235</ele>
        <time>2014-04-25T11:23:29Z</time>
      </trkpt>
      <trkpt lat="47.08632" lon="4.909">
        <ele>235</ele>
        <time>2014-04-25T11:23:33Z</time>
      </trkpt>
      <trkpt lat="47.0863" lon="4.90894">
        <ele>235</ele>
        <time>2014-04-25T11:23:38Z</time>
      </trkpt>
      <trkpt lat="47.08628" lon="4.90887">
        <ele>235</ele>
        <time>2014-04-25T11:23:42Z</time>
      </trkpt>
      <trkpt lat="47.08624" lon="4.90883">
        <ele>235</ele>
        <time>2014-04-25T11:23:46Z</time>
      </trkpt>
      <trkpt lat="47.08621" lon="4.90879">
        <ele>235</ele>
        <time>2014-04-25T11:23:49Z</time>
      </trkpt>
      <trkpt lat="47.08617" lon="4.90875">
        <ele>235</ele>
        <time>2014-04-25T11:23:53Z</time>
      </trkpt>
      <trkpt lat="47.08614" lon="4.90869">
        <ele>235</ele>
        <time>2014-04-25T11:23:56Z</time>
      </trkpt>
      <trkpt lat="47.0861" lon="4.90863">
        <ele>235</ele>
        <time>2014-04-25T11:24:00Z</time>
      </trkpt>
      <trkpt lat="47.08607" lon="4.90858">
        <ele>235</ele>
        <time>2014-04-25T11:24:04Z</time>
      </trkpt>
      <trkpt lat="47.08605" lon="4.90851">
        <ele>235</ele>
        <time>2014-04-25T11:24:08Z</time>
      </trkpt>
      <trkpt lat="47.08601" lon="4.90845">
        <ele>235</ele>
        <time>2014-04-25T11:24:13Z</time>
      </trkpt>
      <trkpt lat="47.08599" lon="4.90838">
        <ele>235</ele>
        <time>2014-04-25T11:24:16Z</time>
      </trkpt>
      <trkpt lat="47.08596" lon="4.90832">
        <ele>235</ele>
        <time>2014-04-25T11:24:20Z</time>
      </trkpt>
      <trkpt lat="47.08593" lon="4.90825">
        <ele>235</ele>
        <time>2014-04-25T11:24:27Z</time>
      </trkpt>
      <trkpt lat="47.0859" lon="4.90819">
        <ele>236</ele>
        <time>2014-04-25T11:24:29Z</time>
      </trkpt>
      <trkpt lat="47.08587" lon="4.90812">
        <ele>236</ele>
        <time>2014-04-25T11:24:33Z</time>
      </trkpt>
      <trkpt lat="47.08583" lon="4.90808">
        <ele>235</ele>
        <time>2014-04-25T11:24:37Z</time>
      </trkpt>
      <trkpt lat="47.08579" lon="4.90804">
        <ele>235</ele>
        <time>2014-04-25T11:24:42Z</time>
      </trkpt>
      <trkpt lat="47.08574" lon="4.908">
        <ele>235</ele>
        <time>2014-04-25T11:24:46Z</time>
      </trkpt>
      <trkpt lat="47.0857" lon="4.90796">
        <ele>235</ele>
        <time>2014-04-25T11:24:49Z</time>
      </trkpt>
      <trkpt lat="47.08565" lon="4.90791">
        <ele>235</ele>
        <time>2014-04-25T11:24:53Z</time>
      </trkpt>
      <trkpt lat="47.08561" lon="4.90787">
        <ele>235</ele>
        <time>2014-04-25T11:24:57Z</time>
      </trkpt>
      <trkpt lat="47.08557" lon="4.90783">
        <ele>235</ele>
        <time>2014-04-25T11:25:01Z</time>
      </trkpt>
      <trkpt lat="47.08553" lon="4.90779">
        <ele>235</ele>
        <time>2014-04-25T11:25:05Z</time>
      </trkpt>
      <trkpt lat="47.08548" lon="4.90776">
        <ele>235</ele>
        <time>2014-04-25T11:25:09Z</time>
      </trkpt>
      <trkpt lat="47.08544" lon="4.90771">
        <ele>235</ele>
        <time>2014-04-25T11:25:13Z</time>
      </trkpt>
      <trkpt lat="47.08539" lon="4.90767">
        <ele>235</ele>
        <time>2014-04-25T11:25:17Z</time>
      </trkpt>
      <trkpt lat="47.08534" lon="4.90763">
        <ele>235</ele>
        <time>2014-04-25T11:25:21Z</time>
      </trkpt>
      <trkpt lat="47.08529" lon="4.90759">
        <ele>235</ele>
        <time>2014-04-25T11:25:25Z</time>
      </trkpt>
      <trkpt lat="47.08524" lon="4.90756">
        <ele>235</ele>
        <time>2014-04-25T11:25:29Z</time>
      </trkpt>
      <trkpt lat="47.08519" lon="4.9075">
        <ele>235</ele>
        <time>2014-04-25T11:25:33Z</time>
      </trkpt>
      <trkpt lat="47.08515" lon="4.90746">
        <ele>235</ele>
        <time>2014-04-25T11:25:37Z</time>
      </trkpt>
      <trkpt lat="47.0851" lon="4.90743">
        <ele>235</ele>
        <time>2014-04-25T11:25:41Z</time>
      </trkpt>
      <trkpt lat="47.08505" lon="4.9074">
        <ele>235</ele>
        <time>2014-04-25T11:25:45Z</time>
      </trkpt>
      <trkpt lat="47.08501" lon="4.90736">
        <ele>235</ele>
        <time>2014-04-25T11:25:49Z</time>
      </trkpt>
      <trkpt lat="47.08496" lon="4.90733">
        <ele>235</ele>
        <time>2014-04-25T11:25:53Z</time>
      </trkpt>
      <trkpt lat="47.08491" lon="4.9073">
        <ele>235</ele>
        <time>2014-04-25T11:25:57Z</time>
      </trkpt>
      <trkpt lat="47.08487" lon="4.90727">
        <ele>235</ele>
        <time>2014-04-25T11:26:01Z</time>
      </trkpt>
      <trkpt lat="47.08482" lon="4.90724">
        <ele>235</ele>
        <time>2014-04-25T11:26:04Z</time>
      </trkpt>
      <trkpt lat="47.08478" lon="4.90722">
        <ele>234</ele>
        <time>2014-04-25T11:26:07Z</time>
      </trkpt>
      <trkpt lat="47.08474" lon="4.90719">
        <ele>234</ele>
        <time>2014-04-25T11:26:10Z</time>
      </trkpt>
      <trkpt lat="47.0847" lon="4.90714">
        <ele>234</ele>
        <time>2014-04-25T11:26:14Z</time>
      </trkpt>
      <trkpt lat="47.08467" lon="4.90709">
        <ele>234</ele>
        <time>2014-04-25T11:26:19Z</time>
      </trkpt>
      <trkpt lat="47.08464" lon="4.90704">
        <ele>234</ele>
        <time>2014-04-25T11:26:24Z</time>
      </trkpt>
      <trkpt lat="47.08459" lon="4.907">
        <ele>234</ele>
        <time>2014-04-25T11:26:27Z</time>
      </trkpt>
      <trkpt lat="47.08454" lon="4.90698">
        <ele>234</ele>
        <time>2014-04-25T11:26:32Z</time>
      </trkpt>
      <trkpt lat="47.08449" lon="4.90694">
        <ele>234</ele>
        <time>2014-04-25T11:26:36Z</time>
      </trkpt>
      <trkpt lat="47.08446" lon="4.9069">
        <ele>234</ele>
        <time>2014-04-25T11:26:39Z</time>
      </trkpt>
      <trkpt lat="47.08441" lon="4.90686">
        <ele>234</ele>
        <time>2014-04-25T11:26:42Z</time>
      </trkpt>
      <trkpt lat="47.08437" lon="4.90685">
        <ele>234</ele>
        <time>2014-04-25T11:26:46Z</time>
      </trkpt>
      <trkpt lat="47.08432" lon="4.90682">
        <ele>234</ele>
        <time>2014-04-25T11:26:48Z</time>
      </trkpt>
      <trkpt lat="47.08428" lon="4.90678">
        <ele>234</ele>
        <time>2014-04-25T11:26:52Z</time>
      </trkpt>
      <trkpt lat="47.08423" lon="4.90675">
        <ele>233</ele>
        <time>2014-04-25T11:26:55Z</time>
      </trkpt>
      <trkpt lat="47.08418" lon="4.90674">
        <ele>233</ele>
        <time>2014-04-25T11:26:59Z</time>
      </trkpt>
      <trkpt lat="47.08414" lon="4.90669">
        <ele>233</ele>
        <time>2014-04-25T11:27:05Z</time>
      </trkpt>
      <trkpt lat="47.0841" lon="4.90664">
        <ele>233</ele>
        <time>2014-04-25T11:27:09Z</time>
      </trkpt>
      <trkpt lat="47.08405" lon="4.90664">
        <ele>233</ele>
        <time>2014-04-25T11:27:12Z</time>
      </trkpt>
      <trkpt lat="47.08399" lon="4.90661">
        <ele>233</ele>
        <time>2014-04-25T11:27:16Z</time>
      </trkpt>
      <trkpt lat="47.08394" lon="4.90658">
        <ele>233</ele>
        <time>2014-04-25T11:27:19Z</time>
      </trkpt>
      <trkpt lat="47.08391" lon="4.90653">
        <ele>233</ele>
        <time>2014-04-25T11:27:23Z</time>
      </trkpt>
      <trkpt lat="47.08387" lon="4.90647">
        <ele>234</ele>
        <time>2014-04-25T11:27:27Z</time>
      </trkpt>
      <trkpt lat="47.08382" lon="4.90646">
        <ele>234</ele>
        <time>2014-04-25T11:27:31Z</time>
      </trkpt>
      <trkpt lat="47.08378" lon="4.90641">
        <ele>234</ele>
        <time>2014-04-25T11:27:35Z</time>
      </trkpt>
      <trkpt lat="47.08374" lon="4.90637">
        <ele>234</ele>
        <time>2014-04-25T11:27:40Z</time>
      </trkpt>
      <trkpt lat="47.08371" lon="4.90632">
        <ele>234</ele>
        <time>2014-04-25T11:27:45Z</time>
      </trkpt>
      <trkpt lat="47.08367" lon="4.90627">
        <ele>234</ele>
        <time>2014-04-25T11:27:48Z</time>
      </trkpt>
      <trkpt lat="47.08365" lon="4.90626">
        <ele>234</ele>
        <time>2014-04-25T11:27:55Z</time>
      </trkpt>
      <trkpt lat="47.08361" lon="4.90631">
        <ele>234</ele>
        <time>2014-04-25T11:28:05Z</time>
      </trkpt>
      <trkpt lat="47.08356" lon="4.90628">
        <ele>234</ele>
        <time>2014-04-25T11:28:09Z</time>
      </trkpt>
      <trkpt lat="47.08351" lon="4.90623">
        <ele>234</ele>
        <time>2014-04-25T11:28:13Z</time>
      </trkpt>
      <trkpt lat="47.08347" lon="4.9062">
        <ele>234</ele>
        <time>2014-04-25T11:28:16Z</time>
      </trkpt>
      <trkpt lat="47.08343" lon="4.90617">
        <ele>234</ele>
        <time>2014-04-25T11:28:19Z</time>
      </trkpt>
      <trkpt lat="47.08338" lon="4.90615">
        <ele>234</ele>
        <time>2014-04-25T11:28:22Z</time>
      </trkpt>
      <trkpt lat="47.08333" lon="4.90612">
        <ele>234</ele>
        <time>2014-04-25T11:28:26Z</time>
      </trkpt>
      <trkpt lat="47.0833" lon="4.90605">
        <ele>234</ele>
        <time>2014-04-25T11:28:30Z</time>
      </trkpt>
      <trkpt lat="47.08326" lon="4.90601">
        <ele>234</ele>
        <time>2014-04-25T11:28:33Z</time>
      </trkpt>
      <trkpt lat="47.08322" lon="4.90596">
        <ele>234</ele>
        <time>2014-04-25T11:28:37Z</time>
      </trkpt>
      <trkpt lat="47.08318" lon="4.90591">
        <ele>234</ele>
        <time>2014-04-25T11:28:41Z</time>
      </trkpt>
      <trkpt lat="47.08313" lon="4.90588">
        <ele>234</ele>
        <time>2014-04-25T11:28:44Z</time>
      </trkpt>
      <trkpt lat="47.08309" lon="4.90582">
        <ele>235</ele>
        <time>2014-04-25T11:28:48Z</time>
      </trkpt>
      <trkpt lat="47.08306" lon="4.90576">
        <ele>235</ele>
        <time>2014-04-25T11:28:52Z</time>
      </trkpt>
      <trkpt lat="47.08302" lon="4.90573">
        <ele>234</ele>
        <time>2014-04-25T11:28:56Z</time>
      </trkpt>
      <trkpt lat="47.08297" lon="4.90567">
        <ele>234</ele>
        <time>2014-04-25T11:29:01Z</time>
      </trkpt>
      <trkpt lat="47.08293" lon="4.90563">
        <ele>234</ele>
        <time>2014-04-25T11:29:06Z</time>
      </trkpt>
      <trkpt lat="47.0829" lon="4.90559">
        <ele>234</ele>
        <time>2014-04-25T11:29:10Z</time>
      </trkpt>
      <trkpt lat="47.08287" lon="4.90554">
        <ele>234</ele>
        <time>2014-04-25T11:29:13Z</time>
      </trkpt>
      <trkpt lat="47.08284" lon="4.90547">
        <ele>234</ele>
        <time>2014-04-25T11:29:17Z</time>
      </trkpt>
      <trkpt lat="47.08281" lon="4.9054">
        <ele>234</ele>
        <time>2014-04-25T11:29:21Z</time>
      </trkpt>
      <trkpt lat="47.08278" lon="4.90535">
        <ele>234</ele>
        <time>2014-04-25T11:29:25Z</time>
      </trkpt>
      <trkpt lat="47.08274" lon="4.90531">
        <ele>234</ele>
        <time>2014-04-25T11:29:29Z</time>
      </trkpt>
      <trkpt lat="47.08271" lon="4.90526">
        <ele>234</ele>
        <time>2014-04-25T11:29:33Z</time>
      </trkpt>
      <trkpt lat="47.08268" lon="4.90519">
        <ele>234</ele>
        <time>2014-04-25T11:29:37Z</time>
      </trkpt>
      <trkpt lat="47.08267" lon="4.90516">
        <ele>234</ele>
        <time>2014-04-25T11:29:43Z</time>
      </trkpt>
      <trkpt lat="47.08267" lon="4.90512">
        <ele>234</ele>
        <time>2014-04-25T11:29:55Z</time>
      </trkpt>
      <trkpt lat="47.08263" lon="4.90505">
        <ele>234</ele>
        <time>2014-04-25T11:29:59Z</time>
      </trkpt>
      <trkpt lat="47.08261" lon="4.90498">
        <ele>235</ele>
        <time>2014-04-25T11:30:02Z</time>
      </trkpt>
      <trkpt lat="47.08257" lon="4.90492">
        <ele>235</ele>
        <time>2014-04-25T11:30:06Z</time>
      </trkpt>
      <trkpt lat="47.08252" lon="4.90488">
        <ele>235</ele>
        <time>2014-04-25T11:30:09Z</time>
      </trkpt>
      <trkpt lat="47.08248" lon="4.90482">
        <ele>234</ele>
        <time>2014-04-25T11:30:13Z</time>
      </trkpt>
      <trkpt lat="47.08245" lon="4.90475">
        <ele>234</ele>
        <time>2014-04-25T11:30:17Z</time>
      </trkpt>
      <trkpt lat="47.08241" lon="4.90469">
        <ele>235</ele>
        <time>2014-04-25T11:30:21Z</time>
      </trkpt>
      <trkpt lat="47.08239" lon="4.90462">
        <ele>235</ele>
        <time>2014-04-25T11:30:25Z</time>
      </trkpt>
      <trkpt lat="47.08237" lon="4.90455">
        <ele>235</ele>
        <time>2014-04-25T11:30:29Z</time>
      </trkpt>
      <trkpt lat="47.08235" lon="4.90452">
        <ele>235</ele>
        <time>2014-04-25T11:30:36Z</time>
      </trkpt>
      <trkpt lat="47.08231" lon="4.90447">
        <ele>235</ele>
        <time>2014-04-25T11:30:46Z</time>
      </trkpt>
      <trkpt lat="47.08228" lon="4.90443">
        <ele>235</ele>
        <time>2014-04-25T11:30:51Z</time>
      </trkpt>
      <trkpt lat="47.08225" lon="4.90437">
        <ele>235</ele>
        <time>2014-04-25T11:30:55Z</time>
      </trkpt>
      <trkpt lat="47.08224" lon="4.90432">
        <ele>235</ele>
        <time>2014-04-25T11:31:06Z</time>
      </trkpt>
      <trkpt lat="47.08219" lon="4.90427">
        <ele>235</ele>
        <time>2014-04-25T11:31:12Z</time>
      </trkpt>
      <trkpt lat="47.08214" lon="4.90422">
        <ele>235</ele>
        <time>2014-04-25T11:31:16Z</time>
      </trkpt>
      <trkpt lat="47.0821" lon="4.90418">
        <ele>235</ele>
        <time>2014-04-25T11:31:20Z</time>
      </trkpt>
      <trkpt lat="47.08207" lon="4.90411">
        <ele>235</ele>
        <time>2014-04-25T11:31:23Z</time>
      </trkpt>
      <trkpt lat="47.08207" lon="4.90404">
        <ele>235</ele>
        <time>2014-04-25T11:31:28Z</time>
      </trkpt>
      <trkpt lat="47.08205" lon="4.90398">
        <ele>235</ele>
        <time>2014-04-25T11:31:33Z</time>
      </trkpt>
      <trkpt lat="47.08203" lon="4.90391">
        <ele>235</ele>
        <time>2014-04-25T11:31:37Z</time>
      </trkpt>
      <trkpt lat="47.08203" lon="4.90384">
        <ele>235</ele>
        <time>2014-04-25T11:31:42Z</time>
      </trkpt>
      <trkpt lat="47.082" lon="4.90378">
        <ele>235</ele>
        <time>2014-04-25T11:31:47Z</time>
      </trkpt>
      <trkpt lat="47.08197" lon="4.90372">
        <ele>235</ele>
        <time>2014-04-25T11:31:51Z</time>
      </trkpt>
      <trkpt lat="47.08193" lon="4.90367">
        <ele>235</ele>
        <time>2014-04-25T11:31:55Z</time>
      </trkpt>
      <trkpt lat="47.0819" lon="4.90361">
        <ele>235</ele>
        <time>2014-04-25T11:31:59Z</time>
      </trkpt>
      <trkpt lat="47.08187" lon="4.90355">
        <ele>235</ele>
        <time>2014-04-25T11:32:04Z</time>
      </trkpt>
      <trkpt lat="47.08183" lon="4.90349">
        <ele>235</ele>
        <time>2014-04-25T11:32:09Z</time>
      </trkpt>
      <trkpt lat="47.08179" lon="4.90341">
        <ele>235</ele>
        <time>2014-04-25T11:32:18Z</time>
      </trkpt>
      <trkpt lat="47.08177" lon="4.90335">
        <ele>235</ele>
        <time>2014-04-25T11:32:21Z</time>
      </trkpt>
      <trkpt lat="47.08173" lon="4.90329">
        <ele>235</ele>
        <time>2014-04-25T11:32:25Z</time>
      </trkpt>
      <trkpt lat="47.08171" lon="4.90322">
        <ele>235</ele>
        <time>2014-04-25T11:32:29Z</time>
      </trkpt>
      <trkpt lat="47.08168" lon="4.90316">
        <ele>235</ele>
        <time>2014-04-25T11:32:33Z</time>
      </trkpt>
      <trkpt lat="47.08165" lon="4.90311">
        <ele>235</ele>
        <time>2014-04-25T11:32:37Z</time>
      </trkpt>
      <trkpt lat="47.08161" lon="4.90308">
        <ele>235</ele>
        <time>2014-04-25T11:32:40Z</time>
      </trkpt>
      <trkpt lat="47.08159" lon="4.90301">
        <ele>235</ele>
        <time>2014-04-25T11:32:44Z</time>
      </trkpt>
      <trkpt lat="47.08156" lon="4.90294">
        <ele>235</ele>
        <time>2014-04-25T11:32:48Z</time>
      </trkpt>
      <trkpt lat="47.08153" lon="4.90288">
        <ele>235</ele>
        <time>2014-04-25T11:32:52Z</time>
      </trkpt>
      <trkpt lat="47.0815" lon="4.90281">
        <ele>235</ele>
        <time>2014-04-25T11:32:57Z</time>
      </trkpt>
      <trkpt lat="47.08148" lon="4.90274">
        <ele>235</ele>
        <time>2014-04-25T11:33:01Z</time>
      </trkpt>
      <trkpt lat="47.08146" lon="4.90267">
        <ele>235</ele>
        <time>2014-04-25T11:33:04Z</time>
      </trkpt>
      <trkpt lat="47.08146" lon="4.9026">
        <ele>235</ele>
        <time>2014-04-25T11:33:19Z</time>
      </trkpt>
      <trkpt lat="47.08141" lon="4.90254">
        <ele>235</ele>
        <time>2014-04-25T11:33:23Z</time>
      </trkpt>
      <trkpt lat="47.08137" lon="4.90248">
        <ele>235</ele>
        <time>2014-04-25T11:33:28Z</time>
      </trkpt>
      <trkpt lat="47.08135" lon="4.9024">
        <ele>235</ele>
        <time>2014-04-25T11:33:34Z</time>
      </trkpt>
      <trkpt lat="47.08132" lon="4.90235">
        <ele>235</ele>
        <time>2014-04-25T11:33:36Z</time>
      </trkpt>
      <trkpt lat="47.08128" lon="4.90229">
        <ele>235</ele>
        <time>2014-04-25T11:33:40Z</time>
      </trkpt>
      <trkpt lat="47.08125" lon="4.90223">
        <ele>235</ele>
        <time>2014-04-25T11:33:44Z</time>
      </trkpt>
      <trkpt lat="47.08121" lon="4.90217">
        <ele>235</ele>
        <time>2014-04-25T11:33:48Z</time>
      </trkpt>
      <trkpt lat="47.08118" lon="4.90211">
        <ele>235</ele>
        <time>2014-04-25T11:33:52Z</time>
      </trkpt>
      <trkpt lat="47.08116" lon="4.90205">
        <ele>235</ele>
        <time>2014-04-25T11:33:56Z</time>
      </trkpt>
      <trkpt lat="47.08114" lon="4.90198">
        <ele>235</ele>
        <time>2014-04-25T11:34:01Z</time>
      </trkpt>
      <trkpt lat="47.08111" lon="4.90192">
        <ele>235</ele>
        <time>2014-04-25T11:34:05Z</time>
      </trkpt>
      <trkpt lat="47.08108" lon="4.90185">
        <ele>235</ele>
        <time>2014-04-25T11:34:09Z</time>
      </trkpt>
      <trkpt lat="47.08106" lon="4.90179">
        <ele>235</ele>
        <time>2014-04-25T11:34:13Z</time>
      </trkpt>
      <trkpt lat="47.08103" lon="4.90172">
        <ele>234</ele>
        <time>2014-04-25T11:34:17Z</time>
      </trkpt>
      <trkpt lat="47.08101" lon="4.90166">
        <ele>234</ele>
        <time>2014-04-25T11:34:20Z</time>
      </trkpt>
      <trkpt lat="47.08098" lon="4.90159">
        <ele>234</ele>
        <time>2014-04-25T11:34:24Z</time>
      </trkpt>
      <trkpt lat="47.08096" lon="4.90153">
        <ele>234</ele>
        <time>2014-04-25T11:34:28Z</time>
      </trkpt>
      <trkpt lat="47.08093" lon="4.90148">
        <ele>234</ele>
        <time>2014-04-25T11:34:31Z</time>
      </trkpt>
      <trkpt lat="47.0809" lon="4.9014">
        <ele>234</ele>
        <time>2014-04-25T11:34:35Z</time>
      </trkpt>
      <trkpt lat="47.08088" lon="4.90134">
        <ele>234</ele>
        <time>2014-04-25T11:34:39Z</time>
      </trkpt>
      <trkpt lat="47.08085" lon="4.90127">
        <ele>234</ele>
        <time>2014-04-25T11:34:44Z</time>
      </trkpt>
      <trkpt lat="47.08083" lon="4.9012">
        <ele>233</ele>
        <time>2014-04-25T11:34:48Z</time>
      </trkpt>
      <trkpt lat="47.08081" lon="4.90113">
        <ele>233</ele>
        <time>2014-04-25T11:34:52Z</time>
      </trkpt>
      <trkpt lat="47.08079" lon="4.90107">
        <ele>233</ele>
        <time>2014-04-25T11:34:56Z</time>
      </trkpt>
      <trkpt lat="47.08077" lon="4.90101">
        <ele>232</ele>
        <time>2014-04-25T11:34:59Z</time>
      </trkpt>
      <trkpt lat="47.08075" lon="4.90094">
        <ele>232</ele>
        <time>2014-04-25T11:35:03Z</time>
      </trkpt>
      <trkpt lat="47.08072" lon="4.90088">
        <ele>232</ele>
        <time>2014-04-25T11:35:09Z</time>
      </trkpt>
      <trkpt lat="47.08069" lon="4.90083">
        <ele>232</ele>
        <time>2014-04-25T11:35:16Z</time>
      </trkpt>
      <trkpt lat="47.08065" lon="4.90077">
        <ele>232</ele>
        <time>2014-04-25T11:35:21Z</time>
      </trkpt>
      <trkpt lat="47.08063" lon="4.9007">
        <ele>232</ele>
        <time>2014-04-25T11:35:26Z</time>
      </trkpt>
      <trkpt lat="47.08061" lon="4.90064">
        <ele>232</ele>
        <time>2014-04-25T11:35:30Z</time>
      </trkpt>
      <trkpt lat="47.08059" lon="4.90057">
        <ele>232</ele>
        <time>2014-04-25T11:35:34Z</time>
      </trkpt>
      <trkpt lat="47.08057" lon="4.90051">
        <ele>232</ele>
        <time>2014-04-25T11:35:38Z</time>
      </trkpt>
      <trkpt lat="47.08054" lon="4.90045">
        <ele>232</ele>
        <time>2014-04-25T11:35:42Z</time>
      </trkpt>
      <trkpt lat="47.08053" lon="4.90039">
        <ele>232</ele>
        <time>2014-04-25T11:35:46Z</time>
      </trkpt>
      <trkpt lat="47.0805" lon="4.90033">
        <ele>232</ele>
        <time>2014-04-25T11:35:51Z</time>
      </trkpt>
      <trkpt lat="47.08047" lon="4.90026">
        <ele>232</ele>
        <time>2014-04-25T11:35:54Z</time>
      </trkpt>
      <trkpt lat="47.08045" lon="4.90019">
        <ele>232</ele>
        <time>2014-04-25T11:35:58Z</time>
      </trkpt>
      <trkpt lat="47.08042" lon="4.90012">
        <ele>232</ele>
        <time>2014-04-25T11:36:02Z</time>
      </trkpt>
      <trkpt lat="47.08039" lon="4.90006">
        <ele>232</ele>
        <time>2014-04-25T11:36:06Z</time>
      </trkpt>
      <trkpt lat="47.08036" lon="4.9">
        <ele>232</ele>
        <time>2014-04-25T11:36:10Z</time>
      </trkpt>
      <trkpt lat="47.08033" lon="4.89993">
        <ele>231</ele>
        <time>2014-04-25T11:36:15Z</time>
      </trkpt>
      <trkpt lat="47.08032" lon="4.89987">
        <ele>231</ele>
        <time>2014-04-25T11:36:24Z</time>
      </trkpt>
      <trkpt lat="47.08029" lon="4.89981">
        <ele>231</ele>
        <time>2014-04-25T11:36:29Z</time>
      </trkpt>
      <trkpt lat="47.08025" lon="4.89974">
        <ele>231</ele>
        <time>2014-04-25T11:36:34Z</time>
      </trkpt>
      <trkpt lat="47.08023" lon="4.89967">
        <ele>231</ele>
        <time>2014-04-25T11:36:37Z</time>
      </trkpt>
      <trkpt lat="47.08022" lon="4.89961">
        <ele>231</ele>
        <time>2014-04-25T11:36:41Z</time>
      </trkpt>
      <trkpt lat="47.08019" lon="4.89954">
        <ele>231</ele>
        <time>2014-04-25T11:36:45Z</time>
      </trkpt>
      <trkpt lat="47.08016" lon="4.89948">
        <ele>231</ele>
        <time>2014-04-25T11:36:51Z</time>
      </trkpt>
      <trkpt lat="47.08013" lon="4.89942">
        <ele>231</ele>
        <time>2014-04-25T11:36:54Z</time>
      </trkpt>
      <trkpt lat="47.0801" lon="4.89933">
        <ele>231</ele>
        <time>2014-04-25T11:37:06Z</time>
      </trkpt>
      <trkpt lat="47.08009" lon="4.89924">
        <ele>230</ele>
        <time>2014-04-25T11:37:10Z</time>
      </trkpt>
      <trkpt lat="47.08007" lon="4.89919">
        <ele>230</ele>
        <time>2014-04-25T11:37:13Z</time>
      </trkpt>
      <trkpt lat="47.08005" lon="4.89912">
        <ele>230</ele>
        <time>2014-04-25T11:37:16Z</time>
      </trkpt>
      <trkpt lat="47.08002" lon="4.89905">
        <ele>230</ele>
        <time>2014-04-25T11:37:20Z</time>
      </trkpt>
      <trkpt lat="47.07998" lon="4.89897">
        <ele>229</ele>
        <time>2014-04-25T11:37:33Z</time>
      </trkpt>
      <trkpt lat="47.07997" lon="4.89893">
        <ele>229</ele>
        <time>2014-04-25T11:37:40Z</time>
      </trkpt>
      <trkpt lat="47.07994" lon="4.89887">
        <ele>229</ele>
        <time>2014-04-25T11:37:49Z</time>
      </trkpt>
      <trkpt lat="47.07992" lon="4.8988">
        <ele>229</ele>
        <time>2014-04-25T11:37:52Z</time>
      </trkpt>
      <trkpt lat="47.07989" lon="4.89872">
        <ele>229</ele>
        <time>2014-04-25T11:37:56Z</time>
      </trkpt>
      <trkpt lat="47.07985" lon="4.89865">
        <ele>229</ele>
        <time>2014-04-25T11:37:59Z</time>
      </trkpt>
      <trkpt lat="47.07983" lon="4.89859">
        <ele>229</ele>
        <time>2014-04-25T11:38:04Z</time>
      </trkpt>
      <trkpt lat="47.07981" lon="4.89853">
        <ele>229</ele>
        <time>2014-04-25T11:38:08Z</time>
      </trkpt>
      <trkpt lat="47.07978" lon="4.89847">
        <ele>229</ele>
        <time>2014-04-25T11:38:12Z</time>
      </trkpt>
      <trkpt lat="47.07975" lon="4.89841">
        <ele>229</ele>
        <time>2014-04-25T11:38:16Z</time>
      </trkpt>
      <trkpt lat="47.07973" lon="4.89834">
        <ele>229</ele>
        <time>2014-04-25T11:38:22Z</time>
      </trkpt>
      <trkpt lat="47.0797" lon="4.89828">
        <ele>228</ele>
        <time>2014-04-25T11:38:26Z</time>
      </trkpt>
      <trkpt lat="47.07967" lon="4.89821">
        <ele>228</ele>
        <time>2014-04-25T11:38:31Z</time>
      </trkpt>
      <trkpt lat="47.07964" lon="4.89814">
        <ele>228</ele>
        <time>2014-04-25T11:38:36Z</time>
      </trkpt>
      <trkpt lat="47.07961" lon="4.89809">
        <ele>228</ele>
        <time>2014-04-25T11:38:40Z</time>
      </trkpt>
      <trkpt lat="47.07959" lon="4.89803">
        <ele>228</ele>
        <time>2014-04-25T11:38:44Z</time>
      </trkpt>
      <trkpt lat="47.07956" lon="4.89797">
        <ele>228</ele>
        <time>2014-04-25T11:38:48Z</time>
      </trkpt>
      <trkpt lat="47.07951" lon="4.89789">
        <ele>228</ele>
        <time>2014-04-25T11:39:15Z</time>
      </trkpt>
      <trkpt lat="47.07948" lon="4.89783">
        <ele>228</ele>
        <time>2014-04-25T11:39:19Z</time>
      </trkpt>
      <trkpt lat="47.07945" lon="4.89776">
        <ele>228</ele>
        <time>2014-04-25T11:39:23Z</time>
      </trkpt>
      <trkpt lat="47.07942" lon="4.8977">
        <ele>228</ele>
        <time>2014-04-25T11:39:27Z</time>
      </trkpt>
      <trkpt lat="47.0794" lon="4.89764">
        <ele>228</ele>
        <time>2014-04-25T11:39:31Z</time>
      </trkpt>
      <trkpt lat="47.07937" lon="4.89759">
        <ele>228</ele>
        <time>2014-04-25T11:39:34Z</time>
      </trkpt>
      <trkpt lat="47.07934" lon="4.89752">
        <ele>228</ele>
        <time>2014-04-25T11:39:39Z</time>
      </trkpt>
      <trkpt lat="47.0793" lon="4.89747">
        <ele>227</ele>
        <time>2014-04-25T11:39:43Z</time>
      </trkpt>
      <trkpt lat="47.07927" lon="4.89742">
        <ele>227</ele>
        <time>2014-04-25T11:39:48Z</time>
      </trkpt>
      <trkpt lat="47.07923" lon="4.89738">
        <ele>227</ele>
        <time>2014-04-25T11:39:58Z</time>
      </trkpt>
      <trkpt lat="47.07918" lon="4.89733">
        <ele>227</ele>
        <time>2014-04-25T11:40:02Z</time>
      </trkpt>
      <trkpt lat="47.07915" lon="4.89728">
        <ele>226</ele>
        <time>2014-04-25T11:40:06Z</time>
      </trkpt>
      <trkpt lat="47.07911" lon="4.89723">
        <ele>226</ele>
        <time>2014-04-25T11:40:10Z</time>
      </trkpt>
      <trkpt lat="47.07907" lon="4.89719">
        <ele>226</ele>
        <time>2014-04-25T11:40:24Z</time>
      </trkpt>
      <trkpt lat="47.07903" lon="4.89716">
        <ele>226</ele>
        <time>2014-04-25T11:40:37Z</time>
      </trkpt>
      <trkpt lat="47.07901" lon="4.89709">
        <ele>226</ele>
        <time>2014-04-25T11:40:42Z</time>
      </trkpt>
      <trkpt lat="47.07901" lon="4.89702">
        <ele>226</ele>
        <time>2014-04-25T11:40:47Z</time>
      </trkpt>
      <trkpt lat="47.07898" lon="4.89697">
        <ele>226</ele>
        <time>2014-04-25T11:40:51Z</time>
      </trkpt>
      <trkpt lat="47.07893" lon="4.89692">
        <ele>226</ele>
        <time>2014-04-25T11:40:54Z</time>
      </trkpt>
      <trkpt lat="47.07889" lon="4.89688">
        <ele>226</ele>
        <time>2014-04-25T11:41:00Z</time>
      </trkpt>
      <trkpt lat="47.07885" lon="4.89683">
        <ele>226</ele>
        <time>2014-04-25T11:41:05Z</time>
      </trkpt>
      <trkpt lat="47.07883" lon="4.89676">
        <ele>225</ele>
        <time>2014-04-25T11:41:10Z</time>
      </trkpt>
      <trkpt lat="47.07883" lon="4.89669">
        <ele>225</ele>
        <time>2014-04-25T11:41:16Z</time>
      </trkpt>
      <trkpt lat="47.0788" lon="4.89665">
        <ele>225</ele>
        <time>2014-04-25T11:41:32Z</time>
      </trkpt>
      <trkpt lat="47.07878" lon="4.89659">
        <ele>225</ele>
        <time>2014-04-25T11:41:35Z</time>
      </trkpt>
      <trkpt lat="47.07876" lon="4.89652">
        <ele>225</ele>
        <time>2014-04-25T11:41:38Z</time>
      </trkpt>
      <trkpt lat="47.07874" lon="4.89644">
        <ele>225</ele>
        <time>2014-04-25T11:41:42Z</time>
      </trkpt>
      <trkpt lat="47.07872" lon="4.89637">
        <ele>225</ele>
        <time>2014-04-25T11:41:46Z</time>
      </trkpt>
      <trkpt lat="47.07869" lon="4.8963">
        <ele>225</ele>
        <time>2014-04-25T11:41:50Z</time>
      </trkpt>
      <trkpt lat="47.07866" lon="4.89624">
        <ele>225</ele>
        <time>2014-04-25T11:41:54Z</time>
      </trkpt>
      <trkpt lat="47.07864" lon="4.89617">
        <ele>225</ele>
        <time>2014-04-25T11:41:58Z</time>
      </trkpt>
      <trkpt lat="47.07862" lon="4.89611">
        <ele>224</ele>
        <time>2014-04-25T11:42:02Z</time>
      </trkpt>
      <trkpt lat="47.07859" lon="4.89603">
        <ele>224</ele>
        <time>2014-04-25T11:42:06Z</time>
      </trkpt>
      <trkpt lat="47.07857" lon="4.89596">
        <ele>224</ele>
        <time>2014-04-25T11:42:10Z</time>
      </trkpt>
      <trkpt lat="47.07855" lon="4.89589">
        <ele>224</ele>
        <time>2014-04-25T11:42:14Z</time>
      </trkpt>
      <trkpt lat="47.07853" lon="4.89583">
        <ele>224</ele>
        <time>2014-04-25T11:42:18Z</time>
      </trkpt>
      <trkpt lat="47.0785" lon="4.89576">
        <ele>224</ele>
        <time>2014-04-25T11:42:22Z</time>
      </trkpt>
      <trkpt lat="47.07848" lon="4.89569">
        <ele>224</ele>
        <time>2014-04-25T11:42:26Z</time>
      </trkpt>
      <trkpt lat="47.07846" lon="4.89561">
        <ele>224</ele>
        <time>2014-04-25T11:42:31Z</time>
      </trkpt>
      <trkpt lat="47.07843" lon="4.89555">
        <ele>224</ele>
        <time>2014-04-25T11:42:35Z</time>
      </trkpt>
      <trkpt lat="47.07841" lon="4.89549">
        <ele>224</ele>
        <time>2014-04-25T11:42:39Z</time>
      </trkpt>
      <trkpt lat="47.07839" lon="4.89543">
        <ele>224</ele>
        <time>2014-04-25T11:42:43Z</time>
      </trkpt>
      <trkpt lat="47.07839" lon="4.89535">
        <ele>224</ele>
        <time>2014-04-25T11:42:47Z</time>
      </trkpt>
      <trkpt lat="47.07837" lon="4.89528">
        <ele>224</ele>
        <time>2014-04-25T11:42:51Z</time>
      </trkpt>
      <trkpt lat="47.07835" lon="4.89522">
        <ele>224</ele>
        <time>2014-04-25T11:42:55Z</time>
      </trkpt>
      <trkpt lat="47.07834" lon="4.89515">
        <ele>224</ele>
        <time>2014-04-25T11:42:59Z</time>
      </trkpt>
      <trkpt lat="47.07833" lon="4.89508">
        <ele>223</ele>
        <time>2014-04-25T11:43:04Z</time>
      </trkpt>
      <trkpt lat="47.07831" lon="4.89502">
        <ele>223</ele>
        <time>2014-04-25T11:43:07Z</time>
      </trkpt>
      <trkpt lat="47.0783" lon="4.89494">
        <ele>223</ele>
        <time>2014-04-25T11:43:11Z</time>
      </trkpt>
      <trkpt lat="47.07828" lon="4.89488">
        <ele>223</ele>
        <time>2014-04-25T11:43:15Z</time>
      </trkpt>
      <trkpt lat="47.07826" lon="4.89481">
        <ele>223</ele>
        <time>2014-04-25T11:43:20Z</time>
      </trkpt>
      <trkpt lat="47.07826" lon="4.89473">
        <ele>223</ele>
        <time>2014-04-25T11:43:28Z</time>
      </trkpt>
      <trkpt lat="47.07825" lon="4.89467">
        <ele>223</ele>
        <time>2014-04-25T11:43:32Z</time>
      </trkpt>
      <trkpt lat="47.07823" lon="4.8946">
        <ele>223</ele>
        <time>2014-04-25T11:43:36Z</time>
      </trkpt>
      <trkpt lat="47.07821" lon="4.89453">
        <ele>224</ele>
        <time>2014-04-25T11:43:40Z</time>
      </trkpt>
      <trkpt lat="47.07819" lon="4.89446">
        <ele>224</ele>
        <time>2014-04-25T11:43:45Z</time>
      </trkpt>
      <trkpt lat="47.07817" lon="4.8944">
        <ele>224</ele>
        <time>2014-04-25T11:43:49Z</time>
      </trkpt>
      <trkpt lat="47.07815" lon="4.89432">
        <ele>224</ele>
        <time>2014-04-25T11:43:53Z</time>
      </trkpt>
      <trkpt lat="47.07813" lon="4.89426">
        <ele>224</ele>
        <time>2014-04-25T11:43:57Z</time>
      </trkpt>
      <trkpt lat="47.07811" lon="4.8942">
        <ele>224</ele>
        <time>2014-04-25T11:44:01Z</time>
      </trkpt>
      <trkpt lat="47.0781" lon="4.89413">
        <ele>225</ele>
        <time>2014-04-25T11:44:05Z</time>
      </trkpt>
      <trkpt lat="47.07809" lon="4.89406">
        <ele>225</ele>
        <time>2014-04-25T11:44:09Z</time>
      </trkpt>
      <trkpt lat="47.07808" lon="4.89399">
        <ele>225</ele>
        <time>2014-04-25T11:44:13Z</time>
      </trkpt>
      <trkpt lat="47.07807" lon="4.89392">
        <ele>225</ele>
        <time>2014-04-25T11:44:17Z</time>
      </trkpt>
      <trkpt lat="47.07805" lon="4.89385">
        <ele>225</ele>
        <time>2014-04-25T11:44:21Z</time>
      </trkpt>
      <trkpt lat="47.07804" lon="4.89378">
        <ele>225</ele>
        <time>2014-04-25T11:44:25Z</time>
      </trkpt>
      <trkpt lat="47.07802" lon="4.89371">
        <ele>225</ele>
        <time>2014-04-25T11:44:29Z</time>
      </trkpt>
      <trkpt lat="47.07801" lon="4.89364">
        <ele>225</ele>
        <time>2014-04-25T11:44:33Z</time>
      </trkpt>
      <trkpt lat="47.07799" lon="4.89357">
        <ele>225</ele>
        <time>2014-04-25T11:44:37Z</time>
      </trkpt>
      <trkpt lat="47.07797" lon="4.8935">
        <ele>225</ele>
        <time>2014-04-25T11:44:43Z</time>
      </trkpt>
      <trkpt lat="47.07795" lon="4.89343">
        <ele>225</ele>
        <time>2014-04-25T11:44:46Z</time>
      </trkpt>
      <trkpt lat="47.07794" lon="4.89339">
        <ele>225</ele>
        <time>2014-04-25T11:44:53Z</time>
      </trkpt>
      <trkpt lat="47.07792" lon="4.8933">
        <ele>226</ele>
        <time>2014-04-25T11:45:14Z</time>
      </trkpt>
      <trkpt lat="47.07789" lon="4.89324">
        <ele>226</ele>
        <time>2014-04-25T11:45:18Z</time>
      </trkpt>
      <trkpt lat="47.07786" lon="4.89318">
        <ele>226</ele>
        <time>2014-04-25T11:45:21Z</time>
      </trkpt>
      <trkpt lat="47.07782" lon="4.89311">
        <ele>226</ele>
        <time>2014-04-25T11:45:24Z</time>
      </trkpt>
      <trkpt lat="47.07778" lon="4.89306">
        <ele>226</ele>
        <time>2014-04-25T11:45:28Z</time>
      </trkpt>
      <trkpt lat="47.07776" lon="4.89301">
        <ele>226</ele>
        <time>2014-04-25T11:45:32Z</time>
      </trkpt>
      <trkpt lat="47.07774" lon="4.89293">
        <ele>226</ele>
        <time>2014-04-25T11:45:38Z</time>
      </trkpt>
      <trkpt lat="47.07772" lon="4.89287">
        <ele>226</ele>
        <time>2014-04-25T11:45:42Z</time>
      </trkpt>
      <trkpt lat="47.0777" lon="4.89281">
        <ele>226</ele>
        <time>2014-04-25T11:45:46Z</time>
      </trkpt>
      <trkpt lat="47.07767" lon="4.89274">
        <ele>226</ele>
        <time>2014-04-25T11:45:51Z</time>
      </trkpt>
      <trkpt lat="47.07763" lon="4.89268">
        <ele>225</ele>
        <time>2014-04-25T11:45:55Z</time>
      </trkpt>
      <trkpt lat="47.07761" lon="4.89262">
        <ele>225</ele>
        <time>2014-04-25T11:45:58Z</time>
      </trkpt>
      <trkpt lat="47.07757" lon="4.89257">
        <ele>225</ele>
        <time>2014-04-25T11:46:01Z</time>
      </trkpt>
      <trkpt lat="47.07752" lon="4.89252">
        <ele>225</ele>
        <time>2014-04-25T11:46:03Z</time>
      </trkpt>
      <trkpt lat="47.07748" lon="4.89248">
        <ele>225</ele>
        <time>2014-04-25T11:46:05Z</time>
      </trkpt>
      <trkpt lat="47.07746" lon="4.89245">
        <ele>225</ele>
        <time>2014-04-25T11:46:07Z</time>
      </trkpt>
      <trkpt lat="47.07743" lon="4.89239">
        <ele>225</ele>
        <time>2014-04-25T11:46:13Z</time>
      </trkpt>
      <trkpt lat="47.07739" lon="4.89235">
        <ele>225</ele>
        <time>2014-04-25T11:46:15Z</time>
      </trkpt>
      <trkpt lat="47.07738" lon="4.89228">
        <ele>225</ele>
        <time>2014-04-25T11:46:20Z</time>
      </trkpt>
      <trkpt lat="47.07736" lon="4.89221">
        <ele>226</ele>
        <time>2014-04-25T11:46:24Z</time>
      </trkpt>
      <trkpt lat="47.07733" lon="4.89214">
        <ele>226</ele>
        <time>2014-04-25T11:46:28Z</time>
      </trkpt>
      <trkpt lat="47.07729" lon="4.89209">
        <ele>226</ele>
        <time>2014-04-25T11:46:33Z</time>
      </trkpt>
      <trkpt lat="47.07732" lon="4.89203">
        <ele>226</ele>
        <time>2014-04-25T11:46:37Z</time>
      </trkpt>
      <trkpt lat="47.07729" lon="4.89196">
        <ele>226</ele>
        <time>2014-04-25T11:46:43Z</time>
      </trkpt>
      <trkpt lat="47.07725" lon="4.8919">
        <ele>226</ele>
        <time>2014-04-25T11:46:47Z</time>
      </trkpt>
      <trkpt lat="47.07723" lon="4.89183">
        <ele>226</ele>
        <time>2014-04-25T11:46:51Z</time>
      </trkpt>
      <trkpt lat="47.0772" lon="4.89184">
        <ele>226</ele>
        <time>2014-04-25T11:47:08Z</time>
      </trkpt>
      <trkpt lat="47.07718" lon="4.89178">
        <ele>226</ele>
        <time>2014-04-25T11:47:11Z</time>
      </trkpt>
      <trkpt lat="47.07715" lon="4.89173">
        <ele>226</ele>
        <time>2014-04-25T11:47:16Z</time>
      </trkpt>
      <trkpt lat="47.07712" lon="4.89166">
        <ele>227</ele>
        <time>2014-04-25T11:47:18Z</time>
      </trkpt>
      <trkpt lat="47.0771" lon="4.89159">
        <ele>227</ele>
        <time>2014-04-25T11:47:21Z</time>
      </trkpt>
      <trkpt lat="47.07708" lon="4.89152">
        <ele>227</ele>
        <time>2014-04-25T11:47:25Z</time>
      </trkpt>
      <trkpt lat="47.07707" lon="4.89145">
        <ele>227</ele>
        <time>2014-04-25T11:47:28Z</time>
      </trkpt>
      <trkpt lat="47.07703" lon="4.89141">
        <ele>227</ele>
        <time>2014-04-25T11:47:33Z</time>
      </trkpt>
      <trkpt lat="47.07698" lon="4.89136">
        <ele>227</ele>
        <time>2014-04-25T11:47:37Z</time>
      </trkpt>
      <trkpt lat="47.07697" lon="4.89128">
        <ele>227</ele>
        <time>2014-04-25T11:47:41Z</time>
      </trkpt>
      <trkpt lat="47.07697" lon="4.89119">
        <ele>227</ele>
        <time>2014-04-25T11:47:44Z</time>
      </trkpt>
      <trkpt lat="47.07697" lon="4.89111">
        <ele>227</ele>
        <time>2014-04-25T11:47:48Z</time>
      </trkpt>
      <trkpt lat="47.07694" lon="4.89105">
        <ele>227</ele>
        <time>2014-04-25T11:47:53Z</time>
      </trkpt>
      <trkpt lat="47.0769" lon="4.89099">
        <ele>226</ele>
        <time>2014-04-25T11:47:56Z</time>
      </trkpt>
      <trkpt lat="47.07688" lon="4.89093">
        <ele>226</ele>
        <time>2014-04-25T11:47:59Z</time>
      </trkpt>
      <trkpt lat="47.07684" lon="4.89091">
        <ele>226</ele>
        <time>2014-04-25T11:48:09Z</time>
      </trkpt>
      <trkpt lat="47.0768" lon="4.89084">
        <ele>226</ele>
        <time>2014-04-25T11:48:12Z</time>
      </trkpt>
      <trkpt lat="47.07679" lon="4.89077">
        <ele>226</ele>
        <time>2014-04-25T11:48:18Z</time>
      </trkpt>
      <trkpt lat="47.07679" lon="4.89069">
        <ele>226</ele>
        <time>2014-04-25T11:48:22Z</time>
      </trkpt>
      <trkpt lat="47.0768" lon="4.89065">
        <ele>227</ele>
        <time>2014-04-25T11:48:32Z</time>
      </trkpt>
      <trkpt lat="47.07677" lon="4.89056">
        <ele>227</ele>
        <time>2014-04-25T11:48:48Z</time>
      </trkpt>
      <trkpt lat="47.07675" lon="4.89048">
        <ele>227</ele>
        <time>2014-04-25T11:48:52Z</time>
      </trkpt>
      <trkpt lat="47.07674" lon="4.89042">
        <ele>227</ele>
        <time>2014-04-25T11:48:56Z</time>
      </trkpt>
      <trkpt lat="47.07672" lon="4.89034">
        <ele>227</ele>
        <time>2014-04-25T11:48:59Z</time>
      </trkpt>
      <trkpt lat="47.0767" lon="4.89026">
        <ele>227</ele>
        <time>2014-04-25T11:49:04Z</time>
      </trkpt>
      <trkpt lat="47.0767" lon="4.8902">
        <ele>227</ele>
        <time>2014-04-25T11:49:08Z</time>
      </trkpt>
      <trkpt lat="47.07669" lon="4.89013">
        <ele>227</ele>
        <time>2014-04-25T11:49:11Z</time>
      </trkpt>
      <trkpt lat="47.07668" lon="4.89006">
        <ele>227</ele>
        <time>2014-04-25T11:49:14Z</time>
      </trkpt>
      <trkpt lat="47.07668" lon="4.88998">
        <ele>227</ele>
        <time>2014-04-25T11:49:18Z</time>
      </trkpt>
      <trkpt lat="47.07667" lon="4.88991">
        <ele>226</ele>
        <time>2014-04-25T11:49:22Z</time>
      </trkpt>
      <trkpt lat="47.07667" lon="4.88983">
        <ele>228</ele>
        <time>2014-04-25T11:49:26Z</time>
      </trkpt>
      <trkpt lat="47.07666" lon="4.88976">
        <ele>226</ele>
        <time>2014-04-25T11:49:28Z</time>
      </trkpt>
      <trkpt lat="47.07665" lon="4.88968">
        <ele>225</ele>
        <time>2014-04-25T11:49:34Z</time>
      </trkpt>
      <trkpt lat="47.07664" lon="4.8896">
        <ele>225</ele>
        <time>2014-04-25T11:49:37Z</time>
      </trkpt>
      <trkpt lat="47.07662" lon="4.88952">
        <ele>225</ele>
        <time>2014-04-25T11:49:41Z</time>
      </trkpt>
      <trkpt lat="47.07658" lon="4.88945">
        <ele>225</ele>
        <time>2014-04-25T11:49:44Z</time>
      </trkpt>
      <trkpt lat="47.07656" lon="4.88938">
        <ele>225</ele>
        <time>2014-04-25T11:49:49Z</time>
      </trkpt>
      <trkpt lat="47.07656" lon="4.88931">
        <ele>226</ele>
        <time>2014-04-25T11:49:53Z</time>
      </trkpt>
      <trkpt lat="47.07655" lon="4.88923">
        <ele>226</ele>
        <time>2014-04-25T11:49:57Z</time>
      </trkpt>
      <trkpt lat="47.07655" lon="4.88916">
        <ele>226</ele>
        <time>2014-04-25T11:50:01Z</time>
      </trkpt>
      <trkpt lat="47.07654" lon="4.88908">
        <ele>226</ele>
        <time>2014-04-25T11:50:06Z</time>
      </trkpt>
      <trkpt lat="47.07653" lon="4.889">
        <ele>226</ele>
        <time>2014-04-25T11:50:10Z</time>
      </trkpt>
      <trkpt lat="47.07652" lon="4.88894">
        <ele>226</ele>
        <time>2014-04-25T11:50:14Z</time>
      </trkpt>
      <trkpt lat="47.07649" lon="4.88888">
        <ele>225</ele>
        <time>2014-04-25T11:50:18Z</time>
      </trkpt>
      <trkpt lat="47.07647" lon="4.88881">
        <ele>225</ele>
        <time>2014-04-25T11:50:23Z</time>
      </trkpt>
      <trkpt lat="47.07645" lon="4.88874">
        <ele>225</ele>
        <time>2014-04-25T11:50:28Z</time>
      </trkpt>
      <trkpt lat="47.07643" lon="4.88868">
        <ele>225</ele>
        <time>2014-04-25T11:50:32Z</time>
      </trkpt>
      <trkpt lat="47.07642" lon="4.8886">
        <ele>225</ele>
        <time>2014-04-25T11:50:37Z</time>
      </trkpt>
      <trkpt lat="47.0764" lon="4.88853">
        <ele>225</ele>
        <time>2014-04-25T11:50:40Z</time>
      </trkpt>
      <trkpt lat="47.0764" lon="4.88846">
        <ele>225</ele>
        <time>2014-04-25T11:50:46Z</time>
      </trkpt>
      <trkpt lat="47.07636" lon="4.88839">
        <ele>225</ele>
        <time>2014-04-25T11:50:50Z</time>
      </trkpt>
      <trkpt lat="47.07633" lon="4.88834">
        <ele>225</ele>
        <time>2014-04-25T11:50:53Z</time>
      </trkpt>
      <trkpt lat="47.0763" lon="4.88826">
        <ele>225</ele>
        <time>2014-04-25T11:50:56Z</time>
      </trkpt>
      <trkpt lat="47.0763" lon="4.88818">
        <ele>225</ele>
        <time>2014-04-25T11:51:01Z</time>
      </trkpt>
      <trkpt lat="47.07629" lon="4.8881">
        <ele>225</ele>
        <time>2014-04-25T11:51:04Z</time>
      </trkpt>
      <trkpt lat="47.07627" lon="4.88804">
        <ele>225</ele>
        <time>2014-04-25T11:51:08Z</time>
      </trkpt>
      <trkpt lat="47.07624" lon="4.88797">
        <ele>225</ele>
        <time>2014-04-25T11:51:11Z</time>
      </trkpt>
      <trkpt lat="47.07621" lon="4.88791">
        <ele>225</ele>
        <time>2014-04-25T11:51:14Z</time>
      </trkpt>
      <trkpt lat="47.0762" lon="4.88789">
        <ele>225</ele>
        <time>2014-04-25T11:51:37Z</time>
      </trkpt>
      <trkpt lat="47.07617" lon="4.8878">
        <ele>225</ele>
        <time>2014-04-25T11:51:40Z</time>
      </trkpt>
      <trkpt lat="47.07616" lon="4.88774">
        <ele>225</ele>
        <time>2014-04-25T11:51:43Z</time>
      </trkpt>
      <trkpt lat="47.07613" lon="4.88767">
        <ele>225</ele>
        <time>2014-04-25T11:51:48Z</time>
      </trkpt>
      <trkpt lat="47.07612" lon="4.88759">
        <ele>225</ele>
        <time>2014-04-25T11:51:54Z</time>
      </trkpt>
      <trkpt lat="47.0761" lon="4.88751">
        <ele>224</ele>
        <time>2014-04-25T11:51:59Z</time>
      </trkpt>
      <trkpt lat="47.07608" lon="4.88744">
        <ele>225</ele>
        <time>2014-04-25T11:52:01Z</time>
      </trkpt>
      <trkpt lat="47.07606" lon="4.88737">
        <ele>225</ele>
        <time>2014-04-25T11:52:04Z</time>
      </trkpt>
      <trkpt lat="47.07603" lon="4.88731">
        <ele>225</ele>
        <time>2014-04-25T11:52:08Z</time>
      </trkpt>
      <trkpt lat="47.07601" lon="4.88725">
        <ele>225</ele>
        <time>2014-04-25T11:52:12Z</time>
      </trkpt>
      <trkpt lat="47.07598" lon="4.88719">
        <ele>225</ele>
        <time>2014-04-25T11:52:16Z</time>
      </trkpt>
      <trkpt lat="47.07596" lon="4.88712">
        <ele>225</ele>
        <time>2014-04-25T11:52:20Z</time>
      </trkpt>
      <trkpt lat="47.07594" lon="4.88705">
        <ele>225</ele>
        <time>2014-04-25T11:52:24Z</time>
      </trkpt>
      <trkpt lat="47.07593" lon="4.88697">
        <ele>225</ele>
        <time>2014-04-25T11:52:28Z</time>
      </trkpt>
      <trkpt lat="47.07591" lon="4.88689">
        <ele>225</ele>
        <time>2014-04-25T11:52:32Z</time>
      </trkpt>
      <trkpt lat="47.07588" lon="4.88684">
        <ele>225</ele>
        <time>2014-04-25T11:52:36Z</time>
      </trkpt>
      <trkpt lat="47.07586" lon="4.88678">
        <ele>225</ele>
        <time>2014-04-25T11:52:40Z</time>
      </trkpt>
      <trkpt lat="47.07585" lon="4.88671">
        <ele>224</ele>
        <time>2014-04-25T11:52:43Z</time>
      </trkpt>
      <trkpt lat="47.07584" lon="4.88664">
        <ele>224</ele>
        <time>2014-04-25T11:52:47Z</time>
      </trkpt>
      <trkpt lat="47.07581" lon="4.88657">
        <ele>223</ele>
        <time>2014-04-25T11:52:52Z</time>
      </trkpt>
      <trkpt lat="47.07579" lon="4.8865">
        <ele>223</ele>
        <time>2014-04-25T11:52:56Z</time>
      </trkpt>
      <trkpt lat="47.07578" lon="4.88644">
        <ele>223</ele>
        <time>2014-04-25T11:52:59Z</time>
      </trkpt>
      <trkpt lat="47.07576" lon="4.88636">
        <ele>223</ele>
        <time>2014-04-25T11:53:03Z</time>
      </trkpt>
      <trkpt lat="47.07574" lon="4.88629">
        <ele>223</ele>
        <time>2014-04-25T11:53:06Z</time>
      </trkpt>
      <trkpt lat="47.07573" lon="4.88623">
        <ele>223</ele>
        <time>2014-04-25T11:53:11Z</time>
      </trkpt>
      <trkpt lat="47.0757" lon="4.88616">
        <ele>223</ele>
        <time>2014-04-25T11:53:16Z</time>
      </trkpt>
      <trkpt lat="47.07567" lon="4.8861">
        <ele>223</ele>
        <time>2014-04-25T11:53:20Z</time>
      </trkpt>
      <trkpt lat="47.07565" lon="4.88602">
        <ele>223</ele>
        <time>2014-04-25T11:53:24Z</time>
      </trkpt>
      <trkpt lat="47.07565" lon="4.88594">
        <ele>223</ele>
        <time>2014-04-25T11:53:28Z</time>
      </trkpt>
      <trkpt lat="47.07563" lon="4.88588">
        <ele>223</ele>
        <time>2014-04-25T11:53:32Z</time>
      </trkpt>
      <trkpt lat="47.07561" lon="4.88582">
        <ele>224</ele>
        <time>2014-04-25T11:53:38Z</time>
      </trkpt>
      <trkpt lat="47.07558" lon="4.88576">
        <ele>224</ele>
        <time>2014-04-25T11:53:43Z</time>
      </trkpt>
      <trkpt lat="47.07555" lon="4.8857">
        <ele>223</ele>
        <time>2014-04-25T11:53:47Z</time>
      </trkpt>
      <trkpt lat="47.07553" lon="4.88564">
        <ele>223</ele>
        <time>2014-04-25T11:53:49Z</time>
      </trkpt>
      <trkpt lat="47.07551" lon="4.88558">
        <ele>223</ele>
        <time>2014-04-25T11:53:53Z</time>
      </trkpt>
      <trkpt lat="47.07549" lon="4.88551">
        <ele>223</ele>
        <time>2014-04-25T11:53:56Z</time>
      </trkpt>
      <trkpt lat="47.07546" lon="4.88543">
        <ele>223</ele>
        <time>2014-04-25T11:54:00Z</time>
      </trkpt>
      <trkpt lat="47.07543" lon="4.88537">
        <ele>223</ele>
        <time>2014-04-25T11:54:02Z</time>
      </trkpt>
      <trkpt lat="47.07541" lon="4.88531">
        <ele>223</ele>
        <time>2014-04-25T11:54:05Z</time>
      </trkpt>
      <trkpt lat="47.07541" lon="4.88524">
        <ele>223</ele>
        <time>2014-04-25T11:54:12Z</time>
      </trkpt>
      <trkpt lat="47.07539" lon="4.88517">
        <ele>223</ele>
        <time>2014-04-25T11:54:16Z</time>
      </trkpt>
      <trkpt lat="47.07536" lon="4.88511">
        <ele>223</ele>
        <time>2014-04-25T11:54:17Z</time>
      </trkpt>
      <trkpt lat="47.07534" lon="4.88502">
        <ele>223</ele>
        <time>2014-04-25T11:54:20Z</time>
      </trkpt>
      <trkpt lat="47.07534" lon="4.88494">
        <ele>223</ele>
        <time>2014-04-25T11:54:23Z</time>
      </trkpt>
      <trkpt lat="47.07533" lon="4.88486">
        <ele>223</ele>
        <time>2014-04-25T11:54:28Z</time>
      </trkpt>
      <trkpt lat="47.07534" lon="4.88479">
        <ele>223</ele>
        <time>2014-04-25T11:54:34Z</time>
      </trkpt>
      <trkpt lat="47.07533" lon="4.8847">
        <ele>223</ele>
        <time>2014-04-25T11:54:38Z</time>
      </trkpt>
      <trkpt lat="47.07531" lon="4.88463">
        <ele>223</ele>
        <time>2014-04-25T11:54:43Z</time>
      </trkpt>
      <trkpt lat="47.07529" lon="4.88456">
        <ele>223</ele>
        <time>2014-04-25T11:54:46Z</time>
      </trkpt>
      <trkpt lat="47.07527" lon="4.8845">
        <ele>223</ele>
        <time>2014-04-25T11:54:50Z</time>
      </trkpt>
      <trkpt lat="47.07524" lon="4.88444">
        <ele>223</ele>
        <time>2014-04-25T11:54:54Z</time>
      </trkpt>
      <trkpt lat="47.07522" lon="4.88438">
        <ele>223</ele>
        <time>2014-04-25T11:54:58Z</time>
      </trkpt>
      <trkpt lat="47.07521" lon="4.88431">
        <ele>223</ele>
        <time>2014-04-25T11:55:03Z</time>
      </trkpt>
      <trkpt lat="47.0752" lon="4.88424">
        <ele>223</ele>
        <time>2014-04-25T11:55:07Z</time>
      </trkpt>
      <trkpt lat="47.07519" lon="4.88416">
        <ele>223</ele>
        <time>2014-04-25T11:55:11Z</time>
      </trkpt>
      <trkpt lat="47.07516" lon="4.8841">
        <ele>223</ele>
        <time>2014-04-25T11:55:15Z</time>
      </trkpt>
      <trkpt lat="47.07514" lon="4.88401">
        <ele>223</ele>
        <time>2014-04-25T11:55:19Z</time>
      </trkpt>
      <trkpt lat="47.07512" lon="4.88394">
        <ele>223</ele>
        <time>2014-04-25T11:55:22Z</time>
      </trkpt>
      <trkpt lat="47.07511" lon="4.88387">
        <ele>223</ele>
        <time>2014-04-25T11:55:26Z</time>
      </trkpt>
      <trkpt lat="47.07508" lon="4.88378">
        <ele>223</ele>
        <time>2014-04-25T11:55:31Z</time>
      </trkpt>
      <trkpt lat="47.07504" lon="4.88372">
        <ele>223</ele>
        <time>2014-04-25T11:55:34Z</time>
      </trkpt>
      <trkpt lat="47.07501" lon="4.88367">
        <ele>223</ele>
        <time>2014-04-25T11:55:38Z</time>
      </trkpt>
      <trkpt lat="47.075" lon="4.88359">
        <ele>223</ele>
        <time>2014-04-25T11:55:43Z</time>
      </trkpt>
      <trkpt lat="47.07498" lon="4.88353">
        <ele>222</ele>
        <time>2014-04-25T11:55:46Z</time>
      </trkpt>
      <trkpt lat="47.07496" lon="4.88344">
        <ele>222</ele>
        <time>2014-04-25T11:55:51Z</time>
      </trkpt>
      <trkpt lat="47.07493" lon="4.88337">
        <ele>222</ele>
        <time>2014-04-25T11:55:56Z</time>
      </trkpt>
      <trkpt lat="47.07489" lon="4.88332">
        <ele>222</ele>
        <time>2014-04-25T11:56:02Z</time>
      </trkpt>
      <trkpt lat="47.07488" lon="4.88325">
        <ele>222</ele>
        <time>2014-04-25T11:56:06Z</time>
      </trkpt>
      <trkpt lat="47.07489" lon="4.88318">
        <ele>222</ele>
        <time>2014-04-25T11:56:10Z</time>
      </trkpt>
      <trkpt lat="47.07487" lon="4.88309">
        <ele>222</ele>
        <time>2014-04-25T11:56:16Z</time>
      </trkpt>
      <trkpt lat="47.07484" lon="4.88303">
        <ele>222</ele>
        <time>2014-04-25T11:56:20Z</time>
      </trkpt>
      <trkpt lat="47.07483" lon="4.88295">
        <ele>222</ele>
        <time>2014-04-25T11:56:25Z</time>
      </trkpt>
      <trkpt lat="47.07481" lon="4.88288">
        <ele>222</ele>
        <time>2014-04-25T11:56:30Z</time>
      </trkpt>
      <trkpt lat="47.07479" lon="4.88281">
        <ele>222</ele>
        <time>2014-04-25T11:56:34Z</time>
      </trkpt>
      <trkpt lat="47.07476" lon="4.88275">
        <ele>222</ele>
        <time>2014-04-25T11:56:36Z</time>
      </trkpt>
      <trkpt lat="47.07474" lon="4.88268">
        <ele>222</ele>
        <time>2014-04-25T11:56:39Z</time>
      </trkpt>
      <trkpt lat="47.07471" lon="4.88261">
        <ele>222</ele>
        <time>2014-04-25T11:56:45Z</time>
      </trkpt>
      <trkpt lat="47.0747" lon="4.88253">
        <ele>222</ele>
        <time>2014-04-25T11:56:50Z</time>
      </trkpt>
      <trkpt lat="47.07465" lon="4.88243">
        <ele>222</ele>
        <time>2014-04-25T11:56:56Z</time>
      </trkpt>
      <trkpt lat="47.07462" lon="4.88237">
        <ele>222</ele>
        <time>2014-04-25T11:57:00Z</time>
      </trkpt>
      <trkpt lat="47.07458" lon="4.8823">
        <ele>222</ele>
        <time>2014-04-25T11:57:02Z</time>
      </trkpt>
      <trkpt lat="47.07456" lon="4.88223">
        <ele>221</ele>
        <time>2014-04-25T11:57:05Z</time>
      </trkpt>
      <trkpt lat="47.07454" lon="4.88217">
        <ele>221</ele>
        <time>2014-04-25T11:57:09Z</time>
      </trkpt>
      <trkpt lat="47.07452" lon="4.88211">
        <ele>221</ele>
        <time>2014-04-25T11:57:14Z</time>
      </trkpt>
      <trkpt lat="47.07449" lon="4.88204">
        <ele>221</ele>
        <time>2014-04-25T11:57:18Z</time>
      </trkpt>
      <trkpt lat="47.07447" lon="4.88197">
        <ele>221</ele>
        <time>2014-04-25T11:57:21Z</time>
      </trkpt>
      <trkpt lat="47.07445" lon="4.88191">
        <ele>221</ele>
        <time>2014-04-25T11:57:24Z</time>
      </trkpt>
      <trkpt lat="47.07443" lon="4.88185">
        <ele>221</ele>
        <time>2014-04-25T11:57:28Z</time>
      </trkpt>
      <trkpt lat="47.0744" lon="4.88179">
        <ele>221</ele>
        <time>2014-04-25T11:57:32Z</time>
      </trkpt>
      <trkpt lat="47.07437" lon="4.88174">
        <ele>221</ele>
        <time>2014-04-25T11:57:35Z</time>
      </trkpt>
      <trkpt lat="47.07434" lon="4.88168">
        <ele>221</ele>
        <time>2014-04-25T11:57:39Z</time>
      </trkpt>
      <trkpt lat="47.07431" lon="4.88162">
        <ele>221</ele>
        <time>2014-04-25T11:57:46Z</time>
      </trkpt>
      <trkpt lat="47.07429" lon="4.88156">
        <ele>221</ele>
        <time>2014-04-25T11:57:53Z</time>
      </trkpt>
      <trkpt lat="47.07426" lon="4.88151">
        <ele>221</ele>
        <time>2014-04-25T11:57:58Z</time>
      </trkpt>
      <trkpt lat="47.07424" lon="4.88144">
        <ele>221</ele>
        <time>2014-04-25T11:58:02Z</time>
      </trkpt>
      <trkpt lat="47.07422" lon="4.88137">
        <ele>221</ele>
        <time>2014-04-25T11:58:06Z</time>
      </trkpt>
      <trkpt lat="47.0742" lon="4.8813">
        <ele>221</ele>
        <time>2014-04-25T11:58:10Z</time>
      </trkpt>
      <trkpt lat="47.07417" lon="4.88123">
        <ele>221</ele>
        <time>2014-04-25T11:58:14Z</time>
      </trkpt>
      <trkpt lat="47.07415" lon="4.88117">
        <ele>221</ele>
        <time>2014-04-25T11:58:18Z</time>
      </trkpt>
      <trkpt lat="47.07414" lon="4.8811">
        <ele>221</ele>
        <time>2014-04-25T11:58:23Z</time>
      </trkpt>
      <trkpt lat="47.07412" lon="4.88103">
        <ele>221</ele>
        <time>2014-04-25T11:58:28Z</time>
      </trkpt>
      <trkpt lat="47.0741" lon="4.88096">
        <ele>221</ele>
        <time>2014-04-25T11:58:33Z</time>
      </trkpt>
      <trkpt lat="47.0741" lon="4.88089">
        <ele>221</ele>
        <time>2014-04-25T11:58:37Z</time>
      </trkpt>
      <trkpt lat="47.07407" lon="4.88082">
        <ele>221</ele>
        <time>2014-04-25T11:58:41Z</time>
      </trkpt>
      <trkpt lat="47.07406" lon="4.88076">
        <ele>221</ele>
        <time>2014-04-25T11:58:45Z</time>
      </trkpt>
      <trkpt lat="47.07404" lon="4.88068">
        <ele>221</ele>
        <time>2014-04-25T11:58:50Z</time>
      </trkpt>
      <trkpt lat="47.07402" lon="4.88061">
        <ele>221</ele>
        <time>2014-04-25T11:58:55Z</time>
      </trkpt>
      <trkpt lat="47.07399" lon="4.88055">
        <ele>221</ele>
        <time>2014-04-25T11:58:59Z</time>
      </trkpt>
      <trkpt lat="47.07397" lon="4.88049">
        <ele>221</ele>
        <time>2014-04-25T11:59:03Z</time>
      </trkpt>
      <trkpt lat="47.07395" lon="4.88043">
        <ele>221</ele>
        <time>2014-04-25T11:59:07Z</time>
      </trkpt>
      <trkpt lat="47.07391" lon="4.88036">
        <ele>220</ele>
        <time>2014-04-25T11:59:11Z</time>
      </trkpt>
      <trkpt lat="47.07388" lon="4.88029">
        <ele>220</ele>
        <time>2014-04-25T11:59:14Z</time>
      </trkpt>
      <trkpt lat="47.07387" lon="4.88022">
        <ele>220</ele>
        <time>2014-04-25T11:59:18Z</time>
      </trkpt>
      <trkpt lat="47.07386" lon="4.88014">
        <ele>220</ele>
        <time>2014-04-25T11:59:21Z</time>
      </trkpt>
      <trkpt lat="47.07384" lon="4.88007">
        <ele>220</ele>
        <time>2014-04-25T11:59:25Z</time>
      </trkpt>
      <trkpt lat="47.0738" lon="4.88001">
        <ele>220</ele>
        <time>2014-04-25T11:59:29Z</time>
      </trkpt>
      <trkpt lat="47.07377" lon="4.87995">
        <ele>220</ele>
        <time>2014-04-25T11:59:35Z</time>
      </trkpt>
      <trkpt lat="47.07376" lon="4.87988">
        <ele>220</ele>
        <time>2014-04-25T11:59:39Z</time>
      </trkpt>
      <trkpt lat="47.07373" lon="4.87983">
        <ele>220</ele>
        <time>2014-04-25T11:59:45Z</time>
      </trkpt>
      <trkpt lat="47.07368" lon="4.87978">
        <ele>220</ele>
        <time>2014-04-25T11:59:49Z</time>
      </trkpt>
      <trkpt lat="47.07367" lon="4.87971">
        <ele>220</ele>
        <time>2014-04-25T11:59:52Z</time>
      </trkpt>
      <trkpt lat="47.07366" lon="4.87965">
        <ele>220</ele>
        <time>2014-04-25T11:59:55Z</time>
      </trkpt>
      <trkpt lat="47.07366" lon="4.87958">
        <ele>220</ele>
        <time>2014-04-25T11:59:58Z</time>
      </trkpt>
      <trkpt lat="47.07363" lon="4.87962">
        <ele>220</ele>
        <time>2014-04-25T12:00:18Z</time>
      </trkpt>
      <trkpt lat="47.07359" lon="4.87967">
        <ele>220</ele>
        <time>2014-04-25T12:00:26Z</time>
      </trkpt>
      <trkpt lat="47.07358" lon="4.87958">
        <ele>220</ele>
        <time>2014-04-25T12:00:48Z</time>
      </trkpt>
      <trkpt lat="47.07356" lon="4.87952">
        <ele>220</ele>
        <time>2014-04-25T12:00:52Z</time>
      </trkpt>
      <trkpt lat="47.07354" lon="4.87946">
        <ele>220</ele>
        <time>2014-04-25T12:00:54Z</time>
      </trkpt>
      <trkpt lat="47.07351" lon="4.8794">
        <ele>220</ele>
        <time>2014-04-25T12:00:57Z</time>
      </trkpt>
      <trkpt lat="47.07346" lon="4.87939">
        <ele>220</ele>
        <time>2014-04-25T12:01:01Z</time>
      </trkpt>
      <trkpt lat="47.07341" lon="4.87934">
        <ele>220</ele>
        <time>2014-04-25T12:01:05Z</time>
      </trkpt>
      <trkpt lat="47.07338" lon="4.87926">
        <ele>219</ele>
        <time>2014-04-25T12:01:08Z</time>
      </trkpt>
      <trkpt lat="47.07336" lon="4.8792">
        <ele>219</ele>
        <time>2014-04-25T12:01:11Z</time>
      </trkpt>
      <trkpt lat="47.07332" lon="4.87914">
        <ele>219</ele>
        <time>2014-04-25T12:01:15Z</time>
      </trkpt>
      <trkpt lat="47.07332" lon="4.87907">
        <ele>219</ele>
        <time>2014-04-25T12:01:19Z</time>
      </trkpt>
      <trkpt lat="47.0733" lon="4.879">
        <ele>219</ele>
        <time>2014-04-25T12:01:23Z</time>
      </trkpt>
      <trkpt lat="47.07327" lon="4.87894">
        <ele>219</ele>
        <time>2014-04-25T12:01:27Z</time>
      </trkpt>
      <trkpt lat="47.07323" lon="4.8789">
        <ele>219</ele>
        <time>2014-04-25T12:01:31Z</time>
      </trkpt>
      <trkpt lat="47.07321" lon="4.87883">
        <ele>219</ele>
        <time>2014-04-25T12:01:36Z</time>
      </trkpt>
      <trkpt lat="47.07317" lon="4.87876">
        <ele>219</ele>
        <time>2014-04-25T12:01:41Z</time>
      </trkpt>
      <trkpt lat="47.07314" lon="4.87872">
        <ele>219</ele>
        <time>2014-04-25T12:01:45Z</time>
      </trkpt>
      <trkpt lat="47.07315" lon="4.87865">
        <ele>219</ele>
        <time>2014-04-25T12:01:49Z</time>
      </trkpt>
      <trkpt lat="47.07313" lon="4.87857">
        <ele>219</ele>
        <time>2014-04-25T12:01:53Z</time>
      </trkpt>
      <trkpt lat="47.0731" lon="4.8785">
        <ele>219</ele>
        <time>2014-04-25T12:01:57Z</time>
      </trkpt>
      <trkpt lat="47.07307" lon="4.87845">
        <ele>219</ele>
        <time>2014-04-25T12:02:00Z</time>
      </trkpt>
      <trkpt lat="47.07305" lon="4.87838">
        <ele>219</ele>
        <time>2014-04-25T12:02:04Z</time>
      </trkpt>
      <trkpt lat="47.07303" lon="4.87831">
        <ele>218</ele>
        <time>2014-04-25T12:02:09Z</time>
      </trkpt>
      <trkpt lat="47.07302" lon="4.87824">
        <ele>218</ele>
        <time>2014-04-25T12:02:14Z</time>
      </trkpt>
      <trkpt lat="47.07299" lon="4.87817">
        <ele>218</ele>
        <time>2014-04-25T12:02:19Z</time>
      </trkpt>
      <trkpt lat="47.07298" lon="4.8781">
        <ele>218</ele>
        <time>2014-04-25T12:02:24Z</time>
      </trkpt>
      <trkpt lat="47.07295" lon="4.87805">
        <ele>218</ele>
        <time>2014-04-25T12:02:28Z</time>
      </trkpt>
      <trkpt lat="47.07295" lon="4.87798">
        <ele>218</ele>
        <time>2014-04-25T12:02:31Z</time>
      </trkpt>
      <trkpt lat="47.07293" lon="4.8779">
        <ele>218</ele>
        <time>2014-04-25T12:02:35Z</time>
      </trkpt>
      <trkpt lat="47.07288" lon="4.87786">
        <ele>218</ele>
        <time>2014-04-25T12:02:38Z</time>
      </trkpt>
      <trkpt lat="47.07286" lon="4.87779">
        <ele>218</ele>
        <time>2014-04-25T12:02:44Z</time>
      </trkpt>
      <trkpt lat="47.07284" lon="4.87773">
        <ele>218</ele>
        <time>2014-04-25T12:02:48Z</time>
      </trkpt>
      <trkpt lat="47.07281" lon="4.87764">
        <ele>218</ele>
        <time>2014-04-25T12:02:52Z</time>
      </trkpt>
      <trkpt lat="47.07279" lon="4.87758">
        <ele>217</ele>
        <time>2014-04-25T12:02:55Z</time>
      </trkpt>
      <trkpt lat="47.07276" lon="4.87751">
        <ele>217</ele>
        <time>2014-04-25T12:02:59Z</time>
      </trkpt>
      <trkpt lat="47.07275" lon="4.87744">
        <ele>217</ele>
        <time>2014-04-25T12:03:03Z</time>
      </trkpt>
      <trkpt lat="47.07273" lon="4.87736">
        <ele>217</ele>
        <time>2014-04-25T12:03:08Z</time>
      </trkpt>
      <trkpt lat="47.07271" lon="4.87729">
        <ele>217</ele>
        <time>2014-04-25T12:03:12Z</time>
      </trkpt>
      <trkpt lat="47.07272" lon="4.87721">
        <ele>217</ele>
        <time>2014-04-25T12:03:19Z</time>
      </trkpt>
      <trkpt lat="47.07267" lon="4.87708">
        <ele>217</ele>
        <time>2014-04-25T12:03:26Z</time>
      </trkpt>
      <trkpt lat="47.07261" lon="4.87696">
        <ele>217</ele>
        <time>2014-04-25T12:03:32Z</time>
      </trkpt>
      <trkpt lat="47.07253" lon="4.87689">
        <ele>217</ele>
        <time>2014-04-25T12:03:37Z</time>
      </trkpt>
      <trkpt lat="47.0725" lon="4.87681">
        <ele>216</ele>
        <time>2014-04-25T12:03:41Z</time>
      </trkpt>
      <trkpt lat="47.07246" lon="4.87667">
        <ele>217</ele>
        <time>2014-04-25T12:03:48Z</time>
      </trkpt>
      <trkpt lat="47.07245" lon="4.87656">
        <ele>216</ele>
        <time>2014-04-25T12:03:53Z</time>
      </trkpt>
      <trkpt lat="47.07239" lon="4.87654">
        <ele>216</ele>
        <time>2014-04-25T12:03:56Z</time>
      </trkpt>
      <trkpt lat="47.07234" lon="4.8765">
        <ele>216</ele>
        <time>2014-04-25T12:03:59Z</time>
      </trkpt>
      <trkpt lat="47.07228" lon="4.8764">
        <ele>215</ele>
        <time>2014-04-25T12:04:06Z</time>
      </trkpt>
      <trkpt lat="47.0722" lon="4.87634">
        <ele>215</ele>
        <time>2014-04-25T12:04:13Z</time>
      </trkpt>
      <trkpt lat="47.0722" lon="4.87619">
        <ele>215</ele>
        <time>2014-04-25T12:04:20Z</time>
      </trkpt>
      <trkpt lat="47.07212" lon="4.8761">
        <ele>215</ele>
        <time>2014-04-25T12:04:29Z</time>
      </trkpt>
      <trkpt lat="47.07208" lon="4.87606">
        <ele>215</ele>
        <time>2014-04-25T12:04:33Z</time>
      </trkpt>
      <trkpt lat="47.07203" lon="4.87602">
        <ele>215</ele>
        <time>2014-04-25T12:04:37Z</time>
      </trkpt>
      <trkpt lat="47.07204" lon="4.87593">
        <ele>214</ele>
        <time>2014-04-25T12:04:41Z</time>
      </trkpt>
      <trkpt lat="47.07203" lon="4.87585">
        <ele>214</ele>
        <time>2014-04-25T12:04:45Z</time>
      </trkpt>
      <trkpt lat="47.07201" lon="4.87577">
        <ele>215</ele>
        <time>2014-04-25T12:04:49Z</time>
      </trkpt>
      <trkpt lat="47.07199" lon="4.8757">
        <ele>215</ele>
        <time>2014-04-25T12:04:53Z</time>
      </trkpt>
      <trkpt lat="47.07197" lon="4.87563">
        <ele>215</ele>
        <time>2014-04-25T12:04:57Z</time>
      </trkpt>
      <trkpt lat="47.07195" lon="4.87556">
        <ele>215</ele>
        <time>2014-04-25T12:05:02Z</time>
      </trkpt>
      <trkpt lat="47.07193" lon="4.8755">
        <ele>215</ele>
        <time>2014-04-25T12:05:06Z</time>
      </trkpt>
      <trkpt lat="47.07189" lon="4.87543">
        <ele>215</ele>
        <time>2014-04-25T12:05:12Z</time>
      </trkpt>
      <trkpt lat="47.07186" lon="4.87537">
        <ele>215</ele>
        <time>2014-04-25T12:05:15Z</time>
      </trkpt>
      <trkpt lat="47.07184" lon="4.8753">
        <ele>215</ele>
        <time>2014-04-25T12:05:19Z</time>
      </trkpt>
      <trkpt lat="47.07182" lon="4.87522">
        <ele>215</ele>
        <time>2014-04-25T12:05:24Z</time>
      </trkpt>
      <trkpt lat="47.07181" lon="4.87514">
        <ele>215</ele>
        <time>2014-04-25T12:05:29Z</time>
      </trkpt>
      <trkpt lat="47.07178" lon="4.87503">
        <ele>216</ele>
        <time>2014-04-25T12:05:54Z</time>
      </trkpt>
      <trkpt lat="47.07175" lon="4.87498">
        <ele>216</ele>
        <time>2014-04-25T12:05:58Z</time>
      </trkpt>
      <trkpt lat="47.07173" lon="4.87492">
        <ele>216</ele>
        <time>2014-04-25T12:06:03Z</time>
      </trkpt>
      <trkpt lat="47.07171" lon="4.87484">
        <ele>217</ele>
        <time>2014-04-25T12:06:07Z</time>
      </trkpt>
      <trkpt lat="47.07172" lon="4.87481">
        <ele>217</ele>
        <time>2014-04-25T12:06:13Z</time>
      </trkpt>
      <trkpt lat="47.07168" lon="4.87478">
        <ele>217</ele>
        <time>2014-04-25T12:06:20Z</time>
      </trkpt>
      <trkpt lat="47.07163" lon="4.87475">
        <ele>216</ele>
        <time>2014-04-25T12:06:25Z</time>
      </trkpt>
      <trkpt lat="47.07158" lon="4.87472">
        <ele>216</ele>
        <time>2014-04-25T12:06:32Z</time>
      </trkpt>
      <trkpt lat="47.07156" lon="4.87465">
        <ele>217</ele>
        <time>2014-04-25T12:06:37Z</time>
      </trkpt>
      <trkpt lat="47.07153" lon="4.87458">
        <ele>217</ele>
        <time>2014-04-25T12:06:41Z</time>
      </trkpt>
      <trkpt lat="47.07148" lon="4.87453">
        <ele>217</ele>
        <time>2014-04-25T12:06:46Z</time>
      </trkpt>
      <trkpt lat="47.07143" lon="4.87449">
        <ele>217</ele>
        <time>2014-04-25T12:06:50Z</time>
      </trkpt>
      <trkpt lat="47.07139" lon="4.87444">
        <ele>217</ele>
        <time>2014-04-25T12:06:54Z</time>
      </trkpt>
      <trkpt lat="47.07134" lon="4.87442">
        <ele>217</ele>
        <time>2014-04-25T12:06:58Z</time>
      </trkpt>
      <trkpt lat="47.07131" lon="4.87435">
        <ele>217</ele>
        <time>2014-04-25T12:07:04Z</time>
      </trkpt>
      <trkpt lat="47.07127" lon="4.87431">
        <ele>217</ele>
        <time>2014-04-25T12:07:06Z</time>
      </trkpt>
      <trkpt lat="47.07122" lon="4.87427">
        <ele>217</ele>
        <time>2014-04-25T12:07:10Z</time>
      </trkpt>
      <trkpt lat="47.07118" lon="4.87425">
        <ele>217</ele>
        <time>2014-04-25T12:07:13Z</time>
      </trkpt>
      <trkpt lat="47.07113" lon="4.87424">
        <ele>216</ele>
        <time>2014-04-25T12:07:18Z</time>
      </trkpt>
      <trkpt lat="47.07109" lon="4.8742">
        <ele>216</ele>
        <time>2014-04-25T12:07:21Z</time>
      </trkpt>
      <trkpt lat="47.07105" lon="4.87415">
        <ele>218</ele>
        <time>2014-04-25T12:07:25Z</time>
      </trkpt>
      <trkpt lat="47.071" lon="4.87412">
        <ele>218</ele>
        <time>2014-04-25T12:07:30Z</time>
      </trkpt>
      <trkpt lat="47.07096" lon="4.87407">
        <ele>218</ele>
        <time>2014-04-25T12:07:37Z</time>
      </trkpt>
      <trkpt lat="47.07091" lon="4.87404">
        <ele>218</ele>
        <time>2014-04-25T12:07:41Z</time>
      </trkpt>
      <trkpt lat="47.07088" lon="4.874">
        <ele>218</ele>
        <time>2014-04-25T12:07:44Z</time>
      </trkpt>
      <trkpt lat="47.07084" lon="4.87395">
        <ele>218</ele>
        <time>2014-04-25T12:07:47Z</time>
      </trkpt>
      <trkpt lat="47.07082" lon="4.87395">
        <ele>217</ele>
        <time>2014-04-25T12:08:08Z</time>
      </trkpt>
      <trkpt lat="47.07077" lon="4.87392">
        <ele>217</ele>
        <time>2014-04-25T12:08:13Z</time>
      </trkpt>
      <trkpt lat="47.07072" lon="4.87391">
        <ele>217</ele>
        <time>2014-04-25T12:08:17Z</time>
      </trkpt>
      <trkpt lat="47.07068" lon="4.87388">
        <ele>217</ele>
        <time>2014-04-25T12:08:23Z</time>
      </trkpt>
      <trkpt lat="47.07063" lon="4.87388">
        <ele>217</ele>
        <time>2014-04-25T12:08:29Z</time>
      </trkpt>
      <trkpt lat="47.0706" lon="4.87392">
        <ele>217</ele>
        <time>2014-04-25T12:08:33Z</time>
      </trkpt>
      <trkpt lat="47.07056" lon="4.87398">
        <ele>217</ele>
        <time>2014-04-25T12:08:35Z</time>
      </trkpt>
      <trkpt lat="47.07052" lon="4.87404">
        <ele>217</ele>
        <time>2014-04-25T12:08:39Z</time>
      </trkpt>
      <trkpt lat="47.0705" lon="4.8741">
        <ele>217</ele>
        <time>2014-04-25T12:08:43Z</time>
      </trkpt>
      <trkpt lat="47.07049" lon="4.87416">
        <ele>216</ele>
        <time>2014-04-25T12:08:46Z</time>
      </trkpt>
      <trkpt lat="47.07046" lon="4.87423">
        <ele>214</ele>
        <time>2014-04-25T12:08:51Z</time>
      </trkpt>
      <trkpt lat="47.07044" lon="4.87429">
        <ele>214</ele>
        <time>2014-04-25T12:08:55Z</time>
      </trkpt>
      <trkpt lat="47.0704" lon="4.87432">
        <ele>214</ele>
        <time>2014-04-25T12:09:00Z</time>
      </trkpt>
      <trkpt lat="47.07037" lon="4.87439">
        <ele>214</ele>
        <time>2014-04-25T12:09:07Z</time>
      </trkpt>
      <trkpt lat="47.07035" lon="4.87446">
        <ele>214</ele>
        <time>2014-04-25T12:09:10Z</time>
      </trkpt>
      <trkpt lat="47.07033" lon="4.87453">
        <ele>214</ele>
        <time>2014-04-25T12:09:15Z</time>
      </trkpt>
      <trkpt lat="47.07031" lon="4.8746">
        <ele>214</ele>
        <time>2014-04-25T12:09:17Z</time>
      </trkpt>
      <trkpt lat="47.07029" lon="4.87466">
        <ele>213</ele>
        <time>2014-04-25T12:09:20Z</time>
      </trkpt>
      <trkpt lat="47.07027" lon="4.87472">
        <ele>213</ele>
        <time>2014-04-25T12:09:26Z</time>
      </trkpt>
      <trkpt lat="47.07024" lon="4.87479">
        <ele>213</ele>
        <time>2014-04-25T12:09:30Z</time>
      </trkpt>
      <trkpt lat="47.07021" lon="4.87485">
        <ele>213</ele>
        <time>2014-04-25T12:09:34Z</time>
      </trkpt>
      <trkpt lat="47.07018" lon="4.8749">
        <ele>213</ele>
        <time>2014-04-25T12:09:38Z</time>
      </trkpt>
      <trkpt lat="47.07015" lon="4.87496">
        <ele>212</ele>
        <time>2014-04-25T12:09:41Z</time>
      </trkpt>
      <trkpt lat="47.07011" lon="4.87502">
        <ele>212</ele>
        <time>2014-04-25T12:09:45Z</time>
      </trkpt>
      <trkpt lat="47.07007" lon="4.87507">
        <ele>212</ele>
        <time>2014-04-25T12:09:50Z</time>
      </trkpt>
      <trkpt lat="47.07005" lon="4.87513">
        <ele>212</ele>
        <time>2014-04-25T12:09:53Z</time>
      </trkpt>
      <trkpt lat="47.07001" lon="4.8752">
        <ele>212</ele>
        <time>2014-04-25T12:09:56Z</time>
      </trkpt>
      <trkpt lat="47.06997" lon="4.87526">
        <ele>211</ele>
        <time>2014-04-25T12:09:59Z</time>
      </trkpt>
      <trkpt lat="47.06994" lon="4.87531">
        <ele>211</ele>
        <time>2014-04-25T12:10:02Z</time>
      </trkpt>
      <trkpt lat="47.06989" lon="4.87537">
        <ele>211</ele>
        <time>2014-04-25T12:10:06Z</time>
      </trkpt>
      <trkpt lat="47.06986" lon="4.87542">
        <ele>212</ele>
        <time>2014-04-25T12:10:11Z</time>
      </trkpt>
      <trkpt lat="47.06983" lon="4.87549">
        <ele>212</ele>
        <time>2014-04-25T12:10:15Z</time>
      </trkpt>
      <trkpt lat="47.06981" lon="4.87555">
        <ele>212</ele>
        <time>2014-04-25T12:10:19Z</time>
      </trkpt>
      <trkpt lat="47.06978" lon="4.87561">
        <ele>212</ele>
        <time>2014-04-25T12:10:22Z</time>
      </trkpt>
      <trkpt lat="47.06974" lon="4.87567">
        <ele>212</ele>
        <time>2014-04-25T12:10:25Z</time>
      </trkpt>
      <trkpt lat="47.0697" lon="4.8757">
        <ele>212</ele>
        <time>2014-04-25T12:10:28Z</time>
      </trkpt>
      <trkpt lat="47.06965" lon="4.87569">
        <ele>212</ele>
        <time>2014-04-25T12:10:32Z</time>
      </trkpt>
      <trkpt lat="47.06959" lon="4.87565">
        <ele>212</ele>
        <time>2014-04-25T12:10:35Z</time>
      </trkpt>
      <trkpt lat="47.06959" lon="4.87557">
        <ele>212</ele>
        <time>2014-04-25T12:10:38Z</time>
      </trkpt>
      <trkpt lat="47.0696" lon="4.8755">
        <ele>212</ele>
        <time>2014-04-25T12:10:40Z</time>
      </trkpt>
      <trkpt lat="47.06959" lon="4.87543">
        <ele>212</ele>
        <time>2014-04-25T12:10:43Z</time>
      </trkpt>
      <trkpt lat="47.06958" lon="4.87536">
        <ele>211</ele>
        <time>2014-04-25T12:10:50Z</time>
      </trkpt>
      <trkpt lat="47.06956" lon="4.87528">
        <ele>211</ele>
        <time>2014-04-25T12:10:53Z</time>
      </trkpt>
      <trkpt lat="47.06955" lon="4.87521">
        <ele>211</ele>
        <time>2014-04-25T12:10:57Z</time>
      </trkpt>
      <trkpt lat="47.06953" lon="4.87514">
        <ele>211</ele>
        <time>2014-04-25T12:11:02Z</time>
      </trkpt>
      <trkpt lat="47.0695" lon="4.87508">
        <ele>211</ele>
        <time>2014-04-25T12:11:08Z</time>
      </trkpt>
      <trkpt lat="47.06948" lon="4.87502">
        <ele>211</ele>
        <time>2014-04-25T12:11:13Z</time>
      </trkpt>
      <trkpt lat="47.06945" lon="4.87496">
        <ele>212</ele>
        <time>2014-04-25T12:11:16Z</time>
      </trkpt>
      <trkpt lat="47.06943" lon="4.87488">
        <ele>212</ele>
        <time>2014-04-25T12:11:20Z</time>
      </trkpt>
      <trkpt lat="47.0694" lon="4.87482">
        <ele>212</ele>
        <time>2014-04-25T12:11:24Z</time>
      </trkpt>
      <trkpt lat="47.06937" lon="4.87477">
        <ele>212</ele>
        <time>2014-04-25T12:11:28Z</time>
      </trkpt>
      <trkpt lat="47.06933" lon="4.8747">
        <ele>212</ele>
        <time>2014-04-25T12:11:32Z</time>
      </trkpt>
      <trkpt lat="47.06928" lon="4.87464">
        <ele>212</ele>
        <time>2014-04-25T12:11:36Z</time>
      </trkpt>
      <trkpt lat="47.06924" lon="4.8746">
        <ele>212</ele>
        <time>2014-04-25T12:11:39Z</time>
      </trkpt>
      <trkpt lat="47.0692" lon="4.87456">
        <ele>212</ele>
        <time>2014-04-25T12:11:44Z</time>
      </trkpt>
      <trkpt lat="47.06915" lon="4.87454">
        <ele>213</ele>
        <time>2014-04-25T12:11:47Z</time>
      </trkpt>
      <trkpt lat="47.0691" lon="4.87452">
        <ele>213</ele>
        <time>2014-04-25T12:11:52Z</time>
      </trkpt>
      <trkpt lat="47.06906" lon="4.87448">
        <ele>213</ele>
        <time>2014-04-25T12:11:56Z</time>
      </trkpt>
      <trkpt lat="47.06901" lon="4.87444">
        <ele>213</ele>
        <time>2014-04-25T12:12:00Z</time>
      </trkpt>
      <trkpt lat="47.06897" lon="4.87442">
        <ele>213</ele>
        <time>2014-04-25T12:12:04Z</time>
      </trkpt>
      <trkpt lat="47.06892" lon="4.87442">
        <ele>214</ele>
        <time>2014-04-25T12:12:08Z</time>
      </trkpt>
      <trkpt lat="47.06887" lon="4.87441">
        <ele>214</ele>
        <time>2014-04-25T12:12:11Z</time>
      </trkpt>
      <trkpt lat="47.06882" lon="4.8744">
        <ele>214</ele>
        <time>2014-04-25T12:12:15Z</time>
      </trkpt>
      <trkpt lat="47.06877" lon="4.87437">
        <ele>214</ele>
        <time>2014-04-25T12:12:19Z</time>
      </trkpt>
      <trkpt lat="47.06872" lon="4.87434">
        <ele>214</ele>
        <time>2014-04-25T12:12:23Z</time>
      </trkpt>
      <trkpt lat="47.06869" lon="4.87439">
        <ele>214</ele>
        <time>2014-04-25T12:12:29Z</time>
      </trkpt>
      <trkpt lat="47.06867" lon="4.87445">
        <ele>214</ele>
        <time>2014-04-25T12:12:34Z</time>
      </trkpt>
      <trkpt lat="47.06864" lon="4.87452">
        <ele>214</ele>
        <time>2014-04-25T12:12:40Z</time>
      </trkpt>
      <trkpt lat="47.06861" lon="4.87458">
        <ele>214</ele>
        <time>2014-04-25T12:12:44Z</time>
      </trkpt>
      <trkpt lat="47.06858" lon="4.87465">
        <ele>214</ele>
        <time>2014-04-25T12:12:49Z</time>
      </trkpt>
      <trkpt lat="47.06855" lon="4.8747">
        <ele>214</ele>
        <time>2014-04-25T12:12:53Z</time>
      </trkpt>
      <trkpt lat="47.06851" lon="4.87474">
        <ele>214</ele>
        <time>2014-04-25T12:12:56Z</time>
      </trkpt>
      <trkpt lat="47.06848" lon="4.87479">
        <ele>214</ele>
        <time>2014-04-25T12:13:00Z</time>
      </trkpt>
      <trkpt lat="47.06844" lon="4.87485">
        <ele>214</ele>
        <time>2014-04-25T12:13:05Z</time>
      </trkpt>
      <trkpt lat="47.06841" lon="4.87489">
        <ele>214</ele>
        <time>2014-04-25T12:13:09Z</time>
      </trkpt>
      <trkpt lat="47.06837" lon="4.87496">
        <ele>215</ele>
        <time>2014-04-25T12:13:13Z</time>
      </trkpt>
      <trkpt lat="47.06833" lon="4.87501">
        <ele>215</ele>
        <time>2014-04-25T12:13:16Z</time>
      </trkpt>
      <trkpt lat="47.0683" lon="4.87506">
        <ele>215</ele>
        <time>2014-04-25T12:13:18Z</time>
      </trkpt>
      <trkpt lat="47.06825" lon="4.8751">
        <ele>215</ele>
        <time>2014-04-25T12:13:22Z</time>
      </trkpt>
      <trkpt lat="47.06819" lon="4.87514">
        <ele>216</ele>
        <time>2014-04-25T12:13:26Z</time>
      </trkpt>
      <trkpt lat="47.06815" lon="4.87517">
        <ele>216</ele>
        <time>2014-04-25T12:13:29Z</time>
      </trkpt>
      <trkpt lat="47.0681" lon="4.87518">
        <ele>216</ele>
        <time>2014-04-25T12:13:33Z</time>
      </trkpt>
      <trkpt lat="47.06805" lon="4.87517">
        <ele>216</ele>
        <time>2014-04-25T12:13:36Z</time>
      </trkpt>
      <trkpt lat="47.06799" lon="4.87517">
        <ele>216</ele>
        <time>2014-04-25T12:13:39Z</time>
      </trkpt>
      <trkpt lat="47.06794" lon="4.87517">
        <ele>216</ele>
        <time>2014-04-25T12:13:43Z</time>
      </trkpt>
      <trkpt lat="47.06789" lon="4.87515">
        <ele>217</ele>
        <time>2014-04-25T12:13:46Z</time>
      </trkpt>
      <trkpt lat="47.06787" lon="4.87512">
        <ele>217</ele>
        <time>2014-04-25T12:13:52Z</time>
      </trkpt>
      <trkpt lat="47.06781" lon="4.87509">
        <ele>217</ele>
        <time>2014-04-25T12:14:03Z</time>
      </trkpt>
      <trkpt lat="47.06775" lon="4.87507">
        <ele>218</ele>
        <time>2014-04-25T12:14:06Z</time>
      </trkpt>
      <trkpt lat="47.06771" lon="4.87503">
        <ele>218</ele>
        <time>2014-04-25T12:14:12Z</time>
      </trkpt>
      <trkpt lat="47.06767" lon="4.87501">
        <ele>219</ele>
        <time>2014-04-25T12:14:17Z</time>
      </trkpt>
      <trkpt lat="47.06761" lon="4.87499">
        <ele>220</ele>
        <time>2014-04-25T12:14:20Z</time>
      </trkpt>
      <trkpt lat="47.06757" lon="4.87499">
        <ele>220</ele>
        <time>2014-04-25T12:14:22Z</time>
      </trkpt>
      <trkpt lat="47.06751" lon="4.87498">
        <ele>221</ele>
        <time>2014-04-25T12:14:25Z</time>
      </trkpt>
      <trkpt lat="47.06746" lon="4.87499">
        <ele>221</ele>
        <time>2014-04-25T12:14:29Z</time>
      </trkpt>
      <trkpt lat="47.06741" lon="4.87495">
        <ele>222</ele>
        <time>2014-04-25T12:14:35Z</time>
      </trkpt>
      <trkpt lat="47.06737" lon="4.87492">
        <ele>222</ele>
        <time>2014-04-25T12:14:37Z</time>
      </trkpt>
      <trkpt lat="47.06732" lon="4.87487">
        <ele>222</ele>
        <time>2014-04-25T12:14:39Z</time>
      </trkpt>
      <trkpt lat="47.0673" lon="4.87479">
        <ele>223</ele>
        <time>2014-04-25T12:14:42Z</time>
      </trkpt>
      <trkpt lat="47.06732" lon="4.8747">
        <ele>223</ele>
        <time>2014-04-25T12:14:45Z</time>
      </trkpt>
      <trkpt lat="47.06733" lon="4.87462">
        <ele>223</ele>
        <time>2014-04-25T12:14:48Z</time>
      </trkpt>
      <trkpt lat="47.06728" lon="4.87465">
        <ele>223</ele>
        <time>2014-04-25T12:14:55Z</time>
      </trkpt>
      <trkpt lat="47.06723" lon="4.87465">
        <ele>223</ele>
        <time>2014-04-25T12:15:04Z</time>
      </trkpt>
      <trkpt lat="47.06719" lon="4.87467">
        <ele>223</ele>
        <time>2014-04-25T12:15:08Z</time>
      </trkpt>
      <trkpt lat="47.06714" lon="4.87469">
        <ele>223</ele>
        <time>2014-04-25T12:15:10Z</time>
      </trkpt>
      <trkpt lat="47.06709" lon="4.87473">
        <ele>223</ele>
        <time>2014-04-25T12:15:13Z</time>
      </trkpt>
      <trkpt lat="47.06699" lon="4.87475">
        <ele>224</ele>
        <time>2014-04-25T12:15:21Z</time>
      </trkpt>
      <trkpt lat="47.06694" lon="4.87474">
        <ele>224</ele>
        <time>2014-04-25T12:15:26Z</time>
      </trkpt>
      <trkpt lat="47.06688" lon="4.87473">
        <ele>224</ele>
        <time>2014-04-25T12:15:30Z</time>
      </trkpt>
      <trkpt lat="47.06686" lon="4.87466">
        <ele>224</ele>
        <time>2014-04-25T12:15:38Z</time>
      </trkpt>
      <trkpt lat="47.06685" lon="4.87457">
        <ele>224</ele>
        <time>2014-04-25T12:15:40Z</time>
      </trkpt>
      <trkpt lat="47.06686" lon="4.87449">
        <ele>224</ele>
        <time>2014-04-25T12:15:44Z</time>
      </trkpt>
      <trkpt lat="47.06687" lon="4.87441">
        <ele>224</ele>
        <time>2014-04-25T12:15:46Z</time>
      </trkpt>
      <trkpt lat="47.06687" lon="4.87432">
        <ele>225</ele>
        <time>2014-04-25T12:15:50Z</time>
      </trkpt>
      <trkpt lat="47.06691" lon="4.8743">
        <ele>225</ele>
        <time>2014-04-25T12:16:00Z</time>
      </trkpt>
      <trkpt lat="47.06692" lon="4.87423">
        <ele>225</ele>
        <time>2014-04-25T12:16:05Z</time>
      </trkpt>
      <trkpt lat="47.06694" lon="4.87415">
        <ele>226</ele>
        <time>2014-04-25T12:16:10Z</time>
      </trkpt>
      <trkpt lat="47.06695" lon="4.87407">
        <ele>226</ele>
        <time>2014-04-25T12:16:13Z</time>
      </trkpt>
      <trkpt lat="47.06695" lon="4.87397">
        <ele>226</ele>
        <time>2014-04-25T12:16:18Z</time>
      </trkpt>
      <trkpt lat="47.06696" lon="4.8739">
        <ele>226</ele>
        <time>2014-04-25T12:16:21Z</time>
      </trkpt>
      <trkpt lat="47.06698" lon="4.87383">
        <ele>226</ele>
        <time>2014-04-25T12:16:24Z</time>
      </trkpt>
      <trkpt lat="47.067" lon="4.87376">
        <ele>226</ele>
        <time>2014-04-25T12:16:29Z</time>
      </trkpt>
      <trkpt lat="47.06701" lon="4.87368">
        <ele>226</ele>
        <time>2014-04-25T12:16:32Z</time>
      </trkpt>
      <trkpt lat="47.06703" lon="4.87361">
        <ele>226</ele>
        <time>2014-04-25T12:16:37Z</time>
      </trkpt>
      <trkpt lat="47.06705" lon="4.87354">
        <ele>226</ele>
        <time>2014-04-25T12:16:41Z</time>
      </trkpt>
      <trkpt lat="47.06707" lon="4.87348">
        <ele>226</ele>
        <time>2014-04-25T12:16:44Z</time>
      </trkpt>
      <trkpt lat="47.0671" lon="4.87341">
        <ele>226</ele>
        <time>2014-04-25T12:16:48Z</time>
      </trkpt>
      <trkpt lat="47.06712" lon="4.87335">
        <ele>226</ele>
        <time>2014-04-25T12:16:54Z</time>
      </trkpt>
      <trkpt lat="47.06713" lon="4.87328">
        <ele>228</ele>
        <time>2014-04-25T12:16:58Z</time>
      </trkpt>
      <trkpt lat="47.06715" lon="4.87322">
        <ele>228</ele>
        <time>2014-04-25T12:17:02Z</time>
      </trkpt>
      <trkpt lat="47.06717" lon="4.87313">
        <ele>228</ele>
        <time>2014-04-25T12:17:06Z</time>
      </trkpt>
      <trkpt lat="47.06718" lon="4.87305">
        <ele>229</ele>
        <time>2014-04-25T12:17:10Z</time>
      </trkpt>
      <trkpt lat="47.0672" lon="4.87297">
        <ele>229</ele>
        <time>2014-04-25T12:17:14Z</time>
      </trkpt>
      <trkpt lat="47.06722" lon="4.87289">
        <ele>229</ele>
        <time>2014-04-25T12:17:18Z</time>
      </trkpt>
      <trkpt lat="47.06724" lon="4.87284">
        <ele>229</ele>
        <time>2014-04-25T12:17:23Z</time>
      </trkpt>
      <trkpt lat="47.06726" lon="4.87278">
        <ele>229</ele>
        <time>2014-04-25T12:17:27Z</time>
      </trkpt>
      <trkpt lat="47.06729" lon="4.87271">
        <ele>229</ele>
        <time>2014-04-25T12:17:31Z</time>
      </trkpt>
      <trkpt lat="47.06731" lon="4.87264">
        <ele>230</ele>
        <time>2014-04-25T12:17:35Z</time>
      </trkpt>
      <trkpt lat="47.06736" lon="4.8726">
        <ele>230</ele>
        <time>2014-04-25T12:17:39Z</time>
      </trkpt>
      <trkpt lat="47.06737" lon="4.87253">
        <ele>230</ele>
        <time>2014-04-25T12:17:43Z</time>
      </trkpt>
      <trkpt lat="47.06738" lon="4.87245">
        <ele>231</ele>
        <time>2014-04-25T12:17:47Z</time>
      </trkpt>
      <trkpt lat="47.06737" lon="4.87237">
        <ele>232</ele>
        <time>2014-04-25T12:17:52Z</time>
      </trkpt>
      <trkpt lat="47.06736" lon="4.8723">
        <ele>232</ele>
        <time>2014-04-25T12:17:56Z</time>
      </trkpt>
      <trkpt lat="47.06739" lon="4.87223">
        <ele>232</ele>
        <time>2014-04-25T12:18:00Z</time>
      </trkpt>
      <trkpt lat="47.06738" lon="4.87215">
        <ele>232</ele>
        <time>2014-04-25T12:18:05Z</time>
      </trkpt>
      <trkpt lat="47.06737" lon="4.87207">
        <ele>232</ele>
        <time>2014-04-25T12:18:09Z</time>
      </trkpt>
      <trkpt lat="47.06738" lon="4.872">
        <ele>232</ele>
        <time>2014-04-25T12:18:13Z</time>
      </trkpt>
      <trkpt lat="47.06739" lon="4.87193">
        <ele>233</ele>
        <time>2014-04-25T12:18:17Z</time>
      </trkpt>
      <trkpt lat="47.0674" lon="4.87186">
        <ele>233</ele>
        <time>2014-04-25T12:18:22Z</time>
      </trkpt>
      <trkpt lat="47.06742" lon="4.87182">
        <ele>233</ele>
        <time>2014-04-25T12:18:33Z</time>
      </trkpt>
      <trkpt lat="47.06748" lon="4.87181">
        <ele>233</ele>
        <time>2014-04-25T12:18:36Z</time>
      </trkpt>
      <trkpt lat="47.06752" lon="4.8718">
        <ele>232</ele>
        <time>2014-04-25T12:18:41Z</time>
      </trkpt>
      <trkpt lat="47.06757" lon="4.87176">
        <ele>232</ele>
        <time>2014-04-25T12:18:46Z</time>
      </trkpt>
      <trkpt lat="47.0676" lon="4.8717">
        <ele>232</ele>
        <time>2014-04-25T12:18:50Z</time>
      </trkpt>
      <trkpt lat="47.06759" lon="4.87162">
        <ele>233</ele>
        <time>2014-04-25T12:18:55Z</time>
      </trkpt>
      <trkpt lat="47.0676" lon="4.87163">
        <ele>233</ele>
        <time>2014-04-25T12:19:24Z</time>
      </trkpt>
      <trkpt lat="47.06762" lon="4.87156">
        <ele>233</ele>
        <time>2014-04-25T12:19:27Z</time>
      </trkpt>
      <trkpt lat="47.06763" lon="4.87148">
        <ele>233</ele>
        <time>2014-04-25T12:19:31Z</time>
      </trkpt>
      <trkpt lat="47.06762" lon="4.87141">
        <ele>233</ele>
        <time>2014-04-25T12:19:35Z</time>
      </trkpt>
      <trkpt lat="47.06762" lon="4.87133">
        <ele>233</ele>
        <time>2014-04-25T12:19:40Z</time>
      </trkpt>
      <trkpt lat="47.06757" lon="4.87134">
        <ele>233</ele>
        <time>2014-04-25T12:19:56Z</time>
      </trkpt>
      <trkpt lat="47.06752" lon="4.87131">
        <ele>233</ele>
        <time>2014-04-25T12:19:59Z</time>
      </trkpt>
      <trkpt lat="47.0675" lon="4.87138">
        <ele>233</ele>
        <time>2014-04-25T12:20:05Z</time>
      </trkpt>
      <trkpt lat="47.06745" lon="4.87141">
        <ele>234</ele>
        <time>2014-04-25T12:20:10Z</time>
      </trkpt>
      <trkpt lat="47.06742" lon="4.87145">
        <ele>234</ele>
        <time>2014-04-25T12:20:33Z</time>
      </trkpt>
      <trkpt lat="47.06741" lon="4.87149">
        <ele>234</ele>
        <time>2014-04-25T12:20:39Z</time>
      </trkpt>
      <trkpt lat="47.06743" lon="4.87155">
        <ele>234</ele>
        <time>2014-04-25T12:20:56Z</time>
      </trkpt>
      <trkpt lat="47.06743" lon="4.87162">
        <ele>234</ele>
        <time>2014-04-25T12:20:59Z</time>
      </trkpt>
      <trkpt lat="47.06742" lon="4.87168">
        <ele>233</ele>
        <time>2014-04-25T12:21:06Z</time>
      </trkpt>
      <trkpt lat="47.06745" lon="4.87173">
        <ele>233</ele>
        <time>2014-04-25T12:21:13Z</time>
      </trkpt>
      <trkpt lat="47.06717" lon="4.87331">
        <ele>228</ele>
        <time>2014-04-25T12:32:49Z</time>
      </trkpt>
      <trkpt lat="47.06715" lon="4.87337">
        <ele>226</ele>
        <time>2014-04-25T12:33:06Z</time>
      </trkpt>
      <trkpt lat="47.06711" lon="4.87342">
        <ele>226</ele>
        <time>2014-04-25T12:33:13Z</time>
      </trkpt>
      <trkpt lat="47.06709" lon="4.87349">
        <ele>226</ele>
        <time>2014-04-25T12:33:18Z</time>
      </trkpt>
      <trkpt lat="47.06707" lon="4.87358">
        <ele>226</ele>
        <time>2014-04-25T12:33:24Z</time>
      </trkpt>
      <trkpt lat="47.06707" lon="4.87364">
        <ele>226</ele>
        <time>2014-04-25T12:33:26Z</time>
      </trkpt>
      <trkpt lat="47.06705" lon="4.87371">
        <ele>226</ele>
        <time>2014-04-25T12:33:29Z</time>
      </trkpt>
      <trkpt lat="47.06702" lon="4.87377">
        <ele>226</ele>
        <time>2014-04-25T12:33:32Z</time>
      </trkpt>
      <trkpt lat="47.067" lon="4.87385">
        <ele>226</ele>
        <time>2014-04-25T12:33:37Z</time>
      </trkpt>
      <trkpt lat="47.06698" lon="4.87392">
        <ele>226</ele>
        <time>2014-04-25T12:33:39Z</time>
      </trkpt>
      <trkpt lat="47.06696" lon="4.87399">
        <ele>226</ele>
        <time>2014-04-25T12:33:42Z</time>
      </trkpt>
      <trkpt lat="47.06695" lon="4.87406">
        <ele>226</ele>
        <time>2014-04-25T12:33:45Z</time>
      </trkpt>
      <trkpt lat="47.06694" lon="4.87413">
        <ele>226</ele>
        <time>2014-04-25T12:33:48Z</time>
      </trkpt>
      <trkpt lat="47.06693" lon="4.87419">
        <ele>225</ele>
        <time>2014-04-25T12:33:52Z</time>
      </trkpt>
      <trkpt lat="47.06691" lon="4.87426">
        <ele>225</ele>
        <time>2014-04-25T12:33:56Z</time>
      </trkpt>
      <trkpt lat="47.0669" lon="4.87434">
        <ele>224</ele>
        <time>2014-04-25T12:34:01Z</time>
      </trkpt>
      <trkpt lat="47.06687" lon="4.87442">
        <ele>224</ele>
        <time>2014-04-25T12:34:08Z</time>
      </trkpt>
      <trkpt lat="47.06687" lon="4.87449">
        <ele>224</ele>
        <time>2014-04-25T12:34:12Z</time>
      </trkpt>
      <trkpt lat="47.06686" lon="4.87457">
        <ele>224</ele>
        <time>2014-04-25T12:34:16Z</time>
      </trkpt>
      <trkpt lat="47.06684" lon="4.87464">
        <ele>224</ele>
        <time>2014-04-25T12:34:20Z</time>
      </trkpt>
      <trkpt lat="47.06682" lon="4.8747">
        <ele>224</ele>
        <time>2014-04-25T12:34:22Z</time>
      </trkpt>
      <trkpt lat="47.06681" lon="4.87477">
        <ele>224</ele>
        <time>2014-04-25T12:34:25Z</time>
      </trkpt>
      <trkpt lat="47.0668" lon="4.87484">
        <ele>224</ele>
        <time>2014-04-25T12:34:28Z</time>
      </trkpt>
      <trkpt lat="47.06678" lon="4.87492">
        <ele>224</ele>
        <time>2014-04-25T12:34:32Z</time>
      </trkpt>
      <trkpt lat="47.06676" lon="4.875">
        <ele>223</ele>
        <time>2014-04-25T12:34:36Z</time>
      </trkpt>
      <trkpt lat="47.06675" lon="4.87508">
        <ele>223</ele>
        <time>2014-04-25T12:34:40Z</time>
      </trkpt>
      <trkpt lat="47.06673" lon="4.87516">
        <ele>222</ele>
        <time>2014-04-25T12:34:45Z</time>
      </trkpt>
      <trkpt lat="47.0667" lon="4.87523">
        <ele>222</ele>
        <time>2014-04-25T12:34:49Z</time>
      </trkpt>
      <trkpt lat="47.06668" lon="4.87531">
        <ele>222</ele>
        <time>2014-04-25T12:34:53Z</time>
      </trkpt>
      <trkpt lat="47.06666" lon="4.87539">
        <ele>223</ele>
        <time>2014-04-25T12:34:56Z</time>
      </trkpt>
      <trkpt lat="47.06664" lon="4.87546">
        <ele>223</ele>
        <time>2014-04-25T12:35:00Z</time>
      </trkpt>
      <trkpt lat="47.06662" lon="4.87552">
        <ele>223</ele>
        <time>2014-04-25T12:35:04Z</time>
      </trkpt>
      <trkpt lat="47.06659" lon="4.87558">
        <ele>223</ele>
        <time>2014-04-25T12:35:08Z</time>
      </trkpt>
      <trkpt lat="47.06657" lon="4.87567">
        <ele>223</ele>
        <time>2014-04-25T12:35:13Z</time>
      </trkpt>
      <trkpt lat="47.06654" lon="4.87575">
        <ele>223</ele>
        <time>2014-04-25T12:35:17Z</time>
      </trkpt>
      <trkpt lat="47.06652" lon="4.87581">
        <ele>223</ele>
        <time>2014-04-25T12:35:20Z</time>
      </trkpt>
      <trkpt lat="47.06648" lon="4.87588">
        <ele>221</ele>
        <time>2014-04-25T12:35:25Z</time>
      </trkpt>
      <trkpt lat="47.06645" lon="4.87595">
        <ele>221</ele>
        <time>2014-04-25T12:35:30Z</time>
      </trkpt>
      <trkpt lat="47.06642" lon="4.87601">
        <ele>221</ele>
        <time>2014-04-25T12:35:35Z</time>
      </trkpt>
      <trkpt lat="47.0664" lon="4.87609">
        <ele>221</ele>
        <time>2014-04-25T12:35:39Z</time>
      </trkpt>
      <trkpt lat="47.06637" lon="4.87615">
        <ele>221</ele>
        <time>2014-04-25T12:35:43Z</time>
      </trkpt>
      <trkpt lat="47.06635" lon="4.87621">
        <ele>221</ele>
        <time>2014-04-25T12:35:46Z</time>
      </trkpt>
      <trkpt lat="47.06632" lon="4.87628">
        <ele>221</ele>
        <time>2014-04-25T12:35:50Z</time>
      </trkpt>
      <trkpt lat="47.06629" lon="4.87635">
        <ele>221</ele>
        <time>2014-04-25T12:35:55Z</time>
      </trkpt>
      <trkpt lat="47.06628" lon="4.87642">
        <ele>221</ele>
        <time>2014-04-25T12:35:58Z</time>
      </trkpt>
      <trkpt lat="47.06626" lon="4.87649">
        <ele>221</ele>
        <time>2014-04-25T12:36:02Z</time>
      </trkpt>
      <trkpt lat="47.06625" lon="4.87656">
        <ele>221</ele>
        <time>2014-04-25T12:36:06Z</time>
      </trkpt>
      <trkpt lat="47.06624" lon="4.87663">
        <ele>221</ele>
        <time>2014-04-25T12:36:11Z</time>
      </trkpt>
      <trkpt lat="47.06625" lon="4.8767">
        <ele>219</ele>
        <time>2014-04-25T12:36:16Z</time>
      </trkpt>
      <trkpt lat="47.06625" lon="4.87678">
        <ele>219</ele>
        <time>2014-04-25T12:36:21Z</time>
      </trkpt>
      <trkpt lat="47.06626" lon="4.87685">
        <ele>219</ele>
        <time>2014-04-25T12:36:26Z</time>
      </trkpt>
      <trkpt lat="47.06626" lon="4.87693">
        <ele>219</ele>
        <time>2014-04-25T12:36:29Z</time>
      </trkpt>
      <trkpt lat="47.06626" lon="4.87701">
        <ele>218</ele>
        <time>2014-04-25T12:36:33Z</time>
      </trkpt>
      <trkpt lat="47.06626" lon="4.8771">
        <ele>218</ele>
        <time>2014-04-25T12:36:37Z</time>
      </trkpt>
      <trkpt lat="47.06626" lon="4.87717">
        <ele>218</ele>
        <time>2014-04-25T12:36:39Z</time>
      </trkpt>
      <trkpt lat="47.06626" lon="4.87725">
        <ele>218</ele>
        <time>2014-04-25T12:36:43Z</time>
      </trkpt>
      <trkpt lat="47.06627" lon="4.87733">
        <ele>218</ele>
        <time>2014-04-25T12:36:48Z</time>
      </trkpt>
      <trkpt lat="47.06628" lon="4.87741">
        <ele>218</ele>
        <time>2014-04-25T12:36:52Z</time>
      </trkpt>
      <trkpt lat="47.06629" lon="4.87749">
        <ele>217</ele>
        <time>2014-04-25T12:36:56Z</time>
      </trkpt>
      <trkpt lat="47.06631" lon="4.87757">
        <ele>215</ele>
        <time>2014-04-25T12:37:01Z</time>
      </trkpt>
      <trkpt lat="47.06632" lon="4.87765">
        <ele>215</ele>
        <time>2014-04-25T12:37:05Z</time>
      </trkpt>
      <trkpt lat="47.06632" lon="4.87772">
        <ele>215</ele>
        <time>2014-04-25T12:37:08Z</time>
      </trkpt>
      <trkpt lat="47.06632" lon="4.87779">
        <ele>215</ele>
        <time>2014-04-25T12:37:13Z</time>
      </trkpt>
      <trkpt lat="47.06634" lon="4.87786">
        <ele>215</ele>
        <time>2014-04-25T12:37:16Z</time>
      </trkpt>
      <trkpt lat="47.06633" lon="4.87794">
        <ele>215</ele>
        <time>2014-04-25T12:37:21Z</time>
      </trkpt>
      <trkpt lat="47.06631" lon="4.87801">
        <ele>215</ele>
        <time>2014-04-25T12:37:25Z</time>
      </trkpt>
      <trkpt lat="47.06632" lon="4.87809">
        <ele>214</ele>
        <time>2014-04-25T12:37:29Z</time>
      </trkpt>
      <trkpt lat="47.06633" lon="4.87816">
        <ele>214</ele>
        <time>2014-04-25T12:37:33Z</time>
      </trkpt>
      <trkpt lat="47.06633" lon="4.87823">
        <ele>214</ele>
        <time>2014-04-25T12:37:37Z</time>
      </trkpt>
      <trkpt lat="47.06633" lon="4.87831">
        <ele>214</ele>
        <time>2014-04-25T12:37:42Z</time>
      </trkpt>
      <trkpt lat="47.06633" lon="4.87839">
        <ele>213</ele>
        <time>2014-04-25T12:37:45Z</time>
      </trkpt>
      <trkpt lat="47.06633" lon="4.87846">
        <ele>213</ele>
        <time>2014-04-25T12:37:48Z</time>
      </trkpt>
      <trkpt lat="47.06633" lon="4.87854">
        <ele>212</ele>
        <time>2014-04-25T12:37:52Z</time>
      </trkpt>
      <trkpt lat="47.06633" lon="4.87862">
        <ele>212</ele>
        <time>2014-04-25T12:37:57Z</time>
      </trkpt>
      <trkpt lat="47.06634" lon="4.87868">
        <ele>212</ele>
        <time>2014-04-25T12:38:01Z</time>
      </trkpt>
      <trkpt lat="47.06635" lon="4.87876">
        <ele>212</ele>
        <time>2014-04-25T12:38:04Z</time>
      </trkpt>
      <trkpt lat="47.06635" lon="4.87884">
        <ele>212</ele>
        <time>2014-04-25T12:38:08Z</time>
      </trkpt>
      <trkpt lat="47.06636" lon="4.87891">
        <ele>212</ele>
        <time>2014-04-25T12:38:11Z</time>
      </trkpt>
      <trkpt lat="47.06636" lon="4.87898">
        <ele>212</ele>
        <time>2014-04-25T12:38:14Z</time>
      </trkpt>
      <trkpt lat="47.06636" lon="4.87905">
        <ele>212</ele>
        <time>2014-04-25T12:38:17Z</time>
      </trkpt>
      <trkpt lat="47.06637" lon="4.87912">
        <ele>212</ele>
        <time>2014-04-25T12:38:21Z</time>
      </trkpt>
      <trkpt lat="47.06638" lon="4.87919">
        <ele>212</ele>
        <time>2014-04-25T12:38:27Z</time>
      </trkpt>
      <trkpt lat="47.06638" lon="4.87927">
        <ele>212</ele>
        <time>2014-04-25T12:38:31Z</time>
      </trkpt>
      <trkpt lat="47.06639" lon="4.87934">
        <ele>212</ele>
        <time>2014-04-25T12:38:36Z</time>
      </trkpt>
      <trkpt lat="47.0664" lon="4.87942">
        <ele>212</ele>
        <time>2014-04-25T12:38:41Z</time>
      </trkpt>
      <trkpt lat="47.06641" lon="4.8795">
        <ele>212</ele>
        <time>2014-04-25T12:38:44Z</time>
      </trkpt>
      <trkpt lat="47.06641" lon="4.87958">
        <ele>212</ele>
        <time>2014-04-25T12:38:48Z</time>
      </trkpt>
      <trkpt lat="47.06642" lon="4.87965">
        <ele>212</ele>
        <time>2014-04-25T12:38:52Z</time>
      </trkpt>
      <trkpt lat="47.06642" lon="4.87973">
        <ele>212</ele>
        <time>2014-04-25T12:38:55Z</time>
      </trkpt>
      <trkpt lat="47.06642" lon="4.8798">
        <ele>212</ele>
        <time>2014-04-25T12:38:59Z</time>
      </trkpt>
      <trkpt lat="47.06643" lon="4.87988">
        <ele>212</ele>
        <time>2014-04-25T12:39:03Z</time>
      </trkpt>
      <trkpt lat="47.06643" lon="4.87995">
        <ele>212</ele>
        <time>2014-04-25T12:39:07Z</time>
      </trkpt>
      <trkpt lat="47.06644" lon="4.88003">
        <ele>212</ele>
        <time>2014-04-25T12:39:12Z</time>
      </trkpt>
      <trkpt lat="47.06644" lon="4.88011">
        <ele>212</ele>
        <time>2014-04-25T12:39:17Z</time>
      </trkpt>
      <trkpt lat="47.06644" lon="4.88018">
        <ele>212</ele>
        <time>2014-04-25T12:39:21Z</time>
      </trkpt>
      <trkpt lat="47.06644" lon="4.88028">
        <ele>212</ele>
        <time>2014-04-25T12:39:36Z</time>
      </trkpt>
      <trkpt lat="47.06644" lon="4.88035">
        <ele>212</ele>
        <time>2014-04-25T12:39:39Z</time>
      </trkpt>
      <trkpt lat="47.06645" lon="4.88043">
        <ele>212</ele>
        <time>2014-04-25T12:39:42Z</time>
      </trkpt>
      <trkpt lat="47.06647" lon="4.88051">
        <ele>212</ele>
        <time>2014-04-25T12:39:46Z</time>
      </trkpt>
      <trkpt lat="47.06649" lon="4.88057">
        <ele>212</ele>
        <time>2014-04-25T12:39:48Z</time>
      </trkpt>
      <trkpt lat="47.06653" lon="4.88063">
        <ele>212</ele>
        <time>2014-04-25T12:39:52Z</time>
      </trkpt>
      <trkpt lat="47.06659" lon="4.88065">
        <ele>213</ele>
        <time>2014-04-25T12:39:56Z</time>
      </trkpt>
      <trkpt lat="47.06664" lon="4.88068">
        <ele>213</ele>
        <time>2014-04-25T12:40:01Z</time>
      </trkpt>
      <trkpt lat="47.06668" lon="4.8807">
        <ele>214</ele>
        <time>2014-04-25T12:40:07Z</time>
      </trkpt>
      <trkpt lat="47.0667" lon="4.88069">
        <ele>214</ele>
        <time>2014-04-25T12:40:13Z</time>
      </trkpt>
      <trkpt lat="47.06675" lon="4.88076">
        <ele>214</ele>
        <time>2014-04-25T12:40:23Z</time>
      </trkpt>
      <trkpt lat="47.0668" lon="4.88079">
        <ele>214</ele>
        <time>2014-04-25T12:40:28Z</time>
      </trkpt>
      <trkpt lat="47.06684" lon="4.88081">
        <ele>214</ele>
        <time>2014-04-25T12:40:33Z</time>
      </trkpt>
      <trkpt lat="47.06689" lon="4.88083">
        <ele>214</ele>
        <time>2014-04-25T12:40:38Z</time>
      </trkpt>
      <trkpt lat="47.06693" lon="4.88086">
        <ele>214</ele>
        <time>2014-04-25T12:40:42Z</time>
      </trkpt>
      <trkpt lat="47.06698" lon="4.88089">
        <ele>214</ele>
        <time>2014-04-25T12:40:45Z</time>
      </trkpt>
      <trkpt lat="47.06703" lon="4.88093">
        <ele>214</ele>
        <time>2014-04-25T12:40:49Z</time>
      </trkpt>
      <trkpt lat="47.06706" lon="4.88098">
        <ele>214</ele>
        <time>2014-04-25T12:40:55Z</time>
      </trkpt>
      <trkpt lat="47.0671" lon="4.88104">
        <ele>215</ele>
        <time>2014-04-25T12:41:00Z</time>
      </trkpt>
      <trkpt lat="47.06716" lon="4.88107">
        <ele>215</ele>
        <time>2014-04-25T12:41:03Z</time>
      </trkpt>
      <trkpt lat="47.06722" lon="4.88111">
        <ele>215</ele>
        <time>2014-04-25T12:41:06Z</time>
      </trkpt>
      <trkpt lat="47.06727" lon="4.88114">
        <ele>215</ele>
        <time>2014-04-25T12:41:10Z</time>
      </trkpt>
      <trkpt lat="47.06731" lon="4.88118">
        <ele>215</ele>
        <time>2014-04-25T12:41:13Z</time>
      </trkpt>
      <trkpt lat="47.06736" lon="4.88122">
        <ele>215</ele>
        <time>2014-04-25T12:41:16Z</time>
      </trkpt>
      <trkpt lat="47.0674" lon="4.88125">
        <ele>215</ele>
        <time>2014-04-25T12:41:20Z</time>
      </trkpt>
      <trkpt lat="47.06745" lon="4.88128">
        <ele>215</ele>
        <time>2014-04-25T12:41:23Z</time>
      </trkpt>
      <trkpt lat="47.06749" lon="4.88132">
        <ele>215</ele>
        <time>2014-04-25T12:41:27Z</time>
      </trkpt>
      <trkpt lat="47.06753" lon="4.88137">
        <ele>215</ele>
        <time>2014-04-25T12:41:31Z</time>
      </trkpt>
      <trkpt lat="47.06757" lon="4.88142">
        <ele>215</ele>
        <time>2014-04-25T12:41:34Z</time>
      </trkpt>
      <trkpt lat="47.06762" lon="4.88145">
        <ele>215</ele>
        <time>2014-04-25T12:41:37Z</time>
      </trkpt>
      <trkpt lat="47.06767" lon="4.88149">
        <ele>215</ele>
        <time>2014-04-25T12:41:41Z</time>
      </trkpt>
      <trkpt lat="47.06771" lon="4.88152">
        <ele>215</ele>
        <time>2014-04-25T12:41:44Z</time>
      </trkpt>
      <trkpt lat="47.06776" lon="4.88155">
        <ele>215</ele>
        <time>2014-04-25T12:41:47Z</time>
      </trkpt>
      <trkpt lat="47.0678" lon="4.8816">
        <ele>215</ele>
        <time>2014-04-25T12:41:51Z</time>
      </trkpt>
      <trkpt lat="47.06784" lon="4.88164">
        <ele>214</ele>
        <time>2014-04-25T12:41:55Z</time>
      </trkpt>
      <trkpt lat="47.06788" lon="4.88168">
        <ele>215</ele>
        <time>2014-04-25T12:41:58Z</time>
      </trkpt>
      <trkpt lat="47.06792" lon="4.88174">
        <ele>215</ele>
        <time>2014-04-25T12:42:02Z</time>
      </trkpt>
      <trkpt lat="47.06795" lon="4.8818">
        <ele>215</ele>
        <time>2014-04-25T12:42:06Z</time>
      </trkpt>
      <trkpt lat="47.068" lon="4.88184">
        <ele>215</ele>
        <time>2014-04-25T12:42:10Z</time>
      </trkpt>
      <trkpt lat="47.06797" lon="4.88191">
        <ele>215</ele>
        <time>2014-04-25T12:42:16Z</time>
      </trkpt>
      <trkpt lat="47.06792" lon="4.88195">
        <ele>215</ele>
        <time>2014-04-25T12:42:20Z</time>
      </trkpt>
      <trkpt lat="47.06788" lon="4.88199">
        <ele>215</ele>
        <time>2014-04-25T12:42:23Z</time>
      </trkpt>
      <trkpt lat="47.06784" lon="4.88205">
        <ele>215</ele>
        <time>2014-04-25T12:42:27Z</time>
      </trkpt>
      <trkpt lat="47.06781" lon="4.88211">
        <ele>215</ele>
        <time>2014-04-25T12:42:31Z</time>
      </trkpt>
      <trkpt lat="47.06778" lon="4.88217">
        <ele>215</ele>
        <time>2014-04-25T12:42:36Z</time>
      </trkpt>
      <trkpt lat="47.06774" lon="4.88223">
        <ele>215</ele>
        <time>2014-04-25T12:42:40Z</time>
      </trkpt>
      <trkpt lat="47.0677" lon="4.88228">
        <ele>215</ele>
        <time>2014-04-25T12:42:44Z</time>
      </trkpt>
      <trkpt lat="47.06767" lon="4.88234">
        <ele>215</ele>
        <time>2014-04-25T12:42:48Z</time>
      </trkpt>
      <trkpt lat="47.06763" lon="4.88241">
        <ele>215</ele>
        <time>2014-04-25T12:42:52Z</time>
      </trkpt>
      <trkpt lat="47.06759" lon="4.88246">
        <ele>215</ele>
        <time>2014-04-25T12:42:56Z</time>
      </trkpt>
      <trkpt lat="47.06756" lon="4.88251">
        <ele>215</ele>
        <time>2014-04-25T12:43:00Z</time>
      </trkpt>
      <trkpt lat="47.06752" lon="4.88257">
        <ele>215</ele>
        <time>2014-04-25T12:43:05Z</time>
      </trkpt>
      <trkpt lat="47.06749" lon="4.88263">
        <ele>215</ele>
        <time>2014-04-25T12:43:08Z</time>
      </trkpt>
      <trkpt lat="47.06744" lon="4.88268">
        <ele>215</ele>
        <time>2014-04-25T12:43:11Z</time>
      </trkpt>
      <trkpt lat="47.0674" lon="4.88274">
        <ele>215</ele>
        <time>2014-04-25T12:43:15Z</time>
      </trkpt>
      <trkpt lat="47.06738" lon="4.88281">
        <ele>215</ele>
        <time>2014-04-25T12:43:19Z</time>
      </trkpt>
      <trkpt lat="47.06736" lon="4.88289">
        <ele>215</ele>
        <time>2014-04-25T12:43:23Z</time>
      </trkpt>
      <trkpt lat="47.06733" lon="4.88296">
        <ele>215</ele>
        <time>2014-04-25T12:43:27Z</time>
      </trkpt>
      <trkpt lat="47.0673" lon="4.88302">
        <ele>215</ele>
        <time>2014-04-25T12:43:31Z</time>
      </trkpt>
      <trkpt lat="47.06727" lon="4.88308">
        <ele>215</ele>
        <time>2014-04-25T12:43:35Z</time>
      </trkpt>
      <trkpt lat="47.06723" lon="4.88313">
        <ele>215</ele>
        <time>2014-04-25T12:43:39Z</time>
      </trkpt>
      <trkpt lat="47.0672" lon="4.88319">
        <ele>215</ele>
        <time>2014-04-25T12:43:43Z</time>
      </trkpt>
      <trkpt lat="47.06717" lon="4.88326">
        <ele>216</ele>
        <time>2014-04-25T12:43:47Z</time>
      </trkpt>
      <trkpt lat="47.06714" lon="4.88332">
        <ele>216</ele>
        <time>2014-04-25T12:43:50Z</time>
      </trkpt>
      <trkpt lat="47.06713" lon="4.88339">
        <ele>215</ele>
        <time>2014-04-25T12:43:53Z</time>
      </trkpt>
      <trkpt lat="47.0671" lon="4.88347">
        <ele>215</ele>
        <time>2014-04-25T12:43:57Z</time>
      </trkpt>
      <trkpt lat="47.06709" lon="4.88353">
        <ele>215</ele>
        <time>2014-04-25T12:44:01Z</time>
      </trkpt>
      <trkpt lat="47.06707" lon="4.88361">
        <ele>215</ele>
        <time>2014-04-25T12:44:05Z</time>
      </trkpt>
      <trkpt lat="47.06704" lon="4.88368">
        <ele>215</ele>
        <time>2014-04-25T12:44:09Z</time>
      </trkpt>
      <trkpt lat="47.06701" lon="4.88375">
        <ele>215</ele>
        <time>2014-04-25T12:44:13Z</time>
      </trkpt>
      <trkpt lat="47.06697" lon="4.88381">
        <ele>215</ele>
        <time>2014-04-25T12:44:17Z</time>
      </trkpt>
      <trkpt lat="47.06692" lon="4.88385">
        <ele>215</ele>
        <time>2014-04-25T12:44:21Z</time>
      </trkpt>
      <trkpt lat="47.06689" lon="4.88392">
        <ele>215</ele>
        <time>2014-04-25T12:44:27Z</time>
      </trkpt>
      <trkpt lat="47.06689" lon="4.88401">
        <ele>215</ele>
        <time>2014-04-25T12:44:32Z</time>
      </trkpt>
      <trkpt lat="47.06689" lon="4.88407">
        <ele>215</ele>
        <time>2014-04-25T12:44:34Z</time>
      </trkpt>
      <trkpt lat="47.06688" lon="4.88414">
        <ele>215</ele>
        <time>2014-04-25T12:44:37Z</time>
      </trkpt>
      <trkpt lat="47.06686" lon="4.88421">
        <ele>214</ele>
        <time>2014-04-25T12:44:42Z</time>
      </trkpt>
      <trkpt lat="47.06684" lon="4.88428">
        <ele>214</ele>
        <time>2014-04-25T12:44:46Z</time>
      </trkpt>
      <trkpt lat="47.06683" lon="4.88435">
        <ele>214</ele>
        <time>2014-04-25T12:44:50Z</time>
      </trkpt>
      <trkpt lat="47.06682" lon="4.8844">
        <ele>214</ele>
        <time>2014-04-25T12:44:58Z</time>
      </trkpt>
      <trkpt lat="47.0668" lon="4.88446">
        <ele>214</ele>
        <time>2014-04-25T12:45:02Z</time>
      </trkpt>
      <trkpt lat="47.06677" lon="4.88452">
        <ele>214</ele>
        <time>2014-04-25T12:45:05Z</time>
      </trkpt>
      <trkpt lat="47.06673" lon="4.88458">
        <ele>214</ele>
        <time>2014-04-25T12:45:09Z</time>
      </trkpt>
      <trkpt lat="47.06671" lon="4.88465">
        <ele>214</ele>
        <time>2014-04-25T12:45:13Z</time>
      </trkpt>
      <trkpt lat="47.06668" lon="4.88473">
        <ele>214</ele>
        <time>2014-04-25T12:45:17Z</time>
      </trkpt>
      <trkpt lat="47.06664" lon="4.88479">
        <ele>213</ele>
        <time>2014-04-25T12:45:22Z</time>
      </trkpt>
      <trkpt lat="47.06662" lon="4.88486">
        <ele>213</ele>
        <time>2014-04-25T12:45:25Z</time>
      </trkpt>
      <trkpt lat="47.06661" lon="4.88489">
        <ele>213</ele>
        <time>2014-04-25T12:45:31Z</time>
      </trkpt>
      <trkpt lat="47.0666" lon="4.88497">
        <ele>213</ele>
        <time>2014-04-25T12:45:40Z</time>
      </trkpt>
      <trkpt lat="47.0666" lon="4.88505">
        <ele>213</ele>
        <time>2014-04-25T12:45:44Z</time>
      </trkpt>
      <trkpt lat="47.06659" lon="4.88513">
        <ele>213</ele>
        <time>2014-04-25T12:45:48Z</time>
      </trkpt>
      <trkpt lat="47.06656" lon="4.88519">
        <ele>213</ele>
        <time>2014-04-25T12:45:51Z</time>
      </trkpt>
      <trkpt lat="47.06653" lon="4.88525">
        <ele>213</ele>
        <time>2014-04-25T12:45:55Z</time>
      </trkpt>
      <trkpt lat="47.06652" lon="4.88532">
        <ele>213</ele>
        <time>2014-04-25T12:45:58Z</time>
      </trkpt>
      <trkpt lat="47.06651" lon="4.88539">
        <ele>213</ele>
        <time>2014-04-25T12:46:03Z</time>
      </trkpt>
      <trkpt lat="47.06648" lon="4.88545">
        <ele>213</ele>
        <time>2014-04-25T12:46:09Z</time>
      </trkpt>
      <trkpt lat="47.06646" lon="4.88553">
        <ele>213</ele>
        <time>2014-04-25T12:46:22Z</time>
      </trkpt>
      <trkpt lat="47.06643" lon="4.88559">
        <ele>213</ele>
        <time>2014-04-25T12:46:27Z</time>
      </trkpt>
      <trkpt lat="47.0664" lon="4.88566">
        <ele>213</ele>
        <time>2014-04-25T12:46:33Z</time>
      </trkpt>
      <trkpt lat="47.06638" lon="4.88572">
        <ele>213</ele>
        <time>2014-04-25T12:46:35Z</time>
      </trkpt>
      <trkpt lat="47.06637" lon="4.88575">
        <ele>213</ele>
        <time>2014-04-25T12:46:41Z</time>
      </trkpt>
      <trkpt lat="47.06642" lon="4.88579">
        <ele>213</ele>
        <time>2014-04-25T12:46:50Z</time>
      </trkpt>
      <trkpt lat="47.06646" lon="4.88582">
        <ele>213</ele>
        <time>2014-04-25T12:46:53Z</time>
      </trkpt>
      <trkpt lat="47.06651" lon="4.88585">
        <ele>213</ele>
        <time>2014-04-25T12:46:57Z</time>
      </trkpt>
      <trkpt lat="47.06656" lon="4.88588">
        <ele>213</ele>
        <time>2014-04-25T12:47:01Z</time>
      </trkpt>
      <trkpt lat="47.06659" lon="4.88592">
        <ele>213</ele>
        <time>2014-04-25T12:47:04Z</time>
      </trkpt>
      <trkpt lat="47.06663" lon="4.88598">
        <ele>213</ele>
        <time>2014-04-25T12:47:08Z</time>
      </trkpt>
      <trkpt lat="47.06666" lon="4.88604">
        <ele>213</ele>
        <time>2014-04-25T12:47:12Z</time>
      </trkpt>
      <trkpt lat="47.06667" lon="4.8861">
        <ele>213</ele>
        <time>2014-04-25T12:47:16Z</time>
      </trkpt>
      <trkpt lat="47.06669" lon="4.88618">
        <ele>213</ele>
        <time>2014-04-25T12:47:21Z</time>
      </trkpt>
      <trkpt lat="47.06673" lon="4.88622">
        <ele>213</ele>
        <time>2014-04-25T12:47:24Z</time>
      </trkpt>
      <trkpt lat="47.06678" lon="4.88627">
        <ele>213</ele>
        <time>2014-04-25T12:47:28Z</time>
      </trkpt>
      <trkpt lat="47.06687" lon="4.88638">
        <ele>213</ele>
        <time>2014-04-25T12:47:59Z</time>
      </trkpt>
      <trkpt lat="47.06687" lon="4.88646">
        <ele>213</ele>
        <time>2014-04-25T12:48:08Z</time>
      </trkpt>
      <trkpt lat="47.06686" lon="4.88654">
        <ele>214</ele>
        <time>2014-04-25T12:48:13Z</time>
      </trkpt>
      <trkpt lat="47.06687" lon="4.88661">
        <ele>214</ele>
        <time>2014-04-25T12:48:17Z</time>
      </trkpt>
      <trkpt lat="47.06689" lon="4.88668">
        <ele>214</ele>
        <time>2014-04-25T12:48:22Z</time>
      </trkpt>
      <trkpt lat="47.06691" lon="4.88674">
        <ele>214</ele>
        <time>2014-04-25T12:48:27Z</time>
      </trkpt>
      <trkpt lat="47.06689" lon="4.88681">
        <ele>214</ele>
        <time>2014-04-25T12:48:42Z</time>
      </trkpt>
      <trkpt lat="47.06685" lon="4.88677">
        <ele>214</ele>
        <time>2014-04-25T12:48:52Z</time>
      </trkpt>
      <trkpt lat="47.06684" lon="4.8867">
        <ele>214</ele>
        <time>2014-04-25T12:48:56Z</time>
      </trkpt>
      <trkpt lat="47.06684" lon="4.88663">
        <ele>214</ele>
        <time>2014-04-25T12:48:59Z</time>
      </trkpt>
      <trkpt lat="47.06682" lon="4.88657">
        <ele>214</ele>
        <time>2014-04-25T12:49:02Z</time>
      </trkpt>
      <trkpt lat="47.06677" lon="4.88653">
        <ele>214</ele>
        <time>2014-04-25T12:49:05Z</time>
      </trkpt>
      <trkpt lat="47.06674" lon="4.88658">
        <ele>214</ele>
        <time>2014-04-25T12:49:11Z</time>
      </trkpt>
      <trkpt lat="47.06673" lon="4.88665">
        <ele>214</ele>
        <time>2014-04-25T12:49:15Z</time>
      </trkpt>
      <trkpt lat="47.06669" lon="4.8867">
        <ele>214</ele>
        <time>2014-04-25T12:49:23Z</time>
      </trkpt>
      <trkpt lat="47.06666" lon="4.88655">
        <ele>214</ele>
        <time>2014-04-25T12:49:34Z</time>
      </trkpt>
      <trkpt lat="47.06655" lon="4.88652">
        <ele>214</ele>
        <time>2014-04-25T12:49:46Z</time>
      </trkpt>
      <trkpt lat="47.0665" lon="4.88653">
        <ele>214</ele>
        <time>2014-04-25T12:49:53Z</time>
      </trkpt>
      <trkpt lat="47.06644" lon="4.88654">
        <ele>214</ele>
        <time>2014-04-25T12:49:59Z</time>
      </trkpt>
      <trkpt lat="47.06641" lon="4.88649">
        <ele>214</ele>
        <time>2014-04-25T12:50:02Z</time>
      </trkpt>
      <trkpt lat="47.06637" lon="4.88646">
        <ele>214</ele>
        <time>2014-04-25T12:50:05Z</time>
      </trkpt>
      <trkpt lat="47.06632" lon="4.88645">
        <ele>214</ele>
        <time>2014-04-25T12:50:07Z</time>
      </trkpt>
      <trkpt lat="47.06626" lon="4.88648">
        <ele>214</ele>
        <time>2014-04-25T12:50:10Z</time>
      </trkpt>
      <trkpt lat="47.06619" lon="4.88667">
        <ele>213</ele>
        <time>2014-04-25T12:50:15Z</time>
      </trkpt>
      <trkpt lat="47.06616" lon="4.88671">
        <ele>213</ele>
        <time>2014-04-25T12:50:17Z</time>
      </trkpt>
      <trkpt lat="47.06613" lon="4.88669">
        <ele>213</ele>
        <time>2014-04-25T12:50:20Z</time>
      </trkpt>
      <trkpt lat="47.06613" lon="4.88659">
        <ele>213</ele>
        <time>2014-04-25T12:50:39Z</time>
      </trkpt>
      <trkpt lat="47.06605" lon="4.88653">
        <ele>213</ele>
        <time>2014-04-25T12:50:51Z</time>
      </trkpt>
      <trkpt lat="47.06601" lon="4.88651">
        <ele>213</ele>
        <time>2014-04-25T12:52:51Z</time>
      </trkpt>
      <trkpt lat="47.06602" lon="4.88652">
        <ele>213</ele>
        <time>2014-04-25T12:53:48Z</time>
      </trkpt>
      <trkpt lat="47.06605" lon="4.88657">
        <ele>213</ele>
        <time>2014-04-25T12:54:23Z</time>
      </trkpt>
      <trkpt lat="47.06602" lon="4.88659">
        <ele>213</ele>
        <time>2014-04-25T12:55:00Z</time>
      </trkpt>
      <trkpt lat="47.06605" lon="4.88658">
        <ele>213</ele>
        <time>2014-04-25T12:55:25Z</time>
      </trkpt>
      <trkpt lat="47.06609" lon="4.88664">
        <ele>213</ele>
        <time>2014-04-25T12:55:41Z</time>
      </trkpt>
      <trkpt lat="47.0661" lon="4.88667">
        <ele>213</ele>
        <time>2014-04-25T12:55:47Z</time>
      </trkpt>
      <trkpt lat="47.06611" lon="4.88655">
        <ele>213</ele>
        <time>2014-04-25T12:56:23Z</time>
      </trkpt>
      <trkpt lat="47.0662" lon="4.88657">
        <ele>213</ele>
        <time>2014-04-25T12:56:38Z</time>
      </trkpt>
      <trkpt lat="47.06624" lon="4.88652">
        <ele>213</ele>
        <time>2014-04-25T13:00:05Z</time>
      </trkpt>
      <trkpt lat="47.06629" lon="4.88652">
        <ele>214</ele>
        <time>2014-04-25T13:00:10Z</time>
      </trkpt>
      <trkpt lat="47.06634" lon="4.8865">
        <ele>214</ele>
        <time>2014-04-25T13:00:15Z</time>
      </trkpt>
      <trkpt lat="47.06639" lon="4.88646">
        <ele>214</ele>
        <time>2014-04-25T13:00:20Z</time>
      </trkpt>
      <trkpt lat="47.06646" lon="4.88656">
        <ele>214</ele>
        <time>2014-04-25T13:00:30Z</time>
      </trkpt>
      <trkpt lat="47.06655" lon="4.88661">
        <ele>214</ele>
        <time>2014-04-25T13:00:37Z</time>
      </trkpt>
      <trkpt lat="47.0666" lon="4.88665">
        <ele>214</ele>
        <time>2014-04-25T13:00:42Z</time>
      </trkpt>
      <trkpt lat="47.06664" lon="4.88667">
        <ele>214</ele>
        <time>2014-04-25T13:00:47Z</time>
      </trkpt>
      <trkpt lat="47.0667" lon="4.88667">
        <ele>214</ele>
        <time>2014-04-25T13:00:51Z</time>
      </trkpt>
      <trkpt lat="47.06674" lon="4.88666">
        <ele>214</ele>
        <time>2014-04-25T13:00:57Z</time>
      </trkpt>
      <trkpt lat="47.06679" lon="4.88669">
        <ele>214</ele>
        <time>2014-04-25T13:01:03Z</time>
      </trkpt>
      <trkpt lat="47.06683" lon="4.88674">
        <ele>214</ele>
        <time>2014-04-25T13:01:08Z</time>
      </trkpt>
      <trkpt lat="47.06686" lon="4.88679">
        <ele>214</ele>
        <time>2014-04-25T13:01:12Z</time>
      </trkpt>
      <trkpt lat="47.06682" lon="4.88682">
        <ele>214</ele>
        <time>2014-04-25T13:01:15Z</time>
      </trkpt>
      <trkpt lat="47.06679" lon="4.88687">
        <ele>214</ele>
        <time>2014-04-25T13:01:20Z</time>
      </trkpt>
      <trkpt lat="47.06683" lon="4.88691">
        <ele>214</ele>
        <time>2014-04-25T13:01:26Z</time>
      </trkpt>
      <trkpt lat="47.06685" lon="4.88689">
        <ele>214</ele>
        <time>2014-04-25T13:01:34Z</time>
      </trkpt>
      <trkpt lat="47.06693" lon="4.88694">
        <ele>214</ele>
        <time>2014-04-25T13:02:25Z</time>
      </trkpt>
      <trkpt lat="47.06602" lon="4.88659">
        <ele>213</ele>
        <time>2014-04-25T13:03:12Z</time>
      </trkpt>
      <trkpt lat="47.06605" lon="4.88658">
        <ele>213</ele>
        <time>2014-04-25T13:03:59Z</time>
      </trkpt>
      <trkpt lat="47.06609" lon="4.88664">
        <ele>213</ele>
        <time>2014-04-25T13:04:46Z</time>
      </trkpt>
      <trkpt lat="47.0661" lon="4.88667">
        <ele>213</ele>
        <time>2014-04-25T13:05:33Z</time>
      </trkpt>
      <trkpt lat="47.06611" lon="4.88655">
        <ele>213</ele>
        <time>2014-04-25T13:06:20Z</time>
      </trkpt>
      <trkpt lat="47.0662" lon="4.88657">
        <ele>213</ele>
        <time>2014-04-25T13:07:07Z</time>
      </trkpt>
      <trkpt lat="47.06624" lon="4.88652">
        <ele>213</ele>
        <time>2014-04-25T13:07:54Z</time>
      </trkpt>
      <trkpt lat="47.06629" lon="4.88652">
        <ele>214</ele>
        <time>2014-04-25T13:08:41Z</time>
      </trkpt>
      <trkpt lat="47.06634" lon="4.8865">
        <ele>214</ele>
        <time>2014-04-25T13:09:28Z</time>
      </trkpt>
      <trkpt lat="47.06639" lon="4.88646">
        <ele>214</ele>
        <time>2014-04-25T13:10:15Z</time>
      </trkpt>
      <trkpt lat="47.06646" lon="4.88656">
        <ele>214</ele>
        <time>2014-04-25T13:11:02Z</time>
      </trkpt>
      <trkpt lat="47.06655" lon="4.88661">
        <ele>214</ele>
        <time>2014-04-25T13:11:49Z</time>
      </trkpt>
      <trkpt lat="47.0666" lon="4.88665">
        <ele>214</ele>
        <time>2014-04-25T13:12:36Z</time>
      </trkpt>
      <trkpt lat="47.06664" lon="4.88667">
        <ele>214</ele>
        <time>2014-04-25T13:13:23Z</time>
      </trkpt>
      <trkpt lat="47.0667" lon="4.88667">
        <ele>214</ele>
        <time>2014-04-25T13:14:10Z</time>
      </trkpt>
      <trkpt lat="47.06674" lon="4.88666">
        <ele>214</ele>
        <time>2014-04-25T13:14:57Z</time>
      </trkpt>
      <trkpt lat="47.06679" lon="4.88669">
        <ele>214</ele>
        <time>2014-04-25T13:15:44Z</time>
      </trkpt>
      <trkpt lat="47.06683" lon="4.88674">
        <ele>214</ele>
        <time>2014-04-25T13:16:31Z</time>
      </trkpt>
      <trkpt lat="47.06686" lon="4.88679">
        <ele>214</ele>
        <time>2014-04-25T13:17:18Z</time>
      </trkpt>
      <trkpt lat="47.06682" lon="4.88682">
        <ele>214</ele>
        <time>2014-04-25T13:18:05Z</time>
      </trkpt>
      <trkpt lat="47.06679" lon="4.88687">
        <ele>214</ele>
        <time>2014-04-25T13:18:52Z</time>
      </trkpt>
      <trkpt lat="47.06683" lon="4.88691">
        <ele>214</ele>
        <time>2014-04-25T13:19:39Z</time>
      </trkpt>
      <trkpt lat="47.06685" lon="4.88689">
        <ele>214</ele>
        <time>2014-04-25T13:20:26Z</time>
      </trkpt>
      <trkpt lat="47.0658" lon="4.88677">
        <ele>212</ele>
        <time>2014-04-25T13:21:14Z</time>
      </trkpt>
      <trkpt lat="47.06577" lon="4.88676">
        <ele>212</ele>
        <time>2014-04-25T13:21:24Z</time>
      </trkpt>
      <trkpt lat="47.06572" lon="4.88678">
        <ele>212</ele>
        <time>2014-04-25T13:21:46Z</time>
      </trkpt>
      <trkpt lat="47.06567" lon="4.88683">
        <ele>212</ele>
        <time>2014-04-25T13:21:49Z</time>
      </trkpt>
      <trkpt lat="47.06365" lon="4.88579">
        <ele>209</ele>
        <time>2014-04-25T13:25:28Z</time>
      </trkpt>
      <trkpt lat="47.06359" lon="4.88576">
        <ele>209</ele>
        <time>2014-04-25T13:25:35Z</time>
      </trkpt>
      <trkpt lat="47.06354" lon="4.88572">
        <ele>209</ele>
        <time>2014-04-25T13:25:39Z</time>
      </trkpt>
      <trkpt lat="47.0635" lon="4.88569">
        <ele>209</ele>
        <time>2014-04-25T13:25:43Z</time>
      </trkpt>
      <trkpt lat="47.06345" lon="4.88565">
        <ele>209</ele>
        <time>2014-04-25T13:25:46Z</time>
      </trkpt>
      <trkpt lat="47.06342" lon="4.88563">
        <ele>209</ele>
        <time>2014-04-25T13:25:53Z</time>
      </trkpt>
      <trkpt lat="47.06338" lon="4.88563">
        <ele>209</ele>
        <time>2014-04-25T13:26:48Z</time>
      </trkpt>
      <trkpt lat="47.06333" lon="4.88561">
        <ele>209</ele>
        <time>2014-04-25T13:26:52Z</time>
      </trkpt>
      <trkpt lat="47.06328" lon="4.88555">
        <ele>209</ele>
        <time>2014-04-25T13:26:56Z</time>
      </trkpt>
      <trkpt lat="47.06323" lon="4.88551">
        <ele>209</ele>
        <time>2014-04-25T13:27:00Z</time>
      </trkpt>
      <trkpt lat="47.06319" lon="4.88547">
        <ele>210</ele>
        <time>2014-04-25T13:27:03Z</time>
      </trkpt>
      <trkpt lat="47.06315" lon="4.88543">
        <ele>210</ele>
        <time>2014-04-25T13:27:06Z</time>
      </trkpt>
      <trkpt lat="47.06311" lon="4.8854">
        <ele>210</ele>
        <time>2014-04-25T13:27:10Z</time>
      </trkpt>
      <trkpt lat="47.06306" lon="4.88535">
        <ele>210</ele>
        <time>2014-04-25T13:27:15Z</time>
      </trkpt>
      <trkpt lat="47.06303" lon="4.8853">
        <ele>210</ele>
        <time>2014-04-25T13:27:19Z</time>
      </trkpt>
      <trkpt lat="47.06298" lon="4.88525">
        <ele>210</ele>
        <time>2014-04-25T13:27:23Z</time>
      </trkpt>
      <trkpt lat="47.06294" lon="4.88521">
        <ele>210</ele>
        <time>2014-04-25T13:27:27Z</time>
      </trkpt>
      <trkpt lat="47.06289" lon="4.88516">
        <ele>210</ele>
        <time>2014-04-25T13:27:31Z</time>
      </trkpt>
      <trkpt lat="47.06284" lon="4.88513">
        <ele>210</ele>
        <time>2014-04-25T13:27:35Z</time>
      </trkpt>
      <trkpt lat="47.06279" lon="4.88512">
        <ele>210</ele>
        <time>2014-04-25T13:27:40Z</time>
      </trkpt>
      <trkpt lat="47.06274" lon="4.88507">
        <ele>210</ele>
        <time>2014-04-25T13:27:45Z</time>
      </trkpt>
      <trkpt lat="47.06268" lon="4.88504">
        <ele>210</ele>
        <time>2014-04-25T13:27:48Z</time>
      </trkpt>
      <trkpt lat="47.06264" lon="4.885">
        <ele>210</ele>
        <time>2014-04-25T13:27:51Z</time>
      </trkpt>
      <trkpt lat="47.06259" lon="4.88498">
        <ele>211</ele>
        <time>2014-04-25T13:27:55Z</time>
      </trkpt>
      <trkpt lat="47.06254" lon="4.88496">
        <ele>211</ele>
        <time>2014-04-25T13:27:58Z</time>
      </trkpt>
      <trkpt lat="47.06249" lon="4.88491">
        <ele>212</ele>
        <time>2014-04-25T13:28:02Z</time>
      </trkpt>
      <trkpt lat="47.06245" lon="4.88488">
        <ele>212</ele>
        <time>2014-04-25T13:28:06Z</time>
      </trkpt>
      <trkpt lat="47.06241" lon="4.88483">
        <ele>212</ele>
        <time>2014-04-25T13:28:10Z</time>
      </trkpt>
      <trkpt lat="47.06236" lon="4.8848">
        <ele>212</ele>
        <time>2014-04-25T13:28:16Z</time>
      </trkpt>
      <trkpt lat="47.06232" lon="4.88475">
        <ele>212</ele>
        <time>2014-04-25T13:28:19Z</time>
      </trkpt>
      <trkpt lat="47.06227" lon="4.8847">
        <ele>213</ele>
        <time>2014-04-25T13:28:22Z</time>
      </trkpt>
      <trkpt lat="47.06222" lon="4.88468">
        <ele>213</ele>
        <time>2014-04-25T13:28:25Z</time>
      </trkpt>
      <trkpt lat="47.06217" lon="4.88466">
        <ele>213</ele>
        <time>2014-04-25T13:28:29Z</time>
      </trkpt>
      <trkpt lat="47.06213" lon="4.88463">
        <ele>213</ele>
        <time>2014-04-25T13:28:37Z</time>
      </trkpt>
      <trkpt lat="47.06208" lon="4.88458">
        <ele>213</ele>
        <time>2014-04-25T13:28:41Z</time>
      </trkpt>
      <trkpt lat="47.06203" lon="4.88456">
        <ele>213</ele>
        <time>2014-04-25T13:28:44Z</time>
      </trkpt>
      <trkpt lat="47.06198" lon="4.88453">
        <ele>213</ele>
        <time>2014-04-25T13:28:47Z</time>
      </trkpt>
      <trkpt lat="47.06194" lon="4.88449">
        <ele>213</ele>
        <time>2014-04-25T13:28:51Z</time>
      </trkpt>
      <trkpt lat="47.0619" lon="4.88445">
        <ele>213</ele>
        <time>2014-04-25T13:28:54Z</time>
      </trkpt>
      <trkpt lat="47.06186" lon="4.88441">
        <ele>214</ele>
        <time>2014-04-25T13:28:58Z</time>
      </trkpt>
      <trkpt lat="47.06183" lon="4.88433">
        <ele>214</ele>
        <time>2014-04-25T13:29:02Z</time>
      </trkpt>
      <trkpt lat="47.06178" lon="4.8843">
        <ele>214</ele>
        <time>2014-04-25T13:29:05Z</time>
      </trkpt>
      <trkpt lat="47.06173" lon="4.88427">
        <ele>214</ele>
        <time>2014-04-25T13:29:09Z</time>
      </trkpt>
      <trkpt lat="47.06173" lon="4.88429">
        <ele>214</ele>
        <time>2014-04-25T13:29:21Z</time>
      </trkpt>
      <trkpt lat="47.06168" lon="4.88424">
        <ele>215</ele>
        <time>2014-04-25T13:29:38Z</time>
      </trkpt>
      <trkpt lat="47.06163" lon="4.88419">
        <ele>215</ele>
        <time>2014-04-25T13:29:42Z</time>
      </trkpt>
      <trkpt lat="47.06159" lon="4.88416">
        <ele>215</ele>
        <time>2014-04-25T13:29:49Z</time>
      </trkpt>
      <trkpt lat="47.06155" lon="4.88411">
        <ele>215</ele>
        <time>2014-04-25T13:29:53Z</time>
      </trkpt>
      <trkpt lat="47.06151" lon="4.88408">
        <ele>215</ele>
        <time>2014-04-25T13:29:55Z</time>
      </trkpt>
      <trkpt lat="47.06147" lon="4.88405">
        <ele>215</ele>
        <time>2014-04-25T13:29:57Z</time>
      </trkpt>
      <trkpt lat="47.06142" lon="4.884">
        <ele>216</ele>
        <time>2014-04-25T13:30:00Z</time>
      </trkpt>
      <trkpt lat="47.06138" lon="4.88395">
        <ele>216</ele>
        <time>2014-04-25T13:30:03Z</time>
      </trkpt>
      <trkpt lat="47.06134" lon="4.88389">
        <ele>216</ele>
        <time>2014-04-25T13:30:06Z</time>
      </trkpt>
      <trkpt lat="47.06132" lon="4.88382">
        <ele>216</ele>
        <time>2014-04-25T13:30:10Z</time>
      </trkpt>
      <trkpt lat="47.06128" lon="4.88377">
        <ele>216</ele>
        <time>2014-04-25T13:30:15Z</time>
      </trkpt>
      <trkpt lat="47.06125" lon="4.8837">
        <ele>216</ele>
        <time>2014-04-25T13:30:18Z</time>
      </trkpt>
      <trkpt lat="47.06122" lon="4.88363">
        <ele>216</ele>
        <time>2014-04-25T13:30:22Z</time>
      </trkpt>
      <trkpt lat="47.06118" lon="4.8836">
        <ele>216</ele>
        <time>2014-04-25T13:30:27Z</time>
      </trkpt>
      <trkpt lat="47.06114" lon="4.88357">
        <ele>216</ele>
        <time>2014-04-25T13:30:32Z</time>
      </trkpt>
      <trkpt lat="47.06109" lon="4.88352">
        <ele>216</ele>
        <time>2014-04-25T13:30:34Z</time>
      </trkpt>
      <trkpt lat="47.06106" lon="4.88347">
        <ele>216</ele>
        <time>2014-04-25T13:30:37Z</time>
      </trkpt>
      <trkpt lat="47.06103" lon="4.88342">
        <ele>216</ele>
        <time>2014-04-25T13:30:42Z</time>
      </trkpt>
      <trkpt lat="47.06097" lon="4.8834">
        <ele>216</ele>
        <time>2014-04-25T13:30:47Z</time>
      </trkpt>
      <trkpt lat="47.06094" lon="4.88336">
        <ele>216</ele>
        <time>2014-04-25T13:30:49Z</time>
      </trkpt>
      <trkpt lat="47.06089" lon="4.88331">
        <ele>216</ele>
        <time>2014-04-25T13:30:53Z</time>
      </trkpt>
      <trkpt lat="47.06086" lon="4.88326">
        <ele>216</ele>
        <time>2014-04-25T13:30:58Z</time>
      </trkpt>
      <trkpt lat="47.06082" lon="4.8832">
        <ele>216</ele>
        <time>2014-04-25T13:31:01Z</time>
      </trkpt>
      <trkpt lat="47.06078" lon="4.88315">
        <ele>217</ele>
        <time>2014-04-25T13:31:05Z</time>
      </trkpt>
      <trkpt lat="47.06075" lon="4.88309">
        <ele>217</ele>
        <time>2014-04-25T13:31:09Z</time>
      </trkpt>
      <trkpt lat="47.06073" lon="4.88304">
        <ele>217</ele>
        <time>2014-04-25T13:31:13Z</time>
      </trkpt>
      <trkpt lat="47.0607" lon="4.88298">
        <ele>217</ele>
        <time>2014-04-25T13:31:17Z</time>
      </trkpt>
      <trkpt lat="47.06066" lon="4.88292">
        <ele>217</ele>
        <time>2014-04-25T13:31:21Z</time>
      </trkpt>
      <trkpt lat="47.06061" lon="4.88287">
        <ele>217</ele>
        <time>2014-04-25T13:31:24Z</time>
      </trkpt>
      <trkpt lat="47.06057" lon="4.88283">
        <ele>217</ele>
        <time>2014-04-25T13:31:27Z</time>
      </trkpt>
      <trkpt lat="47.06053" lon="4.88279">
        <ele>217</ele>
        <time>2014-04-25T13:31:31Z</time>
      </trkpt>
      <trkpt lat="47.06051" lon="4.88273">
        <ele>217</ele>
        <time>2014-04-25T13:31:35Z</time>
      </trkpt>
      <trkpt lat="47.06047" lon="4.88268">
        <ele>217</ele>
        <time>2014-04-25T13:31:39Z</time>
      </trkpt>
      <trkpt lat="47.06042" lon="4.88265">
        <ele>217</ele>
        <time>2014-04-25T13:31:42Z</time>
      </trkpt>
      <trkpt lat="47.06037" lon="4.88263">
        <ele>217</ele>
        <time>2014-04-25T13:31:45Z</time>
      </trkpt>
      <trkpt lat="47.06032" lon="4.8826">
        <ele>217</ele>
        <time>2014-04-25T13:31:48Z</time>
      </trkpt>
      <trkpt lat="47.06029" lon="4.88256">
        <ele>217</ele>
        <time>2014-04-25T13:31:51Z</time>
      </trkpt>
      <trkpt lat="47.06025" lon="4.88251">
        <ele>218</ele>
        <time>2014-04-25T13:31:55Z</time>
      </trkpt>
      <trkpt lat="47.06021" lon="4.88246">
        <ele>219</ele>
        <time>2014-04-25T13:31:58Z</time>
      </trkpt>
      <trkpt lat="47.06018" lon="4.88241">
        <ele>219</ele>
        <time>2014-04-25T13:32:02Z</time>
      </trkpt>
      <trkpt lat="47.06014" lon="4.88236">
        <ele>219</ele>
        <time>2014-04-25T13:32:06Z</time>
      </trkpt>
      <trkpt lat="47.0601" lon="4.88231">
        <ele>219</ele>
        <time>2014-04-25T13:32:10Z</time>
      </trkpt>
      <trkpt lat="47.06006" lon="4.88226">
        <ele>219</ele>
        <time>2014-04-25T13:32:14Z</time>
      </trkpt>
      <trkpt lat="47.06002" lon="4.88219">
        <ele>219</ele>
        <time>2014-04-25T13:32:18Z</time>
      </trkpt>
      <trkpt lat="47.05998" lon="4.88215">
        <ele>219</ele>
        <time>2014-04-25T13:32:22Z</time>
      </trkpt>
      <trkpt lat="47.05994" lon="4.88208">
        <ele>219</ele>
        <time>2014-04-25T13:32:26Z</time>
      </trkpt>
      <trkpt lat="47.05991" lon="4.88202">
        <ele>219</ele>
        <time>2014-04-25T13:32:29Z</time>
      </trkpt>
      <trkpt lat="47.05987" lon="4.88198">
        <ele>219</ele>
        <time>2014-04-25T13:32:33Z</time>
      </trkpt>
      <trkpt lat="47.05982" lon="4.88193">
        <ele>219</ele>
        <time>2014-04-25T13:32:37Z</time>
      </trkpt>
      <trkpt lat="47.05978" lon="4.88188">
        <ele>219</ele>
        <time>2014-04-25T13:32:41Z</time>
      </trkpt>
      <trkpt lat="47.05974" lon="4.88182">
        <ele>219</ele>
        <time>2014-04-25T13:32:45Z</time>
      </trkpt>
      <trkpt lat="47.0597" lon="4.88177">
        <ele>219</ele>
        <time>2014-04-25T13:32:49Z</time>
      </trkpt>
      <trkpt lat="47.05966" lon="4.88173">
        <ele>219</ele>
        <time>2014-04-25T13:32:52Z</time>
      </trkpt>
      <trkpt lat="47.05962" lon="4.88168">
        <ele>219</ele>
        <time>2014-04-25T13:32:56Z</time>
      </trkpt>
      <trkpt lat="47.05958" lon="4.88163">
        <ele>220</ele>
        <time>2014-04-25T13:33:00Z</time>
      </trkpt>
      <trkpt lat="47.05954" lon="4.88156">
        <ele>220</ele>
        <time>2014-04-25T13:33:04Z</time>
      </trkpt>
      <trkpt lat="47.05949" lon="4.88151">
        <ele>220</ele>
        <time>2014-04-25T13:33:08Z</time>
      </trkpt>
      <trkpt lat="47.05945" lon="4.88146">
        <ele>220</ele>
        <time>2014-04-25T13:33:11Z</time>
      </trkpt>
      <trkpt lat="47.05941" lon="4.88142">
        <ele>220</ele>
        <time>2014-04-25T13:33:14Z</time>
      </trkpt>
      <trkpt lat="47.05938" lon="4.88138">
        <ele>220</ele>
        <time>2014-04-25T13:33:18Z</time>
      </trkpt>
      <trkpt lat="47.05935" lon="4.88133">
        <ele>220</ele>
        <time>2014-04-25T13:33:21Z</time>
      </trkpt>
      <trkpt lat="47.05931" lon="4.88128">
        <ele>220</ele>
        <time>2014-04-25T13:33:24Z</time>
      </trkpt>
      <trkpt lat="47.05927" lon="4.88124">
        <ele>220</ele>
        <time>2014-04-25T13:33:28Z</time>
      </trkpt>
      <trkpt lat="47.05923" lon="4.88119">
        <ele>220</ele>
        <time>2014-04-25T13:33:32Z</time>
      </trkpt>
      <trkpt lat="47.05919" lon="4.88114">
        <ele>220</ele>
        <time>2014-04-25T13:33:39Z</time>
      </trkpt>
      <trkpt lat="47.05915" lon="4.88108">
        <ele>219</ele>
        <time>2014-04-25T13:33:41Z</time>
      </trkpt>
      <trkpt lat="47.05914" lon="4.88102">
        <ele>219</ele>
        <time>2014-04-25T13:33:46Z</time>
      </trkpt>
      <trkpt lat="47.0591" lon="4.88096">
        <ele>219</ele>
        <time>2014-04-25T13:33:50Z</time>
      </trkpt>
      <trkpt lat="47.05906" lon="4.88092">
        <ele>219</ele>
        <time>2014-04-25T13:33:53Z</time>
      </trkpt>
      <trkpt lat="47.05903" lon="4.88085">
        <ele>219</ele>
        <time>2014-04-25T13:33:57Z</time>
      </trkpt>
      <trkpt lat="47.05899" lon="4.88078">
        <ele>219</ele>
        <time>2014-04-25T13:34:01Z</time>
      </trkpt>
      <trkpt lat="47.05895" lon="4.88074">
        <ele>219</ele>
        <time>2014-04-25T13:34:06Z</time>
      </trkpt>
      <trkpt lat="47.05891" lon="4.88075">
        <ele>219</ele>
        <time>2014-04-25T13:34:11Z</time>
      </trkpt>
      <trkpt lat="47.05886" lon="4.88072">
        <ele>219</ele>
        <time>2014-04-25T13:34:20Z</time>
      </trkpt>
      <trkpt lat="47.05882" lon="4.88069">
        <ele>219</ele>
        <time>2014-04-25T13:34:23Z</time>
      </trkpt>
      <trkpt lat="47.05877" lon="4.88065">
        <ele>218</ele>
        <time>2014-04-25T13:34:27Z</time>
      </trkpt>
      <trkpt lat="47.05873" lon="4.88059">
        <ele>218</ele>
        <time>2014-04-25T13:34:31Z</time>
      </trkpt>
      <trkpt lat="47.05869" lon="4.88054">
        <ele>218</ele>
        <time>2014-04-25T13:34:34Z</time>
      </trkpt>
      <trkpt lat="47.05865" lon="4.88051">
        <ele>218</ele>
        <time>2014-04-25T13:34:37Z</time>
      </trkpt>
      <trkpt lat="47.05861" lon="4.88048">
        <ele>218</ele>
        <time>2014-04-25T13:34:40Z</time>
      </trkpt>
      <trkpt lat="47.05857" lon="4.88045">
        <ele>218</ele>
        <time>2014-04-25T13:34:43Z</time>
      </trkpt>
      <trkpt lat="47.05853" lon="4.8804">
        <ele>218</ele>
        <time>2014-04-25T13:34:47Z</time>
      </trkpt>
      <trkpt lat="47.0585" lon="4.88033">
        <ele>218</ele>
        <time>2014-04-25T13:34:52Z</time>
      </trkpt>
      <trkpt lat="47.05847" lon="4.88026">
        <ele>218</ele>
        <time>2014-04-25T13:34:56Z</time>
      </trkpt>
      <trkpt lat="47.05844" lon="4.88021">
        <ele>217</ele>
        <time>2014-04-25T13:34:59Z</time>
      </trkpt>
      <trkpt lat="47.0584" lon="4.88017">
        <ele>217</ele>
        <time>2014-04-25T13:35:02Z</time>
      </trkpt>
      <trkpt lat="47.05835" lon="4.88014">
        <ele>217</ele>
        <time>2014-04-25T13:35:05Z</time>
      </trkpt>
      <trkpt lat="47.05831" lon="4.88011">
        <ele>216</ele>
        <time>2014-04-25T13:35:08Z</time>
      </trkpt>
      <trkpt lat="47.05826" lon="4.88005">
        <ele>216</ele>
        <time>2014-04-25T13:35:12Z</time>
      </trkpt>
      <trkpt lat="47.05822" lon="4.88001">
        <ele>216</ele>
        <time>2014-04-25T13:35:15Z</time>
      </trkpt>
      <trkpt lat="47.05818" lon="4.87999">
        <ele>216</ele>
        <time>2014-04-25T13:35:18Z</time>
      </trkpt>
      <trkpt lat="47.05813" lon="4.87996">
        <ele>216</ele>
        <time>2014-04-25T13:35:21Z</time>
      </trkpt>
      <trkpt lat="47.05809" lon="4.87992">
        <ele>215</ele>
        <time>2014-04-25T13:35:25Z</time>
      </trkpt>
      <trkpt lat="47.05804" lon="4.87989">
        <ele>215</ele>
        <time>2014-04-25T13:35:29Z</time>
      </trkpt>
      <trkpt lat="47.05799" lon="4.87985">
        <ele>215</ele>
        <time>2014-04-25T13:35:32Z</time>
      </trkpt>
      <trkpt lat="47.05794" lon="4.87981">
        <ele>215</ele>
        <time>2014-04-25T13:35:36Z</time>
      </trkpt>
      <trkpt lat="47.05791" lon="4.87977">
        <ele>215</ele>
        <time>2014-04-25T13:35:40Z</time>
      </trkpt>
      <trkpt lat="47.05787" lon="4.87972">
        <ele>215</ele>
        <time>2014-04-25T13:35:44Z</time>
      </trkpt>
      <trkpt lat="47.05784" lon="4.87967">
        <ele>215</ele>
        <time>2014-04-25T13:35:49Z</time>
      </trkpt>
      <trkpt lat="47.05779" lon="4.87963">
        <ele>215</ele>
        <time>2014-04-25T13:35:53Z</time>
      </trkpt>
      <trkpt lat="47.05775" lon="4.87959">
        <ele>215</ele>
        <time>2014-04-25T13:35:56Z</time>
      </trkpt>
      <trkpt lat="47.05771" lon="4.87954">
        <ele>215</ele>
        <time>2014-04-25T13:35:59Z</time>
      </trkpt>
      <trkpt lat="47.05767" lon="4.87949">
        <ele>216</ele>
        <time>2014-04-25T13:36:02Z</time>
      </trkpt>
      <trkpt lat="47.05764" lon="4.87945">
        <ele>216</ele>
        <time>2014-04-25T13:36:06Z</time>
      </trkpt>
      <trkpt lat="47.0576" lon="4.87941">
        <ele>216</ele>
        <time>2014-04-25T13:36:10Z</time>
      </trkpt>
      <trkpt lat="47.05755" lon="4.87936">
        <ele>216</ele>
        <time>2014-04-25T13:36:14Z</time>
      </trkpt>
      <trkpt lat="47.05752" lon="4.8793">
        <ele>216</ele>
        <time>2014-04-25T13:36:17Z</time>
      </trkpt>
      <trkpt lat="47.05749" lon="4.87924">
        <ele>217</ele>
        <time>2014-04-25T13:36:20Z</time>
      </trkpt>
      <trkpt lat="47.05747" lon="4.87918">
        <ele>217</ele>
        <time>2014-04-25T13:36:24Z</time>
      </trkpt>
      <trkpt lat="47.05743" lon="4.87913">
        <ele>217</ele>
        <time>2014-04-25T13:36:27Z</time>
      </trkpt>
      <trkpt lat="47.05739" lon="4.87909">
        <ele>217</ele>
        <time>2014-04-25T13:36:30Z</time>
      </trkpt>
      <trkpt lat="47.05736" lon="4.87902">
        <ele>217</ele>
        <time>2014-04-25T13:36:34Z</time>
      </trkpt>
      <trkpt lat="47.05733" lon="4.87897">
        <ele>217</ele>
        <time>2014-04-25T13:36:37Z</time>
      </trkpt>
      <trkpt lat="47.0573" lon="4.87891">
        <ele>217</ele>
        <time>2014-04-25T13:36:41Z</time>
      </trkpt>
      <trkpt lat="47.05727" lon="4.87885">
        <ele>216</ele>
        <time>2014-04-25T13:36:45Z</time>
      </trkpt>
      <trkpt lat="47.05725" lon="4.87877">
        <ele>216</ele>
        <time>2014-04-25T13:36:49Z</time>
      </trkpt>
      <trkpt lat="47.05721" lon="4.87871">
        <ele>216</ele>
        <time>2014-04-25T13:36:53Z</time>
      </trkpt>
      <trkpt lat="47.05717" lon="4.87866">
        <ele>216</ele>
        <time>2014-04-25T13:36:57Z</time>
      </trkpt>
      <trkpt lat="47.05713" lon="4.87861">
        <ele>216</ele>
        <time>2014-04-25T13:37:01Z</time>
      </trkpt>
      <trkpt lat="47.05708" lon="4.87857">
        <ele>216</ele>
        <time>2014-04-25T13:37:05Z</time>
      </trkpt>
      <trkpt lat="47.05703" lon="4.87853">
        <ele>216</ele>
        <time>2014-04-25T13:37:09Z</time>
      </trkpt>
      <trkpt lat="47.05701" lon="4.87846">
        <ele>216</ele>
        <time>2014-04-25T13:37:14Z</time>
      </trkpt>
      <trkpt lat="47.05698" lon="4.87841">
        <ele>216</ele>
        <time>2014-04-25T13:37:19Z</time>
      </trkpt>
      <trkpt lat="47.05694" lon="4.87837">
        <ele>216</ele>
        <time>2014-04-25T13:37:22Z</time>
      </trkpt>
      <trkpt lat="47.05689" lon="4.87834">
        <ele>215</ele>
        <time>2014-04-25T13:37:26Z</time>
      </trkpt>
      <trkpt lat="47.05685" lon="4.87834">
        <ele>215</ele>
        <time>2014-04-25T13:37:31Z</time>
      </trkpt>
      <trkpt lat="47.05681" lon="4.87827">
        <ele>214</ele>
        <time>2014-04-25T13:37:35Z</time>
      </trkpt>
      <trkpt lat="47.05676" lon="4.87824">
        <ele>214</ele>
        <time>2014-04-25T13:37:38Z</time>
      </trkpt>
      <trkpt lat="47.05671" lon="4.87821">
        <ele>214</ele>
        <time>2014-04-25T13:37:40Z</time>
      </trkpt>
      <trkpt lat="47.05666" lon="4.87815">
        <ele>214</ele>
        <time>2014-04-25T13:37:43Z</time>
      </trkpt>
      <trkpt lat="47.05662" lon="4.87809">
        <ele>214</ele>
        <time>2014-04-25T13:37:44Z</time>
      </trkpt>
      <trkpt lat="47.05657" lon="4.87803">
        <ele>214</ele>
        <time>2014-04-25T13:37:46Z</time>
      </trkpt>
      <trkpt lat="47.05656" lon="4.878">
        <ele>214</ele>
        <time>2014-04-25T13:37:48Z</time>
      </trkpt>
      <trkpt lat="47.05654" lon="4.87797">
        <ele>214</ele>
        <time>2014-04-25T13:37:48Z</time>
      </trkpt>
      <trkpt lat="47.05653" lon="4.87793">
        <ele>214</ele>
        <time>2014-04-25T13:37:49Z</time>
      </trkpt>
      <trkpt lat="47.0565" lon="4.87791">
        <ele>214</ele>
        <time>2014-04-25T13:37:51Z</time>
      </trkpt>
      <trkpt lat="47.05648" lon="4.87789">
        <ele>214</ele>
        <time>2014-04-25T13:37:54Z</time>
      </trkpt>
      <trkpt lat="47.05643" lon="4.87785">
        <ele>214</ele>
        <time>2014-04-25T13:37:58Z</time>
      </trkpt>
      <trkpt lat="47.05639" lon="4.8778">
        <ele>214</ele>
        <time>2014-04-25T13:38:05Z</time>
      </trkpt>
      <trkpt lat="47.05635" lon="4.87774">
        <ele>214</ele>
        <time>2014-04-25T13:38:09Z</time>
      </trkpt>
      <trkpt lat="47.0563" lon="4.87768">
        <ele>214</ele>
        <time>2014-04-25T13:38:13Z</time>
      </trkpt>
      <trkpt lat="47.05317" lon="4.87321">
        <ele>213</ele>
        <time>2014-04-25T13:43:55Z</time>
      </trkpt>
      <trkpt lat="47.05314" lon="4.87317">
        <ele>213</ele>
        <time>2014-04-25T13:44:16Z</time>
      </trkpt>
      <trkpt lat="47.0531" lon="4.87311">
        <ele>213</ele>
        <time>2014-04-25T13:44:20Z</time>
      </trkpt>
      <trkpt lat="47.05307" lon="4.87305">
        <ele>213</ele>
        <time>2014-04-25T13:44:24Z</time>
      </trkpt>
      <trkpt lat="47.05303" lon="4.87299">
        <ele>213</ele>
        <time>2014-04-25T13:44:28Z</time>
      </trkpt>
      <trkpt lat="47.05299" lon="4.87294">
        <ele>213</ele>
        <time>2014-04-25T13:44:32Z</time>
      </trkpt>
      <trkpt lat="47.05296" lon="4.87288">
        <ele>213</ele>
        <time>2014-04-25T13:44:38Z</time>
      </trkpt>
      <trkpt lat="47.05291" lon="4.87283">
        <ele>213</ele>
        <time>2014-04-25T13:44:42Z</time>
      </trkpt>
      <trkpt lat="47.05287" lon="4.8728">
        <ele>213</ele>
        <time>2014-04-25T13:44:46Z</time>
      </trkpt>
      <trkpt lat="47.05282" lon="4.87276">
        <ele>213</ele>
        <time>2014-04-25T13:44:50Z</time>
      </trkpt>
      <trkpt lat="47.05278" lon="4.87272">
        <ele>213</ele>
        <time>2014-04-25T13:44:53Z</time>
      </trkpt>
      <trkpt lat="47.05273" lon="4.87269">
        <ele>213</ele>
        <time>2014-04-25T13:44:57Z</time>
      </trkpt>
      <trkpt lat="47.05268" lon="4.87266">
        <ele>212</ele>
        <time>2014-04-25T13:45:01Z</time>
      </trkpt>
      <trkpt lat="47.05264" lon="4.87265">
        <ele>212</ele>
        <time>2014-04-25T13:45:05Z</time>
      </trkpt>
      <trkpt lat="47.05259" lon="4.87262">
        <ele>212</ele>
        <time>2014-04-25T13:45:10Z</time>
      </trkpt>
      <trkpt lat="47.05253" lon="4.87261">
        <ele>212</ele>
        <time>2014-04-25T13:45:14Z</time>
      </trkpt>
      <trkpt lat="47.05248" lon="4.8726">
        <ele>212</ele>
        <time>2014-04-25T13:45:18Z</time>
      </trkpt>
      <trkpt lat="47.05244" lon="4.87259">
        <ele>212</ele>
        <time>2014-04-25T13:45:20Z</time>
      </trkpt>
      <trkpt lat="47.05238" lon="4.87257">
        <ele>212</ele>
        <time>2014-04-25T13:45:24Z</time>
      </trkpt>
      <trkpt lat="47.05233" lon="4.87254">
        <ele>212</ele>
        <time>2014-04-25T13:45:28Z</time>
      </trkpt>
      <trkpt lat="47.05228" lon="4.87249">
        <ele>212</ele>
        <time>2014-04-25T13:45:34Z</time>
      </trkpt>
      <trkpt lat="47.05224" lon="4.87245">
        <ele>212</ele>
        <time>2014-04-25T13:45:36Z</time>
      </trkpt>
      <trkpt lat="47.05219" lon="4.87243">
        <ele>212</ele>
        <time>2014-04-25T13:45:39Z</time>
      </trkpt>
      <trkpt lat="47.05214" lon="4.87241">
        <ele>212</ele>
        <time>2014-04-25T13:45:42Z</time>
      </trkpt>
      <trkpt lat="47.05208" lon="4.87239">
        <ele>212</ele>
        <time>2014-04-25T13:45:46Z</time>
      </trkpt>
      <trkpt lat="47.05202" lon="4.87237">
        <ele>212</ele>
        <time>2014-04-25T13:45:51Z</time>
      </trkpt>
      <trkpt lat="47.05196" lon="4.87237">
        <ele>212</ele>
        <time>2014-04-25T13:45:54Z</time>
      </trkpt>
      <trkpt lat="47.0519" lon="4.87236">
        <ele>212</ele>
        <time>2014-04-25T13:45:58Z</time>
      </trkpt>
      <trkpt lat="47.05184" lon="4.87235">
        <ele>212</ele>
        <time>2014-04-25T13:46:00Z</time>
      </trkpt>
      <trkpt lat="47.05179" lon="4.87234">
        <ele>212</ele>
        <time>2014-04-25T13:46:03Z</time>
      </trkpt>
      <trkpt lat="47.05174" lon="4.87232">
        <ele>212</ele>
        <time>2014-04-25T13:46:09Z</time>
      </trkpt>
      <trkpt lat="47.05169" lon="4.87232">
        <ele>212</ele>
        <time>2014-04-25T13:46:13Z</time>
      </trkpt>
      <trkpt lat="47.05164" lon="4.87231">
        <ele>212</ele>
        <time>2014-04-25T13:46:19Z</time>
      </trkpt>
      <trkpt lat="47.05159" lon="4.87231">
        <ele>212</ele>
        <time>2014-04-25T13:46:24Z</time>
      </trkpt>
      <trkpt lat="47.05153" lon="4.87229">
        <ele>212</ele>
        <time>2014-04-25T13:46:28Z</time>
      </trkpt>
      <trkpt lat="47.05148" lon="4.87228">
        <ele>213</ele>
        <time>2014-04-25T13:46:33Z</time>
      </trkpt>
      <trkpt lat="47.05143" lon="4.87227">
        <ele>213</ele>
        <time>2014-04-25T13:46:36Z</time>
      </trkpt>
      <trkpt lat="47.05138" lon="4.87227">
        <ele>213</ele>
        <time>2014-04-25T13:46:39Z</time>
      </trkpt>
      <trkpt lat="47.05133" lon="4.87224">
        <ele>213</ele>
        <time>2014-04-25T13:46:43Z</time>
      </trkpt>
      <trkpt lat="47.05128" lon="4.87223">
        <ele>213</ele>
        <time>2014-04-25T13:46:48Z</time>
      </trkpt>
      <trkpt lat="47.05122" lon="4.8722">
        <ele>213</ele>
        <time>2014-04-25T13:46:51Z</time>
      </trkpt>
      <trkpt lat="47.0512" lon="4.87222">
        <ele>213</ele>
        <time>2014-04-25T13:46:58Z</time>
      </trkpt>
      <trkpt lat="47.05114" lon="4.87221">
        <ele>213</ele>
        <time>2014-04-25T13:47:14Z</time>
      </trkpt>
      <trkpt lat="47.0511" lon="4.87222">
        <ele>213</ele>
        <time>2014-04-25T13:47:19Z</time>
      </trkpt>
      <trkpt lat="47.05105" lon="4.87223">
        <ele>213</ele>
        <time>2014-04-25T13:47:22Z</time>
      </trkpt>
      <trkpt lat="47.051" lon="4.87222">
        <ele>213</ele>
        <time>2014-04-25T13:47:27Z</time>
      </trkpt>
      <trkpt lat="47.05094" lon="4.87221">
        <ele>213</ele>
        <time>2014-04-25T13:47:31Z</time>
      </trkpt>
      <trkpt lat="47.05089" lon="4.8722">
        <ele>213</ele>
        <time>2014-04-25T13:47:34Z</time>
      </trkpt>
      <trkpt lat="47.05085" lon="4.87218">
        <ele>213</ele>
        <time>2014-04-25T13:47:37Z</time>
      </trkpt>
      <trkpt lat="47.05079" lon="4.87215">
        <ele>213</ele>
        <time>2014-04-25T13:47:41Z</time>
      </trkpt>
      <trkpt lat="47.05073" lon="4.87218">
        <ele>213</ele>
        <time>2014-04-25T13:47:59Z</time>
      </trkpt>
      <trkpt lat="47.05067" lon="4.87217">
        <ele>213</ele>
        <time>2014-04-25T13:48:03Z</time>
      </trkpt>
      <trkpt lat="47.05062" lon="4.87216">
        <ele>213</ele>
        <time>2014-04-25T13:48:07Z</time>
      </trkpt>
      <trkpt lat="47.05057" lon="4.87213">
        <ele>213</ele>
        <time>2014-04-25T13:48:12Z</time>
      </trkpt>
      <trkpt lat="47.05052" lon="4.87212">
        <ele>213</ele>
        <time>2014-04-25T13:48:16Z</time>
      </trkpt>
      <trkpt lat="47.05046" lon="4.8721">
        <ele>213</ele>
        <time>2014-04-25T13:48:20Z</time>
      </trkpt>
      <trkpt lat="47.05041" lon="4.8721">
        <ele>213</ele>
        <time>2014-04-25T13:48:24Z</time>
      </trkpt>
      <trkpt lat="47.05036" lon="4.8721">
        <ele>214</ele>
        <time>2014-04-25T13:48:28Z</time>
      </trkpt>
      <trkpt lat="47.0503" lon="4.87209">
        <ele>214</ele>
        <time>2014-04-25T13:48:32Z</time>
      </trkpt>
      <trkpt lat="47.05025" lon="4.87207">
        <ele>214</ele>
        <time>2014-04-25T13:48:37Z</time>
      </trkpt>
      <trkpt lat="47.0502" lon="4.87207">
        <ele>214</ele>
        <time>2014-04-25T13:48:40Z</time>
      </trkpt>
      <trkpt lat="47.05016" lon="4.87205">
        <ele>214</ele>
        <time>2014-04-25T13:48:44Z</time>
      </trkpt>
      <trkpt lat="47.05011" lon="4.87204">
        <ele>214</ele>
        <time>2014-04-25T13:48:48Z</time>
      </trkpt>
      <trkpt lat="47.05006" lon="4.87206">
        <ele>214</ele>
        <time>2014-04-25T13:48:52Z</time>
      </trkpt>
      <trkpt lat="47.05002" lon="4.87208">
        <ele>214</ele>
        <time>2014-04-25T13:48:56Z</time>
      </trkpt>
      <trkpt lat="47.04996" lon="4.87207">
        <ele>214</ele>
        <time>2014-04-25T13:49:00Z</time>
      </trkpt>
      <trkpt lat="47.04991" lon="4.87206">
        <ele>214</ele>
        <time>2014-04-25T13:49:04Z</time>
      </trkpt>
      <trkpt lat="47.04986" lon="4.87205">
        <ele>214</ele>
        <time>2014-04-25T13:49:08Z</time>
      </trkpt>
      <trkpt lat="47.04981" lon="4.87205">
        <ele>214</ele>
        <time>2014-04-25T13:49:12Z</time>
      </trkpt>
      <trkpt lat="47.04976" lon="4.87205">
        <ele>214</ele>
        <time>2014-04-25T13:49:16Z</time>
      </trkpt>
      <trkpt lat="47.04971" lon="4.87204">
        <ele>214</ele>
        <time>2014-04-25T13:49:20Z</time>
      </trkpt>
      <trkpt lat="47.04966" lon="4.87202">
        <ele>214</ele>
        <time>2014-04-25T13:49:24Z</time>
      </trkpt>
      <trkpt lat="47.04961" lon="4.87201">
        <ele>214</ele>
        <time>2014-04-25T13:49:28Z</time>
      </trkpt>
      <trkpt lat="47.04956" lon="4.87198">
        <ele>214</ele>
        <time>2014-04-25T13:49:32Z</time>
      </trkpt>
      <trkpt lat="47.0495" lon="4.87195">
        <ele>214</ele>
        <time>2014-04-25T13:49:36Z</time>
      </trkpt>
      <trkpt lat="47.04945" lon="4.87191">
        <ele>214</ele>
        <time>2014-04-25T13:49:40Z</time>
      </trkpt>
      <trkpt lat="47.04941" lon="4.87186">
        <ele>214</ele>
        <time>2014-04-25T13:49:44Z</time>
      </trkpt>
      <trkpt lat="47.04939" lon="4.87181">
        <ele>215</ele>
        <time>2014-04-25T13:49:47Z</time>
      </trkpt>
      <trkpt lat="47.04936" lon="4.87175">
        <ele>215</ele>
        <time>2014-04-25T13:49:51Z</time>
      </trkpt>
      <trkpt lat="47.04932" lon="4.8717">
        <ele>215</ele>
        <time>2014-04-25T13:49:54Z</time>
      </trkpt>
      <trkpt lat="47.04929" lon="4.87163">
        <ele>215</ele>
        <time>2014-04-25T13:49:59Z</time>
      </trkpt>
      <trkpt lat="47.04926" lon="4.87155">
        <ele>215</ele>
        <time>2014-04-25T13:50:03Z</time>
      </trkpt>
      <trkpt lat="47.04925" lon="4.87148">
        <ele>215</ele>
        <time>2014-04-25T13:50:07Z</time>
      </trkpt>
      <trkpt lat="47.04924" lon="4.87141">
        <ele>215</ele>
        <time>2014-04-25T13:50:10Z</time>
      </trkpt>
      <trkpt lat="47.04923" lon="4.87133">
        <ele>215</ele>
        <time>2014-04-25T13:50:14Z</time>
      </trkpt>
      <trkpt lat="47.04924" lon="4.87125">
        <ele>215</ele>
        <time>2014-04-25T13:50:18Z</time>
      </trkpt>
      <trkpt lat="47.04923" lon="4.87118">
        <ele>215</ele>
        <time>2014-04-25T13:50:21Z</time>
      </trkpt>
      <trkpt lat="47.04921" lon="4.87112">
        <ele>215</ele>
        <time>2014-04-25T13:50:26Z</time>
      </trkpt>
      <trkpt lat="47.0492" lon="4.87104">
        <ele>216</ele>
        <time>2014-04-25T13:50:31Z</time>
      </trkpt>
      <trkpt lat="47.04919" lon="4.87096">
        <ele>216</ele>
        <time>2014-04-25T13:50:36Z</time>
      </trkpt>
      <trkpt lat="47.04916" lon="4.87089">
        <ele>216</ele>
        <time>2014-04-25T13:50:40Z</time>
      </trkpt>
      <trkpt lat="47.04914" lon="4.87083">
        <ele>216</ele>
        <time>2014-04-25T13:50:44Z</time>
      </trkpt>
      <trkpt lat="47.04911" lon="4.87075">
        <ele>216</ele>
        <time>2014-04-25T13:50:48Z</time>
      </trkpt>
      <trkpt lat="47.0491" lon="4.87068">
        <ele>216</ele>
        <time>2014-04-25T13:50:53Z</time>
      </trkpt>
      <trkpt lat="47.04908" lon="4.87061">
        <ele>216</ele>
        <time>2014-04-25T13:50:56Z</time>
      </trkpt>
      <trkpt lat="47.04908" lon="4.87054">
        <ele>216</ele>
        <time>2014-04-25T13:51:02Z</time>
      </trkpt>
      <trkpt lat="47.04907" lon="4.87047">
        <ele>216</ele>
        <time>2014-04-25T13:51:06Z</time>
      </trkpt>
      <trkpt lat="47.04904" lon="4.8704">
        <ele>216</ele>
        <time>2014-04-25T13:51:10Z</time>
      </trkpt>
      <trkpt lat="47.04901" lon="4.87034">
        <ele>216</ele>
        <time>2014-04-25T13:51:13Z</time>
      </trkpt>
      <trkpt lat="47.04898" lon="4.87028">
        <ele>216</ele>
        <time>2014-04-25T13:51:19Z</time>
      </trkpt>
      <trkpt lat="47.04895" lon="4.87022">
        <ele>216</ele>
        <time>2014-04-25T13:51:23Z</time>
      </trkpt>
      <trkpt lat="47.04893" lon="4.87016">
        <ele>216</ele>
        <time>2014-04-25T13:51:26Z</time>
      </trkpt>
      <trkpt lat="47.0489" lon="4.8701">
        <ele>216</ele>
        <time>2014-04-25T13:51:30Z</time>
      </trkpt>
      <trkpt lat="47.04885" lon="4.87007">
        <ele>216</ele>
        <time>2014-04-25T13:51:34Z</time>
      </trkpt>
      <trkpt lat="47.0488" lon="4.87008">
        <ele>216</ele>
        <time>2014-04-25T13:51:38Z</time>
      </trkpt>
      <trkpt lat="47.04875" lon="4.87006">
        <ele>216</ele>
        <time>2014-04-25T13:51:43Z</time>
      </trkpt>
      <trkpt lat="47.04871" lon="4.87009">
        <ele>216</ele>
        <time>2014-04-25T13:51:47Z</time>
      </trkpt>
      <trkpt lat="47.04866" lon="4.8701">
        <ele>216</ele>
        <time>2014-04-25T13:51:51Z</time>
      </trkpt>
      <trkpt lat="47.04861" lon="4.87007">
        <ele>216</ele>
        <time>2014-04-25T13:51:57Z</time>
      </trkpt>
      <trkpt lat="47.04856" lon="4.87007">
        <ele>216</ele>
        <time>2014-04-25T13:52:01Z</time>
      </trkpt>
      <trkpt lat="47.04851" lon="4.87007">
        <ele>216</ele>
        <time>2014-04-25T13:52:05Z</time>
      </trkpt>
      <trkpt lat="47.04848" lon="4.87003">
        <ele>217</ele>
        <time>2014-04-25T13:52:09Z</time>
      </trkpt>
      <trkpt lat="47.04844" lon="4.86997">
        <ele>217</ele>
        <time>2014-04-25T13:52:13Z</time>
      </trkpt>
      <trkpt lat="47.04841" lon="4.86991">
        <ele>217</ele>
        <time>2014-04-25T13:52:16Z</time>
      </trkpt>
      <trkpt lat="47.04836" lon="4.86988">
        <ele>217</ele>
        <time>2014-04-25T13:52:22Z</time>
      </trkpt>
      <trkpt lat="47.04831" lon="4.86983">
        <ele>218</ele>
        <time>2014-04-25T13:52:26Z</time>
      </trkpt>
      <trkpt lat="47.04827" lon="4.86977">
        <ele>218</ele>
        <time>2014-04-25T13:52:30Z</time>
      </trkpt>
      <trkpt lat="47.04822" lon="4.86973">
        <ele>218</ele>
        <time>2014-04-25T13:52:34Z</time>
      </trkpt>
      <trkpt lat="47.04817" lon="4.86968">
        <ele>218</ele>
        <time>2014-04-25T13:52:38Z</time>
      </trkpt>
      <trkpt lat="47.04813" lon="4.86964">
        <ele>218</ele>
        <time>2014-04-25T13:52:41Z</time>
      </trkpt>
      <trkpt lat="47.04811" lon="4.86958">
        <ele>218</ele>
        <time>2014-04-25T13:52:44Z</time>
      </trkpt>
      <trkpt lat="47.04808" lon="4.86952">
        <ele>219</ele>
        <time>2014-04-25T13:52:49Z</time>
      </trkpt>
      <trkpt lat="47.04803" lon="4.86949">
        <ele>219</ele>
        <time>2014-04-25T13:52:54Z</time>
      </trkpt>
      <trkpt lat="47.04799" lon="4.86943">
        <ele>219</ele>
        <time>2014-04-25T13:52:59Z</time>
      </trkpt>
      <trkpt lat="47.04798" lon="4.86935">
        <ele>219</ele>
        <time>2014-04-25T13:53:03Z</time>
      </trkpt>
      <trkpt lat="47.04797" lon="4.86928">
        <ele>219</ele>
        <time>2014-04-25T13:53:06Z</time>
      </trkpt>
      <trkpt lat="47.04794" lon="4.86921">
        <ele>219</ele>
        <time>2014-04-25T13:53:10Z</time>
      </trkpt>
      <trkpt lat="47.0479" lon="4.86916">
        <ele>220</ele>
        <time>2014-04-25T13:53:14Z</time>
      </trkpt>
      <trkpt lat="47.04788" lon="4.8691">
        <ele>220</ele>
        <time>2014-04-25T13:53:18Z</time>
      </trkpt>
      <trkpt lat="47.04789" lon="4.86903">
        <ele>220</ele>
        <time>2014-04-25T13:53:22Z</time>
      </trkpt>
      <trkpt lat="47.04791" lon="4.86895">
        <ele>220</ele>
        <time>2014-04-25T13:53:26Z</time>
      </trkpt>
      <trkpt lat="47.04792" lon="4.86888">
        <ele>220</ele>
        <time>2014-04-25T13:53:30Z</time>
      </trkpt>
      <trkpt lat="47.0479" lon="4.8688">
        <ele>220</ele>
        <time>2014-04-25T13:53:34Z</time>
      </trkpt>
      <trkpt lat="47.04789" lon="4.86872">
        <ele>220</ele>
        <time>2014-04-25T13:53:38Z</time>
      </trkpt>
      <trkpt lat="47.04789" lon="4.86857">
        <ele>220</ele>
        <time>2014-04-25T13:53:46Z</time>
      </trkpt>
      <trkpt lat="47.04785" lon="4.86846">
        <ele>220</ele>
        <time>2014-04-25T13:53:53Z</time>
      </trkpt>
      <trkpt lat="47.04786" lon="4.86838">
        <ele>220</ele>
        <time>2014-04-25T13:53:57Z</time>
      </trkpt>
      <trkpt lat="47.04785" lon="4.86831">
        <ele>221</ele>
        <time>2014-04-25T13:54:00Z</time>
      </trkpt>
      <trkpt lat="47.04784" lon="4.86817">
        <ele>221</ele>
        <time>2014-04-25T13:54:07Z</time>
      </trkpt>
      <trkpt lat="47.04793" lon="4.86809">
        <ele>221</ele>
        <time>2014-04-25T13:54:11Z</time>
      </trkpt>
      <trkpt lat="47.04793" lon="4.86794">
        <ele>221</ele>
        <time>2014-04-25T13:54:19Z</time>
      </trkpt>
      <trkpt lat="47.04793" lon="4.86786">
        <ele>222</ele>
        <time>2014-04-25T13:54:24Z</time>
      </trkpt>
      <trkpt lat="47.04794" lon="4.86779">
        <ele>222</ele>
        <time>2014-04-25T13:54:27Z</time>
      </trkpt>
      <trkpt lat="47.04791" lon="4.86773">
        <ele>222</ele>
        <time>2014-04-25T13:54:30Z</time>
      </trkpt>
      <trkpt lat="47.04791" lon="4.86766">
        <ele>222</ele>
        <time>2014-04-25T13:54:33Z</time>
      </trkpt>
      <trkpt lat="47.0479" lon="4.86758">
        <ele>222</ele>
        <time>2014-04-25T13:54:37Z</time>
      </trkpt>
      <trkpt lat="47.0479" lon="4.86751">
        <ele>222</ele>
        <time>2014-04-25T13:54:42Z</time>
      </trkpt>
      <trkpt lat="47.04791" lon="4.86744">
        <ele>222</ele>
        <time>2014-04-25T13:54:45Z</time>
      </trkpt>
      <trkpt lat="47.04793" lon="4.86737">
        <ele>222</ele>
        <time>2014-04-25T13:54:49Z</time>
      </trkpt>
      <trkpt lat="47.0479" lon="4.86732">
        <ele>222</ele>
        <time>2014-04-25T13:54:55Z</time>
      </trkpt>
      <trkpt lat="47.04789" lon="4.86724">
        <ele>222</ele>
        <time>2014-04-25T13:54:59Z</time>
      </trkpt>
      <trkpt lat="47.04788" lon="4.86716">
        <ele>222</ele>
        <time>2014-04-25T13:55:03Z</time>
      </trkpt>
      <trkpt lat="47.0479" lon="4.8671">
        <ele>223</ele>
        <time>2014-04-25T13:55:06Z</time>
      </trkpt>
      <trkpt lat="47.0479" lon="4.86701">
        <ele>223</ele>
        <time>2014-04-25T13:55:11Z</time>
      </trkpt>
      <trkpt lat="47.04791" lon="4.86693">
        <ele>223</ele>
        <time>2014-04-25T13:55:15Z</time>
      </trkpt>
      <trkpt lat="47.04791" lon="4.86686">
        <ele>223</ele>
        <time>2014-04-25T13:55:18Z</time>
      </trkpt>
      <trkpt lat="47.04789" lon="4.86677">
        <ele>223</ele>
        <time>2014-04-25T13:55:22Z</time>
      </trkpt>
      <trkpt lat="47.04788" lon="4.86671">
        <ele>223</ele>
        <time>2014-04-25T13:55:24Z</time>
      </trkpt>
      <trkpt lat="47.04786" lon="4.86664">
        <ele>224</ele>
        <time>2014-04-25T13:55:27Z</time>
      </trkpt>
      <trkpt lat="47.04782" lon="4.8666">
        <ele>224</ele>
        <time>2014-04-25T13:55:31Z</time>
      </trkpt>
      <trkpt lat="47.04777" lon="4.86658">
        <ele>224</ele>
        <time>2014-04-25T13:55:38Z</time>
      </trkpt>
      <trkpt lat="47.04772" lon="4.86657">
        <ele>224</ele>
        <time>2014-04-25T13:55:42Z</time>
      </trkpt>
      <trkpt lat="47.04768" lon="4.86655">
        <ele>224</ele>
        <time>2014-04-25T13:55:45Z</time>
      </trkpt>
      <trkpt lat="47.04762" lon="4.86651">
        <ele>224</ele>
        <time>2014-04-25T13:55:50Z</time>
      </trkpt>
      <trkpt lat="47.04758" lon="4.86648">
        <ele>224</ele>
        <time>2014-04-25T13:55:52Z</time>
      </trkpt>
      <trkpt lat="47.04754" lon="4.86645">
        <ele>224</ele>
        <time>2014-04-25T13:55:55Z</time>
      </trkpt>
      <trkpt lat="47.04749" lon="4.86641">
        <ele>225</ele>
        <time>2014-04-25T13:55:59Z</time>
      </trkpt>
      <trkpt lat="47.04745" lon="4.86636">
        <ele>225</ele>
        <time>2014-04-25T13:56:02Z</time>
      </trkpt>
      <trkpt lat="47.04739" lon="4.86636">
        <ele>225</ele>
        <time>2014-04-25T13:56:06Z</time>
      </trkpt>
      <trkpt lat="47.04735" lon="4.86639">
        <ele>225</ele>
        <time>2014-04-25T13:56:12Z</time>
      </trkpt>
      <trkpt lat="47.0473" lon="4.86637">
        <ele>225</ele>
        <time>2014-04-25T13:56:17Z</time>
      </trkpt>
      <trkpt lat="47.04725" lon="4.86633">
        <ele>225</ele>
        <time>2014-04-25T13:56:20Z</time>
      </trkpt>
      <trkpt lat="47.0472" lon="4.8663">
        <ele>225</ele>
        <time>2014-04-25T13:56:24Z</time>
      </trkpt>
      <trkpt lat="47.04715" lon="4.86633">
        <ele>225</ele>
        <time>2014-04-25T13:56:28Z</time>
      </trkpt>
      <trkpt lat="47.0471" lon="4.86631">
        <ele>225</ele>
        <time>2014-04-25T13:56:32Z</time>
      </trkpt>
      <trkpt lat="47.04707" lon="4.86625">
        <ele>225</ele>
        <time>2014-04-25T13:56:36Z</time>
      </trkpt>
      <trkpt lat="47.04703" lon="4.8662">
        <ele>225</ele>
        <time>2014-04-25T13:56:40Z</time>
      </trkpt>
      <trkpt lat="47.04699" lon="4.86615">
        <ele>225</ele>
        <time>2014-04-25T13:56:42Z</time>
      </trkpt>
      <trkpt lat="47.04695" lon="4.86609">
        <ele>225</ele>
        <time>2014-04-25T13:56:53Z</time>
      </trkpt>
      <trkpt lat="47.04693" lon="4.86603">
        <ele>225</ele>
        <time>2014-04-25T13:56:57Z</time>
      </trkpt>
      <trkpt lat="47.04691" lon="4.86596">
        <ele>226</ele>
        <time>2014-04-25T13:57:01Z</time>
      </trkpt>
      <trkpt lat="47.04691" lon="4.86588">
        <ele>226</ele>
        <time>2014-04-25T13:57:06Z</time>
      </trkpt>
      <trkpt lat="47.04691" lon="4.86581">
        <ele>226</ele>
        <time>2014-04-25T13:57:11Z</time>
      </trkpt>
      <trkpt lat="47.0469" lon="4.86575">
        <ele>226</ele>
        <time>2014-04-25T13:57:16Z</time>
      </trkpt>
      <trkpt lat="47.0469" lon="4.86567">
        <ele>226</ele>
        <time>2014-04-25T13:57:20Z</time>
      </trkpt>
      <trkpt lat="47.04691" lon="4.86561">
        <ele>227</ele>
        <time>2014-04-25T13:57:23Z</time>
      </trkpt>
      <trkpt lat="47.04693" lon="4.86553">
        <ele>227</ele>
        <time>2014-04-25T13:57:27Z</time>
      </trkpt>
      <trkpt lat="47.04693" lon="4.86545">
        <ele>227</ele>
        <time>2014-04-25T13:57:30Z</time>
      </trkpt>
      <trkpt lat="47.04694" lon="4.86538">
        <ele>227</ele>
        <time>2014-04-25T13:57:34Z</time>
      </trkpt>
      <trkpt lat="47.04693" lon="4.8653">
        <ele>227</ele>
        <time>2014-04-25T13:57:38Z</time>
      </trkpt>
      <trkpt lat="47.0469" lon="4.86524">
        <ele>227</ele>
        <time>2014-04-25T13:57:41Z</time>
      </trkpt>
      <trkpt lat="47.04688" lon="4.86516">
        <ele>227</ele>
        <time>2014-04-25T13:57:45Z</time>
      </trkpt>
      <trkpt lat="47.04687" lon="4.86509">
        <ele>227</ele>
        <time>2014-04-25T13:57:51Z</time>
      </trkpt>
      <trkpt lat="47.04687" lon="4.86501">
        <ele>227</ele>
        <time>2014-04-25T13:57:56Z</time>
      </trkpt>
      <trkpt lat="47.0469" lon="4.86494">
        <ele>228</ele>
        <time>2014-04-25T13:58:00Z</time>
      </trkpt>
      <trkpt lat="47.04693" lon="4.86488">
        <ele>228</ele>
        <time>2014-04-25T13:58:03Z</time>
      </trkpt>
      <trkpt lat="47.04695" lon="4.86481">
        <ele>228</ele>
        <time>2014-04-25T13:58:06Z</time>
      </trkpt>
      <trkpt lat="47.04694" lon="4.86474">
        <ele>228</ele>
        <time>2014-04-25T13:58:09Z</time>
      </trkpt>
      <trkpt lat="47.04694" lon="4.86467">
        <ele>228</ele>
        <time>2014-04-25T13:58:12Z</time>
      </trkpt>
      <trkpt lat="47.04693" lon="4.8646">
        <ele>228</ele>
        <time>2014-04-25T13:58:16Z</time>
      </trkpt>
      <trkpt lat="47.04691" lon="4.86453">
        <ele>228</ele>
        <time>2014-04-25T13:58:19Z</time>
      </trkpt>
      <trkpt lat="47.04692" lon="4.86445">
        <ele>228</ele>
        <time>2014-04-25T13:58:22Z</time>
      </trkpt>
      <trkpt lat="47.04692" lon="4.86438">
        <ele>228</ele>
        <time>2014-04-25T13:58:25Z</time>
      </trkpt>
      <trkpt lat="47.04691" lon="4.86432">
        <ele>228</ele>
        <time>2014-04-25T13:58:29Z</time>
      </trkpt>
      <trkpt lat="47.04686" lon="4.86426">
        <ele>228</ele>
        <time>2014-04-25T13:58:32Z</time>
      </trkpt>
      <trkpt lat="47.04682" lon="4.86421">
        <ele>228</ele>
        <time>2014-04-25T13:58:34Z</time>
      </trkpt>
      <trkpt lat="47.04679" lon="4.86417">
        <ele>228</ele>
        <time>2014-04-25T13:58:37Z</time>
      </trkpt>
      <trkpt lat="47.04674" lon="4.86419">
        <ele>228</ele>
        <time>2014-04-25T13:58:44Z</time>
      </trkpt>
      <trkpt lat="47.04669" lon="4.86418">
        <ele>228</ele>
        <time>2014-04-25T13:58:48Z</time>
      </trkpt>
      <trkpt lat="47.04664" lon="4.86418">
        <ele>228</ele>
        <time>2014-04-25T13:58:51Z</time>
      </trkpt>
      <trkpt lat="47.04659" lon="4.86418">
        <ele>228</ele>
        <time>2014-04-25T13:58:55Z</time>
      </trkpt>
      <trkpt lat="47.04654" lon="4.86418">
        <ele>228</ele>
        <time>2014-04-25T13:59:00Z</time>
      </trkpt>
      <trkpt lat="47.04649" lon="4.8642">
        <ele>227</ele>
        <time>2014-04-25T13:59:03Z</time>
      </trkpt>
      <trkpt lat="47.04644" lon="4.86421">
        <ele>227</ele>
        <time>2014-04-25T13:59:06Z</time>
      </trkpt>
      <trkpt lat="47.04639" lon="4.86421">
        <ele>227</ele>
        <time>2014-04-25T13:59:10Z</time>
      </trkpt>
      <trkpt lat="47.04634" lon="4.86418">
        <ele>227</ele>
        <time>2014-04-25T13:59:15Z</time>
      </trkpt>
      <trkpt lat="47.04629" lon="4.8642">
        <ele>227</ele>
        <time>2014-04-25T13:59:19Z</time>
      </trkpt>
      <trkpt lat="47.04623" lon="4.86422">
        <ele>227</ele>
        <time>2014-04-25T13:59:23Z</time>
      </trkpt>
      <trkpt lat="47.04618" lon="4.86422">
        <ele>227</ele>
        <time>2014-04-25T13:59:26Z</time>
      </trkpt>
      <trkpt lat="47.04613" lon="4.8642">
        <ele>227</ele>
        <time>2014-04-25T13:59:30Z</time>
      </trkpt>
      <trkpt lat="47.04607" lon="4.86421">
        <ele>227</ele>
        <time>2014-04-25T13:59:33Z</time>
      </trkpt>
      <trkpt lat="47.04601" lon="4.86421">
        <ele>227</ele>
        <time>2014-04-25T13:59:36Z</time>
      </trkpt>
      <trkpt lat="47.04597" lon="4.86421">
        <ele>227</ele>
        <time>2014-04-25T13:59:39Z</time>
      </trkpt>
      <trkpt lat="47.04591" lon="4.86419">
        <ele>227</ele>
        <time>2014-04-25T13:59:43Z</time>
      </trkpt>
      <trkpt lat="47.04586" lon="4.8642">
        <ele>227</ele>
        <time>2014-04-25T13:59:48Z</time>
      </trkpt>
      <trkpt lat="47.04582" lon="4.86421">
        <ele>227</ele>
        <time>2014-04-25T13:59:51Z</time>
      </trkpt>
      <trkpt lat="47.04577" lon="4.86421">
        <ele>227</ele>
        <time>2014-04-25T13:59:55Z</time>
      </trkpt>
      <trkpt lat="47.04574" lon="4.8642">
        <ele>227</ele>
        <time>2014-04-25T14:00:01Z</time>
      </trkpt>
      <trkpt lat="47.04571" lon="4.86416">
        <ele>227</ele>
        <time>2014-04-25T14:00:08Z</time>
      </trkpt>
      <trkpt lat="47.04565" lon="4.86413">
        <ele>227</ele>
        <time>2014-04-25T14:00:11Z</time>
      </trkpt>
      <trkpt lat="47.0456" lon="4.86412">
        <ele>227</ele>
        <time>2014-04-25T14:00:14Z</time>
      </trkpt>
      <trkpt lat="47.04555" lon="4.8641">
        <ele>227</ele>
        <time>2014-04-25T14:00:18Z</time>
      </trkpt>
      <trkpt lat="47.04551" lon="4.86407">
        <ele>227</ele>
        <time>2014-04-25T14:00:22Z</time>
      </trkpt>
      <trkpt lat="47.04547" lon="4.86403">
        <ele>227</ele>
        <time>2014-04-25T14:00:28Z</time>
      </trkpt>
      <trkpt lat="47.04541" lon="4.864">
        <ele>227</ele>
        <time>2014-04-25T14:00:32Z</time>
      </trkpt>
      <trkpt lat="47.04536" lon="4.86395">
        <ele>227</ele>
        <time>2014-04-25T14:00:36Z</time>
      </trkpt>
      <trkpt lat="47.04534" lon="4.8639">
        <ele>227</ele>
        <time>2014-04-25T14:00:40Z</time>
      </trkpt>
      <trkpt lat="47.04531" lon="4.86384">
        <ele>227</ele>
        <time>2014-04-25T14:00:45Z</time>
      </trkpt>
      <trkpt lat="47.04525" lon="4.86381">
        <ele>227</ele>
        <time>2014-04-25T14:00:49Z</time>
      </trkpt>
      <trkpt lat="47.04521" lon="4.86379">
        <ele>227</ele>
        <time>2014-04-25T14:00:52Z</time>
      </trkpt>
      <trkpt lat="47.04516" lon="4.86376">
        <ele>227</ele>
        <time>2014-04-25T14:00:55Z</time>
      </trkpt>
      <trkpt lat="47.04511" lon="4.86374">
        <ele>227</ele>
        <time>2014-04-25T14:00:59Z</time>
      </trkpt>
      <trkpt lat="47.04506" lon="4.86374">
        <ele>227</ele>
        <time>2014-04-25T14:01:02Z</time>
      </trkpt>
      <trkpt lat="47.04501" lon="4.86374">
        <ele>227</ele>
        <time>2014-04-25T14:01:06Z</time>
      </trkpt>
      <trkpt lat="47.04495" lon="4.86372">
        <ele>227</ele>
        <time>2014-04-25T14:01:09Z</time>
      </trkpt>
      <trkpt lat="47.04491" lon="4.86368">
        <ele>227</ele>
        <time>2014-04-25T14:01:13Z</time>
      </trkpt>
      <trkpt lat="47.04486" lon="4.86364">
        <ele>227</ele>
        <time>2014-04-25T14:01:17Z</time>
      </trkpt>
      <trkpt lat="47.04481" lon="4.86359">
        <ele>227</ele>
        <time>2014-04-25T14:01:22Z</time>
      </trkpt>
      <trkpt lat="47.04476" lon="4.86356">
        <ele>227</ele>
        <time>2014-04-25T14:01:25Z</time>
      </trkpt>
      <trkpt lat="47.04471" lon="4.86353">
        <ele>227</ele>
        <time>2014-04-25T14:01:29Z</time>
      </trkpt>
      <trkpt lat="47.04466" lon="4.86351">
        <ele>227</ele>
        <time>2014-04-25T14:01:33Z</time>
      </trkpt>
      <trkpt lat="47.04461" lon="4.86348">
        <ele>227</ele>
        <time>2014-04-25T14:01:37Z</time>
      </trkpt>
      <trkpt lat="47.04457" lon="4.86344">
        <ele>226</ele>
        <time>2014-04-25T14:01:41Z</time>
      </trkpt>
      <trkpt lat="47.04453" lon="4.86341">
        <ele>226</ele>
        <time>2014-04-25T14:01:45Z</time>
      </trkpt>
      <trkpt lat="47.04448" lon="4.86338">
        <ele>226</ele>
        <time>2014-04-25T14:01:49Z</time>
      </trkpt>
      <trkpt lat="47.04444" lon="4.86334">
        <ele>226</ele>
        <time>2014-04-25T14:01:53Z</time>
      </trkpt>
      <trkpt lat="47.0444" lon="4.8633">
        <ele>227</ele>
        <time>2014-04-25T14:01:56Z</time>
      </trkpt>
      <trkpt lat="47.04437" lon="4.86325">
        <ele>227</ele>
        <time>2014-04-25T14:01:59Z</time>
      </trkpt>
      <trkpt lat="47.04433" lon="4.86321">
        <ele>227</ele>
        <time>2014-04-25T14:02:02Z</time>
      </trkpt>
      <trkpt lat="47.04428" lon="4.86319">
        <ele>227</ele>
        <time>2014-04-25T14:02:06Z</time>
      </trkpt>
      <trkpt lat="47.04423" lon="4.86319">
        <ele>227</ele>
        <time>2014-04-25T14:02:09Z</time>
      </trkpt>
      <trkpt lat="47.04417" lon="4.86317">
        <ele>227</ele>
        <time>2014-04-25T14:02:13Z</time>
      </trkpt>
      <trkpt lat="47.04412" lon="4.86315">
        <ele>226</ele>
        <time>2014-04-25T14:02:17Z</time>
      </trkpt>
      <trkpt lat="47.04407" lon="4.86314">
        <ele>226</ele>
        <time>2014-04-25T14:02:21Z</time>
      </trkpt>
      <trkpt lat="47.04402" lon="4.86311">
        <ele>227</ele>
        <time>2014-04-25T14:02:26Z</time>
      </trkpt>
      <trkpt lat="47.04397" lon="4.86309">
        <ele>227</ele>
        <time>2014-04-25T14:02:30Z</time>
      </trkpt>
      <trkpt lat="47.04392" lon="4.86306">
        <ele>227</ele>
        <time>2014-04-25T14:02:34Z</time>
      </trkpt>
      <trkpt lat="47.04388" lon="4.86302">
        <ele>227</ele>
        <time>2014-04-25T14:02:38Z</time>
      </trkpt>
      <trkpt lat="47.04383" lon="4.86299">
        <ele>227</ele>
        <time>2014-04-25T14:02:42Z</time>
      </trkpt>
      <trkpt lat="47.04379" lon="4.86297">
        <ele>227</ele>
        <time>2014-04-25T14:02:45Z</time>
      </trkpt>
      <trkpt lat="47.04374" lon="4.86296">
        <ele>227</ele>
        <time>2014-04-25T14:02:48Z</time>
      </trkpt>
      <trkpt lat="47.04368" lon="4.86294">
        <ele>227</ele>
        <time>2014-04-25T14:02:52Z</time>
      </trkpt>
      <trkpt lat="47.04363" lon="4.86293">
        <ele>227</ele>
        <time>2014-04-25T14:02:56Z</time>
      </trkpt>
      <trkpt lat="47.04358" lon="4.86293">
        <ele>227</ele>
        <time>2014-04-25T14:03:00Z</time>
      </trkpt>
      <trkpt lat="47.04353" lon="4.86295">
        <ele>227</ele>
        <time>2014-04-25T14:03:03Z</time>
      </trkpt>
      <trkpt lat="47.04348" lon="4.86296">
        <ele>227</ele>
        <time>2014-04-25T14:03:06Z</time>
      </trkpt>
      <trkpt lat="47.04344" lon="4.86294">
        <ele>227</ele>
        <time>2014-04-25T14:03:09Z</time>
      </trkpt>
      <trkpt lat="47.0434" lon="4.8629">
        <ele>227</ele>
        <time>2014-04-25T14:03:13Z</time>
      </trkpt>
      <trkpt lat="47.04335" lon="4.86287">
        <ele>227</ele>
        <time>2014-04-25T14:03:17Z</time>
      </trkpt>
      <trkpt lat="47.04331" lon="4.86285">
        <ele>226</ele>
        <time>2014-04-25T14:03:21Z</time>
      </trkpt>
      <trkpt lat="47.04326" lon="4.86283">
        <ele>226</ele>
        <time>2014-04-25T14:03:24Z</time>
      </trkpt>
      <trkpt lat="47.04322" lon="4.86281">
        <ele>226</ele>
        <time>2014-04-25T14:03:28Z</time>
      </trkpt>
      <trkpt lat="47.04317" lon="4.86283">
        <ele>226</ele>
        <time>2014-04-25T14:03:31Z</time>
      </trkpt>
      <trkpt lat="47.04312" lon="4.86283">
        <ele>226</ele>
        <time>2014-04-25T14:03:37Z</time>
      </trkpt>
      <trkpt lat="47.04306" lon="4.86282">
        <ele>226</ele>
        <time>2014-04-25T14:03:42Z</time>
      </trkpt>
      <trkpt lat="47.04302" lon="4.8628">
        <ele>226</ele>
        <time>2014-04-25T14:03:46Z</time>
      </trkpt>
      <trkpt lat="47.04294" lon="4.86276">
        <ele>226</ele>
        <time>2014-04-25T14:04:04Z</time>
      </trkpt>
      <trkpt lat="47.0429" lon="4.86275">
        <ele>226</ele>
        <time>2014-04-25T14:04:08Z</time>
      </trkpt>
      <trkpt lat="47.04285" lon="4.86273">
        <ele>226</ele>
        <time>2014-04-25T14:04:11Z</time>
      </trkpt>
      <trkpt lat="47.04281" lon="4.86272">
        <ele>226</ele>
        <time>2014-04-25T14:04:14Z</time>
      </trkpt>
      <trkpt lat="47.04276" lon="4.8627">
        <ele>226</ele>
        <time>2014-04-25T14:04:18Z</time>
      </trkpt>
      <trkpt lat="47.04272" lon="4.8627">
        <ele>226</ele>
        <time>2014-04-25T14:04:20Z</time>
      </trkpt>
      <trkpt lat="47.04266" lon="4.8627">
        <ele>225</ele>
        <time>2014-04-25T14:04:24Z</time>
      </trkpt>
      <trkpt lat="47.0426" lon="4.86269">
        <ele>225</ele>
        <time>2014-04-25T14:04:28Z</time>
      </trkpt>
      <trkpt lat="47.04255" lon="4.86267">
        <ele>225</ele>
        <time>2014-04-25T14:04:31Z</time>
      </trkpt>
      <trkpt lat="47.04251" lon="4.86266">
        <ele>225</ele>
        <time>2014-04-25T14:04:34Z</time>
      </trkpt>
      <trkpt lat="47.04246" lon="4.86266">
        <ele>225</ele>
        <time>2014-04-25T14:04:37Z</time>
      </trkpt>
      <trkpt lat="47.0424" lon="4.86264">
        <ele>225</ele>
        <time>2014-04-25T14:04:47Z</time>
      </trkpt>
      <trkpt lat="47.04235" lon="4.86264">
        <ele>224</ele>
        <time>2014-04-25T14:04:51Z</time>
      </trkpt>
      <trkpt lat="47.0423" lon="4.86263">
        <ele>224</ele>
        <time>2014-04-25T14:04:54Z</time>
      </trkpt>
      <trkpt lat="47.04225" lon="4.86264">
        <ele>224</ele>
        <time>2014-04-25T14:04:58Z</time>
      </trkpt>
      <trkpt lat="47.0422" lon="4.86261">
        <ele>224</ele>
        <time>2014-04-25T14:05:02Z</time>
      </trkpt>
      <trkpt lat="47.04215" lon="4.86263">
        <ele>224</ele>
        <time>2014-04-25T14:05:06Z</time>
      </trkpt>
      <trkpt lat="47.04209" lon="4.86263">
        <ele>224</ele>
        <time>2014-04-25T14:05:10Z</time>
      </trkpt>
      <trkpt lat="47.04204" lon="4.86262">
        <ele>224</ele>
        <time>2014-04-25T14:05:14Z</time>
      </trkpt>
      <trkpt lat="47.04199" lon="4.86259">
        <ele>224</ele>
        <time>2014-04-25T14:05:18Z</time>
      </trkpt>
      <trkpt lat="47.04195" lon="4.86258">
        <ele>224</ele>
        <time>2014-04-25T14:05:22Z</time>
      </trkpt>
      <trkpt lat="47.0419" lon="4.86258">
        <ele>224</ele>
        <time>2014-04-25T14:05:26Z</time>
      </trkpt>
      <trkpt lat="47.04184" lon="4.86258">
        <ele>224</ele>
        <time>2014-04-25T14:05:30Z</time>
      </trkpt>
      <trkpt lat="47.04179" lon="4.86254">
        <ele>223</ele>
        <time>2014-04-25T14:05:34Z</time>
      </trkpt>
      <trkpt lat="47.04176" lon="4.86249">
        <ele>223</ele>
        <time>2014-04-25T14:05:38Z</time>
      </trkpt>
      <trkpt lat="47.04171" lon="4.86247">
        <ele>223</ele>
        <time>2014-04-25T14:05:42Z</time>
      </trkpt>
      <trkpt lat="47.04166" lon="4.86246">
        <ele>223</ele>
        <time>2014-04-25T14:05:45Z</time>
      </trkpt>
      <trkpt lat="47.0416" lon="4.86246">
        <ele>223</ele>
        <time>2014-04-25T14:05:50Z</time>
      </trkpt>
      <trkpt lat="47.04154" lon="4.86245">
        <ele>223</ele>
        <time>2014-04-25T14:05:54Z</time>
      </trkpt>
      <trkpt lat="47.04148" lon="4.86246">
        <ele>223</ele>
        <time>2014-04-25T14:05:58Z</time>
      </trkpt>
      <trkpt lat="47.04143" lon="4.86246">
        <ele>222</ele>
        <time>2014-04-25T14:06:02Z</time>
      </trkpt>
      <trkpt lat="47.04137" lon="4.86245">
        <ele>222</ele>
        <time>2014-04-25T14:06:06Z</time>
      </trkpt>
      <trkpt lat="47.04132" lon="4.86245">
        <ele>222</ele>
        <time>2014-04-25T14:06:10Z</time>
      </trkpt>
      <trkpt lat="47.04127" lon="4.86245">
        <ele>222</ele>
        <time>2014-04-25T14:06:13Z</time>
      </trkpt>
      <trkpt lat="47.04121" lon="4.86244">
        <ele>222</ele>
        <time>2014-04-25T14:06:18Z</time>
      </trkpt>
      <trkpt lat="47.04117" lon="4.8624">
        <ele>222</ele>
        <time>2014-04-25T14:06:22Z</time>
      </trkpt>
      <trkpt lat="47.04114" lon="4.86234">
        <ele>222</ele>
        <time>2014-04-25T14:06:26Z</time>
      </trkpt>
      <trkpt lat="47.04109" lon="4.8623">
        <ele>222</ele>
        <time>2014-04-25T14:06:30Z</time>
      </trkpt>
      <trkpt lat="47.04103" lon="4.86228">
        <ele>222</ele>
        <time>2014-04-25T14:06:34Z</time>
      </trkpt>
      <trkpt lat="47.04099" lon="4.86221">
        <ele>222</ele>
        <time>2014-04-25T14:06:37Z</time>
      </trkpt>
      <trkpt lat="47.04098" lon="4.86214">
        <ele>222</ele>
        <time>2014-04-25T14:06:40Z</time>
      </trkpt>
      <trkpt lat="47.04098" lon="4.86207">
        <ele>222</ele>
        <time>2014-04-25T14:06:44Z</time>
      </trkpt>
      <trkpt lat="47.04095" lon="4.86201">
        <ele>222</ele>
        <time>2014-04-25T14:06:49Z</time>
      </trkpt>
      <trkpt lat="47.04093" lon="4.86194">
        <ele>222</ele>
        <time>2014-04-25T14:06:52Z</time>
      </trkpt>
      <trkpt lat="47.04092" lon="4.86186">
        <ele>222</ele>
        <time>2014-04-25T14:06:56Z</time>
      </trkpt>
      <trkpt lat="47.0409" lon="4.86179">
        <ele>222</ele>
        <time>2014-04-25T14:07:02Z</time>
      </trkpt>
      <trkpt lat="47.04088" lon="4.86173">
        <ele>221</ele>
        <time>2014-04-25T14:07:05Z</time>
      </trkpt>
      <trkpt lat="47.04086" lon="4.86166">
        <ele>221</ele>
        <time>2014-04-25T14:07:09Z</time>
      </trkpt>
      <trkpt lat="47.04084" lon="4.8616">
        <ele>221</ele>
        <time>2014-04-25T14:07:12Z</time>
      </trkpt>
      <trkpt lat="47.04082" lon="4.86153">
        <ele>221</ele>
        <time>2014-04-25T14:07:16Z</time>
      </trkpt>
      <trkpt lat="47.04081" lon="4.86145">
        <ele>221</ele>
        <time>2014-04-25T14:07:22Z</time>
      </trkpt>
      <trkpt lat="47.0408" lon="4.86138">
        <ele>221</ele>
        <time>2014-04-25T14:07:25Z</time>
      </trkpt>
      <trkpt lat="47.04078" lon="4.86132">
        <ele>221</ele>
        <time>2014-04-25T14:07:28Z</time>
      </trkpt>
      <trkpt lat="47.04075" lon="4.86125">
        <ele>221</ele>
        <time>2014-04-25T14:07:33Z</time>
      </trkpt>
      <trkpt lat="47.04073" lon="4.86117">
        <ele>221</ele>
        <time>2014-04-25T14:07:36Z</time>
      </trkpt>
      <trkpt lat="47.04071" lon="4.8611">
        <ele>221</ele>
        <time>2014-04-25T14:07:39Z</time>
      </trkpt>
      <trkpt lat="47.04068" lon="4.86102">
        <ele>221</ele>
        <time>2014-04-25T14:07:42Z</time>
      </trkpt>
      <trkpt lat="47.04066" lon="4.86094">
        <ele>221</ele>
        <time>2014-04-25T14:07:46Z</time>
      </trkpt>
      <trkpt lat="47.04065" lon="4.86087">
        <ele>221</ele>
        <time>2014-04-25T14:07:49Z</time>
      </trkpt>
      <trkpt lat="47.04064" lon="4.86079">
        <ele>222</ele>
        <time>2014-04-25T14:07:52Z</time>
      </trkpt>
      <trkpt lat="47.04063" lon="4.86073">
        <ele>222</ele>
        <time>2014-04-25T14:07:56Z</time>
      </trkpt>
      <trkpt lat="47.04062" lon="4.86065">
        <ele>222</ele>
        <time>2014-04-25T14:07:59Z</time>
      </trkpt>
      <trkpt lat="47.04061" lon="4.86058">
        <ele>222</ele>
        <time>2014-04-25T14:08:03Z</time>
      </trkpt>
      <trkpt lat="47.0406" lon="4.86052">
        <ele>222</ele>
        <time>2014-04-25T14:08:07Z</time>
      </trkpt>
      <trkpt lat="47.04058" lon="4.86044">
        <ele>222</ele>
        <time>2014-04-25T14:08:14Z</time>
      </trkpt>
      <trkpt lat="47.04055" lon="4.86038">
        <ele>222</ele>
        <time>2014-04-25T14:08:19Z</time>
      </trkpt>
      <trkpt lat="47.04053" lon="4.8603">
        <ele>222</ele>
        <time>2014-04-25T14:08:23Z</time>
      </trkpt>
      <trkpt lat="47.04051" lon="4.8602">
        <ele>222</ele>
        <time>2014-04-25T14:08:28Z</time>
      </trkpt>
      <trkpt lat="47.04051" lon="4.86012">
        <ele>222</ele>
        <time>2014-04-25T14:08:31Z</time>
      </trkpt>
      <trkpt lat="47.0405" lon="4.86004">
        <ele>223</ele>
        <time>2014-04-25T14:08:33Z</time>
      </trkpt>
      <trkpt lat="47.04049" lon="4.85997">
        <ele>223</ele>
        <time>2014-04-25T14:08:36Z</time>
      </trkpt>
      <trkpt lat="47.04049" lon="4.85989">
        <ele>223</ele>
        <time>2014-04-25T14:08:39Z</time>
      </trkpt>
      <trkpt lat="47.04048" lon="4.85982">
        <ele>223</ele>
        <time>2014-04-25T14:08:42Z</time>
      </trkpt>
      <trkpt lat="47.04047" lon="4.85973">
        <ele>223</ele>
        <time>2014-04-25T14:08:46Z</time>
      </trkpt>
      <trkpt lat="47.04047" lon="4.85966">
        <ele>223</ele>
        <time>2014-04-25T14:08:49Z</time>
      </trkpt>
      <trkpt lat="47.04047" lon="4.85957">
        <ele>223</ele>
        <time>2014-04-25T14:08:53Z</time>
      </trkpt>
      <trkpt lat="47.04047" lon="4.8595">
        <ele>223</ele>
        <time>2014-04-25T14:08:57Z</time>
      </trkpt>
      <trkpt lat="47.04046" lon="4.85943">
        <ele>223</ele>
        <time>2014-04-25T14:09:02Z</time>
      </trkpt>
      <trkpt lat="47.04047" lon="4.85937">
        <ele>223</ele>
        <time>2014-04-25T14:09:06Z</time>
      </trkpt>
      <trkpt lat="47.04047" lon="4.85929">
        <ele>223</ele>
        <time>2014-04-25T14:09:12Z</time>
      </trkpt>
      <trkpt lat="47.04047" lon="4.85921">
        <ele>223</ele>
        <time>2014-04-25T14:09:16Z</time>
      </trkpt>
      <trkpt lat="47.04047" lon="4.85914">
        <ele>222</ele>
        <time>2014-04-25T14:09:20Z</time>
      </trkpt>
      <trkpt lat="47.04046" lon="4.85907">
        <ele>222</ele>
        <time>2014-04-25T14:09:24Z</time>
      </trkpt>
      <trkpt lat="47.04045" lon="4.85892">
        <ele>222</ele>
        <time>2014-04-25T14:09:30Z</time>
      </trkpt>
      <trkpt lat="47.04046" lon="4.85885">
        <ele>222</ele>
        <time>2014-04-25T14:09:34Z</time>
      </trkpt>
      <trkpt lat="47.04045" lon="4.85878">
        <ele>222</ele>
        <time>2014-04-25T14:09:37Z</time>
      </trkpt>
      <trkpt lat="47.04044" lon="4.85869">
        <ele>222</ele>
        <time>2014-04-25T14:09:42Z</time>
      </trkpt>
      <trkpt lat="47.04045" lon="4.85861">
        <ele>222</ele>
        <time>2014-04-25T14:09:45Z</time>
      </trkpt>
      <trkpt lat="47.04045" lon="4.85855">
        <ele>222</ele>
        <time>2014-04-25T14:09:49Z</time>
      </trkpt>
      <trkpt lat="47.04045" lon="4.85847">
        <ele>222</ele>
        <time>2014-04-25T14:09:53Z</time>
      </trkpt>
      <trkpt lat="47.04045" lon="4.85839">
        <ele>222</ele>
        <time>2014-04-25T14:09:58Z</time>
      </trkpt>
      <trkpt lat="47.04046" lon="4.85831">
        <ele>221</ele>
        <time>2014-04-25T14:10:00Z</time>
      </trkpt>
      <trkpt lat="47.04046" lon="4.85824">
        <ele>221</ele>
        <time>2014-04-25T14:10:04Z</time>
      </trkpt>
      <trkpt lat="47.04046" lon="4.85817">
        <ele>221</ele>
        <time>2014-04-25T14:10:07Z</time>
      </trkpt>
      <trkpt lat="47.04045" lon="4.85808">
        <ele>221</ele>
        <time>2014-04-25T14:10:10Z</time>
      </trkpt>
      <trkpt lat="47.04044" lon="4.858">
        <ele>221</ele>
        <time>2014-04-25T14:10:14Z</time>
      </trkpt>
      <trkpt lat="47.04045" lon="4.85792">
        <ele>221</ele>
        <time>2014-04-25T14:10:17Z</time>
      </trkpt>
      <trkpt lat="47.04049" lon="4.85785">
        <ele>221</ele>
        <time>2014-04-25T14:10:22Z</time>
      </trkpt>
      <trkpt lat="47.04051" lon="4.85778">
        <ele>221</ele>
        <time>2014-04-25T14:10:28Z</time>
      </trkpt>
      <trkpt lat="47.0405" lon="4.8577">
        <ele>221</ele>
        <time>2014-04-25T14:10:33Z</time>
      </trkpt>
      <trkpt lat="47.04051" lon="4.85763">
        <ele>220</ele>
        <time>2014-04-25T14:10:37Z</time>
      </trkpt>
      <trkpt lat="47.04051" lon="4.85756">
        <ele>220</ele>
        <time>2014-04-25T14:10:42Z</time>
      </trkpt>
      <trkpt lat="47.04051" lon="4.85749">
        <ele>220</ele>
        <time>2014-04-25T14:10:45Z</time>
      </trkpt>
      <trkpt lat="47.04051" lon="4.85741">
        <ele>220</ele>
        <time>2014-04-25T14:10:50Z</time>
      </trkpt>
      <trkpt lat="47.04051" lon="4.85732">
        <ele>220</ele>
        <time>2014-04-25T14:10:56Z</time>
      </trkpt>
      <trkpt lat="47.04051" lon="4.85725">
        <ele>220</ele>
        <time>2014-04-25T14:10:59Z</time>
      </trkpt>
      <trkpt lat="47.04051" lon="4.85718">
        <ele>220</ele>
        <time>2014-04-25T14:11:04Z</time>
      </trkpt>
      <trkpt lat="47.0405" lon="4.8571">
        <ele>220</ele>
        <time>2014-04-25T14:11:08Z</time>
      </trkpt>
      <trkpt lat="47.04049" lon="4.85703">
        <ele>220</ele>
        <time>2014-04-25T14:11:11Z</time>
      </trkpt>
      <trkpt lat="47.04047" lon="4.85696">
        <ele>220</ele>
        <time>2014-04-25T14:11:14Z</time>
      </trkpt>
      <trkpt lat="47.04049" lon="4.8569">
        <ele>220</ele>
        <time>2014-04-25T14:11:17Z</time>
      </trkpt>
      <trkpt lat="47.04049" lon="4.85682">
        <ele>220</ele>
        <time>2014-04-25T14:11:21Z</time>
      </trkpt>
      <trkpt lat="47.04049" lon="4.85674">
        <ele>220</ele>
        <time>2014-04-25T14:11:26Z</time>
      </trkpt>
      <trkpt lat="47.04048" lon="4.85667">
        <ele>220</ele>
        <time>2014-04-25T14:11:29Z</time>
      </trkpt>
      <trkpt lat="47.04047" lon="4.85661">
        <ele>220</ele>
        <time>2014-04-25T14:11:34Z</time>
      </trkpt>
      <trkpt lat="47.04048" lon="4.85652">
        <ele>220</ele>
        <time>2014-04-25T14:11:39Z</time>
      </trkpt>
      <trkpt lat="47.0405" lon="4.85646">
        <ele>220</ele>
        <time>2014-04-25T14:11:41Z</time>
      </trkpt>
      <trkpt lat="47.04051" lon="4.85639">
        <ele>220</ele>
        <time>2014-04-25T14:11:45Z</time>
      </trkpt>
      <trkpt lat="47.04052" lon="4.85631">
        <ele>220</ele>
        <time>2014-04-25T14:11:49Z</time>
      </trkpt>
      <trkpt lat="47.0405" lon="4.85625">
        <ele>220</ele>
        <time>2014-04-25T14:11:52Z</time>
      </trkpt>
      <trkpt lat="47.0405" lon="4.85616">
        <ele>220</ele>
        <time>2014-04-25T14:11:56Z</time>
      </trkpt>
      <trkpt lat="47.04049" lon="4.85609">
        <ele>220</ele>
        <time>2014-04-25T14:12:00Z</time>
      </trkpt>
      <trkpt lat="47.04051" lon="4.85603">
        <ele>220</ele>
        <time>2014-04-25T14:12:03Z</time>
      </trkpt>
      <trkpt lat="47.04052" lon="4.85596">
        <ele>220</ele>
        <time>2014-04-25T14:12:07Z</time>
      </trkpt>
      <trkpt lat="47.04051" lon="4.85589">
        <ele>220</ele>
        <time>2014-04-25T14:12:11Z</time>
      </trkpt>
      <trkpt lat="47.0405" lon="4.85581">
        <ele>221</ele>
        <time>2014-04-25T14:12:15Z</time>
      </trkpt>
      <trkpt lat="47.0405" lon="4.85574">
        <ele>221</ele>
        <time>2014-04-25T14:12:19Z</time>
      </trkpt>
      <trkpt lat="47.04052" lon="4.85566">
        <ele>221</ele>
        <time>2014-04-25T14:12:24Z</time>
      </trkpt>
      <trkpt lat="47.0405" lon="4.85558">
        <ele>221</ele>
        <time>2014-04-25T14:12:27Z</time>
      </trkpt>
      <trkpt lat="47.04048" lon="4.8555">
        <ele>221</ele>
        <time>2014-04-25T14:12:30Z</time>
      </trkpt>
      <trkpt lat="47.04046" lon="4.85542">
        <ele>221</ele>
        <time>2014-04-25T14:12:33Z</time>
      </trkpt>
      <trkpt lat="47.04045" lon="4.85535">
        <ele>221</ele>
        <time>2014-04-25T14:12:36Z</time>
      </trkpt>
      <trkpt lat="47.04044" lon="4.85528">
        <ele>221</ele>
        <time>2014-04-25T14:12:40Z</time>
      </trkpt>
      <trkpt lat="47.04043" lon="4.8552">
        <ele>221</ele>
        <time>2014-04-25T14:12:44Z</time>
      </trkpt>
      <trkpt lat="47.04041" lon="4.85513">
        <ele>221</ele>
        <time>2014-04-25T14:12:47Z</time>
      </trkpt>
      <trkpt lat="47.04039" lon="4.85507">
        <ele>221</ele>
        <time>2014-04-25T14:12:51Z</time>
      </trkpt>
      <trkpt lat="47.04036" lon="4.855">
        <ele>221</ele>
        <time>2014-04-25T14:12:54Z</time>
      </trkpt>
      <trkpt lat="47.04034" lon="4.85494">
        <ele>221</ele>
        <time>2014-04-25T14:12:59Z</time>
      </trkpt>
      <trkpt lat="47.04033" lon="4.85487">
        <ele>222</ele>
        <time>2014-04-25T14:13:06Z</time>
      </trkpt>
      <trkpt lat="47.04032" lon="4.85479">
        <ele>222</ele>
        <time>2014-04-25T14:13:08Z</time>
      </trkpt>
      <trkpt lat="47.04031" lon="4.85473">
        <ele>222</ele>
        <time>2014-04-25T14:13:10Z</time>
      </trkpt>
      <trkpt lat="47.04028" lon="4.85466">
        <ele>222</ele>
        <time>2014-04-25T14:13:13Z</time>
      </trkpt>
      <trkpt lat="47.04024" lon="4.85462">
        <ele>222</ele>
        <time>2014-04-25T14:13:16Z</time>
      </trkpt>
      <trkpt lat="47.04021" lon="4.85456">
        <ele>222</ele>
        <time>2014-04-25T14:13:25Z</time>
      </trkpt>
      <trkpt lat="47.04021" lon="4.85449">
        <ele>222</ele>
        <time>2014-04-25T14:13:30Z</time>
      </trkpt>
      <trkpt lat="47.04019" lon="4.85442">
        <ele>222</ele>
        <time>2014-04-25T14:13:34Z</time>
      </trkpt>
      <trkpt lat="47.04016" lon="4.85436">
        <ele>222</ele>
        <time>2014-04-25T14:13:38Z</time>
      </trkpt>
      <trkpt lat="47.04012" lon="4.85428">
        <ele>222</ele>
        <time>2014-04-25T14:13:41Z</time>
      </trkpt>
      <trkpt lat="47.04011" lon="4.85421">
        <ele>223</ele>
        <time>2014-04-25T14:13:45Z</time>
      </trkpt>
      <trkpt lat="47.04008" lon="4.85415">
        <ele>223</ele>
        <time>2014-04-25T14:13:49Z</time>
      </trkpt>
      <trkpt lat="47.04004" lon="4.85409">
        <ele>223</ele>
        <time>2014-04-25T14:13:53Z</time>
      </trkpt>
      <trkpt lat="47.04002" lon="4.85402">
        <ele>223</ele>
        <time>2014-04-25T14:13:57Z</time>
      </trkpt>
      <trkpt lat="47.04" lon="4.85395">
        <ele>223</ele>
        <time>2014-04-25T14:14:01Z</time>
      </trkpt>
      <trkpt lat="47.03995" lon="4.8539">
        <ele>224</ele>
        <time>2014-04-25T14:14:06Z</time>
      </trkpt>
      <trkpt lat="47.03991" lon="4.85386">
        <ele>224</ele>
        <time>2014-04-25T14:14:08Z</time>
      </trkpt>
      <trkpt lat="47.03987" lon="4.85379">
        <ele>224</ele>
        <time>2014-04-25T14:14:12Z</time>
      </trkpt>
      <trkpt lat="47.03985" lon="4.85373">
        <ele>224</ele>
        <time>2014-04-25T14:14:16Z</time>
      </trkpt>
      <trkpt lat="47.03981" lon="4.85367">
        <ele>224</ele>
        <time>2014-04-25T14:14:19Z</time>
      </trkpt>
      <trkpt lat="47.03977" lon="4.85361">
        <ele>224</ele>
        <time>2014-04-25T14:14:23Z</time>
      </trkpt>
      <trkpt lat="47.03974" lon="4.85354">
        <ele>224</ele>
        <time>2014-04-25T14:14:26Z</time>
      </trkpt>
      <trkpt lat="47.03975" lon="4.85347">
        <ele>224</ele>
        <time>2014-04-25T14:14:29Z</time>
      </trkpt>
      <trkpt lat="47.03976" lon="4.85339">
        <ele>224</ele>
        <time>2014-04-25T14:14:34Z</time>
      </trkpt>
      <trkpt lat="47.03972" lon="4.85335">
        <ele>224</ele>
        <time>2014-04-25T14:14:38Z</time>
      </trkpt>
      <trkpt lat="47.03968" lon="4.85331">
        <ele>225</ele>
        <time>2014-04-25T14:14:41Z</time>
      </trkpt>
      <trkpt lat="47.03964" lon="4.85327">
        <ele>225</ele>
        <time>2014-04-25T14:14:44Z</time>
      </trkpt>
      <trkpt lat="47.03961" lon="4.85321">
        <ele>225</ele>
        <time>2014-04-25T14:14:48Z</time>
      </trkpt>
      <trkpt lat="47.03957" lon="4.85315">
        <ele>225</ele>
        <time>2014-04-25T14:14:52Z</time>
      </trkpt>
      <trkpt lat="47.03954" lon="4.85308">
        <ele>225</ele>
        <time>2014-04-25T14:14:56Z</time>
      </trkpt>
      <trkpt lat="47.03951" lon="4.85302">
        <ele>225</ele>
        <time>2014-04-25T14:14:59Z</time>
      </trkpt>
      <trkpt lat="47.03947" lon="4.85298">
        <ele>225</ele>
        <time>2014-04-25T14:15:02Z</time>
      </trkpt>
      <trkpt lat="47.03942" lon="4.85294">
        <ele>225</ele>
        <time>2014-04-25T14:15:06Z</time>
      </trkpt>
      <trkpt lat="47.03939" lon="4.85287">
        <ele>225</ele>
        <time>2014-04-25T14:15:10Z</time>
      </trkpt>
      <trkpt lat="47.03938" lon="4.85279">
        <ele>225</ele>
        <time>2014-04-25T14:15:13Z</time>
      </trkpt>
      <trkpt lat="47.03937" lon="4.85263">
        <ele>226</ele>
        <time>2014-04-25T14:15:18Z</time>
      </trkpt>
      <trkpt lat="47.03909" lon="4.8524">
        <ele>226</ele>
        <time>2014-04-25T14:15:37Z</time>
      </trkpt>
      <trkpt lat="47.03904" lon="4.85235">
        <ele>226</ele>
        <time>2014-04-25T14:15:47Z</time>
      </trkpt>
      <trkpt lat="47.03901" lon="4.85231">
        <ele>226</ele>
        <time>2014-04-25T14:15:51Z</time>
      </trkpt>
      <trkpt lat="47.03896" lon="4.85227">
        <ele>226</ele>
        <time>2014-04-25T14:15:56Z</time>
      </trkpt>
      <trkpt lat="47.03891" lon="4.85224">
        <ele>226</ele>
        <time>2014-04-25T14:15:59Z</time>
      </trkpt>
      <trkpt lat="47.03885" lon="4.8522">
        <ele>226</ele>
        <time>2014-04-25T14:16:03Z</time>
      </trkpt>
      <trkpt lat="47.03881" lon="4.85215">
        <ele>226</ele>
        <time>2014-04-25T14:16:07Z</time>
      </trkpt>
      <trkpt lat="47.03877" lon="4.85208">
        <ele>226</ele>
        <time>2014-04-25T14:16:11Z</time>
      </trkpt>
      <trkpt lat="47.03875" lon="4.85202">
        <ele>226</ele>
        <time>2014-04-25T14:16:14Z</time>
      </trkpt>
      <trkpt lat="47.03873" lon="4.85195">
        <ele>226</ele>
        <time>2014-04-25T14:16:19Z</time>
      </trkpt>
      <trkpt lat="47.03871" lon="4.85188">
        <ele>226</ele>
        <time>2014-04-25T14:16:23Z</time>
      </trkpt>
      <trkpt lat="47.03868" lon="4.85183">
        <ele>226</ele>
        <time>2014-04-25T14:16:27Z</time>
      </trkpt>
      <trkpt lat="47.03863" lon="4.85179">
        <ele>226</ele>
        <time>2014-04-25T14:16:30Z</time>
      </trkpt>
      <trkpt lat="47.03858" lon="4.85174">
        <ele>226</ele>
        <time>2014-04-25T14:16:34Z</time>
      </trkpt>
      <trkpt lat="47.03854" lon="4.85168">
        <ele>226</ele>
        <time>2014-04-25T14:16:39Z</time>
      </trkpt>
      <trkpt lat="47.0385" lon="4.85162">
        <ele>226</ele>
        <time>2014-04-25T14:16:43Z</time>
      </trkpt>
      <trkpt lat="47.03846" lon="4.85157">
        <ele>226</ele>
        <time>2014-04-25T14:16:47Z</time>
      </trkpt>
      <trkpt lat="47.03841" lon="4.85152">
        <ele>226</ele>
        <time>2014-04-25T14:16:52Z</time>
      </trkpt>
      <trkpt lat="47.03837" lon="4.85146">
        <ele>226</ele>
        <time>2014-04-25T14:16:55Z</time>
      </trkpt>
      <trkpt lat="47.03833" lon="4.8514">
        <ele>225</ele>
        <time>2014-04-25T14:16:58Z</time>
      </trkpt>
      <trkpt lat="47.03829" lon="4.85135">
        <ele>225</ele>
        <time>2014-04-25T14:17:02Z</time>
      </trkpt>
      <trkpt lat="47.03826" lon="4.85129">
        <ele>225</ele>
        <time>2014-04-25T14:17:07Z</time>
      </trkpt>
      <trkpt lat="47.03823" lon="4.85123">
        <ele>225</ele>
        <time>2014-04-25T14:17:10Z</time>
      </trkpt>
      <trkpt lat="47.03822" lon="4.85116">
        <ele>225</ele>
        <time>2014-04-25T14:17:14Z</time>
      </trkpt>
      <trkpt lat="47.03821" lon="4.8511">
        <ele>225</ele>
        <time>2014-04-25T14:17:18Z</time>
      </trkpt>
      <trkpt lat="47.03818" lon="4.85103">
        <ele>225</ele>
        <time>2014-04-25T14:17:22Z</time>
      </trkpt>
      <trkpt lat="47.03815" lon="4.85097">
        <ele>225</ele>
        <time>2014-04-25T14:17:27Z</time>
      </trkpt>
      <trkpt lat="47.03809" lon="4.85094">
        <ele>225</ele>
        <time>2014-04-25T14:17:31Z</time>
      </trkpt>
      <trkpt lat="47.03803" lon="4.85092">
        <ele>225</ele>
        <time>2014-04-25T14:17:34Z</time>
      </trkpt>
      <trkpt lat="47.03799" lon="4.8509">
        <ele>225</ele>
        <time>2014-04-25T14:17:37Z</time>
      </trkpt>
      <trkpt lat="47.03793" lon="4.85087">
        <ele>225</ele>
        <time>2014-04-25T14:17:41Z</time>
      </trkpt>
      <trkpt lat="47.03788" lon="4.85085">
        <ele>225</ele>
        <time>2014-04-25T14:17:45Z</time>
      </trkpt>
      <trkpt lat="47.03784" lon="4.85082">
        <ele>225</ele>
        <time>2014-04-25T14:17:50Z</time>
      </trkpt>
      <trkpt lat="47.0378" lon="4.8508">
        <ele>225</ele>
        <time>2014-04-25T14:17:55Z</time>
      </trkpt>
      <trkpt lat="47.03775" lon="4.85078">
        <ele>225</ele>
        <time>2014-04-25T14:18:01Z</time>
      </trkpt>
      <trkpt lat="47.03771" lon="4.85073">
        <ele>225</ele>
        <time>2014-04-25T14:18:15Z</time>
      </trkpt>
      <trkpt lat="47.03767" lon="4.85069">
        <ele>225</ele>
        <time>2014-04-25T14:18:20Z</time>
      </trkpt>
      <trkpt lat="47.03765" lon="4.85066">
        <ele>225</ele>
        <time>2014-04-25T14:18:26Z</time>
      </trkpt>
      <trkpt lat="47.03762" lon="4.85065">
        <ele>225</ele>
        <time>2014-04-25T14:18:38Z</time>
      </trkpt>
      <trkpt lat="47.03758" lon="4.85061">
        <ele>225</ele>
        <time>2014-04-25T14:18:45Z</time>
      </trkpt>
      <trkpt lat="47.03753" lon="4.85059">
        <ele>225</ele>
        <time>2014-04-25T14:18:52Z</time>
      </trkpt>
      <trkpt lat="47.03747" lon="4.85061">
        <ele>225</ele>
        <time>2014-04-25T14:18:55Z</time>
      </trkpt>
      <trkpt lat="47.03742" lon="4.85059">
        <ele>225</ele>
        <time>2014-04-25T14:18:59Z</time>
      </trkpt>
      <trkpt lat="47.03738" lon="4.85053">
        <ele>225</ele>
        <time>2014-04-25T14:19:03Z</time>
      </trkpt>
      <trkpt lat="47.03732" lon="4.8505">
        <ele>225</ele>
        <time>2014-04-25T14:19:07Z</time>
      </trkpt>
      <trkpt lat="47.03725" lon="4.85043">
        <ele>225</ele>
        <time>2014-04-25T14:19:45Z</time>
      </trkpt>
      <trkpt lat="47.0372" lon="4.85041">
        <ele>225</ele>
        <time>2014-04-25T14:19:49Z</time>
      </trkpt>
      <trkpt lat="47.03714" lon="4.8503">
        <ele>226</ele>
        <time>2014-04-25T14:19:58Z</time>
      </trkpt>
      <trkpt lat="47.0371" lon="4.85027">
        <ele>226</ele>
        <time>2014-04-25T14:20:01Z</time>
      </trkpt>
      <trkpt lat="47.03707" lon="4.85021">
        <ele>226</ele>
        <time>2014-04-25T14:20:06Z</time>
      </trkpt>
      <trkpt lat="47.03704" lon="4.85015">
        <ele>226</ele>
        <time>2014-04-25T14:20:08Z</time>
      </trkpt>
      <trkpt lat="47.037" lon="4.85009">
        <ele>226</ele>
        <time>2014-04-25T14:20:12Z</time>
      </trkpt>
      <trkpt lat="47.03696" lon="4.85005">
        <ele>226</ele>
        <time>2014-04-25T14:20:16Z</time>
      </trkpt>
      <trkpt lat="47.03691" lon="4.85">
        <ele>226</ele>
        <time>2014-04-25T14:20:20Z</time>
      </trkpt>
      <trkpt lat="47.03686" lon="4.84997">
        <ele>226</ele>
        <time>2014-04-25T14:20:23Z</time>
      </trkpt>
      <trkpt lat="47.03682" lon="4.84992">
        <ele>226</ele>
        <time>2014-04-25T14:20:26Z</time>
      </trkpt>
      <trkpt lat="47.03678" lon="4.84987">
        <ele>226</ele>
        <time>2014-04-25T14:20:30Z</time>
      </trkpt>
      <trkpt lat="47.03674" lon="4.84983">
        <ele>226</ele>
        <time>2014-04-25T14:20:34Z</time>
      </trkpt>
      <trkpt lat="47.03669" lon="4.84979">
        <ele>226</ele>
        <time>2014-04-25T14:20:38Z</time>
      </trkpt>
      <trkpt lat="47.03665" lon="4.84975">
        <ele>226</ele>
        <time>2014-04-25T14:20:42Z</time>
      </trkpt>
      <trkpt lat="47.03659" lon="4.84972">
        <ele>226</ele>
        <time>2014-04-25T14:20:46Z</time>
      </trkpt>
      <trkpt lat="47.03655" lon="4.84969">
        <ele>226</ele>
        <time>2014-04-25T14:20:50Z</time>
      </trkpt>
      <trkpt lat="47.0365" lon="4.84965">
        <ele>226</ele>
        <time>2014-04-25T14:20:54Z</time>
      </trkpt>
      <trkpt lat="47.03645" lon="4.84961">
        <ele>226</ele>
        <time>2014-04-25T14:20:58Z</time>
      </trkpt>
      <trkpt lat="47.0364" lon="4.84958">
        <ele>226</ele>
        <time>2014-04-25T14:21:02Z</time>
      </trkpt>
      <trkpt lat="47.03636" lon="4.84953">
        <ele>226</ele>
        <time>2014-04-25T14:21:06Z</time>
      </trkpt>
      <trkpt lat="47.03632" lon="4.84947">
        <ele>226</ele>
        <time>2014-04-25T14:21:10Z</time>
      </trkpt>
      <trkpt lat="47.03629" lon="4.8494">
        <ele>226</ele>
        <time>2014-04-25T14:21:14Z</time>
      </trkpt>
      <trkpt lat="47.03625" lon="4.84935">
        <ele>226</ele>
        <time>2014-04-25T14:21:18Z</time>
      </trkpt>
      <trkpt lat="47.0362" lon="4.84931">
        <ele>226</ele>
        <time>2014-04-25T14:21:22Z</time>
      </trkpt>
      <trkpt lat="47.03614" lon="4.84928">
        <ele>225</ele>
        <time>2014-04-25T14:21:26Z</time>
      </trkpt>
      <trkpt lat="47.0361" lon="4.84924">
        <ele>225</ele>
        <time>2014-04-25T14:21:30Z</time>
      </trkpt>
      <trkpt lat="47.03606" lon="4.84917">
        <ele>225</ele>
        <time>2014-04-25T14:21:34Z</time>
      </trkpt>
      <trkpt lat="47.03602" lon="4.84911">
        <ele>226</ele>
        <time>2014-04-25T14:21:38Z</time>
      </trkpt>
      <trkpt lat="47.03598" lon="4.84905">
        <ele>226</ele>
        <time>2014-04-25T14:21:42Z</time>
      </trkpt>
      <trkpt lat="47.03595" lon="4.84901">
        <ele>226</ele>
        <time>2014-04-25T14:21:45Z</time>
      </trkpt>
      <trkpt lat="47.0359" lon="4.84897">
        <ele>226</ele>
        <time>2014-04-25T14:21:48Z</time>
      </trkpt>
      <trkpt lat="47.03586" lon="4.84893">
        <ele>226</ele>
        <time>2014-04-25T14:21:51Z</time>
      </trkpt>
      <trkpt lat="47.03583" lon="4.84887">
        <ele>225</ele>
        <time>2014-04-25T14:21:55Z</time>
      </trkpt>
      <trkpt lat="47.03578" lon="4.84883">
        <ele>225</ele>
        <time>2014-04-25T14:22:00Z</time>
      </trkpt>
      <trkpt lat="47.03573" lon="4.84879">
        <ele>224</ele>
        <time>2014-04-25T14:22:04Z</time>
      </trkpt>
      <trkpt lat="47.03569" lon="4.84877">
        <ele>224</ele>
        <time>2014-04-25T14:22:07Z</time>
      </trkpt>
      <trkpt lat="47.03564" lon="4.84875">
        <ele>224</ele>
        <time>2014-04-25T14:22:10Z</time>
      </trkpt>
      <trkpt lat="47.03559" lon="4.84874">
        <ele>224</ele>
        <time>2014-04-25T14:22:14Z</time>
      </trkpt>
      <trkpt lat="47.03553" lon="4.84872">
        <ele>224</ele>
        <time>2014-04-25T14:22:18Z</time>
      </trkpt>
      <trkpt lat="47.03547" lon="4.84872">
        <ele>224</ele>
        <time>2014-04-25T14:22:21Z</time>
      </trkpt>
      <trkpt lat="47.03542" lon="4.84871">
        <ele>224</ele>
        <time>2014-04-25T14:22:25Z</time>
      </trkpt>
      <trkpt lat="47.03536" lon="4.84869">
        <ele>224</ele>
        <time>2014-04-25T14:22:29Z</time>
      </trkpt>
      <trkpt lat="47.03531" lon="4.84867">
        <ele>224</ele>
        <time>2014-04-25T14:22:34Z</time>
      </trkpt>
      <trkpt lat="47.03526" lon="4.84866">
        <ele>224</ele>
        <time>2014-04-25T14:22:37Z</time>
      </trkpt>
      <trkpt lat="47.0352" lon="4.84864">
        <ele>224</ele>
        <time>2014-04-25T14:22:41Z</time>
      </trkpt>
      <trkpt lat="47.03516" lon="4.84863">
        <ele>224</ele>
        <time>2014-04-25T14:22:44Z</time>
      </trkpt>
      <trkpt lat="47.0351" lon="4.84862">
        <ele>224</ele>
        <time>2014-04-25T14:22:48Z</time>
      </trkpt>
      <trkpt lat="47.03506" lon="4.84859">
        <ele>224</ele>
        <time>2014-04-25T14:22:52Z</time>
      </trkpt>
      <trkpt lat="47.03501" lon="4.84855">
        <ele>224</ele>
        <time>2014-04-25T14:22:54Z</time>
      </trkpt>
      <trkpt lat="47.03496" lon="4.84852">
        <ele>224</ele>
        <time>2014-04-25T14:23:00Z</time>
      </trkpt>
      <trkpt lat="47.03492" lon="4.84848">
        <ele>224</ele>
        <time>2014-04-25T14:23:03Z</time>
      </trkpt>
      <trkpt lat="47.03487" lon="4.84847">
        <ele>224</ele>
        <time>2014-04-25T14:23:08Z</time>
      </trkpt>
      <trkpt lat="47.03482" lon="4.84849">
        <ele>224</ele>
        <time>2014-04-25T14:23:11Z</time>
      </trkpt>
      <trkpt lat="47.03476" lon="4.84849">
        <ele>224</ele>
        <time>2014-04-25T14:23:14Z</time>
      </trkpt>
      <trkpt lat="47.0347" lon="4.84847">
        <ele>224</ele>
        <time>2014-04-25T14:23:18Z</time>
      </trkpt>
      <trkpt lat="47.03465" lon="4.84849">
        <ele>224</ele>
        <time>2014-04-25T14:23:21Z</time>
      </trkpt>
      <trkpt lat="47.03461" lon="4.84851">
        <ele>224</ele>
        <time>2014-04-25T14:23:24Z</time>
      </trkpt>
      <trkpt lat="47.03457" lon="4.84845">
        <ele>224</ele>
        <time>2014-04-25T14:23:35Z</time>
      </trkpt>
      <trkpt lat="47.03454" lon="4.84839">
        <ele>224</ele>
        <time>2014-04-25T14:23:38Z</time>
      </trkpt>
      <trkpt lat="47.03451" lon="4.84833">
        <ele>224</ele>
        <time>2014-04-25T14:23:44Z</time>
      </trkpt>
      <trkpt lat="47.03447" lon="4.8483">
        <ele>224</ele>
        <time>2014-04-25T14:23:48Z</time>
      </trkpt>
      <trkpt lat="47.03442" lon="4.84826">
        <ele>224</ele>
        <time>2014-04-25T14:23:52Z</time>
      </trkpt>
      <trkpt lat="47.03438" lon="4.84823">
        <ele>224</ele>
        <time>2014-04-25T14:23:57Z</time>
      </trkpt>
      <trkpt lat="47.03433" lon="4.84818">
        <ele>224</ele>
        <time>2014-04-25T14:24:01Z</time>
      </trkpt>
      <trkpt lat="47.03427" lon="4.84816">
        <ele>224</ele>
        <time>2014-04-25T14:24:04Z</time>
      </trkpt>
      <trkpt lat="47.03421" lon="4.84813">
        <ele>224</ele>
        <time>2014-04-25T14:24:07Z</time>
      </trkpt>
      <trkpt lat="47.03416" lon="4.8481">
        <ele>224</ele>
        <time>2014-04-25T14:24:10Z</time>
      </trkpt>
      <trkpt lat="47.03411" lon="4.84808">
        <ele>223</ele>
        <time>2014-04-25T14:24:14Z</time>
      </trkpt>
      <trkpt lat="47.03406" lon="4.84807">
        <ele>223</ele>
        <time>2014-04-25T14:24:18Z</time>
      </trkpt>
      <trkpt lat="47.03401" lon="4.84806">
        <ele>223</ele>
        <time>2014-04-25T14:24:20Z</time>
      </trkpt>
      <trkpt lat="47.03396" lon="4.84804">
        <ele>223</ele>
        <time>2014-04-25T14:24:24Z</time>
      </trkpt>
      <trkpt lat="47.03393" lon="4.84798">
        <ele>223</ele>
        <time>2014-04-25T14:24:28Z</time>
      </trkpt>
      <trkpt lat="47.03391" lon="4.84792">
        <ele>223</ele>
        <time>2014-04-25T14:24:32Z</time>
      </trkpt>
      <trkpt lat="47.03387" lon="4.84785">
        <ele>223</ele>
        <time>2014-04-25T14:24:37Z</time>
      </trkpt>
      <trkpt lat="47.03381" lon="4.84783">
        <ele>223</ele>
        <time>2014-04-25T14:24:41Z</time>
      </trkpt>
      <trkpt lat="47.03377" lon="4.8478">
        <ele>223</ele>
        <time>2014-04-25T14:24:48Z</time>
      </trkpt>
      <trkpt lat="47.03373" lon="4.84777">
        <ele>223</ele>
        <time>2014-04-25T14:24:51Z</time>
      </trkpt>
      <trkpt lat="47.03368" lon="4.84774">
        <ele>223</ele>
        <time>2014-04-25T14:24:54Z</time>
      </trkpt>
      <trkpt lat="47.03364" lon="4.84768">
        <ele>223</ele>
        <time>2014-04-25T14:24:58Z</time>
      </trkpt>
      <trkpt lat="47.03359" lon="4.84763">
        <ele>223</ele>
        <time>2014-04-25T14:25:01Z</time>
      </trkpt>
      <trkpt lat="47.03354" lon="4.84758">
        <ele>223</ele>
        <time>2014-04-25T14:25:04Z</time>
      </trkpt>
      <trkpt lat="47.03349" lon="4.84756">
        <ele>223</ele>
        <time>2014-04-25T14:25:07Z</time>
      </trkpt>
      <trkpt lat="47.03346" lon="4.84751">
        <ele>223</ele>
        <time>2014-04-25T14:25:11Z</time>
      </trkpt>
      <trkpt lat="47.03344" lon="4.84744">
        <ele>223</ele>
        <time>2014-04-25T14:25:15Z</time>
      </trkpt>
      <trkpt lat="47.03339" lon="4.8474">
        <ele>223</ele>
        <time>2014-04-25T14:25:19Z</time>
      </trkpt>
      <trkpt lat="47.03336" lon="4.84734">
        <ele>223</ele>
        <time>2014-04-25T14:25:24Z</time>
      </trkpt>
      <trkpt lat="47.03332" lon="4.84728">
        <ele>223</ele>
        <time>2014-04-25T14:25:29Z</time>
      </trkpt>
      <trkpt lat="47.03326" lon="4.84728">
        <ele>223</ele>
        <time>2014-04-25T14:25:31Z</time>
      </trkpt>
      <trkpt lat="47.03322" lon="4.84723">
        <ele>223</ele>
        <time>2014-04-25T14:25:35Z</time>
      </trkpt>
      <trkpt lat="47.03317" lon="4.84719">
        <ele>223</ele>
        <time>2014-04-25T14:25:39Z</time>
      </trkpt>
      <trkpt lat="47.03313" lon="4.84715">
        <ele>223</ele>
        <time>2014-04-25T14:25:43Z</time>
      </trkpt>
      <trkpt lat="47.03309" lon="4.84711">
        <ele>223</ele>
        <time>2014-04-25T14:25:47Z</time>
      </trkpt>
      <trkpt lat="47.03305" lon="4.84708">
        <ele>223</ele>
        <time>2014-04-25T14:25:52Z</time>
      </trkpt>
      <trkpt lat="47.033" lon="4.84709">
        <ele>223</ele>
        <time>2014-04-25T14:25:56Z</time>
      </trkpt>
      <trkpt lat="47.03296" lon="4.84706">
        <ele>223</ele>
        <time>2014-04-25T14:26:00Z</time>
      </trkpt>
      <trkpt lat="47.03292" lon="4.84701">
        <ele>223</ele>
        <time>2014-04-25T14:26:05Z</time>
      </trkpt>
      <trkpt lat="47.03288" lon="4.84697">
        <ele>223</ele>
        <time>2014-04-25T14:26:07Z</time>
      </trkpt>
      <trkpt lat="47.03284" lon="4.84692">
        <ele>223</ele>
        <time>2014-04-25T14:26:10Z</time>
      </trkpt>
      <trkpt lat="47.03279" lon="4.84688">
        <ele>223</ele>
        <time>2014-04-25T14:26:14Z</time>
      </trkpt>
      <trkpt lat="47.03275" lon="4.84685">
        <ele>223</ele>
        <time>2014-04-25T14:26:16Z</time>
      </trkpt>
      <trkpt lat="47.03269" lon="4.84684">
        <ele>223</ele>
        <time>2014-04-25T14:26:19Z</time>
      </trkpt>
      <trkpt lat="47.03264" lon="4.84681">
        <ele>223</ele>
        <time>2014-04-25T14:26:23Z</time>
      </trkpt>
      <trkpt lat="47.0326" lon="4.84676">
        <ele>223</ele>
        <time>2014-04-25T14:26:27Z</time>
      </trkpt>
      <trkpt lat="47.03256" lon="4.84671">
        <ele>223</ele>
        <time>2014-04-25T14:26:32Z</time>
      </trkpt>
      <trkpt lat="47.03253" lon="4.84665">
        <ele>223</ele>
        <time>2014-04-25T14:26:35Z</time>
      </trkpt>
      <trkpt lat="47.03251" lon="4.84658">
        <ele>223</ele>
        <time>2014-04-25T14:26:39Z</time>
      </trkpt>
      <trkpt lat="47.03246" lon="4.84655">
        <ele>223</ele>
        <time>2014-04-25T14:26:43Z</time>
      </trkpt>
      <trkpt lat="47.03241" lon="4.84653">
        <ele>223</ele>
        <time>2014-04-25T14:26:46Z</time>
      </trkpt>
      <trkpt lat="47.03237" lon="4.84651">
        <ele>222</ele>
        <time>2014-04-25T14:26:49Z</time>
      </trkpt>
      <trkpt lat="47.03232" lon="4.84648">
        <ele>222</ele>
        <time>2014-04-25T14:26:52Z</time>
      </trkpt>
      <trkpt lat="47.03227" lon="4.84644">
        <ele>222</ele>
        <time>2014-04-25T14:26:57Z</time>
      </trkpt>
      <trkpt lat="47.03224" lon="4.8464">
        <ele>222</ele>
        <time>2014-04-25T14:26:59Z</time>
      </trkpt>
      <trkpt lat="47.0322" lon="4.84634">
        <ele>222</ele>
        <time>2014-04-25T14:27:03Z</time>
      </trkpt>
      <trkpt lat="47.03217" lon="4.84629">
        <ele>222</ele>
        <time>2014-04-25T14:27:07Z</time>
      </trkpt>
      <trkpt lat="47.03212" lon="4.84626">
        <ele>222</ele>
        <time>2014-04-25T14:27:12Z</time>
      </trkpt>
      <trkpt lat="47.03208" lon="4.84621">
        <ele>222</ele>
        <time>2014-04-25T14:27:19Z</time>
      </trkpt>
      <trkpt lat="47.03204" lon="4.84616">
        <ele>222</ele>
        <time>2014-04-25T14:27:21Z</time>
      </trkpt>
      <trkpt lat="47.032" lon="4.84612">
        <ele>222</ele>
        <time>2014-04-25T14:27:24Z</time>
      </trkpt>
      <trkpt lat="47.03198" lon="4.84606">
        <ele>222</ele>
        <time>2014-04-25T14:27:27Z</time>
      </trkpt>
      <trkpt lat="47.03196" lon="4.84598">
        <ele>222</ele>
        <time>2014-04-25T14:27:32Z</time>
      </trkpt>
      <trkpt lat="47.03191" lon="4.84594">
        <ele>222</ele>
        <time>2014-04-25T14:27:35Z</time>
      </trkpt>
      <trkpt lat="47.03186" lon="4.84592">
        <ele>222</ele>
        <time>2014-04-25T14:27:38Z</time>
      </trkpt>
      <trkpt lat="47.03182" lon="4.84585">
        <ele>221</ele>
        <time>2014-04-25T14:27:54Z</time>
      </trkpt>
      <trkpt lat="47.03179" lon="4.84579">
        <ele>222</ele>
        <time>2014-04-25T14:27:57Z</time>
      </trkpt>
      <trkpt lat="47.03174" lon="4.84577">
        <ele>222</ele>
        <time>2014-04-25T14:28:00Z</time>
      </trkpt>
      <trkpt lat="47.03169" lon="4.84572">
        <ele>222</ele>
        <time>2014-04-25T14:28:05Z</time>
      </trkpt>
      <trkpt lat="47.03165" lon="4.84568">
        <ele>221</ele>
        <time>2014-04-25T14:28:07Z</time>
      </trkpt>
      <trkpt lat="47.03162" lon="4.84563">
        <ele>222</ele>
        <time>2014-04-25T14:28:10Z</time>
      </trkpt>
      <trkpt lat="47.03161" lon="4.84556">
        <ele>222</ele>
        <time>2014-04-25T14:28:13Z</time>
      </trkpt>
      <trkpt lat="47.0316" lon="4.84549">
        <ele>222</ele>
        <time>2014-04-25T14:28:16Z</time>
      </trkpt>
      <trkpt lat="47.03158" lon="4.84543">
        <ele>222</ele>
        <time>2014-04-25T14:28:20Z</time>
      </trkpt>
      <trkpt lat="47.03155" lon="4.84538">
        <ele>222</ele>
        <time>2014-04-25T14:28:22Z</time>
      </trkpt>
      <trkpt lat="47.03151" lon="4.84533">
        <ele>222</ele>
        <time>2014-04-25T14:28:26Z</time>
      </trkpt>
      <trkpt lat="47.03147" lon="4.8453">
        <ele>222</ele>
        <time>2014-04-25T14:28:30Z</time>
      </trkpt>
      <trkpt lat="47.03143" lon="4.84526">
        <ele>222</ele>
        <time>2014-04-25T14:28:34Z</time>
      </trkpt>
      <trkpt lat="47.0314" lon="4.84517">
        <ele>222</ele>
        <time>2014-04-25T14:28:37Z</time>
      </trkpt>
      <trkpt lat="47.03136" lon="4.84514">
        <ele>222</ele>
        <time>2014-04-25T14:28:40Z</time>
      </trkpt>
      <trkpt lat="47.03131" lon="4.84514">
        <ele>222</ele>
        <time>2014-04-25T14:28:43Z</time>
      </trkpt>
      <trkpt lat="47.03126" lon="4.84514">
        <ele>222</ele>
        <time>2014-04-25T14:28:46Z</time>
      </trkpt>
      <trkpt lat="47.03122" lon="4.84509">
        <ele>222</ele>
        <time>2014-04-25T14:28:50Z</time>
      </trkpt>
      <trkpt lat="47.03117" lon="4.84504">
        <ele>222</ele>
        <time>2014-04-25T14:28:54Z</time>
      </trkpt>
      <trkpt lat="47.03113" lon="4.84502">
        <ele>222</ele>
        <time>2014-04-25T14:28:57Z</time>
      </trkpt>
      <trkpt lat="47.03108" lon="4.84501">
        <ele>222</ele>
        <time>2014-04-25T14:29:00Z</time>
      </trkpt>
      <trkpt lat="47.03103" lon="4.84499">
        <ele>223</ele>
        <time>2014-04-25T14:29:06Z</time>
      </trkpt>
      <trkpt lat="47.03098" lon="4.84496">
        <ele>222</ele>
        <time>2014-04-25T14:29:10Z</time>
      </trkpt>
      <trkpt lat="47.03094" lon="4.84491">
        <ele>222</ele>
        <time>2014-04-25T14:29:14Z</time>
      </trkpt>
      <trkpt lat="47.0309" lon="4.84487">
        <ele>222</ele>
        <time>2014-04-25T14:29:17Z</time>
      </trkpt>
      <trkpt lat="47.03085" lon="4.84484">
        <ele>222</ele>
        <time>2014-04-25T14:29:22Z</time>
      </trkpt>
      <trkpt lat="47.03081" lon="4.84481">
        <ele>222</ele>
        <time>2014-04-25T14:29:25Z</time>
      </trkpt>
      <trkpt lat="47.03079" lon="4.84474">
        <ele>222</ele>
        <time>2014-04-25T14:29:29Z</time>
      </trkpt>
      <trkpt lat="47.03077" lon="4.84468">
        <ele>222</ele>
        <time>2014-04-25T14:29:34Z</time>
      </trkpt>
      <trkpt lat="47.03071" lon="4.84465">
        <ele>222</ele>
        <time>2014-04-25T14:29:38Z</time>
      </trkpt>
      <trkpt lat="47.03067" lon="4.84463">
        <ele>222</ele>
        <time>2014-04-25T14:29:41Z</time>
      </trkpt>
      <trkpt lat="47.03063" lon="4.8446">
        <ele>222</ele>
        <time>2014-04-25T14:29:44Z</time>
      </trkpt>
      <trkpt lat="47.03058" lon="4.84458">
        <ele>222</ele>
        <time>2014-04-25T14:29:47Z</time>
      </trkpt>
      <trkpt lat="47.03053" lon="4.84456">
        <ele>222</ele>
        <time>2014-04-25T14:29:50Z</time>
      </trkpt>
      <trkpt lat="47.03047" lon="4.84454">
        <ele>222</ele>
        <time>2014-04-25T14:29:54Z</time>
      </trkpt>
      <trkpt lat="47.03043" lon="4.84451">
        <ele>222</ele>
        <time>2014-04-25T14:29:59Z</time>
      </trkpt>
      <trkpt lat="47.03038" lon="4.84449">
        <ele>221</ele>
        <time>2014-04-25T14:30:03Z</time>
      </trkpt>
      <trkpt lat="47.03033" lon="4.84448">
        <ele>221</ele>
        <time>2014-04-25T14:30:07Z</time>
      </trkpt>
      <trkpt lat="47.03028" lon="4.84446">
        <ele>221</ele>
        <time>2014-04-25T14:30:11Z</time>
      </trkpt>
      <trkpt lat="47.03024" lon="4.84441">
        <ele>221</ele>
        <time>2014-04-25T14:30:14Z</time>
      </trkpt>
      <trkpt lat="47.0302" lon="4.84437">
        <ele>221</ele>
        <time>2014-04-25T14:30:17Z</time>
      </trkpt>
      <trkpt lat="47.03015" lon="4.84434">
        <ele>221</ele>
        <time>2014-04-25T14:30:20Z</time>
      </trkpt>
      <trkpt lat="47.03011" lon="4.84429">
        <ele>221</ele>
        <time>2014-04-25T14:30:25Z</time>
      </trkpt>
      <trkpt lat="47.03007" lon="4.84426">
        <ele>221</ele>
        <time>2014-04-25T14:30:29Z</time>
      </trkpt>
      <trkpt lat="47.03002" lon="4.84425">
        <ele>221</ele>
        <time>2014-04-25T14:30:33Z</time>
      </trkpt>
      <trkpt lat="47.02996" lon="4.84425">
        <ele>221</ele>
        <time>2014-04-25T14:30:37Z</time>
      </trkpt>
      <trkpt lat="47.02991" lon="4.84423">
        <ele>221</ele>
        <time>2014-04-25T14:30:40Z</time>
      </trkpt>
      <trkpt lat="47.02986" lon="4.84423">
        <ele>220</ele>
        <time>2014-04-25T14:30:43Z</time>
      </trkpt>
      <trkpt lat="47.02981" lon="4.8442">
        <ele>220</ele>
        <time>2014-04-25T14:30:46Z</time>
      </trkpt>
      <trkpt lat="47.02978" lon="4.84415">
        <ele>220</ele>
        <time>2014-04-25T14:30:51Z</time>
      </trkpt>
      <trkpt lat="47.02974" lon="4.84409">
        <ele>220</ele>
        <time>2014-04-25T14:30:55Z</time>
      </trkpt>
      <trkpt lat="47.02968" lon="4.84404">
        <ele>220</ele>
        <time>2014-04-25T14:30:58Z</time>
      </trkpt>
      <trkpt lat="47.02963" lon="4.844">
        <ele>220</ele>
        <time>2014-04-25T14:31:01Z</time>
      </trkpt>
      <trkpt lat="47.02958" lon="4.84396">
        <ele>220</ele>
        <time>2014-04-25T14:31:04Z</time>
      </trkpt>
      <trkpt lat="47.02953" lon="4.84394">
        <ele>220</ele>
        <time>2014-04-25T14:31:08Z</time>
      </trkpt>
      <trkpt lat="47.0295" lon="4.84388">
        <ele>220</ele>
        <time>2014-04-25T14:31:13Z</time>
      </trkpt>
      <trkpt lat="47.02945" lon="4.84385">
        <ele>220</ele>
        <time>2014-04-25T14:31:18Z</time>
      </trkpt>
      <trkpt lat="47.02941" lon="4.84383">
        <ele>220</ele>
        <time>2014-04-25T14:31:22Z</time>
      </trkpt>
      <trkpt lat="47.02936" lon="4.84379">
        <ele>220</ele>
        <time>2014-04-25T14:31:26Z</time>
      </trkpt>
      <trkpt lat="47.0293" lon="4.84377">
        <ele>220</ele>
        <time>2014-04-25T14:31:29Z</time>
      </trkpt>
      <trkpt lat="47.02926" lon="4.84374">
        <ele>220</ele>
        <time>2014-04-25T14:31:32Z</time>
      </trkpt>
      <trkpt lat="47.02923" lon="4.84368">
        <ele>220</ele>
        <time>2014-04-25T14:31:38Z</time>
      </trkpt>
      <trkpt lat="47.02919" lon="4.84364">
        <ele>220</ele>
        <time>2014-04-25T14:31:43Z</time>
      </trkpt>
      <trkpt lat="47.02913" lon="4.84362">
        <ele>219</ele>
        <time>2014-04-25T14:31:46Z</time>
      </trkpt>
      <trkpt lat="47.02909" lon="4.84358">
        <ele>219</ele>
        <time>2014-04-25T14:31:49Z</time>
      </trkpt>
      <trkpt lat="47.02903" lon="4.84355">
        <ele>219</ele>
        <time>2014-04-25T14:31:53Z</time>
      </trkpt>
      <trkpt lat="47.02898" lon="4.84355">
        <ele>219</ele>
        <time>2014-04-25T14:31:57Z</time>
      </trkpt>
      <trkpt lat="47.02892" lon="4.84355">
        <ele>219</ele>
        <time>2014-04-25T14:32:02Z</time>
      </trkpt>
      <trkpt lat="47.02887" lon="4.84356">
        <ele>219</ele>
        <time>2014-04-25T14:32:08Z</time>
      </trkpt>
      <trkpt lat="47.02882" lon="4.84358">
        <ele>219</ele>
        <time>2014-04-25T14:32:11Z</time>
      </trkpt>
      <trkpt lat="47.02877" lon="4.84357">
        <ele>219</ele>
        <time>2014-04-25T14:32:15Z</time>
      </trkpt>
      <trkpt lat="47.02873" lon="4.84358">
        <ele>219</ele>
        <time>2014-04-25T14:32:20Z</time>
      </trkpt>
      <trkpt lat="47.02868" lon="4.84359">
        <ele>219</ele>
        <time>2014-04-25T14:32:26Z</time>
      </trkpt>
      <trkpt lat="47.02863" lon="4.84339">
        <ele>219</ele>
        <time>2014-04-25T14:33:10Z</time>
      </trkpt>
      <trkpt lat="47.02835" lon="4.84268">
        <ele>219</ele>
        <time>2014-04-25T14:34:00Z</time>
      </trkpt>
      <trkpt lat="47.02803" lon="4.84197">
        <ele>220</ele>
        <time>2014-04-25T14:34:30Z</time>
      </trkpt>
      <trkpt lat="47.02739" lon="4.84058">
        <ele>222</ele>
        <time>2014-04-25T14:35:00Z</time>
      </trkpt>
      <trkpt lat="47.02756" lon="4.83966">
        <ele>221</ele>
        <time>2014-04-25T14:35:30Z</time>
      </trkpt>
      <trkpt lat="47.02732" lon="4.83941">
        <ele>221</ele>
        <time>2014-04-25T14:36:00Z</time>
      </trkpt>
      <trkpt lat="47.02704" lon="4.83936">
        <ele>222</ele>
        <time>2014-04-25T14:36:30Z</time>
      </trkpt>
      <trkpt lat="47.02566" lon="4.83879">
        <ele>223</ele>
        <time>2014-04-25T14:37:00Z</time>
      </trkpt>
      <trkpt lat="47.02492" lon="4.83851">
        <ele>222</ele>
        <time>2014-04-25T14:37:30Z</time>
      </trkpt>
      <trkpt lat="47.02445" lon="4.83843">
        <ele>223</ele>
        <time>2014-04-25T14:38:00Z</time>
      </trkpt>
      <trkpt lat="47.02459" lon="4.83789">
        <ele>224</ele>
        <time>2014-04-25T14:38:30Z</time>
      </trkpt>
      <trkpt lat="47.0248" lon="4.83745">
        <ele>223</ele>
        <time>2014-04-25T14:39:00Z</time>
      </trkpt>
      <trkpt lat="47.02463" lon="4.8371">
        <ele>223</ele>
        <time>2014-04-25T14:39:30Z</time>
      </trkpt>
      <trkpt lat="47.02451" lon="4.83656">
        <ele>222</ele>
        <time>2014-04-25T14:40:00Z</time>
      </trkpt>
      <trkpt lat="47.02418" lon="4.83613">
        <ele>222</ele>
        <time>2014-04-25T14:40:30Z</time>
      </trkpt>
      <trkpt lat="47.02395" lon="4.83601">
        <ele>221</ele>
        <time>2014-04-25T14:41:00Z</time>
      </trkpt>
    </trkseg>
  </trk>
</gpx>